<?xml version="1.0" encoding="UTF-8" standalone="no" ?>
<gpx xmlns="http://www.topografix.com/GPX/1/1" xmlns:xsi="http://www.w3.org/2001/XMLSchema-instance" xsi:schemaLocation="http://www.topografix.com/GPX/1/1 http://www.topografix.com/GPX/1/1/gpx.xsd" version="1.1" creator="VisuGPX - https://www.visugpx.com">
  <metadata>
    <name>Continvoir 2020-08-27 09_07</name>
  </metadata>
  <trk>
    <name><![CDATA[Hiking_2020-08-27T09_07_53 on AllTrails]]></name>
    <trkseg>
      <trkpt lat="47.38653" lon="0.20978">
        <ele>63</ele>
        <time>2020-08-27T07:07:56Z</time>
      </trkpt>
      <trkpt lat="47.38653" lon="0.20978">
        <ele>63</ele>
        <time>2020-08-27T07:07:57Z</time>
      </trkpt>
      <trkpt lat="47.38652" lon="0.20981">
        <ele>63</ele>
        <time>2020-08-27T07:07:59Z</time>
      </trkpt>
      <trkpt lat="47.38651" lon="0.20984">
        <ele>63</ele>
        <time>2020-08-27T07:08:01Z</time>
      </trkpt>
      <trkpt lat="47.38651" lon="0.20987">
        <ele>63</ele>
        <time>2020-08-27T07:08:03Z</time>
      </trkpt>
      <trkpt lat="47.38651" lon="0.2099">
        <ele>63</ele>
        <time>2020-08-27T07:08:05Z</time>
      </trkpt>
      <trkpt lat="47.3865" lon="0.20993">
        <ele>63</ele>
        <time>2020-08-27T07:08:07Z</time>
      </trkpt>
      <trkpt lat="47.38651" lon="0.20996">
        <ele>63</ele>
        <time>2020-08-27T07:08:09Z</time>
      </trkpt>
      <trkpt lat="47.38651" lon="0.20999">
        <ele>63</ele>
        <time>2020-08-27T07:08:11Z</time>
      </trkpt>
      <trkpt lat="47.3865" lon="0.21002">
        <ele>64</ele>
        <time>2020-08-27T07:08:13Z</time>
      </trkpt>
      <trkpt lat="47.38652" lon="0.21005">
        <ele>64</ele>
        <time>2020-08-27T07:08:17Z</time>
      </trkpt>
      <trkpt lat="47.38652" lon="0.21002">
        <ele>64</ele>
        <time>2020-08-27T07:08:23Z</time>
      </trkpt>
      <trkpt lat="47.3865" lon="0.21001">
        <ele>64</ele>
        <time>2020-08-27T07:08:26Z</time>
      </trkpt>
      <trkpt lat="47.38649" lon="0.20998">
        <ele>63</ele>
        <time>2020-08-27T07:08:30Z</time>
      </trkpt>
      <trkpt lat="47.38651" lon="0.21">
        <ele>63</ele>
        <time>2020-08-27T07:08:34Z</time>
      </trkpt>
      <trkpt lat="47.38651" lon="0.21004">
        <ele>64</ele>
        <time>2020-08-27T07:08:38Z</time>
      </trkpt>
      <trkpt lat="47.38651" lon="0.21008">
        <ele>64</ele>
        <time>2020-08-27T07:08:40Z</time>
      </trkpt>
      <trkpt lat="47.38652" lon="0.21011">
        <ele>64</ele>
        <time>2020-08-27T07:08:42Z</time>
      </trkpt>
      <trkpt lat="47.38653" lon="0.21014">
        <ele>64</ele>
        <time>2020-08-27T07:08:44Z</time>
      </trkpt>
      <trkpt lat="47.38651" lon="0.21015">
        <ele>64</ele>
        <time>2020-08-27T07:08:54Z</time>
      </trkpt>
      <trkpt lat="47.3865" lon="0.21018">
        <ele>64</ele>
        <time>2020-08-27T07:08:59Z</time>
      </trkpt>
      <trkpt lat="47.38649" lon="0.2102">
        <ele>64</ele>
        <time>2020-08-27T07:09:02Z</time>
      </trkpt>
      <trkpt lat="47.38648" lon="0.21023">
        <ele>64</ele>
        <time>2020-08-27T07:09:05Z</time>
      </trkpt>
      <trkpt lat="47.38647" lon="0.21026">
        <ele>64</ele>
        <time>2020-08-27T07:09:07Z</time>
      </trkpt>
      <trkpt lat="47.38647" lon="0.21029">
        <ele>64</ele>
        <time>2020-08-27T07:09:09Z</time>
      </trkpt>
      <trkpt lat="47.38646" lon="0.21032">
        <ele>64</ele>
        <time>2020-08-27T07:09:11Z</time>
      </trkpt>
      <trkpt lat="47.38645" lon="0.21036">
        <ele>64</ele>
        <time>2020-08-27T07:09:13Z</time>
      </trkpt>
      <trkpt lat="47.38645" lon="0.21039">
        <ele>64</ele>
        <time>2020-08-27T07:09:15Z</time>
      </trkpt>
      <trkpt lat="47.38644" lon="0.21043">
        <ele>64</ele>
        <time>2020-08-27T07:09:17Z</time>
      </trkpt>
      <trkpt lat="47.38643" lon="0.21046">
        <ele>64</ele>
        <time>2020-08-27T07:09:20Z</time>
      </trkpt>
      <trkpt lat="47.38642" lon="0.21049">
        <ele>64</ele>
        <time>2020-08-27T07:09:22Z</time>
      </trkpt>
      <trkpt lat="47.38642" lon="0.21052">
        <ele>64</ele>
        <time>2020-08-27T07:09:24Z</time>
      </trkpt>
      <trkpt lat="47.38642" lon="0.21055">
        <ele>64</ele>
        <time>2020-08-27T07:09:26Z</time>
      </trkpt>
      <trkpt lat="47.38641" lon="0.21059">
        <ele>64</ele>
        <time>2020-08-27T07:09:28Z</time>
      </trkpt>
      <trkpt lat="47.3864" lon="0.21063">
        <ele>64</ele>
        <time>2020-08-27T07:09:30Z</time>
      </trkpt>
      <trkpt lat="47.38639" lon="0.21067">
        <ele>65</ele>
        <time>2020-08-27T07:09:33Z</time>
      </trkpt>
      <trkpt lat="47.38637" lon="0.21069">
        <ele>65</ele>
        <time>2020-08-27T07:09:35Z</time>
      </trkpt>
      <trkpt lat="47.38636" lon="0.21072">
        <ele>65</ele>
        <time>2020-08-27T07:09:37Z</time>
      </trkpt>
      <trkpt lat="47.38635" lon="0.21073">
        <ele>65</ele>
        <time>2020-08-27T07:09:39Z</time>
      </trkpt>
      <trkpt lat="47.38633" lon="0.21076">
        <ele>65</ele>
        <time>2020-08-27T07:09:42Z</time>
      </trkpt>
      <trkpt lat="47.38633" lon="0.21079">
        <ele>65</ele>
        <time>2020-08-27T07:09:44Z</time>
      </trkpt>
      <trkpt lat="47.38632" lon="0.21082">
        <ele>65</ele>
        <time>2020-08-27T07:09:46Z</time>
      </trkpt>
      <trkpt lat="47.3863" lon="0.21083">
        <ele>65</ele>
        <time>2020-08-27T07:09:48Z</time>
      </trkpt>
      <trkpt lat="47.38629" lon="0.21086">
        <ele>65</ele>
        <time>2020-08-27T07:09:51Z</time>
      </trkpt>
      <trkpt lat="47.38628" lon="0.21089">
        <ele>65</ele>
        <time>2020-08-27T07:09:54Z</time>
      </trkpt>
      <trkpt lat="47.38627" lon="0.21093">
        <ele>65</ele>
        <time>2020-08-27T07:09:57Z</time>
      </trkpt>
      <trkpt lat="47.38626" lon="0.21096">
        <ele>65</ele>
        <time>2020-08-27T07:09:59Z</time>
      </trkpt>
      <trkpt lat="47.38625" lon="0.21099">
        <ele>65</ele>
        <time>2020-08-27T07:10:01Z</time>
      </trkpt>
      <trkpt lat="47.38625" lon="0.21101">
        <ele>65</ele>
        <time>2020-08-27T07:10:03Z</time>
      </trkpt>
      <trkpt lat="47.38625" lon="0.21105">
        <ele>65</ele>
        <time>2020-08-27T07:10:05Z</time>
      </trkpt>
      <trkpt lat="47.38625" lon="0.21107">
        <ele>65</ele>
        <time>2020-08-27T07:10:07Z</time>
      </trkpt>
      <trkpt lat="47.38624" lon="0.21111">
        <ele>65</ele>
        <time>2020-08-27T07:10:10Z</time>
      </trkpt>
      <trkpt lat="47.38623" lon="0.21114">
        <ele>65</ele>
        <time>2020-08-27T07:10:13Z</time>
      </trkpt>
      <trkpt lat="47.38622" lon="0.21118">
        <ele>65</ele>
        <time>2020-08-27T07:10:16Z</time>
      </trkpt>
      <trkpt lat="47.38622" lon="0.21121">
        <ele>65</ele>
        <time>2020-08-27T07:10:18Z</time>
      </trkpt>
      <trkpt lat="47.38621" lon="0.21124">
        <ele>65</ele>
        <time>2020-08-27T07:10:20Z</time>
      </trkpt>
      <trkpt lat="47.38621" lon="0.21127">
        <ele>65</ele>
        <time>2020-08-27T07:10:22Z</time>
      </trkpt>
      <trkpt lat="47.3862" lon="0.2113">
        <ele>66</ele>
        <time>2020-08-27T07:10:24Z</time>
      </trkpt>
      <trkpt lat="47.3862" lon="0.21134">
        <ele>66</ele>
        <time>2020-08-27T07:10:26Z</time>
      </trkpt>
      <trkpt lat="47.3862" lon="0.21137">
        <ele>66</ele>
        <time>2020-08-27T07:10:28Z</time>
      </trkpt>
      <trkpt lat="47.38619" lon="0.2114">
        <ele>66</ele>
        <time>2020-08-27T07:10:30Z</time>
      </trkpt>
      <trkpt lat="47.38619" lon="0.21143">
        <ele>66</ele>
        <time>2020-08-27T07:10:32Z</time>
      </trkpt>
      <trkpt lat="47.38618" lon="0.21145">
        <ele>66</ele>
        <time>2020-08-27T07:10:34Z</time>
      </trkpt>
      <trkpt lat="47.38616" lon="0.21147">
        <ele>66</ele>
        <time>2020-08-27T07:10:36Z</time>
      </trkpt>
      <trkpt lat="47.38615" lon="0.21148">
        <ele>67</ele>
        <time>2020-08-27T07:10:38Z</time>
      </trkpt>
      <trkpt lat="47.38612" lon="0.21149">
        <ele>67</ele>
        <time>2020-08-27T07:10:41Z</time>
      </trkpt>
      <trkpt lat="47.3861" lon="0.21149">
        <ele>67</ele>
        <time>2020-08-27T07:10:43Z</time>
      </trkpt>
      <trkpt lat="47.38608" lon="0.21149">
        <ele>67</ele>
        <time>2020-08-27T07:10:45Z</time>
      </trkpt>
      <trkpt lat="47.38606" lon="0.21148">
        <ele>67</ele>
        <time>2020-08-27T07:10:47Z</time>
      </trkpt>
      <trkpt lat="47.38603" lon="0.21149">
        <ele>67</ele>
        <time>2020-08-27T07:10:49Z</time>
      </trkpt>
      <trkpt lat="47.386" lon="0.21148">
        <ele>66</ele>
        <time>2020-08-27T07:10:51Z</time>
      </trkpt>
      <trkpt lat="47.38597" lon="0.21148">
        <ele>66</ele>
        <time>2020-08-27T07:10:53Z</time>
      </trkpt>
      <trkpt lat="47.38595" lon="0.21147">
        <ele>66</ele>
        <time>2020-08-27T07:10:55Z</time>
      </trkpt>
      <trkpt lat="47.38592" lon="0.21146">
        <ele>66</ele>
        <time>2020-08-27T07:10:57Z</time>
      </trkpt>
      <trkpt lat="47.38589" lon="0.21146">
        <ele>66</ele>
        <time>2020-08-27T07:10:59Z</time>
      </trkpt>
      <trkpt lat="47.38587" lon="0.21145">
        <ele>66</ele>
        <time>2020-08-27T07:11:01Z</time>
      </trkpt>
      <trkpt lat="47.38584" lon="0.21146">
        <ele>66</ele>
        <time>2020-08-27T07:11:03Z</time>
      </trkpt>
      <trkpt lat="47.38582" lon="0.21146">
        <ele>66</ele>
        <time>2020-08-27T07:11:05Z</time>
      </trkpt>
      <trkpt lat="47.3858" lon="0.21146">
        <ele>66</ele>
        <time>2020-08-27T07:11:07Z</time>
      </trkpt>
      <trkpt lat="47.38577" lon="0.21146">
        <ele>65</ele>
        <time>2020-08-27T07:11:09Z</time>
      </trkpt>
      <trkpt lat="47.38575" lon="0.21146">
        <ele>65</ele>
        <time>2020-08-27T07:11:11Z</time>
      </trkpt>
      <trkpt lat="47.38572" lon="0.21146">
        <ele>65</ele>
        <time>2020-08-27T07:11:13Z</time>
      </trkpt>
      <trkpt lat="47.38569" lon="0.21146">
        <ele>65</ele>
        <time>2020-08-27T07:11:15Z</time>
      </trkpt>
      <trkpt lat="47.38567" lon="0.21145">
        <ele>65</ele>
        <time>2020-08-27T07:11:17Z</time>
      </trkpt>
      <trkpt lat="47.38564" lon="0.21145">
        <ele>65</ele>
        <time>2020-08-27T07:11:19Z</time>
      </trkpt>
      <trkpt lat="47.38562" lon="0.21145">
        <ele>65</ele>
        <time>2020-08-27T07:11:21Z</time>
      </trkpt>
      <trkpt lat="47.38559" lon="0.21144">
        <ele>65</ele>
        <time>2020-08-27T07:11:23Z</time>
      </trkpt>
      <trkpt lat="47.38558" lon="0.21144">
        <ele>65</ele>
        <time>2020-08-27T07:11:26Z</time>
      </trkpt>
      <trkpt lat="47.38556" lon="0.21145">
        <ele>65</ele>
        <time>2020-08-27T07:11:29Z</time>
      </trkpt>
      <trkpt lat="47.38554" lon="0.21145">
        <ele>65</ele>
        <time>2020-08-27T07:11:31Z</time>
      </trkpt>
      <trkpt lat="47.38552" lon="0.21144">
        <ele>65</ele>
        <time>2020-08-27T07:11:33Z</time>
      </trkpt>
      <trkpt lat="47.3855" lon="0.21145">
        <ele>65</ele>
        <time>2020-08-27T07:11:35Z</time>
      </trkpt>
      <trkpt lat="47.38547" lon="0.21146">
        <ele>65</ele>
        <time>2020-08-27T07:11:37Z</time>
      </trkpt>
      <trkpt lat="47.38545" lon="0.21146">
        <ele>65</ele>
        <time>2020-08-27T07:11:39Z</time>
      </trkpt>
      <trkpt lat="47.38543" lon="0.21146">
        <ele>65</ele>
        <time>2020-08-27T07:11:41Z</time>
      </trkpt>
      <trkpt lat="47.3854" lon="0.21147">
        <ele>65</ele>
        <time>2020-08-27T07:11:43Z</time>
      </trkpt>
      <trkpt lat="47.38536" lon="0.21146">
        <ele>65</ele>
        <time>2020-08-27T07:11:45Z</time>
      </trkpt>
      <trkpt lat="47.38534" lon="0.21147">
        <ele>65</ele>
        <time>2020-08-27T07:11:47Z</time>
      </trkpt>
      <trkpt lat="47.38531" lon="0.21147">
        <ele>65</ele>
        <time>2020-08-27T07:11:49Z</time>
      </trkpt>
      <trkpt lat="47.38528" lon="0.21148">
        <ele>65</ele>
        <time>2020-08-27T07:11:51Z</time>
      </trkpt>
      <trkpt lat="47.38525" lon="0.21149">
        <ele>65</ele>
        <time>2020-08-27T07:11:53Z</time>
      </trkpt>
      <trkpt lat="47.38522" lon="0.21149">
        <ele>65</ele>
        <time>2020-08-27T07:11:55Z</time>
      </trkpt>
      <trkpt lat="47.3852" lon="0.21151">
        <ele>65</ele>
        <time>2020-08-27T07:11:57Z</time>
      </trkpt>
      <trkpt lat="47.38517" lon="0.21151">
        <ele>65</ele>
        <time>2020-08-27T07:11:59Z</time>
      </trkpt>
      <trkpt lat="47.38514" lon="0.21152">
        <ele>65</ele>
        <time>2020-08-27T07:12:01Z</time>
      </trkpt>
      <trkpt lat="47.38512" lon="0.21153">
        <ele>65</ele>
        <time>2020-08-27T07:12:03Z</time>
      </trkpt>
      <trkpt lat="47.38509" lon="0.21154">
        <ele>65</ele>
        <time>2020-08-27T07:12:05Z</time>
      </trkpt>
      <trkpt lat="47.38507" lon="0.21155">
        <ele>64</ele>
        <time>2020-08-27T07:12:07Z</time>
      </trkpt>
      <trkpt lat="47.38504" lon="0.21155">
        <ele>64</ele>
        <time>2020-08-27T07:12:09Z</time>
      </trkpt>
      <trkpt lat="47.38502" lon="0.21156">
        <ele>64</ele>
        <time>2020-08-27T07:12:11Z</time>
      </trkpt>
      <trkpt lat="47.38499" lon="0.21157">
        <ele>64</ele>
        <time>2020-08-27T07:12:13Z</time>
      </trkpt>
      <trkpt lat="47.38496" lon="0.21158">
        <ele>64</ele>
        <time>2020-08-27T07:12:15Z</time>
      </trkpt>
      <trkpt lat="47.38494" lon="0.21159">
        <ele>64</ele>
        <time>2020-08-27T07:12:17Z</time>
      </trkpt>
      <trkpt lat="47.3849" lon="0.21159">
        <ele>64</ele>
        <time>2020-08-27T07:12:19Z</time>
      </trkpt>
      <trkpt lat="47.38488" lon="0.2116">
        <ele>64</ele>
        <time>2020-08-27T07:12:21Z</time>
      </trkpt>
      <trkpt lat="47.38485" lon="0.2116">
        <ele>64</ele>
        <time>2020-08-27T07:12:23Z</time>
      </trkpt>
      <trkpt lat="47.38482" lon="0.2116">
        <ele>64</ele>
        <time>2020-08-27T07:12:25Z</time>
      </trkpt>
      <trkpt lat="47.3848" lon="0.21161">
        <ele>64</ele>
        <time>2020-08-27T07:12:27Z</time>
      </trkpt>
      <trkpt lat="47.38477" lon="0.21162">
        <ele>64</ele>
        <time>2020-08-27T07:12:29Z</time>
      </trkpt>
      <trkpt lat="47.38475" lon="0.21163">
        <ele>64</ele>
        <time>2020-08-27T07:12:31Z</time>
      </trkpt>
      <trkpt lat="47.38473" lon="0.21164">
        <ele>64</ele>
        <time>2020-08-27T07:12:33Z</time>
      </trkpt>
      <trkpt lat="47.3847" lon="0.21165">
        <ele>63</ele>
        <time>2020-08-27T07:12:35Z</time>
      </trkpt>
      <trkpt lat="47.38468" lon="0.21166">
        <ele>63</ele>
        <time>2020-08-27T07:12:37Z</time>
      </trkpt>
      <trkpt lat="47.38465" lon="0.21166">
        <ele>63</ele>
        <time>2020-08-27T07:12:39Z</time>
      </trkpt>
      <trkpt lat="47.38462" lon="0.21167">
        <ele>63</ele>
        <time>2020-08-27T07:12:41Z</time>
      </trkpt>
      <trkpt lat="47.38459" lon="0.21168">
        <ele>63</ele>
        <time>2020-08-27T07:12:43Z</time>
      </trkpt>
      <trkpt lat="47.38457" lon="0.21168">
        <ele>62</ele>
        <time>2020-08-27T07:12:45Z</time>
      </trkpt>
      <trkpt lat="47.38454" lon="0.21169">
        <ele>62</ele>
        <time>2020-08-27T07:12:47Z</time>
      </trkpt>
      <trkpt lat="47.38451" lon="0.2117">
        <ele>62</ele>
        <time>2020-08-27T07:12:49Z</time>
      </trkpt>
      <trkpt lat="47.38449" lon="0.21169">
        <ele>62</ele>
        <time>2020-08-27T07:12:51Z</time>
      </trkpt>
      <trkpt lat="47.38446" lon="0.21167">
        <ele>62</ele>
        <time>2020-08-27T07:12:53Z</time>
      </trkpt>
      <trkpt lat="47.38444" lon="0.21167">
        <ele>61</ele>
        <time>2020-08-27T07:12:55Z</time>
      </trkpt>
      <trkpt lat="47.38442" lon="0.21166">
        <ele>61</ele>
        <time>2020-08-27T07:12:57Z</time>
      </trkpt>
      <trkpt lat="47.38439" lon="0.21166">
        <ele>61</ele>
        <time>2020-08-27T07:12:59Z</time>
      </trkpt>
      <trkpt lat="47.38437" lon="0.21167">
        <ele>61</ele>
        <time>2020-08-27T07:13:01Z</time>
      </trkpt>
      <trkpt lat="47.38435" lon="0.21168">
        <ele>61</ele>
        <time>2020-08-27T07:13:03Z</time>
      </trkpt>
      <trkpt lat="47.38432" lon="0.21168">
        <ele>61</ele>
        <time>2020-08-27T07:13:05Z</time>
      </trkpt>
      <trkpt lat="47.3843" lon="0.21169">
        <ele>61</ele>
        <time>2020-08-27T07:13:07Z</time>
      </trkpt>
      <trkpt lat="47.38427" lon="0.2117">
        <ele>61</ele>
        <time>2020-08-27T07:13:09Z</time>
      </trkpt>
      <trkpt lat="47.38425" lon="0.21171">
        <ele>61</ele>
        <time>2020-08-27T07:13:11Z</time>
      </trkpt>
      <trkpt lat="47.38423" lon="0.21171">
        <ele>61</ele>
        <time>2020-08-27T07:13:13Z</time>
      </trkpt>
      <trkpt lat="47.38421" lon="0.21173">
        <ele>61</ele>
        <time>2020-08-27T07:13:15Z</time>
      </trkpt>
      <trkpt lat="47.38418" lon="0.21174">
        <ele>61</ele>
        <time>2020-08-27T07:13:17Z</time>
      </trkpt>
      <trkpt lat="47.38416" lon="0.21174">
        <ele>61</ele>
        <time>2020-08-27T07:13:19Z</time>
      </trkpt>
      <trkpt lat="47.38414" lon="0.21176">
        <ele>61</ele>
        <time>2020-08-27T07:13:21Z</time>
      </trkpt>
      <trkpt lat="47.38411" lon="0.21177">
        <ele>61</ele>
        <time>2020-08-27T07:13:23Z</time>
      </trkpt>
      <trkpt lat="47.38409" lon="0.21177">
        <ele>61</ele>
        <time>2020-08-27T07:13:25Z</time>
      </trkpt>
      <trkpt lat="47.38407" lon="0.21178">
        <ele>61</ele>
        <time>2020-08-27T07:13:27Z</time>
      </trkpt>
      <trkpt lat="47.38404" lon="0.21179">
        <ele>61</ele>
        <time>2020-08-27T07:13:29Z</time>
      </trkpt>
      <trkpt lat="47.38402" lon="0.21181">
        <ele>61</ele>
        <time>2020-08-27T07:13:31Z</time>
      </trkpt>
      <trkpt lat="47.38399" lon="0.21182">
        <ele>61</ele>
        <time>2020-08-27T07:13:33Z</time>
      </trkpt>
      <trkpt lat="47.38397" lon="0.21183">
        <ele>61</ele>
        <time>2020-08-27T07:13:35Z</time>
      </trkpt>
      <trkpt lat="47.38395" lon="0.21184">
        <ele>61</ele>
        <time>2020-08-27T07:13:37Z</time>
      </trkpt>
      <trkpt lat="47.38393" lon="0.21185">
        <ele>61</ele>
        <time>2020-08-27T07:13:39Z</time>
      </trkpt>
      <trkpt lat="47.3839" lon="0.21186">
        <ele>61</ele>
        <time>2020-08-27T07:13:41Z</time>
      </trkpt>
      <trkpt lat="47.38388" lon="0.21187">
        <ele>61</ele>
        <time>2020-08-27T07:13:43Z</time>
      </trkpt>
      <trkpt lat="47.38386" lon="0.21189">
        <ele>62</ele>
        <time>2020-08-27T07:13:45Z</time>
      </trkpt>
      <trkpt lat="47.38384" lon="0.2119">
        <ele>62</ele>
        <time>2020-08-27T07:13:47Z</time>
      </trkpt>
      <trkpt lat="47.38381" lon="0.21191">
        <ele>62</ele>
        <time>2020-08-27T07:13:49Z</time>
      </trkpt>
      <trkpt lat="47.38379" lon="0.21193">
        <ele>62</ele>
        <time>2020-08-27T07:13:51Z</time>
      </trkpt>
      <trkpt lat="47.38376" lon="0.21194">
        <ele>62</ele>
        <time>2020-08-27T07:13:53Z</time>
      </trkpt>
      <trkpt lat="47.38374" lon="0.21197">
        <ele>63</ele>
        <time>2020-08-27T07:13:55Z</time>
      </trkpt>
      <trkpt lat="47.38372" lon="0.21198">
        <ele>63</ele>
        <time>2020-08-27T07:13:57Z</time>
      </trkpt>
      <trkpt lat="47.3837" lon="0.21199">
        <ele>63</ele>
        <time>2020-08-27T07:13:59Z</time>
      </trkpt>
      <trkpt lat="47.38367" lon="0.21199">
        <ele>63</ele>
        <time>2020-08-27T07:14:01Z</time>
      </trkpt>
      <trkpt lat="47.38365" lon="0.212">
        <ele>63</ele>
        <time>2020-08-27T07:14:03Z</time>
      </trkpt>
      <trkpt lat="47.38362" lon="0.21201">
        <ele>64</ele>
        <time>2020-08-27T07:14:05Z</time>
      </trkpt>
      <trkpt lat="47.3836" lon="0.21201">
        <ele>64</ele>
        <time>2020-08-27T07:14:07Z</time>
      </trkpt>
      <trkpt lat="47.38358" lon="0.21199">
        <ele>64</ele>
        <time>2020-08-27T07:14:09Z</time>
      </trkpt>
      <trkpt lat="47.38355" lon="0.21198">
        <ele>64</ele>
        <time>2020-08-27T07:14:11Z</time>
      </trkpt>
      <trkpt lat="47.38353" lon="0.21196">
        <ele>65</ele>
        <time>2020-08-27T07:14:13Z</time>
      </trkpt>
      <trkpt lat="47.38351" lon="0.21194">
        <ele>65</ele>
        <time>2020-08-27T07:14:15Z</time>
      </trkpt>
      <trkpt lat="47.38349" lon="0.21191">
        <ele>65</ele>
        <time>2020-08-27T07:14:17Z</time>
      </trkpt>
      <trkpt lat="47.38347" lon="0.21188">
        <ele>65</ele>
        <time>2020-08-27T07:14:19Z</time>
      </trkpt>
      <trkpt lat="47.38345" lon="0.21186">
        <ele>65</ele>
        <time>2020-08-27T07:14:22Z</time>
      </trkpt>
      <trkpt lat="47.38345" lon="0.21183">
        <ele>65</ele>
        <time>2020-08-27T07:14:24Z</time>
      </trkpt>
      <trkpt lat="47.38344" lon="0.21179">
        <ele>65</ele>
        <time>2020-08-27T07:14:27Z</time>
      </trkpt>
      <trkpt lat="47.38345" lon="0.21176">
        <ele>65</ele>
        <time>2020-08-27T07:14:33Z</time>
      </trkpt>
      <trkpt lat="47.38344" lon="0.21173">
        <ele>65</ele>
        <time>2020-08-27T07:14:39Z</time>
      </trkpt>
      <trkpt lat="47.38343" lon="0.2117">
        <ele>65</ele>
        <time>2020-08-27T07:14:42Z</time>
      </trkpt>
      <trkpt lat="47.38343" lon="0.21166">
        <ele>65</ele>
        <time>2020-08-27T07:14:44Z</time>
      </trkpt>
      <trkpt lat="47.38342" lon="0.21163">
        <ele>65</ele>
        <time>2020-08-27T07:14:46Z</time>
      </trkpt>
      <trkpt lat="47.38341" lon="0.2116">
        <ele>65</ele>
        <time>2020-08-27T07:14:48Z</time>
      </trkpt>
      <trkpt lat="47.38341" lon="0.21157">
        <ele>65</ele>
        <time>2020-08-27T07:14:50Z</time>
      </trkpt>
      <trkpt lat="47.3834" lon="0.21154">
        <ele>65</ele>
        <time>2020-08-27T07:14:52Z</time>
      </trkpt>
      <trkpt lat="47.3834" lon="0.21151">
        <ele>65</ele>
        <time>2020-08-27T07:14:54Z</time>
      </trkpt>
      <trkpt lat="47.3834" lon="0.21147">
        <ele>66</ele>
        <time>2020-08-27T07:14:56Z</time>
      </trkpt>
      <trkpt lat="47.3834" lon="0.21144">
        <ele>66</ele>
        <time>2020-08-27T07:14:58Z</time>
      </trkpt>
      <trkpt lat="47.38338" lon="0.21141">
        <ele>66</ele>
        <time>2020-08-27T07:15:00Z</time>
      </trkpt>
      <trkpt lat="47.38337" lon="0.21138">
        <ele>66</ele>
        <time>2020-08-27T07:15:02Z</time>
      </trkpt>
      <trkpt lat="47.38336" lon="0.21135">
        <ele>66</ele>
        <time>2020-08-27T07:15:04Z</time>
      </trkpt>
      <trkpt lat="47.38335" lon="0.21132">
        <ele>66</ele>
        <time>2020-08-27T07:15:06Z</time>
      </trkpt>
      <trkpt lat="47.38336" lon="0.21129">
        <ele>66</ele>
        <time>2020-08-27T07:15:08Z</time>
      </trkpt>
      <trkpt lat="47.38336" lon="0.21126">
        <ele>67</ele>
        <time>2020-08-27T07:15:10Z</time>
      </trkpt>
      <trkpt lat="47.38334" lon="0.21123">
        <ele>67</ele>
        <time>2020-08-27T07:15:12Z</time>
      </trkpt>
      <trkpt lat="47.38333" lon="0.21118">
        <ele>67</ele>
        <time>2020-08-27T07:15:14Z</time>
      </trkpt>
      <trkpt lat="47.38331" lon="0.21115">
        <ele>68</ele>
        <time>2020-08-27T07:15:16Z</time>
      </trkpt>
      <trkpt lat="47.3833" lon="0.21111">
        <ele>68</ele>
        <time>2020-08-27T07:15:18Z</time>
      </trkpt>
      <trkpt lat="47.38329" lon="0.21108">
        <ele>68</ele>
        <time>2020-08-27T07:15:20Z</time>
      </trkpt>
      <trkpt lat="47.38327" lon="0.21106">
        <ele>69</ele>
        <time>2020-08-27T07:15:22Z</time>
      </trkpt>
      <trkpt lat="47.38326" lon="0.21102">
        <ele>69</ele>
        <time>2020-08-27T07:15:24Z</time>
      </trkpt>
      <trkpt lat="47.38324" lon="0.21099">
        <ele>69</ele>
        <time>2020-08-27T07:15:26Z</time>
      </trkpt>
      <trkpt lat="47.38323" lon="0.21097">
        <ele>69</ele>
        <time>2020-08-27T07:15:28Z</time>
      </trkpt>
      <trkpt lat="47.38321" lon="0.21094">
        <ele>70</ele>
        <time>2020-08-27T07:15:30Z</time>
      </trkpt>
      <trkpt lat="47.3832" lon="0.21091">
        <ele>70</ele>
        <time>2020-08-27T07:15:32Z</time>
      </trkpt>
      <trkpt lat="47.38319" lon="0.21087">
        <ele>70</ele>
        <time>2020-08-27T07:15:34Z</time>
      </trkpt>
      <trkpt lat="47.38317" lon="0.21085">
        <ele>70</ele>
        <time>2020-08-27T07:15:36Z</time>
      </trkpt>
      <trkpt lat="47.38316" lon="0.21082">
        <ele>70</ele>
        <time>2020-08-27T07:15:38Z</time>
      </trkpt>
      <trkpt lat="47.38315" lon="0.21078">
        <ele>70</ele>
        <time>2020-08-27T07:15:40Z</time>
      </trkpt>
      <trkpt lat="47.38314" lon="0.21074">
        <ele>71</ele>
        <time>2020-08-27T07:15:42Z</time>
      </trkpt>
      <trkpt lat="47.38313" lon="0.21071">
        <ele>71</ele>
        <time>2020-08-27T07:15:44Z</time>
      </trkpt>
      <trkpt lat="47.38312" lon="0.21067">
        <ele>71</ele>
        <time>2020-08-27T07:15:46Z</time>
      </trkpt>
      <trkpt lat="47.3831" lon="0.21063">
        <ele>71</ele>
        <time>2020-08-27T07:15:48Z</time>
      </trkpt>
      <trkpt lat="47.38308" lon="0.2106">
        <ele>71</ele>
        <time>2020-08-27T07:15:50Z</time>
      </trkpt>
      <trkpt lat="47.38307" lon="0.21058">
        <ele>71</ele>
        <time>2020-08-27T07:15:52Z</time>
      </trkpt>
      <trkpt lat="47.38306" lon="0.21054">
        <ele>71</ele>
        <time>2020-08-27T07:15:54Z</time>
      </trkpt>
      <trkpt lat="47.38305" lon="0.21051">
        <ele>71</ele>
        <time>2020-08-27T07:15:56Z</time>
      </trkpt>
      <trkpt lat="47.38304" lon="0.21047">
        <ele>71</ele>
        <time>2020-08-27T07:15:58Z</time>
      </trkpt>
      <trkpt lat="47.38303" lon="0.21044">
        <ele>71</ele>
        <time>2020-08-27T07:16:00Z</time>
      </trkpt>
      <trkpt lat="47.38302" lon="0.21041">
        <ele>71</ele>
        <time>2020-08-27T07:16:02Z</time>
      </trkpt>
      <trkpt lat="47.38301" lon="0.21038">
        <ele>70</ele>
        <time>2020-08-27T07:16:04Z</time>
      </trkpt>
      <trkpt lat="47.38299" lon="0.21035">
        <ele>70</ele>
        <time>2020-08-27T07:16:06Z</time>
      </trkpt>
      <trkpt lat="47.38298" lon="0.21032">
        <ele>70</ele>
        <time>2020-08-27T07:16:08Z</time>
      </trkpt>
      <trkpt lat="47.38297" lon="0.21029">
        <ele>70</ele>
        <time>2020-08-27T07:16:10Z</time>
      </trkpt>
      <trkpt lat="47.38296" lon="0.21025">
        <ele>70</ele>
        <time>2020-08-27T07:16:12Z</time>
      </trkpt>
      <trkpt lat="47.38295" lon="0.21022">
        <ele>70</ele>
        <time>2020-08-27T07:16:14Z</time>
      </trkpt>
      <trkpt lat="47.38293" lon="0.2102">
        <ele>69</ele>
        <time>2020-08-27T07:16:16Z</time>
      </trkpt>
      <trkpt lat="47.38291" lon="0.21017">
        <ele>69</ele>
        <time>2020-08-27T07:16:18Z</time>
      </trkpt>
      <trkpt lat="47.3829" lon="0.21014">
        <ele>69</ele>
        <time>2020-08-27T07:16:19Z</time>
      </trkpt>
      <trkpt lat="47.38289" lon="0.2101">
        <ele>69</ele>
        <time>2020-08-27T07:16:21Z</time>
      </trkpt>
      <trkpt lat="47.38288" lon="0.21007">
        <ele>69</ele>
        <time>2020-08-27T07:16:23Z</time>
      </trkpt>
      <trkpt lat="47.38286" lon="0.21005">
        <ele>69</ele>
        <time>2020-08-27T07:16:25Z</time>
      </trkpt>
      <trkpt lat="47.38286" lon="0.21002">
        <ele>68</ele>
        <time>2020-08-27T07:16:27Z</time>
      </trkpt>
      <trkpt lat="47.38285" lon="0.20999">
        <ele>68</ele>
        <time>2020-08-27T07:16:29Z</time>
      </trkpt>
      <trkpt lat="47.38284" lon="0.20995">
        <ele>68</ele>
        <time>2020-08-27T07:16:31Z</time>
      </trkpt>
      <trkpt lat="47.38282" lon="0.20993">
        <ele>68</ele>
        <time>2020-08-27T07:16:33Z</time>
      </trkpt>
      <trkpt lat="47.38281" lon="0.20991">
        <ele>68</ele>
        <time>2020-08-27T07:16:35Z</time>
      </trkpt>
      <trkpt lat="47.38278" lon="0.20988">
        <ele>68</ele>
        <time>2020-08-27T07:16:37Z</time>
      </trkpt>
      <trkpt lat="47.38277" lon="0.20984">
        <ele>67</ele>
        <time>2020-08-27T07:16:39Z</time>
      </trkpt>
      <trkpt lat="47.38275" lon="0.20981">
        <ele>67</ele>
        <time>2020-08-27T07:16:41Z</time>
      </trkpt>
      <trkpt lat="47.38274" lon="0.20977">
        <ele>67</ele>
        <time>2020-08-27T07:16:43Z</time>
      </trkpt>
      <trkpt lat="47.38273" lon="0.20974">
        <ele>67</ele>
        <time>2020-08-27T07:16:45Z</time>
      </trkpt>
      <trkpt lat="47.38272" lon="0.2097">
        <ele>67</ele>
        <time>2020-08-27T07:16:47Z</time>
      </trkpt>
      <trkpt lat="47.38271" lon="0.20968">
        <ele>67</ele>
        <time>2020-08-27T07:16:49Z</time>
      </trkpt>
      <trkpt lat="47.3827" lon="0.20965">
        <ele>67</ele>
        <time>2020-08-27T07:16:51Z</time>
      </trkpt>
      <trkpt lat="47.38269" lon="0.20961">
        <ele>67</ele>
        <time>2020-08-27T07:16:53Z</time>
      </trkpt>
      <trkpt lat="47.38267" lon="0.20957">
        <ele>67</ele>
        <time>2020-08-27T07:16:55Z</time>
      </trkpt>
      <trkpt lat="47.38266" lon="0.20954">
        <ele>67</ele>
        <time>2020-08-27T07:16:57Z</time>
      </trkpt>
      <trkpt lat="47.38265" lon="0.2095">
        <ele>67</ele>
        <time>2020-08-27T07:16:59Z</time>
      </trkpt>
      <trkpt lat="47.38264" lon="0.20946">
        <ele>67</ele>
        <time>2020-08-27T07:17:01Z</time>
      </trkpt>
      <trkpt lat="47.38262" lon="0.20942">
        <ele>66</ele>
        <time>2020-08-27T07:17:03Z</time>
      </trkpt>
      <trkpt lat="47.38261" lon="0.20938">
        <ele>66</ele>
        <time>2020-08-27T07:17:05Z</time>
      </trkpt>
      <trkpt lat="47.3826" lon="0.20934">
        <ele>66</ele>
        <time>2020-08-27T07:17:07Z</time>
      </trkpt>
      <trkpt lat="47.38259" lon="0.20931">
        <ele>66</ele>
        <time>2020-08-27T07:17:08Z</time>
      </trkpt>
      <trkpt lat="47.38258" lon="0.20927">
        <ele>66</ele>
        <time>2020-08-27T07:17:10Z</time>
      </trkpt>
      <trkpt lat="47.38258" lon="0.20923">
        <ele>65</ele>
        <time>2020-08-27T07:17:12Z</time>
      </trkpt>
      <trkpt lat="47.38257" lon="0.20919">
        <ele>65</ele>
        <time>2020-08-27T07:17:14Z</time>
      </trkpt>
      <trkpt lat="47.38256" lon="0.20916">
        <ele>65</ele>
        <time>2020-08-27T07:17:16Z</time>
      </trkpt>
      <trkpt lat="47.38256" lon="0.20912">
        <ele>65</ele>
        <time>2020-08-27T07:17:18Z</time>
      </trkpt>
      <trkpt lat="47.38255" lon="0.20909">
        <ele>65</ele>
        <time>2020-08-27T07:17:20Z</time>
      </trkpt>
      <trkpt lat="47.38254" lon="0.20905">
        <ele>65</ele>
        <time>2020-08-27T07:17:22Z</time>
      </trkpt>
      <trkpt lat="47.38253" lon="0.20902">
        <ele>65</ele>
        <time>2020-08-27T07:17:24Z</time>
      </trkpt>
      <trkpt lat="47.38252" lon="0.20897">
        <ele>65</ele>
        <time>2020-08-27T07:17:26Z</time>
      </trkpt>
      <trkpt lat="47.38252" lon="0.20892">
        <ele>64</ele>
        <time>2020-08-27T07:17:28Z</time>
      </trkpt>
      <trkpt lat="47.38251" lon="0.20888">
        <ele>64</ele>
        <time>2020-08-27T07:17:30Z</time>
      </trkpt>
      <trkpt lat="47.3825" lon="0.20885">
        <ele>64</ele>
        <time>2020-08-27T07:17:32Z</time>
      </trkpt>
      <trkpt lat="47.3825" lon="0.20881">
        <ele>64</ele>
        <time>2020-08-27T07:17:34Z</time>
      </trkpt>
      <trkpt lat="47.38249" lon="0.20877">
        <ele>64</ele>
        <time>2020-08-27T07:17:36Z</time>
      </trkpt>
      <trkpt lat="47.38248" lon="0.20873">
        <ele>63</ele>
        <time>2020-08-27T07:17:38Z</time>
      </trkpt>
      <trkpt lat="47.38248" lon="0.2087">
        <ele>63</ele>
        <time>2020-08-27T07:17:39Z</time>
      </trkpt>
      <trkpt lat="47.38248" lon="0.20865">
        <ele>63</ele>
        <time>2020-08-27T07:17:41Z</time>
      </trkpt>
      <trkpt lat="47.38248" lon="0.20861">
        <ele>62</ele>
        <time>2020-08-27T07:17:43Z</time>
      </trkpt>
      <trkpt lat="47.38248" lon="0.20858">
        <ele>62</ele>
        <time>2020-08-27T07:17:45Z</time>
      </trkpt>
      <trkpt lat="47.38247" lon="0.20855">
        <ele>62</ele>
        <time>2020-08-27T07:17:47Z</time>
      </trkpt>
      <trkpt lat="47.38247" lon="0.20851">
        <ele>62</ele>
        <time>2020-08-27T07:17:49Z</time>
      </trkpt>
      <trkpt lat="47.38247" lon="0.20847">
        <ele>62</ele>
        <time>2020-08-27T07:17:51Z</time>
      </trkpt>
      <trkpt lat="47.38247" lon="0.20843">
        <ele>62</ele>
        <time>2020-08-27T07:17:53Z</time>
      </trkpt>
      <trkpt lat="47.38247" lon="0.20839">
        <ele>62</ele>
        <time>2020-08-27T07:17:56Z</time>
      </trkpt>
      <trkpt lat="47.38246" lon="0.20835">
        <ele>62</ele>
        <time>2020-08-27T07:17:58Z</time>
      </trkpt>
      <trkpt lat="47.38246" lon="0.20831">
        <ele>62</ele>
        <time>2020-08-27T07:18:00Z</time>
      </trkpt>
      <trkpt lat="47.38246" lon="0.20827">
        <ele>62</ele>
        <time>2020-08-27T07:18:02Z</time>
      </trkpt>
      <trkpt lat="47.38244" lon="0.20822">
        <ele>62</ele>
        <time>2020-08-27T07:18:04Z</time>
      </trkpt>
      <trkpt lat="47.38243" lon="0.20818">
        <ele>62</ele>
        <time>2020-08-27T07:18:06Z</time>
      </trkpt>
      <trkpt lat="47.38242" lon="0.20814">
        <ele>62</ele>
        <time>2020-08-27T07:18:08Z</time>
      </trkpt>
      <trkpt lat="47.38239" lon="0.20812">
        <ele>62</ele>
        <time>2020-08-27T07:18:10Z</time>
      </trkpt>
      <trkpt lat="47.38237" lon="0.20811">
        <ele>62</ele>
        <time>2020-08-27T07:18:12Z</time>
      </trkpt>
      <trkpt lat="47.38234" lon="0.20809">
        <ele>62</ele>
        <time>2020-08-27T07:18:14Z</time>
      </trkpt>
      <trkpt lat="47.38232" lon="0.20811">
        <ele>62</ele>
        <time>2020-08-27T07:18:17Z</time>
      </trkpt>
      <trkpt lat="47.38229" lon="0.20814">
        <ele>62</ele>
        <time>2020-08-27T07:18:19Z</time>
      </trkpt>
      <trkpt lat="47.38227" lon="0.20817">
        <ele>62</ele>
        <time>2020-08-27T07:18:21Z</time>
      </trkpt>
      <trkpt lat="47.38224" lon="0.20819">
        <ele>62</ele>
        <time>2020-08-27T07:18:23Z</time>
      </trkpt>
      <trkpt lat="47.38222" lon="0.20821">
        <ele>63</ele>
        <time>2020-08-27T07:18:25Z</time>
      </trkpt>
      <trkpt lat="47.38221" lon="0.20823">
        <ele>63</ele>
        <time>2020-08-27T07:18:27Z</time>
      </trkpt>
      <trkpt lat="47.38219" lon="0.20825">
        <ele>63</ele>
        <time>2020-08-27T07:18:29Z</time>
      </trkpt>
      <trkpt lat="47.38216" lon="0.20827">
        <ele>63</ele>
        <time>2020-08-27T07:18:31Z</time>
      </trkpt>
      <trkpt lat="47.38214" lon="0.20829">
        <ele>63</ele>
        <time>2020-08-27T07:18:33Z</time>
      </trkpt>
      <trkpt lat="47.38213" lon="0.20831">
        <ele>63</ele>
        <time>2020-08-27T07:18:35Z</time>
      </trkpt>
      <trkpt lat="47.38211" lon="0.20834">
        <ele>63</ele>
        <time>2020-08-27T07:18:37Z</time>
      </trkpt>
      <trkpt lat="47.38208" lon="0.20836">
        <ele>63</ele>
        <time>2020-08-27T07:18:39Z</time>
      </trkpt>
      <trkpt lat="47.38206" lon="0.20839">
        <ele>63</ele>
        <time>2020-08-27T07:18:41Z</time>
      </trkpt>
      <trkpt lat="47.38204" lon="0.20842">
        <ele>63</ele>
        <time>2020-08-27T07:18:43Z</time>
      </trkpt>
      <trkpt lat="47.38202" lon="0.20843">
        <ele>63</ele>
        <time>2020-08-27T07:18:45Z</time>
      </trkpt>
      <trkpt lat="47.38199" lon="0.20844">
        <ele>64</ele>
        <time>2020-08-27T07:18:47Z</time>
      </trkpt>
      <trkpt lat="47.38196" lon="0.20847">
        <ele>64</ele>
        <time>2020-08-27T07:18:49Z</time>
      </trkpt>
      <trkpt lat="47.38195" lon="0.20848">
        <ele>64</ele>
        <time>2020-08-27T07:18:51Z</time>
      </trkpt>
      <trkpt lat="47.38193" lon="0.2085">
        <ele>64</ele>
        <time>2020-08-27T07:18:53Z</time>
      </trkpt>
      <trkpt lat="47.38191" lon="0.20852">
        <ele>64</ele>
        <time>2020-08-27T07:18:55Z</time>
      </trkpt>
      <trkpt lat="47.38189" lon="0.20854">
        <ele>65</ele>
        <time>2020-08-27T07:18:57Z</time>
      </trkpt>
      <trkpt lat="47.38187" lon="0.20857">
        <ele>65</ele>
        <time>2020-08-27T07:18:59Z</time>
      </trkpt>
      <trkpt lat="47.38185" lon="0.20859">
        <ele>65</ele>
        <time>2020-08-27T07:19:01Z</time>
      </trkpt>
      <trkpt lat="47.38183" lon="0.20861">
        <ele>65</ele>
        <time>2020-08-27T07:19:03Z</time>
      </trkpt>
      <trkpt lat="47.38181" lon="0.20864">
        <ele>66</ele>
        <time>2020-08-27T07:19:05Z</time>
      </trkpt>
      <trkpt lat="47.38179" lon="0.20866">
        <ele>66</ele>
        <time>2020-08-27T07:19:07Z</time>
      </trkpt>
      <trkpt lat="47.38177" lon="0.20867">
        <ele>66</ele>
        <time>2020-08-27T07:19:08Z</time>
      </trkpt>
      <trkpt lat="47.38175" lon="0.20869">
        <ele>66</ele>
        <time>2020-08-27T07:19:10Z</time>
      </trkpt>
      <trkpt lat="47.38173" lon="0.20871">
        <ele>66</ele>
        <time>2020-08-27T07:19:12Z</time>
      </trkpt>
      <trkpt lat="47.38171" lon="0.20874">
        <ele>67</ele>
        <time>2020-08-27T07:19:14Z</time>
      </trkpt>
      <trkpt lat="47.38169" lon="0.20876">
        <ele>67</ele>
        <time>2020-08-27T07:19:16Z</time>
      </trkpt>
      <trkpt lat="47.38166" lon="0.20878">
        <ele>67</ele>
        <time>2020-08-27T07:19:18Z</time>
      </trkpt>
      <trkpt lat="47.38165" lon="0.2088">
        <ele>67</ele>
        <time>2020-08-27T07:19:19Z</time>
      </trkpt>
      <trkpt lat="47.38163" lon="0.20881">
        <ele>67</ele>
        <time>2020-08-27T07:19:20Z</time>
      </trkpt>
      <trkpt lat="47.38162" lon="0.20883">
        <ele>67</ele>
        <time>2020-08-27T07:19:22Z</time>
      </trkpt>
      <trkpt lat="47.38159" lon="0.20885">
        <ele>67</ele>
        <time>2020-08-27T07:19:24Z</time>
      </trkpt>
      <trkpt lat="47.38157" lon="0.20887">
        <ele>67</ele>
        <time>2020-08-27T07:19:26Z</time>
      </trkpt>
      <trkpt lat="47.38155" lon="0.2089">
        <ele>68</ele>
        <time>2020-08-27T07:19:28Z</time>
      </trkpt>
      <trkpt lat="47.38154" lon="0.20891">
        <ele>68</ele>
        <time>2020-08-27T07:19:29Z</time>
      </trkpt>
      <trkpt lat="47.38152" lon="0.20894">
        <ele>68</ele>
        <time>2020-08-27T07:19:31Z</time>
      </trkpt>
      <trkpt lat="47.38149" lon="0.20896">
        <ele>68</ele>
        <time>2020-08-27T07:19:33Z</time>
      </trkpt>
      <trkpt lat="47.38147" lon="0.20898">
        <ele>68</ele>
        <time>2020-08-27T07:19:35Z</time>
      </trkpt>
      <trkpt lat="47.38145" lon="0.209">
        <ele>68</ele>
        <time>2020-08-27T07:19:37Z</time>
      </trkpt>
      <trkpt lat="47.38142" lon="0.20902">
        <ele>68</ele>
        <time>2020-08-27T07:19:39Z</time>
      </trkpt>
      <trkpt lat="47.3814" lon="0.20903">
        <ele>69</ele>
        <time>2020-08-27T07:19:41Z</time>
      </trkpt>
      <trkpt lat="47.38138" lon="0.20905">
        <ele>69</ele>
        <time>2020-08-27T07:19:43Z</time>
      </trkpt>
      <trkpt lat="47.38135" lon="0.20907">
        <ele>69</ele>
        <time>2020-08-27T07:19:45Z</time>
      </trkpt>
      <trkpt lat="47.38133" lon="0.20908">
        <ele>69</ele>
        <time>2020-08-27T07:19:46Z</time>
      </trkpt>
      <trkpt lat="47.38131" lon="0.2091">
        <ele>69</ele>
        <time>2020-08-27T07:19:48Z</time>
      </trkpt>
      <trkpt lat="47.38128" lon="0.20912">
        <ele>69</ele>
        <time>2020-08-27T07:19:50Z</time>
      </trkpt>
      <trkpt lat="47.38126" lon="0.20914">
        <ele>69</ele>
        <time>2020-08-27T07:19:52Z</time>
      </trkpt>
      <trkpt lat="47.38124" lon="0.20917">
        <ele>69</ele>
        <time>2020-08-27T07:19:54Z</time>
      </trkpt>
      <trkpt lat="47.38122" lon="0.2092">
        <ele>69</ele>
        <time>2020-08-27T07:19:56Z</time>
      </trkpt>
      <trkpt lat="47.38119" lon="0.20922">
        <ele>69</ele>
        <time>2020-08-27T07:19:58Z</time>
      </trkpt>
      <trkpt lat="47.38118" lon="0.20925">
        <ele>69</ele>
        <time>2020-08-27T07:20:00Z</time>
      </trkpt>
      <trkpt lat="47.38116" lon="0.20926">
        <ele>69</ele>
        <time>2020-08-27T07:20:02Z</time>
      </trkpt>
      <trkpt lat="47.38115" lon="0.20929">
        <ele>69</ele>
        <time>2020-08-27T07:20:04Z</time>
      </trkpt>
      <trkpt lat="47.38113" lon="0.20932">
        <ele>69</ele>
        <time>2020-08-27T07:20:06Z</time>
      </trkpt>
      <trkpt lat="47.3811" lon="0.20935">
        <ele>68</ele>
        <time>2020-08-27T07:20:08Z</time>
      </trkpt>
      <trkpt lat="47.38108" lon="0.20938">
        <ele>68</ele>
        <time>2020-08-27T07:20:10Z</time>
      </trkpt>
      <trkpt lat="47.38106" lon="0.2094">
        <ele>68</ele>
        <time>2020-08-27T07:20:12Z</time>
      </trkpt>
      <trkpt lat="47.38104" lon="0.20942">
        <ele>68</ele>
        <time>2020-08-27T07:20:14Z</time>
      </trkpt>
      <trkpt lat="47.38102" lon="0.20944">
        <ele>68</ele>
        <time>2020-08-27T07:20:16Z</time>
      </trkpt>
      <trkpt lat="47.38099" lon="0.20947">
        <ele>68</ele>
        <time>2020-08-27T07:20:18Z</time>
      </trkpt>
      <trkpt lat="47.38097" lon="0.20948">
        <ele>68</ele>
        <time>2020-08-27T07:20:20Z</time>
      </trkpt>
      <trkpt lat="47.38095" lon="0.20949">
        <ele>67</ele>
        <time>2020-08-27T07:20:22Z</time>
      </trkpt>
      <trkpt lat="47.38093" lon="0.20951">
        <ele>67</ele>
        <time>2020-08-27T07:20:24Z</time>
      </trkpt>
      <trkpt lat="47.3809" lon="0.20953">
        <ele>67</ele>
        <time>2020-08-27T07:20:26Z</time>
      </trkpt>
      <trkpt lat="47.38088" lon="0.20954">
        <ele>67</ele>
        <time>2020-08-27T07:20:28Z</time>
      </trkpt>
      <trkpt lat="47.38086" lon="0.20956">
        <ele>67</ele>
        <time>2020-08-27T07:20:30Z</time>
      </trkpt>
      <trkpt lat="47.38084" lon="0.20958">
        <ele>67</ele>
        <time>2020-08-27T07:20:32Z</time>
      </trkpt>
      <trkpt lat="47.38082" lon="0.2096">
        <ele>66</ele>
        <time>2020-08-27T07:20:34Z</time>
      </trkpt>
      <trkpt lat="47.3808" lon="0.20962">
        <ele>66</ele>
        <time>2020-08-27T07:20:36Z</time>
      </trkpt>
      <trkpt lat="47.38077" lon="0.20964">
        <ele>66</ele>
        <time>2020-08-27T07:20:38Z</time>
      </trkpt>
      <trkpt lat="47.38075" lon="0.20966">
        <ele>66</ele>
        <time>2020-08-27T07:20:40Z</time>
      </trkpt>
      <trkpt lat="47.38072" lon="0.20969">
        <ele>66</ele>
        <time>2020-08-27T07:20:42Z</time>
      </trkpt>
      <trkpt lat="47.3807" lon="0.20971">
        <ele>66</ele>
        <time>2020-08-27T07:20:44Z</time>
      </trkpt>
      <trkpt lat="47.38068" lon="0.20973">
        <ele>65</ele>
        <time>2020-08-27T07:20:46Z</time>
      </trkpt>
      <trkpt lat="47.38066" lon="0.20974">
        <ele>65</ele>
        <time>2020-08-27T07:20:49Z</time>
      </trkpt>
      <trkpt lat="47.38065" lon="0.20976">
        <ele>65</ele>
        <time>2020-08-27T07:20:53Z</time>
      </trkpt>
      <trkpt lat="47.38062" lon="0.20979">
        <ele>65</ele>
        <time>2020-08-27T07:20:56Z</time>
      </trkpt>
      <trkpt lat="47.3806" lon="0.20981">
        <ele>65</ele>
        <time>2020-08-27T07:20:58Z</time>
      </trkpt>
      <trkpt lat="47.38058" lon="0.20983">
        <ele>65</ele>
        <time>2020-08-27T07:21:00Z</time>
      </trkpt>
      <trkpt lat="47.38056" lon="0.20986">
        <ele>65</ele>
        <time>2020-08-27T07:21:02Z</time>
      </trkpt>
      <trkpt lat="47.38054" lon="0.20989">
        <ele>65</ele>
        <time>2020-08-27T07:21:04Z</time>
      </trkpt>
      <trkpt lat="47.38052" lon="0.2099">
        <ele>65</ele>
        <time>2020-08-27T07:21:06Z</time>
      </trkpt>
      <trkpt lat="47.3805" lon="0.20993">
        <ele>65</ele>
        <time>2020-08-27T07:21:08Z</time>
      </trkpt>
      <trkpt lat="47.38047" lon="0.20996">
        <ele>65</ele>
        <time>2020-08-27T07:21:10Z</time>
      </trkpt>
      <trkpt lat="47.38046" lon="0.20998">
        <ele>65</ele>
        <time>2020-08-27T07:21:12Z</time>
      </trkpt>
      <trkpt lat="47.38044" lon="0.21">
        <ele>65</ele>
        <time>2020-08-27T07:21:14Z</time>
      </trkpt>
      <trkpt lat="47.38041" lon="0.21002">
        <ele>65</ele>
        <time>2020-08-27T07:21:16Z</time>
      </trkpt>
      <trkpt lat="47.38039" lon="0.21004">
        <ele>65</ele>
        <time>2020-08-27T07:21:18Z</time>
      </trkpt>
      <trkpt lat="47.38037" lon="0.21006">
        <ele>65</ele>
        <time>2020-08-27T07:21:20Z</time>
      </trkpt>
      <trkpt lat="47.38035" lon="0.21007">
        <ele>65</ele>
        <time>2020-08-27T07:21:22Z</time>
      </trkpt>
      <trkpt lat="47.38033" lon="0.2101">
        <ele>65</ele>
        <time>2020-08-27T07:21:24Z</time>
      </trkpt>
      <trkpt lat="47.38031" lon="0.2101">
        <ele>65</ele>
        <time>2020-08-27T07:21:26Z</time>
      </trkpt>
      <trkpt lat="47.38029" lon="0.2101">
        <ele>65</ele>
        <time>2020-08-27T07:21:28Z</time>
      </trkpt>
      <trkpt lat="47.38026" lon="0.21008">
        <ele>66</ele>
        <time>2020-08-27T07:21:30Z</time>
      </trkpt>
      <trkpt lat="47.38023" lon="0.21005">
        <ele>66</ele>
        <time>2020-08-27T07:21:32Z</time>
      </trkpt>
      <trkpt lat="47.3802" lon="0.21002">
        <ele>67</ele>
        <time>2020-08-27T07:21:34Z</time>
      </trkpt>
      <trkpt lat="47.38019" lon="0.20999">
        <ele>67</ele>
        <time>2020-08-27T07:21:36Z</time>
      </trkpt>
      <trkpt lat="47.38017" lon="0.20997">
        <ele>67</ele>
        <time>2020-08-27T07:21:38Z</time>
      </trkpt>
      <trkpt lat="47.38014" lon="0.20994">
        <ele>68</ele>
        <time>2020-08-27T07:21:40Z</time>
      </trkpt>
      <trkpt lat="47.38013" lon="0.20992">
        <ele>68</ele>
        <time>2020-08-27T07:21:42Z</time>
      </trkpt>
      <trkpt lat="47.3801" lon="0.20991">
        <ele>68</ele>
        <time>2020-08-27T07:21:44Z</time>
      </trkpt>
      <trkpt lat="47.38008" lon="0.20988">
        <ele>69</ele>
        <time>2020-08-27T07:21:46Z</time>
      </trkpt>
      <trkpt lat="47.38007" lon="0.20986">
        <ele>69</ele>
        <time>2020-08-27T07:21:48Z</time>
      </trkpt>
      <trkpt lat="47.38004" lon="0.20983">
        <ele>69</ele>
        <time>2020-08-27T07:21:50Z</time>
      </trkpt>
      <trkpt lat="47.38002" lon="0.20981">
        <ele>69</ele>
        <time>2020-08-27T07:21:52Z</time>
      </trkpt>
      <trkpt lat="47.38" lon="0.20978">
        <ele>69</ele>
        <time>2020-08-27T07:21:54Z</time>
      </trkpt>
      <trkpt lat="47.37998" lon="0.20976">
        <ele>70</ele>
        <time>2020-08-27T07:21:56Z</time>
      </trkpt>
      <trkpt lat="47.37996" lon="0.20973">
        <ele>70</ele>
        <time>2020-08-27T07:21:58Z</time>
      </trkpt>
      <trkpt lat="47.37995" lon="0.20971">
        <ele>70</ele>
        <time>2020-08-27T07:21:59Z</time>
      </trkpt>
      <trkpt lat="47.37994" lon="0.20969">
        <ele>70</ele>
        <time>2020-08-27T07:22:00Z</time>
      </trkpt>
      <trkpt lat="47.37991" lon="0.20969">
        <ele>70</ele>
        <time>2020-08-27T07:22:02Z</time>
      </trkpt>
      <trkpt lat="47.37988" lon="0.20968">
        <ele>70</ele>
        <time>2020-08-27T07:22:04Z</time>
      </trkpt>
      <trkpt lat="47.37987" lon="0.20966">
        <ele>70</ele>
        <time>2020-08-27T07:22:06Z</time>
      </trkpt>
      <trkpt lat="47.37985" lon="0.20964">
        <ele>70</ele>
        <time>2020-08-27T07:22:08Z</time>
      </trkpt>
      <trkpt lat="47.37982" lon="0.20961">
        <ele>70</ele>
        <time>2020-08-27T07:22:10Z</time>
      </trkpt>
      <trkpt lat="47.37981" lon="0.20958">
        <ele>70</ele>
        <time>2020-08-27T07:22:12Z</time>
      </trkpt>
      <trkpt lat="47.3798" lon="0.20954">
        <ele>70</ele>
        <time>2020-08-27T07:22:14Z</time>
      </trkpt>
      <trkpt lat="47.37977" lon="0.20951">
        <ele>70</ele>
        <time>2020-08-27T07:22:16Z</time>
      </trkpt>
      <trkpt lat="47.37975" lon="0.20949">
        <ele>70</ele>
        <time>2020-08-27T07:22:18Z</time>
      </trkpt>
      <trkpt lat="47.37972" lon="0.20947">
        <ele>70</ele>
        <time>2020-08-27T07:22:20Z</time>
      </trkpt>
      <trkpt lat="47.3797" lon="0.20946">
        <ele>71</ele>
        <time>2020-08-27T07:22:22Z</time>
      </trkpt>
      <trkpt lat="47.37968" lon="0.20943">
        <ele>71</ele>
        <time>2020-08-27T07:22:24Z</time>
      </trkpt>
      <trkpt lat="47.37966" lon="0.2094">
        <ele>71</ele>
        <time>2020-08-27T07:22:27Z</time>
      </trkpt>
      <trkpt lat="47.37964" lon="0.20938">
        <ele>71</ele>
        <time>2020-08-27T07:22:29Z</time>
      </trkpt>
      <trkpt lat="47.37962" lon="0.20934">
        <ele>71</ele>
        <time>2020-08-27T07:22:31Z</time>
      </trkpt>
      <trkpt lat="47.3796" lon="0.20932">
        <ele>71</ele>
        <time>2020-08-27T07:22:33Z</time>
      </trkpt>
      <trkpt lat="47.37958" lon="0.2093">
        <ele>71</ele>
        <time>2020-08-27T07:22:35Z</time>
      </trkpt>
      <trkpt lat="47.37956" lon="0.20927">
        <ele>71</ele>
        <time>2020-08-27T07:22:37Z</time>
      </trkpt>
      <trkpt lat="47.37953" lon="0.20924">
        <ele>71</ele>
        <time>2020-08-27T07:22:39Z</time>
      </trkpt>
      <trkpt lat="47.37951" lon="0.20921">
        <ele>71</ele>
        <time>2020-08-27T07:22:41Z</time>
      </trkpt>
      <trkpt lat="47.37949" lon="0.20918">
        <ele>71</ele>
        <time>2020-08-27T07:22:43Z</time>
      </trkpt>
      <trkpt lat="47.37947" lon="0.20917">
        <ele>71</ele>
        <time>2020-08-27T07:22:44Z</time>
      </trkpt>
      <trkpt lat="47.37945" lon="0.20915">
        <ele>72</ele>
        <time>2020-08-27T07:22:46Z</time>
      </trkpt>
      <trkpt lat="47.37943" lon="0.20913">
        <ele>72</ele>
        <time>2020-08-27T07:22:47Z</time>
      </trkpt>
      <trkpt lat="47.37941" lon="0.2091">
        <ele>72</ele>
        <time>2020-08-27T07:22:49Z</time>
      </trkpt>
      <trkpt lat="47.37938" lon="0.20908">
        <ele>72</ele>
        <time>2020-08-27T07:22:51Z</time>
      </trkpt>
      <trkpt lat="47.37937" lon="0.20906">
        <ele>72</ele>
        <time>2020-08-27T07:22:53Z</time>
      </trkpt>
      <trkpt lat="47.37935" lon="0.20903">
        <ele>72</ele>
        <time>2020-08-27T07:22:55Z</time>
      </trkpt>
      <trkpt lat="47.37933" lon="0.209">
        <ele>72</ele>
        <time>2020-08-27T07:22:57Z</time>
      </trkpt>
      <trkpt lat="47.3793" lon="0.20899">
        <ele>72</ele>
        <time>2020-08-27T07:22:59Z</time>
      </trkpt>
      <trkpt lat="47.37928" lon="0.20896">
        <ele>73</ele>
        <time>2020-08-27T07:23:01Z</time>
      </trkpt>
      <trkpt lat="47.37926" lon="0.20893">
        <ele>73</ele>
        <time>2020-08-27T07:23:03Z</time>
      </trkpt>
      <trkpt lat="47.37924" lon="0.20891">
        <ele>73</ele>
        <time>2020-08-27T07:23:05Z</time>
      </trkpt>
      <trkpt lat="47.37921" lon="0.20888">
        <ele>73</ele>
        <time>2020-08-27T07:23:07Z</time>
      </trkpt>
      <trkpt lat="47.37918" lon="0.20886">
        <ele>72</ele>
        <time>2020-08-27T07:23:09Z</time>
      </trkpt>
      <trkpt lat="47.37917" lon="0.20883">
        <ele>72</ele>
        <time>2020-08-27T07:23:11Z</time>
      </trkpt>
      <trkpt lat="47.37914" lon="0.2088">
        <ele>72</ele>
        <time>2020-08-27T07:23:13Z</time>
      </trkpt>
      <trkpt lat="47.37912" lon="0.20878">
        <ele>72</ele>
        <time>2020-08-27T07:23:15Z</time>
      </trkpt>
      <trkpt lat="47.3791" lon="0.20876">
        <ele>71</ele>
        <time>2020-08-27T07:23:17Z</time>
      </trkpt>
      <trkpt lat="47.37909" lon="0.20874">
        <ele>71</ele>
        <time>2020-08-27T07:23:19Z</time>
      </trkpt>
      <trkpt lat="47.37907" lon="0.20871">
        <ele>71</ele>
        <time>2020-08-27T07:23:21Z</time>
      </trkpt>
      <trkpt lat="47.37905" lon="0.2087">
        <ele>71</ele>
        <time>2020-08-27T07:23:23Z</time>
      </trkpt>
      <trkpt lat="47.37903" lon="0.20868">
        <ele>71</ele>
        <time>2020-08-27T07:23:25Z</time>
      </trkpt>
      <trkpt lat="47.37901" lon="0.20865">
        <ele>70</ele>
        <time>2020-08-27T07:23:27Z</time>
      </trkpt>
      <trkpt lat="47.37899" lon="0.20863">
        <ele>70</ele>
        <time>2020-08-27T07:23:29Z</time>
      </trkpt>
      <trkpt lat="47.37896" lon="0.2086">
        <ele>70</ele>
        <time>2020-08-27T07:23:31Z</time>
      </trkpt>
      <trkpt lat="47.37894" lon="0.20858">
        <ele>70</ele>
        <time>2020-08-27T07:23:33Z</time>
      </trkpt>
      <trkpt lat="47.37893" lon="0.20854">
        <ele>70</ele>
        <time>2020-08-27T07:23:35Z</time>
      </trkpt>
      <trkpt lat="47.37891" lon="0.20851">
        <ele>69</ele>
        <time>2020-08-27T07:23:37Z</time>
      </trkpt>
      <trkpt lat="47.37889" lon="0.20847">
        <ele>69</ele>
        <time>2020-08-27T07:23:39Z</time>
      </trkpt>
      <trkpt lat="47.37888" lon="0.20844">
        <ele>69</ele>
        <time>2020-08-27T07:23:41Z</time>
      </trkpt>
      <trkpt lat="47.37886" lon="0.20841">
        <ele>69</ele>
        <time>2020-08-27T07:23:43Z</time>
      </trkpt>
      <trkpt lat="47.37884" lon="0.20837">
        <ele>68</ele>
        <time>2020-08-27T07:23:45Z</time>
      </trkpt>
      <trkpt lat="47.37882" lon="0.20835">
        <ele>68</ele>
        <time>2020-08-27T07:23:47Z</time>
      </trkpt>
      <trkpt lat="47.3788" lon="0.20833">
        <ele>68</ele>
        <time>2020-08-27T07:23:49Z</time>
      </trkpt>
      <trkpt lat="47.37878" lon="0.2083">
        <ele>68</ele>
        <time>2020-08-27T07:23:51Z</time>
      </trkpt>
      <trkpt lat="47.37876" lon="0.20826">
        <ele>68</ele>
        <time>2020-08-27T07:23:53Z</time>
      </trkpt>
      <trkpt lat="47.37874" lon="0.20824">
        <ele>68</ele>
        <time>2020-08-27T07:23:55Z</time>
      </trkpt>
      <trkpt lat="47.37872" lon="0.20821">
        <ele>68</ele>
        <time>2020-08-27T07:23:57Z</time>
      </trkpt>
      <trkpt lat="47.3787" lon="0.20818">
        <ele>68</ele>
        <time>2020-08-27T07:23:59Z</time>
      </trkpt>
      <trkpt lat="47.37868" lon="0.20815">
        <ele>68</ele>
        <time>2020-08-27T07:24:01Z</time>
      </trkpt>
      <trkpt lat="47.37866" lon="0.20813">
        <ele>68</ele>
        <time>2020-08-27T07:24:03Z</time>
      </trkpt>
      <trkpt lat="47.37863" lon="0.2081">
        <ele>68</ele>
        <time>2020-08-27T07:24:05Z</time>
      </trkpt>
      <trkpt lat="47.37861" lon="0.20807">
        <ele>68</ele>
        <time>2020-08-27T07:24:07Z</time>
      </trkpt>
      <trkpt lat="47.3786" lon="0.20805">
        <ele>68</ele>
        <time>2020-08-27T07:24:08Z</time>
      </trkpt>
      <trkpt lat="47.37858" lon="0.20801">
        <ele>68</ele>
        <time>2020-08-27T07:24:10Z</time>
      </trkpt>
      <trkpt lat="47.37857" lon="0.20799">
        <ele>68</ele>
        <time>2020-08-27T07:24:12Z</time>
      </trkpt>
      <trkpt lat="47.37855" lon="0.20796">
        <ele>68</ele>
        <time>2020-08-27T07:24:14Z</time>
      </trkpt>
      <trkpt lat="47.37853" lon="0.20793">
        <ele>68</ele>
        <time>2020-08-27T07:24:16Z</time>
      </trkpt>
      <trkpt lat="47.37851" lon="0.2079">
        <ele>69</ele>
        <time>2020-08-27T07:24:18Z</time>
      </trkpt>
      <trkpt lat="47.37849" lon="0.20788">
        <ele>69</ele>
        <time>2020-08-27T07:24:20Z</time>
      </trkpt>
      <trkpt lat="47.37848" lon="0.20784">
        <ele>69</ele>
        <time>2020-08-27T07:24:22Z</time>
      </trkpt>
      <trkpt lat="47.37846" lon="0.20781">
        <ele>69</ele>
        <time>2020-08-27T07:24:24Z</time>
      </trkpt>
      <trkpt lat="47.37845" lon="0.20779">
        <ele>69</ele>
        <time>2020-08-27T07:24:26Z</time>
      </trkpt>
      <trkpt lat="47.37844" lon="0.20776">
        <ele>69</ele>
        <time>2020-08-27T07:24:28Z</time>
      </trkpt>
      <trkpt lat="47.37842" lon="0.20773">
        <ele>69</ele>
        <time>2020-08-27T07:24:30Z</time>
      </trkpt>
      <trkpt lat="47.3784" lon="0.2077">
        <ele>69</ele>
        <time>2020-08-27T07:24:32Z</time>
      </trkpt>
      <trkpt lat="47.37838" lon="0.20766">
        <ele>69</ele>
        <time>2020-08-27T07:24:34Z</time>
      </trkpt>
      <trkpt lat="47.37837" lon="0.20763">
        <ele>69</ele>
        <time>2020-08-27T07:24:36Z</time>
      </trkpt>
      <trkpt lat="47.37835" lon="0.20759">
        <ele>69</ele>
        <time>2020-08-27T07:24:38Z</time>
      </trkpt>
      <trkpt lat="47.37834" lon="0.20756">
        <ele>69</ele>
        <time>2020-08-27T07:24:40Z</time>
      </trkpt>
      <trkpt lat="47.37832" lon="0.20753">
        <ele>70</ele>
        <time>2020-08-27T07:24:42Z</time>
      </trkpt>
      <trkpt lat="47.3783" lon="0.2075">
        <ele>70</ele>
        <time>2020-08-27T07:24:44Z</time>
      </trkpt>
      <trkpt lat="47.37829" lon="0.20746">
        <ele>70</ele>
        <time>2020-08-27T07:24:46Z</time>
      </trkpt>
      <trkpt lat="47.37827" lon="0.20744">
        <ele>70</ele>
        <time>2020-08-27T07:24:48Z</time>
      </trkpt>
      <trkpt lat="47.37825" lon="0.20741">
        <ele>70</ele>
        <time>2020-08-27T07:24:51Z</time>
      </trkpt>
      <trkpt lat="47.37824" lon="0.20739">
        <ele>70</ele>
        <time>2020-08-27T07:24:54Z</time>
      </trkpt>
      <trkpt lat="47.37821" lon="0.20737">
        <ele>70</ele>
        <time>2020-08-27T07:24:56Z</time>
      </trkpt>
      <trkpt lat="47.3782" lon="0.20734">
        <ele>70</ele>
        <time>2020-08-27T07:24:58Z</time>
      </trkpt>
      <trkpt lat="47.37817" lon="0.20731">
        <ele>70</ele>
        <time>2020-08-27T07:25:00Z</time>
      </trkpt>
      <trkpt lat="47.37815" lon="0.20729">
        <ele>70</ele>
        <time>2020-08-27T07:25:02Z</time>
      </trkpt>
      <trkpt lat="47.37813" lon="0.20727">
        <ele>70</ele>
        <time>2020-08-27T07:25:04Z</time>
      </trkpt>
      <trkpt lat="47.37811" lon="0.20723">
        <ele>70</ele>
        <time>2020-08-27T07:25:06Z</time>
      </trkpt>
      <trkpt lat="47.3781" lon="0.20719">
        <ele>70</ele>
        <time>2020-08-27T07:25:08Z</time>
      </trkpt>
      <trkpt lat="47.37809" lon="0.20717">
        <ele>70</ele>
        <time>2020-08-27T07:25:10Z</time>
      </trkpt>
      <trkpt lat="47.37807" lon="0.20714">
        <ele>70</ele>
        <time>2020-08-27T07:25:12Z</time>
      </trkpt>
      <trkpt lat="47.37806" lon="0.20711">
        <ele>70</ele>
        <time>2020-08-27T07:25:14Z</time>
      </trkpt>
      <trkpt lat="47.37804" lon="0.20709">
        <ele>69</ele>
        <time>2020-08-27T07:25:16Z</time>
      </trkpt>
      <trkpt lat="47.37802" lon="0.20707">
        <ele>69</ele>
        <time>2020-08-27T07:25:18Z</time>
      </trkpt>
      <trkpt lat="47.378" lon="0.20704">
        <ele>69</ele>
        <time>2020-08-27T07:25:20Z</time>
      </trkpt>
      <trkpt lat="47.37798" lon="0.20701">
        <ele>69</ele>
        <time>2020-08-27T07:25:22Z</time>
      </trkpt>
      <trkpt lat="47.37796" lon="0.20699">
        <ele>69</ele>
        <time>2020-08-27T07:25:24Z</time>
      </trkpt>
      <trkpt lat="47.37794" lon="0.20697">
        <ele>69</ele>
        <time>2020-08-27T07:25:26Z</time>
      </trkpt>
      <trkpt lat="47.37792" lon="0.20694">
        <ele>69</ele>
        <time>2020-08-27T07:25:28Z</time>
      </trkpt>
      <trkpt lat="47.3779" lon="0.20691">
        <ele>69</ele>
        <time>2020-08-27T07:25:30Z</time>
      </trkpt>
      <trkpt lat="47.37788" lon="0.20688">
        <ele>69</ele>
        <time>2020-08-27T07:25:32Z</time>
      </trkpt>
      <trkpt lat="47.37787" lon="0.20685">
        <ele>69</ele>
        <time>2020-08-27T07:25:34Z</time>
      </trkpt>
      <trkpt lat="47.37786" lon="0.20683">
        <ele>69</ele>
        <time>2020-08-27T07:25:36Z</time>
      </trkpt>
      <trkpt lat="47.37783" lon="0.20682">
        <ele>69</ele>
        <time>2020-08-27T07:25:38Z</time>
      </trkpt>
      <trkpt lat="47.37781" lon="0.2068">
        <ele>69</ele>
        <time>2020-08-27T07:25:40Z</time>
      </trkpt>
      <trkpt lat="47.37779" lon="0.20678">
        <ele>69</ele>
        <time>2020-08-27T07:25:42Z</time>
      </trkpt>
      <trkpt lat="47.37777" lon="0.20677">
        <ele>68</ele>
        <time>2020-08-27T07:25:44Z</time>
      </trkpt>
      <trkpt lat="47.37775" lon="0.20674">
        <ele>68</ele>
        <time>2020-08-27T07:25:46Z</time>
      </trkpt>
      <trkpt lat="47.37772" lon="0.20671">
        <ele>68</ele>
        <time>2020-08-27T07:25:48Z</time>
      </trkpt>
      <trkpt lat="47.37769" lon="0.20669">
        <ele>68</ele>
        <time>2020-08-27T07:25:50Z</time>
      </trkpt>
      <trkpt lat="47.37768" lon="0.20666">
        <ele>68</ele>
        <time>2020-08-27T07:25:52Z</time>
      </trkpt>
      <trkpt lat="47.37766" lon="0.20663">
        <ele>68</ele>
        <time>2020-08-27T07:25:54Z</time>
      </trkpt>
      <trkpt lat="47.37764" lon="0.2066">
        <ele>68</ele>
        <time>2020-08-27T07:25:56Z</time>
      </trkpt>
      <trkpt lat="47.37762" lon="0.20658">
        <ele>68</ele>
        <time>2020-08-27T07:25:58Z</time>
      </trkpt>
      <trkpt lat="47.3776" lon="0.20656">
        <ele>68</ele>
        <time>2020-08-27T07:26:00Z</time>
      </trkpt>
      <trkpt lat="47.37758" lon="0.20654">
        <ele>68</ele>
        <time>2020-08-27T07:26:02Z</time>
      </trkpt>
      <trkpt lat="47.37756" lon="0.20652">
        <ele>68</ele>
        <time>2020-08-27T07:26:04Z</time>
      </trkpt>
      <trkpt lat="47.37753" lon="0.20651">
        <ele>68</ele>
        <time>2020-08-27T07:26:06Z</time>
      </trkpt>
      <trkpt lat="47.37752" lon="0.2065">
        <ele>68</ele>
        <time>2020-08-27T07:26:08Z</time>
      </trkpt>
      <trkpt lat="47.37749" lon="0.20647">
        <ele>68</ele>
        <time>2020-08-27T07:26:10Z</time>
      </trkpt>
      <trkpt lat="47.37747" lon="0.20645">
        <ele>68</ele>
        <time>2020-08-27T07:26:12Z</time>
      </trkpt>
      <trkpt lat="47.37747" lon="0.20642">
        <ele>68</ele>
        <time>2020-08-27T07:26:13Z</time>
      </trkpt>
      <trkpt lat="47.37744" lon="0.20639">
        <ele>68</ele>
        <time>2020-08-27T07:26:15Z</time>
      </trkpt>
      <trkpt lat="47.37743" lon="0.20636">
        <ele>68</ele>
        <time>2020-08-27T07:26:17Z</time>
      </trkpt>
      <trkpt lat="47.37741" lon="0.20633">
        <ele>68</ele>
        <time>2020-08-27T07:26:19Z</time>
      </trkpt>
      <trkpt lat="47.3774" lon="0.20628">
        <ele>68</ele>
        <time>2020-08-27T07:26:21Z</time>
      </trkpt>
      <trkpt lat="47.37739" lon="0.20624">
        <ele>69</ele>
        <time>2020-08-27T07:26:23Z</time>
      </trkpt>
      <trkpt lat="47.37738" lon="0.20619">
        <ele>69</ele>
        <time>2020-08-27T07:26:25Z</time>
      </trkpt>
      <trkpt lat="47.37736" lon="0.20616">
        <ele>69</ele>
        <time>2020-08-27T07:26:26Z</time>
      </trkpt>
      <trkpt lat="47.37735" lon="0.20613">
        <ele>69</ele>
        <time>2020-08-27T07:26:28Z</time>
      </trkpt>
      <trkpt lat="47.37734" lon="0.2061">
        <ele>70</ele>
        <time>2020-08-27T07:26:30Z</time>
      </trkpt>
      <trkpt lat="47.37732" lon="0.20608">
        <ele>70</ele>
        <time>2020-08-27T07:26:32Z</time>
      </trkpt>
      <trkpt lat="47.3773" lon="0.20605">
        <ele>70</ele>
        <time>2020-08-27T07:26:34Z</time>
      </trkpt>
      <trkpt lat="47.37729" lon="0.20602">
        <ele>70</ele>
        <time>2020-08-27T07:26:36Z</time>
      </trkpt>
      <trkpt lat="47.37727" lon="0.20599">
        <ele>71</ele>
        <time>2020-08-27T07:26:38Z</time>
      </trkpt>
      <trkpt lat="47.37726" lon="0.20598">
        <ele>71</ele>
        <time>2020-08-27T07:26:40Z</time>
      </trkpt>
      <trkpt lat="47.37723" lon="0.20597">
        <ele>71</ele>
        <time>2020-08-27T07:26:42Z</time>
      </trkpt>
      <trkpt lat="47.37721" lon="0.20596">
        <ele>71</ele>
        <time>2020-08-27T07:26:44Z</time>
      </trkpt>
      <trkpt lat="47.37718" lon="0.20594">
        <ele>71</ele>
        <time>2020-08-27T07:26:46Z</time>
      </trkpt>
      <trkpt lat="47.37716" lon="0.20591">
        <ele>72</ele>
        <time>2020-08-27T07:26:48Z</time>
      </trkpt>
      <trkpt lat="47.37714" lon="0.2059">
        <ele>72</ele>
        <time>2020-08-27T07:26:50Z</time>
      </trkpt>
      <trkpt lat="47.37712" lon="0.20589">
        <ele>72</ele>
        <time>2020-08-27T07:26:52Z</time>
      </trkpt>
      <trkpt lat="47.37709" lon="0.20588">
        <ele>72</ele>
        <time>2020-08-27T07:26:55Z</time>
      </trkpt>
      <trkpt lat="47.37707" lon="0.20586">
        <ele>72</ele>
        <time>2020-08-27T07:26:57Z</time>
      </trkpt>
      <trkpt lat="47.37705" lon="0.20584">
        <ele>73</ele>
        <time>2020-08-27T07:26:59Z</time>
      </trkpt>
      <trkpt lat="47.37703" lon="0.20582">
        <ele>73</ele>
        <time>2020-08-27T07:27:01Z</time>
      </trkpt>
      <trkpt lat="47.37701" lon="0.20582">
        <ele>73</ele>
        <time>2020-08-27T07:27:03Z</time>
      </trkpt>
      <trkpt lat="47.37699" lon="0.2058">
        <ele>73</ele>
        <time>2020-08-27T07:27:05Z</time>
      </trkpt>
      <trkpt lat="47.37697" lon="0.20579">
        <ele>73</ele>
        <time>2020-08-27T07:27:07Z</time>
      </trkpt>
      <trkpt lat="47.37695" lon="0.20576">
        <ele>73</ele>
        <time>2020-08-27T07:27:09Z</time>
      </trkpt>
      <trkpt lat="47.37692" lon="0.20574">
        <ele>73</ele>
        <time>2020-08-27T07:27:11Z</time>
      </trkpt>
      <trkpt lat="47.3769" lon="0.20572">
        <ele>73</ele>
        <time>2020-08-27T07:27:12Z</time>
      </trkpt>
      <trkpt lat="47.37687" lon="0.20571">
        <ele>73</ele>
        <time>2020-08-27T07:27:14Z</time>
      </trkpt>
      <trkpt lat="47.37685" lon="0.2057">
        <ele>73</ele>
        <time>2020-08-27T07:27:16Z</time>
      </trkpt>
      <trkpt lat="47.37683" lon="0.20569">
        <ele>73</ele>
        <time>2020-08-27T07:27:18Z</time>
      </trkpt>
      <trkpt lat="47.37681" lon="0.20568">
        <ele>73</ele>
        <time>2020-08-27T07:27:20Z</time>
      </trkpt>
      <trkpt lat="47.37678" lon="0.20566">
        <ele>73</ele>
        <time>2020-08-27T07:27:22Z</time>
      </trkpt>
      <trkpt lat="47.37675" lon="0.20564">
        <ele>73</ele>
        <time>2020-08-27T07:27:24Z</time>
      </trkpt>
      <trkpt lat="47.37674" lon="0.20564">
        <ele>73</ele>
        <time>2020-08-27T07:27:25Z</time>
      </trkpt>
      <trkpt lat="47.37672" lon="0.20563">
        <ele>73</ele>
        <time>2020-08-27T07:27:26Z</time>
      </trkpt>
      <trkpt lat="47.37669" lon="0.20562">
        <ele>73</ele>
        <time>2020-08-27T07:27:27Z</time>
      </trkpt>
      <trkpt lat="47.37667" lon="0.20562">
        <ele>73</ele>
        <time>2020-08-27T07:27:28Z</time>
      </trkpt>
      <trkpt lat="47.37665" lon="0.20561">
        <ele>73</ele>
        <time>2020-08-27T07:27:30Z</time>
      </trkpt>
      <trkpt lat="47.37663" lon="0.20559">
        <ele>73</ele>
        <time>2020-08-27T07:27:32Z</time>
      </trkpt>
      <trkpt lat="47.37661" lon="0.20559">
        <ele>72</ele>
        <time>2020-08-27T07:27:34Z</time>
      </trkpt>
      <trkpt lat="47.37658" lon="0.20559">
        <ele>72</ele>
        <time>2020-08-27T07:27:36Z</time>
      </trkpt>
      <trkpt lat="47.37656" lon="0.20557">
        <ele>72</ele>
        <time>2020-08-27T07:27:38Z</time>
      </trkpt>
      <trkpt lat="47.37653" lon="0.20556">
        <ele>72</ele>
        <time>2020-08-27T07:27:40Z</time>
      </trkpt>
      <trkpt lat="47.3765" lon="0.20556">
        <ele>72</ele>
        <time>2020-08-27T07:27:42Z</time>
      </trkpt>
      <trkpt lat="47.37649" lon="0.20555">
        <ele>72</ele>
        <time>2020-08-27T07:27:43Z</time>
      </trkpt>
      <trkpt lat="47.37647" lon="0.20555">
        <ele>72</ele>
        <time>2020-08-27T07:27:44Z</time>
      </trkpt>
      <trkpt lat="47.37645" lon="0.20555">
        <ele>72</ele>
        <time>2020-08-27T07:27:45Z</time>
      </trkpt>
      <trkpt lat="47.37643" lon="0.20554">
        <ele>72</ele>
        <time>2020-08-27T07:27:47Z</time>
      </trkpt>
      <trkpt lat="47.37641" lon="0.20552">
        <ele>71</ele>
        <time>2020-08-27T07:27:49Z</time>
      </trkpt>
      <trkpt lat="47.37638" lon="0.20551">
        <ele>71</ele>
        <time>2020-08-27T07:27:51Z</time>
      </trkpt>
      <trkpt lat="47.37635" lon="0.2055">
        <ele>71</ele>
        <time>2020-08-27T07:27:53Z</time>
      </trkpt>
      <trkpt lat="47.37633" lon="0.20548">
        <ele>71</ele>
        <time>2020-08-27T07:27:55Z</time>
      </trkpt>
      <trkpt lat="47.3763" lon="0.20548">
        <ele>71</ele>
        <time>2020-08-27T07:27:58Z</time>
      </trkpt>
      <trkpt lat="47.37628" lon="0.20547">
        <ele>71</ele>
        <time>2020-08-27T07:28:01Z</time>
      </trkpt>
      <trkpt lat="47.37626" lon="0.20545">
        <ele>70</ele>
        <time>2020-08-27T07:28:03Z</time>
      </trkpt>
      <trkpt lat="47.37624" lon="0.20545">
        <ele>70</ele>
        <time>2020-08-27T07:28:05Z</time>
      </trkpt>
      <trkpt lat="47.37622" lon="0.20543">
        <ele>70</ele>
        <time>2020-08-27T07:28:07Z</time>
      </trkpt>
      <trkpt lat="47.37619" lon="0.20541">
        <ele>70</ele>
        <time>2020-08-27T07:28:09Z</time>
      </trkpt>
      <trkpt lat="47.37616" lon="0.20539">
        <ele>70</ele>
        <time>2020-08-27T07:28:11Z</time>
      </trkpt>
      <trkpt lat="47.37614" lon="0.20538">
        <ele>70</ele>
        <time>2020-08-27T07:28:13Z</time>
      </trkpt>
      <trkpt lat="47.37612" lon="0.20536">
        <ele>70</ele>
        <time>2020-08-27T07:28:15Z</time>
      </trkpt>
      <trkpt lat="47.3761" lon="0.20535">
        <ele>69</ele>
        <time>2020-08-27T07:28:17Z</time>
      </trkpt>
      <trkpt lat="47.37608" lon="0.20534">
        <ele>69</ele>
        <time>2020-08-27T07:28:19Z</time>
      </trkpt>
      <trkpt lat="47.37606" lon="0.20533">
        <ele>69</ele>
        <time>2020-08-27T07:28:20Z</time>
      </trkpt>
      <trkpt lat="47.37603" lon="0.20533">
        <ele>69</ele>
        <time>2020-08-27T07:28:22Z</time>
      </trkpt>
      <trkpt lat="47.37601" lon="0.20532">
        <ele>69</ele>
        <time>2020-08-27T07:28:24Z</time>
      </trkpt>
      <trkpt lat="47.37599" lon="0.2053">
        <ele>69</ele>
        <time>2020-08-27T07:28:26Z</time>
      </trkpt>
      <trkpt lat="47.37596" lon="0.20529">
        <ele>69</ele>
        <time>2020-08-27T07:28:28Z</time>
      </trkpt>
      <trkpt lat="47.37594" lon="0.20527">
        <ele>69</ele>
        <time>2020-08-27T07:28:30Z</time>
      </trkpt>
      <trkpt lat="47.3759" lon="0.20525">
        <ele>69</ele>
        <time>2020-08-27T07:28:32Z</time>
      </trkpt>
      <trkpt lat="47.37589" lon="0.20525">
        <ele>69</ele>
        <time>2020-08-27T07:28:33Z</time>
      </trkpt>
      <trkpt lat="47.37586" lon="0.20523">
        <ele>68</ele>
        <time>2020-08-27T07:28:35Z</time>
      </trkpt>
      <trkpt lat="47.37584" lon="0.20521">
        <ele>68</ele>
        <time>2020-08-27T07:28:37Z</time>
      </trkpt>
      <trkpt lat="47.37581" lon="0.2052">
        <ele>68</ele>
        <time>2020-08-27T07:28:39Z</time>
      </trkpt>
      <trkpt lat="47.37579" lon="0.20518">
        <ele>68</ele>
        <time>2020-08-27T07:28:41Z</time>
      </trkpt>
      <trkpt lat="47.37577" lon="0.20517">
        <ele>68</ele>
        <time>2020-08-27T07:28:43Z</time>
      </trkpt>
      <trkpt lat="47.37575" lon="0.20515">
        <ele>68</ele>
        <time>2020-08-27T07:28:45Z</time>
      </trkpt>
      <trkpt lat="47.37573" lon="0.20514">
        <ele>68</ele>
        <time>2020-08-27T07:28:47Z</time>
      </trkpt>
      <trkpt lat="47.37571" lon="0.20512">
        <ele>68</ele>
        <time>2020-08-27T07:28:49Z</time>
      </trkpt>
      <trkpt lat="47.37568" lon="0.2051">
        <ele>68</ele>
        <time>2020-08-27T07:28:51Z</time>
      </trkpt>
      <trkpt lat="47.37565" lon="0.2051">
        <ele>68</ele>
        <time>2020-08-27T07:28:53Z</time>
      </trkpt>
      <trkpt lat="47.37562" lon="0.20509">
        <ele>68</ele>
        <time>2020-08-27T07:28:55Z</time>
      </trkpt>
      <trkpt lat="47.37559" lon="0.20508">
        <ele>68</ele>
        <time>2020-08-27T07:28:57Z</time>
      </trkpt>
      <trkpt lat="47.37557" lon="0.20506">
        <ele>68</ele>
        <time>2020-08-27T07:28:59Z</time>
      </trkpt>
      <trkpt lat="47.37554" lon="0.20504">
        <ele>68</ele>
        <time>2020-08-27T07:29:01Z</time>
      </trkpt>
      <trkpt lat="47.37552" lon="0.20502">
        <ele>68</ele>
        <time>2020-08-27T07:29:03Z</time>
      </trkpt>
      <trkpt lat="47.37549" lon="0.20501">
        <ele>68</ele>
        <time>2020-08-27T07:29:05Z</time>
      </trkpt>
      <trkpt lat="47.37547" lon="0.20501">
        <ele>68</ele>
        <time>2020-08-27T07:29:07Z</time>
      </trkpt>
      <trkpt lat="47.37544" lon="0.205">
        <ele>68</ele>
        <time>2020-08-27T07:29:09Z</time>
      </trkpt>
      <trkpt lat="47.37542" lon="0.20499">
        <ele>68</ele>
        <time>2020-08-27T07:29:11Z</time>
      </trkpt>
      <trkpt lat="47.37539" lon="0.20498">
        <ele>68</ele>
        <time>2020-08-27T07:29:13Z</time>
      </trkpt>
      <trkpt lat="47.37537" lon="0.20498">
        <ele>68</ele>
        <time>2020-08-27T07:29:15Z</time>
      </trkpt>
      <trkpt lat="47.37534" lon="0.20498">
        <ele>68</ele>
        <time>2020-08-27T07:29:17Z</time>
      </trkpt>
      <trkpt lat="47.37532" lon="0.20497">
        <ele>67</ele>
        <time>2020-08-27T07:29:19Z</time>
      </trkpt>
      <trkpt lat="47.37529" lon="0.20497">
        <ele>67</ele>
        <time>2020-08-27T07:29:21Z</time>
      </trkpt>
      <trkpt lat="47.37526" lon="0.20496">
        <ele>67</ele>
        <time>2020-08-27T07:29:23Z</time>
      </trkpt>
      <trkpt lat="47.37524" lon="0.20495">
        <ele>67</ele>
        <time>2020-08-27T07:29:25Z</time>
      </trkpt>
      <trkpt lat="47.37522" lon="0.20495">
        <ele>67</ele>
        <time>2020-08-27T07:29:27Z</time>
      </trkpt>
      <trkpt lat="47.37519" lon="0.20494">
        <ele>67</ele>
        <time>2020-08-27T07:29:29Z</time>
      </trkpt>
      <trkpt lat="47.37516" lon="0.20494">
        <ele>67</ele>
        <time>2020-08-27T07:29:31Z</time>
      </trkpt>
      <trkpt lat="47.37513" lon="0.20494">
        <ele>67</ele>
        <time>2020-08-27T07:29:33Z</time>
      </trkpt>
      <trkpt lat="47.37511" lon="0.20494">
        <ele>67</ele>
        <time>2020-08-27T07:29:34Z</time>
      </trkpt>
      <trkpt lat="47.37509" lon="0.20493">
        <ele>67</ele>
        <time>2020-08-27T07:29:36Z</time>
      </trkpt>
      <trkpt lat="47.37506" lon="0.20491">
        <ele>67</ele>
        <time>2020-08-27T07:29:38Z</time>
      </trkpt>
      <trkpt lat="47.37503" lon="0.20491">
        <ele>67</ele>
        <time>2020-08-27T07:29:40Z</time>
      </trkpt>
      <trkpt lat="47.37501" lon="0.2049">
        <ele>67</ele>
        <time>2020-08-27T07:29:42Z</time>
      </trkpt>
      <trkpt lat="47.37499" lon="0.20491">
        <ele>67</ele>
        <time>2020-08-27T07:29:44Z</time>
      </trkpt>
      <trkpt lat="47.37496" lon="0.20491">
        <ele>67</ele>
        <time>2020-08-27T07:29:46Z</time>
      </trkpt>
      <trkpt lat="47.37494" lon="0.2049">
        <ele>68</ele>
        <time>2020-08-27T07:29:48Z</time>
      </trkpt>
      <trkpt lat="47.37492" lon="0.20489">
        <ele>68</ele>
        <time>2020-08-27T07:29:50Z</time>
      </trkpt>
      <trkpt lat="47.37489" lon="0.20488">
        <ele>68</ele>
        <time>2020-08-27T07:29:52Z</time>
      </trkpt>
      <trkpt lat="47.37486" lon="0.20488">
        <ele>68</ele>
        <time>2020-08-27T07:29:54Z</time>
      </trkpt>
      <trkpt lat="47.37483" lon="0.20487">
        <ele>68</ele>
        <time>2020-08-27T07:29:56Z</time>
      </trkpt>
      <trkpt lat="47.37481" lon="0.20487">
        <ele>69</ele>
        <time>2020-08-27T07:29:58Z</time>
      </trkpt>
      <trkpt lat="47.37479" lon="0.20488">
        <ele>69</ele>
        <time>2020-08-27T07:30:00Z</time>
      </trkpt>
      <trkpt lat="47.37476" lon="0.20487">
        <ele>69</ele>
        <time>2020-08-27T07:30:02Z</time>
      </trkpt>
      <trkpt lat="47.37474" lon="0.20487">
        <ele>69</ele>
        <time>2020-08-27T07:30:05Z</time>
      </trkpt>
      <trkpt lat="47.37471" lon="0.20487">
        <ele>70</ele>
        <time>2020-08-27T07:30:07Z</time>
      </trkpt>
      <trkpt lat="47.37468" lon="0.20486">
        <ele>70</ele>
        <time>2020-08-27T07:30:09Z</time>
      </trkpt>
      <trkpt lat="47.37466" lon="0.20487">
        <ele>70</ele>
        <time>2020-08-27T07:30:11Z</time>
      </trkpt>
      <trkpt lat="47.37464" lon="0.20486">
        <ele>70</ele>
        <time>2020-08-27T07:30:13Z</time>
      </trkpt>
      <trkpt lat="47.37461" lon="0.20485">
        <ele>70</ele>
        <time>2020-08-27T07:30:15Z</time>
      </trkpt>
      <trkpt lat="47.37459" lon="0.20485">
        <ele>70</ele>
        <time>2020-08-27T07:30:16Z</time>
      </trkpt>
      <trkpt lat="47.37456" lon="0.20485">
        <ele>70</ele>
        <time>2020-08-27T07:30:18Z</time>
      </trkpt>
      <trkpt lat="47.37454" lon="0.20484">
        <ele>70</ele>
        <time>2020-08-27T07:30:20Z</time>
      </trkpt>
      <trkpt lat="47.37451" lon="0.20483">
        <ele>71</ele>
        <time>2020-08-27T07:30:22Z</time>
      </trkpt>
      <trkpt lat="47.37449" lon="0.20484">
        <ele>71</ele>
        <time>2020-08-27T07:30:24Z</time>
      </trkpt>
      <trkpt lat="47.37446" lon="0.20484">
        <ele>71</ele>
        <time>2020-08-27T07:30:26Z</time>
      </trkpt>
      <trkpt lat="47.37443" lon="0.20485">
        <ele>71</ele>
        <time>2020-08-27T07:30:28Z</time>
      </trkpt>
      <trkpt lat="47.37441" lon="0.20485">
        <ele>71</ele>
        <time>2020-08-27T07:30:30Z</time>
      </trkpt>
      <trkpt lat="47.37438" lon="0.20484">
        <ele>71</ele>
        <time>2020-08-27T07:30:32Z</time>
      </trkpt>
      <trkpt lat="47.37435" lon="0.20484">
        <ele>71</ele>
        <time>2020-08-27T07:30:34Z</time>
      </trkpt>
      <trkpt lat="47.37432" lon="0.20483">
        <ele>71</ele>
        <time>2020-08-27T07:30:36Z</time>
      </trkpt>
      <trkpt lat="47.3743" lon="0.20483">
        <ele>71</ele>
        <time>2020-08-27T07:30:38Z</time>
      </trkpt>
      <trkpt lat="47.37428" lon="0.20483">
        <ele>71</ele>
        <time>2020-08-27T07:30:40Z</time>
      </trkpt>
      <trkpt lat="47.37425" lon="0.20483">
        <ele>72</ele>
        <time>2020-08-27T07:30:42Z</time>
      </trkpt>
      <trkpt lat="47.37423" lon="0.20482">
        <ele>72</ele>
        <time>2020-08-27T07:30:44Z</time>
      </trkpt>
      <trkpt lat="47.3742" lon="0.20482">
        <ele>72</ele>
        <time>2020-08-27T07:30:46Z</time>
      </trkpt>
      <trkpt lat="47.37417" lon="0.20482">
        <ele>72</ele>
        <time>2020-08-27T07:30:48Z</time>
      </trkpt>
      <trkpt lat="47.37414" lon="0.20481">
        <ele>72</ele>
        <time>2020-08-27T07:30:50Z</time>
      </trkpt>
      <trkpt lat="47.37411" lon="0.20481">
        <ele>72</ele>
        <time>2020-08-27T07:30:52Z</time>
      </trkpt>
      <trkpt lat="47.37409" lon="0.20481">
        <ele>72</ele>
        <time>2020-08-27T07:30:54Z</time>
      </trkpt>
      <trkpt lat="47.37406" lon="0.20481">
        <ele>72</ele>
        <time>2020-08-27T07:30:56Z</time>
      </trkpt>
      <trkpt lat="47.37403" lon="0.20481">
        <ele>72</ele>
        <time>2020-08-27T07:30:58Z</time>
      </trkpt>
      <trkpt lat="47.374" lon="0.2048">
        <ele>72</ele>
        <time>2020-08-27T07:31:00Z</time>
      </trkpt>
      <trkpt lat="47.37398" lon="0.20479">
        <ele>72</ele>
        <time>2020-08-27T07:31:02Z</time>
      </trkpt>
      <trkpt lat="47.37395" lon="0.20478">
        <ele>72</ele>
        <time>2020-08-27T07:31:04Z</time>
      </trkpt>
      <trkpt lat="47.37392" lon="0.20478">
        <ele>72</ele>
        <time>2020-08-27T07:31:06Z</time>
      </trkpt>
      <trkpt lat="47.3739" lon="0.20478">
        <ele>72</ele>
        <time>2020-08-27T07:31:08Z</time>
      </trkpt>
      <trkpt lat="47.37388" lon="0.20478">
        <ele>72</ele>
        <time>2020-08-27T07:31:10Z</time>
      </trkpt>
      <trkpt lat="47.37386" lon="0.20478">
        <ele>72</ele>
        <time>2020-08-27T07:31:12Z</time>
      </trkpt>
      <trkpt lat="47.37383" lon="0.20478">
        <ele>72</ele>
        <time>2020-08-27T07:31:14Z</time>
      </trkpt>
      <trkpt lat="47.37381" lon="0.20478">
        <ele>72</ele>
        <time>2020-08-27T07:31:16Z</time>
      </trkpt>
      <trkpt lat="47.37378" lon="0.20478">
        <ele>72</ele>
        <time>2020-08-27T07:31:18Z</time>
      </trkpt>
      <trkpt lat="47.37375" lon="0.20477">
        <ele>72</ele>
        <time>2020-08-27T07:31:20Z</time>
      </trkpt>
      <trkpt lat="47.37373" lon="0.20477">
        <ele>72</ele>
        <time>2020-08-27T07:31:22Z</time>
      </trkpt>
      <trkpt lat="47.3737" lon="0.20477">
        <ele>72</ele>
        <time>2020-08-27T07:31:24Z</time>
      </trkpt>
      <trkpt lat="47.37367" lon="0.20477">
        <ele>72</ele>
        <time>2020-08-27T07:31:26Z</time>
      </trkpt>
      <trkpt lat="47.37364" lon="0.20476">
        <ele>72</ele>
        <time>2020-08-27T07:31:28Z</time>
      </trkpt>
      <trkpt lat="47.37362" lon="0.20476">
        <ele>72</ele>
        <time>2020-08-27T07:31:30Z</time>
      </trkpt>
      <trkpt lat="47.37359" lon="0.20475">
        <ele>72</ele>
        <time>2020-08-27T07:31:32Z</time>
      </trkpt>
      <trkpt lat="47.37356" lon="0.20475">
        <ele>72</ele>
        <time>2020-08-27T07:31:34Z</time>
      </trkpt>
      <trkpt lat="47.37354" lon="0.20474">
        <ele>72</ele>
        <time>2020-08-27T07:31:36Z</time>
      </trkpt>
      <trkpt lat="47.37351" lon="0.20473">
        <ele>72</ele>
        <time>2020-08-27T07:31:38Z</time>
      </trkpt>
      <trkpt lat="47.37348" lon="0.20473">
        <ele>72</ele>
        <time>2020-08-27T07:31:40Z</time>
      </trkpt>
      <trkpt lat="47.37345" lon="0.20473">
        <ele>71</ele>
        <time>2020-08-27T07:31:42Z</time>
      </trkpt>
      <trkpt lat="47.37342" lon="0.20473">
        <ele>71</ele>
        <time>2020-08-27T07:31:44Z</time>
      </trkpt>
      <trkpt lat="47.37339" lon="0.20473">
        <ele>71</ele>
        <time>2020-08-27T07:31:46Z</time>
      </trkpt>
      <trkpt lat="47.37336" lon="0.20473">
        <ele>71</ele>
        <time>2020-08-27T07:31:48Z</time>
      </trkpt>
      <trkpt lat="47.37334" lon="0.20473">
        <ele>71</ele>
        <time>2020-08-27T07:31:50Z</time>
      </trkpt>
      <trkpt lat="47.37331" lon="0.20473">
        <ele>70</ele>
        <time>2020-08-27T07:31:52Z</time>
      </trkpt>
      <trkpt lat="47.37328" lon="0.20473">
        <ele>70</ele>
        <time>2020-08-27T07:31:54Z</time>
      </trkpt>
      <trkpt lat="47.37326" lon="0.20472">
        <ele>69</ele>
        <time>2020-08-27T07:31:56Z</time>
      </trkpt>
      <trkpt lat="47.37323" lon="0.20472">
        <ele>69</ele>
        <time>2020-08-27T07:31:58Z</time>
      </trkpt>
      <trkpt lat="47.37321" lon="0.20471">
        <ele>68</ele>
        <time>2020-08-27T07:32:00Z</time>
      </trkpt>
      <trkpt lat="47.37318" lon="0.2047">
        <ele>68</ele>
        <time>2020-08-27T07:32:02Z</time>
      </trkpt>
      <trkpt lat="47.37316" lon="0.2047">
        <ele>67</ele>
        <time>2020-08-27T07:32:04Z</time>
      </trkpt>
      <trkpt lat="47.37314" lon="0.2047">
        <ele>67</ele>
        <time>2020-08-27T07:32:06Z</time>
      </trkpt>
      <trkpt lat="47.37311" lon="0.20469">
        <ele>67</ele>
        <time>2020-08-27T07:32:08Z</time>
      </trkpt>
      <trkpt lat="47.37308" lon="0.20469">
        <ele>66</ele>
        <time>2020-08-27T07:32:10Z</time>
      </trkpt>
      <trkpt lat="47.37305" lon="0.20469">
        <ele>66</ele>
        <time>2020-08-27T07:32:12Z</time>
      </trkpt>
      <trkpt lat="47.37302" lon="0.20469">
        <ele>65</ele>
        <time>2020-08-27T07:32:14Z</time>
      </trkpt>
      <trkpt lat="47.37299" lon="0.20469">
        <ele>65</ele>
        <time>2020-08-27T07:32:16Z</time>
      </trkpt>
      <trkpt lat="47.37296" lon="0.20469">
        <ele>65</ele>
        <time>2020-08-27T07:32:18Z</time>
      </trkpt>
      <trkpt lat="47.37293" lon="0.2047">
        <ele>65</ele>
        <time>2020-08-27T07:32:20Z</time>
      </trkpt>
      <trkpt lat="47.37291" lon="0.2047">
        <ele>65</ele>
        <time>2020-08-27T07:32:22Z</time>
      </trkpt>
      <trkpt lat="47.37288" lon="0.20469">
        <ele>64</ele>
        <time>2020-08-27T07:32:24Z</time>
      </trkpt>
      <trkpt lat="47.37285" lon="0.20469">
        <ele>64</ele>
        <time>2020-08-27T07:32:26Z</time>
      </trkpt>
      <trkpt lat="47.37283" lon="0.20469">
        <ele>64</ele>
        <time>2020-08-27T07:32:28Z</time>
      </trkpt>
      <trkpt lat="47.3728" lon="0.20469">
        <ele>64</ele>
        <time>2020-08-27T07:32:30Z</time>
      </trkpt>
      <trkpt lat="47.37278" lon="0.20469">
        <ele>64</ele>
        <time>2020-08-27T07:32:32Z</time>
      </trkpt>
      <trkpt lat="47.37276" lon="0.20469">
        <ele>64</ele>
        <time>2020-08-27T07:32:34Z</time>
      </trkpt>
      <trkpt lat="47.37273" lon="0.20467">
        <ele>64</ele>
        <time>2020-08-27T07:32:36Z</time>
      </trkpt>
      <trkpt lat="47.3727" lon="0.20467">
        <ele>64</ele>
        <time>2020-08-27T07:32:38Z</time>
      </trkpt>
      <trkpt lat="47.37268" lon="0.20466">
        <ele>64</ele>
        <time>2020-08-27T07:32:40Z</time>
      </trkpt>
      <trkpt lat="47.37265" lon="0.20465">
        <ele>65</ele>
        <time>2020-08-27T07:32:42Z</time>
      </trkpt>
      <trkpt lat="47.37264" lon="0.20463">
        <ele>65</ele>
        <time>2020-08-27T07:32:44Z</time>
      </trkpt>
      <trkpt lat="47.37262" lon="0.2046">
        <ele>65</ele>
        <time>2020-08-27T07:32:46Z</time>
      </trkpt>
      <trkpt lat="47.37259" lon="0.20458">
        <ele>65</ele>
        <time>2020-08-27T07:32:48Z</time>
      </trkpt>
      <trkpt lat="47.37257" lon="0.20457">
        <ele>65</ele>
        <time>2020-08-27T07:32:50Z</time>
      </trkpt>
      <trkpt lat="47.37255" lon="0.20455">
        <ele>65</ele>
        <time>2020-08-27T07:32:52Z</time>
      </trkpt>
      <trkpt lat="47.37253" lon="0.20454">
        <ele>65</ele>
        <time>2020-08-27T07:32:54Z</time>
      </trkpt>
      <trkpt lat="47.37251" lon="0.20452">
        <ele>65</ele>
        <time>2020-08-27T07:32:56Z</time>
      </trkpt>
      <trkpt lat="47.37249" lon="0.2045">
        <ele>66</ele>
        <time>2020-08-27T07:32:58Z</time>
      </trkpt>
      <trkpt lat="47.37247" lon="0.2045">
        <ele>66</ele>
        <time>2020-08-27T07:33:00Z</time>
      </trkpt>
      <trkpt lat="47.37244" lon="0.20448">
        <ele>66</ele>
        <time>2020-08-27T07:33:02Z</time>
      </trkpt>
      <trkpt lat="47.37242" lon="0.20445">
        <ele>66</ele>
        <time>2020-08-27T07:33:04Z</time>
      </trkpt>
      <trkpt lat="47.3724" lon="0.20444">
        <ele>66</ele>
        <time>2020-08-27T07:33:06Z</time>
      </trkpt>
      <trkpt lat="47.37238" lon="0.20442">
        <ele>66</ele>
        <time>2020-08-27T07:33:08Z</time>
      </trkpt>
      <trkpt lat="47.37236" lon="0.2044">
        <ele>66</ele>
        <time>2020-08-27T07:33:10Z</time>
      </trkpt>
      <trkpt lat="47.37234" lon="0.20438">
        <ele>66</ele>
        <time>2020-08-27T07:33:12Z</time>
      </trkpt>
      <trkpt lat="47.37232" lon="0.20435">
        <ele>66</ele>
        <time>2020-08-27T07:33:14Z</time>
      </trkpt>
      <trkpt lat="47.3723" lon="0.20432">
        <ele>66</ele>
        <time>2020-08-27T07:33:16Z</time>
      </trkpt>
      <trkpt lat="47.37228" lon="0.2043">
        <ele>66</ele>
        <time>2020-08-27T07:33:18Z</time>
      </trkpt>
      <trkpt lat="47.37226" lon="0.20429">
        <ele>66</ele>
        <time>2020-08-27T07:33:20Z</time>
      </trkpt>
      <trkpt lat="47.37224" lon="0.20428">
        <ele>66</ele>
        <time>2020-08-27T07:33:22Z</time>
      </trkpt>
      <trkpt lat="47.37222" lon="0.20426">
        <ele>66</ele>
        <time>2020-08-27T07:33:24Z</time>
      </trkpt>
      <trkpt lat="47.3722" lon="0.20424">
        <ele>66</ele>
        <time>2020-08-27T07:33:26Z</time>
      </trkpt>
      <trkpt lat="47.37217" lon="0.20421">
        <ele>66</ele>
        <time>2020-08-27T07:33:28Z</time>
      </trkpt>
      <trkpt lat="47.37214" lon="0.20419">
        <ele>66</ele>
        <time>2020-08-27T07:33:30Z</time>
      </trkpt>
      <trkpt lat="47.37212" lon="0.20418">
        <ele>66</ele>
        <time>2020-08-27T07:33:32Z</time>
      </trkpt>
      <trkpt lat="47.3721" lon="0.20416">
        <ele>67</ele>
        <time>2020-08-27T07:33:34Z</time>
      </trkpt>
      <trkpt lat="47.37208" lon="0.20416">
        <ele>67</ele>
        <time>2020-08-27T07:33:35Z</time>
      </trkpt>
      <trkpt lat="47.37205" lon="0.20414">
        <ele>67</ele>
        <time>2020-08-27T07:33:37Z</time>
      </trkpt>
      <trkpt lat="47.37203" lon="0.20414">
        <ele>67</ele>
        <time>2020-08-27T07:33:39Z</time>
      </trkpt>
      <trkpt lat="47.372" lon="0.20412">
        <ele>67</ele>
        <time>2020-08-27T07:33:41Z</time>
      </trkpt>
      <trkpt lat="47.37198" lon="0.20412">
        <ele>67</ele>
        <time>2020-08-27T07:33:43Z</time>
      </trkpt>
      <trkpt lat="47.37195" lon="0.2041">
        <ele>67</ele>
        <time>2020-08-27T07:33:45Z</time>
      </trkpt>
      <trkpt lat="47.37192" lon="0.20408">
        <ele>67</ele>
        <time>2020-08-27T07:33:47Z</time>
      </trkpt>
      <trkpt lat="47.3719" lon="0.20407">
        <ele>67</ele>
        <time>2020-08-27T07:33:49Z</time>
      </trkpt>
      <trkpt lat="47.37187" lon="0.20406">
        <ele>66</ele>
        <time>2020-08-27T07:33:51Z</time>
      </trkpt>
      <trkpt lat="47.37184" lon="0.20402">
        <ele>66</ele>
        <time>2020-08-27T07:33:53Z</time>
      </trkpt>
      <trkpt lat="47.37182" lon="0.20401">
        <ele>66</ele>
        <time>2020-08-27T07:33:55Z</time>
      </trkpt>
      <trkpt lat="47.37179" lon="0.20399">
        <ele>66</ele>
        <time>2020-08-27T07:33:57Z</time>
      </trkpt>
      <trkpt lat="47.37177" lon="0.20398">
        <ele>66</ele>
        <time>2020-08-27T07:33:58Z</time>
      </trkpt>
      <trkpt lat="47.37175" lon="0.20398">
        <ele>66</ele>
        <time>2020-08-27T07:33:59Z</time>
      </trkpt>
      <trkpt lat="47.37172" lon="0.20396">
        <ele>66</ele>
        <time>2020-08-27T07:34:01Z</time>
      </trkpt>
      <trkpt lat="47.37169" lon="0.20396">
        <ele>65</ele>
        <time>2020-08-27T07:34:04Z</time>
      </trkpt>
      <trkpt lat="47.37168" lon="0.20395">
        <ele>65</ele>
        <time>2020-08-27T07:34:06Z</time>
      </trkpt>
      <trkpt lat="47.37165" lon="0.20395">
        <ele>65</ele>
        <time>2020-08-27T07:34:08Z</time>
      </trkpt>
      <trkpt lat="47.37163" lon="0.20395">
        <ele>65</ele>
        <time>2020-08-27T07:34:10Z</time>
      </trkpt>
      <trkpt lat="47.3716" lon="0.20393">
        <ele>65</ele>
        <time>2020-08-27T07:34:12Z</time>
      </trkpt>
      <trkpt lat="47.37158" lon="0.20392">
        <ele>65</ele>
        <time>2020-08-27T07:34:14Z</time>
      </trkpt>
      <trkpt lat="47.37156" lon="0.2039">
        <ele>65</ele>
        <time>2020-08-27T07:34:16Z</time>
      </trkpt>
      <trkpt lat="47.37153" lon="0.20388">
        <ele>65</ele>
        <time>2020-08-27T07:34:18Z</time>
      </trkpt>
      <trkpt lat="47.37151" lon="0.20386">
        <ele>64</ele>
        <time>2020-08-27T07:34:20Z</time>
      </trkpt>
      <trkpt lat="47.37149" lon="0.20384">
        <ele>64</ele>
        <time>2020-08-27T07:34:22Z</time>
      </trkpt>
      <trkpt lat="47.37146" lon="0.20382">
        <ele>64</ele>
        <time>2020-08-27T07:34:25Z</time>
      </trkpt>
      <trkpt lat="47.37144" lon="0.2038">
        <ele>64</ele>
        <time>2020-08-27T07:34:27Z</time>
      </trkpt>
      <trkpt lat="47.37142" lon="0.20378">
        <ele>64</ele>
        <time>2020-08-27T07:34:29Z</time>
      </trkpt>
      <trkpt lat="47.3714" lon="0.20376">
        <ele>64</ele>
        <time>2020-08-27T07:34:31Z</time>
      </trkpt>
      <trkpt lat="47.37137" lon="0.20374">
        <ele>64</ele>
        <time>2020-08-27T07:34:33Z</time>
      </trkpt>
      <trkpt lat="47.37135" lon="0.20373">
        <ele>64</ele>
        <time>2020-08-27T07:34:35Z</time>
      </trkpt>
      <trkpt lat="47.37132" lon="0.20373">
        <ele>64</ele>
        <time>2020-08-27T07:34:37Z</time>
      </trkpt>
      <trkpt lat="47.3713" lon="0.20372">
        <ele>64</ele>
        <time>2020-08-27T07:34:39Z</time>
      </trkpt>
      <trkpt lat="47.37128" lon="0.20371">
        <ele>64</ele>
        <time>2020-08-27T07:34:42Z</time>
      </trkpt>
      <trkpt lat="47.37126" lon="0.2037">
        <ele>64</ele>
        <time>2020-08-27T07:34:44Z</time>
      </trkpt>
      <trkpt lat="47.37124" lon="0.2037">
        <ele>64</ele>
        <time>2020-08-27T07:34:46Z</time>
      </trkpt>
      <trkpt lat="47.37123" lon="0.2037">
        <ele>64</ele>
        <time>2020-08-27T07:35:12Z</time>
      </trkpt>
      <trkpt lat="47.3712" lon="0.20369">
        <ele>64</ele>
        <time>2020-08-27T07:35:17Z</time>
      </trkpt>
      <trkpt lat="47.37118" lon="0.20369">
        <ele>64</ele>
        <time>2020-08-27T07:35:20Z</time>
      </trkpt>
      <trkpt lat="47.37118" lon="0.20366">
        <ele>64</ele>
        <time>2020-08-27T07:35:29Z</time>
      </trkpt>
      <trkpt lat="47.37116" lon="0.20364">
        <ele>64</ele>
        <time>2020-08-27T07:35:38Z</time>
      </trkpt>
      <trkpt lat="47.37114" lon="0.20363">
        <ele>64</ele>
        <time>2020-08-27T07:35:43Z</time>
      </trkpt>
      <trkpt lat="47.37112" lon="0.20364">
        <ele>63</ele>
        <time>2020-08-27T07:35:53Z</time>
      </trkpt>
      <trkpt lat="47.3711" lon="0.20364">
        <ele>63</ele>
        <time>2020-08-27T07:35:55Z</time>
      </trkpt>
      <trkpt lat="47.37108" lon="0.20365">
        <ele>63</ele>
        <time>2020-08-27T07:35:57Z</time>
      </trkpt>
      <trkpt lat="47.37105" lon="0.20365">
        <ele>63</ele>
        <time>2020-08-27T07:35:59Z</time>
      </trkpt>
      <trkpt lat="47.37103" lon="0.20364">
        <ele>63</ele>
        <time>2020-08-27T07:36:01Z</time>
      </trkpt>
      <trkpt lat="47.37101" lon="0.20363">
        <ele>63</ele>
        <time>2020-08-27T07:36:03Z</time>
      </trkpt>
      <trkpt lat="47.37098" lon="0.20362">
        <ele>63</ele>
        <time>2020-08-27T07:36:06Z</time>
      </trkpt>
      <trkpt lat="47.37096" lon="0.20363">
        <ele>62</ele>
        <time>2020-08-27T07:36:08Z</time>
      </trkpt>
      <trkpt lat="47.37094" lon="0.20363">
        <ele>62</ele>
        <time>2020-08-27T07:36:11Z</time>
      </trkpt>
      <trkpt lat="47.37092" lon="0.20363">
        <ele>62</ele>
        <time>2020-08-27T07:36:14Z</time>
      </trkpt>
      <trkpt lat="47.37091" lon="0.20362">
        <ele>62</ele>
        <time>2020-08-27T07:36:17Z</time>
      </trkpt>
      <trkpt lat="47.3709" lon="0.20359">
        <ele>62</ele>
        <time>2020-08-27T07:36:29Z</time>
      </trkpt>
      <trkpt lat="47.37088" lon="0.20358">
        <ele>62</ele>
        <time>2020-08-27T07:36:39Z</time>
      </trkpt>
      <trkpt lat="47.37089" lon="0.20355">
        <ele>62</ele>
        <time>2020-08-27T07:36:43Z</time>
      </trkpt>
      <trkpt lat="47.3709" lon="0.20357">
        <ele>62</ele>
        <time>2020-08-27T07:36:50Z</time>
      </trkpt>
      <trkpt lat="47.37088" lon="0.20357">
        <ele>62</ele>
        <time>2020-08-27T07:37:13Z</time>
      </trkpt>
      <trkpt lat="47.37087" lon="0.20358">
        <ele>62</ele>
        <time>2020-08-27T07:37:29Z</time>
      </trkpt>
      <trkpt lat="47.37086" lon="0.20356">
        <ele>62</ele>
        <time>2020-08-27T07:37:47Z</time>
      </trkpt>
      <trkpt lat="47.37084" lon="0.20357">
        <ele>62</ele>
        <time>2020-08-27T07:38:23Z</time>
      </trkpt>
      <trkpt lat="47.37084" lon="0.20359">
        <ele>62</ele>
        <time>2020-08-27T07:38:50Z</time>
      </trkpt>
      <trkpt lat="47.37082" lon="0.20358">
        <ele>62</ele>
        <time>2020-08-27T07:39:46Z</time>
      </trkpt>
      <trkpt lat="47.37084" lon="0.20356">
        <ele>62</ele>
        <time>2020-08-27T07:40:35Z</time>
      </trkpt>
      <trkpt lat="47.37086" lon="0.20355">
        <ele>62</ele>
        <time>2020-08-27T07:40:44Z</time>
      </trkpt>
      <trkpt lat="47.37085" lon="0.20352">
        <ele>62</ele>
        <time>2020-08-27T07:41:17Z</time>
      </trkpt>
      <trkpt lat="47.37083" lon="0.20353">
        <ele>62</ele>
        <time>2020-08-27T07:41:22Z</time>
      </trkpt>
      <trkpt lat="47.37081" lon="0.20352">
        <ele>62</ele>
        <time>2020-08-27T07:41:25Z</time>
      </trkpt>
      <trkpt lat="47.37079" lon="0.20353">
        <ele>62</ele>
        <time>2020-08-27T07:41:28Z</time>
      </trkpt>
      <trkpt lat="47.37077" lon="0.20354">
        <ele>62</ele>
        <time>2020-08-27T07:41:33Z</time>
      </trkpt>
      <trkpt lat="47.37075" lon="0.20354">
        <ele>62</ele>
        <time>2020-08-27T07:41:36Z</time>
      </trkpt>
      <trkpt lat="47.37072" lon="0.20353">
        <ele>62</ele>
        <time>2020-08-27T07:41:39Z</time>
      </trkpt>
      <trkpt lat="47.3707" lon="0.20352">
        <ele>62</ele>
        <time>2020-08-27T07:41:41Z</time>
      </trkpt>
      <trkpt lat="47.37068" lon="0.20353">
        <ele>62</ele>
        <time>2020-08-27T07:41:44Z</time>
      </trkpt>
      <trkpt lat="47.37066" lon="0.20353">
        <ele>62</ele>
        <time>2020-08-27T07:41:47Z</time>
      </trkpt>
      <trkpt lat="47.37063" lon="0.20352">
        <ele>62</ele>
        <time>2020-08-27T07:41:49Z</time>
      </trkpt>
      <trkpt lat="47.37061" lon="0.20351">
        <ele>62</ele>
        <time>2020-08-27T07:41:51Z</time>
      </trkpt>
      <trkpt lat="47.37059" lon="0.20351">
        <ele>62</ele>
        <time>2020-08-27T07:41:53Z</time>
      </trkpt>
      <trkpt lat="47.37056" lon="0.20351">
        <ele>62</ele>
        <time>2020-08-27T07:41:55Z</time>
      </trkpt>
      <trkpt lat="47.37054" lon="0.2035">
        <ele>62</ele>
        <time>2020-08-27T07:41:57Z</time>
      </trkpt>
      <trkpt lat="47.37052" lon="0.20349">
        <ele>62</ele>
        <time>2020-08-27T07:41:59Z</time>
      </trkpt>
      <trkpt lat="47.3705" lon="0.20348">
        <ele>62</ele>
        <time>2020-08-27T07:42:01Z</time>
      </trkpt>
      <trkpt lat="47.37048" lon="0.20347">
        <ele>62</ele>
        <time>2020-08-27T07:42:03Z</time>
      </trkpt>
      <trkpt lat="47.37045" lon="0.20346">
        <ele>62</ele>
        <time>2020-08-27T07:42:05Z</time>
      </trkpt>
      <trkpt lat="47.37043" lon="0.20345">
        <ele>62</ele>
        <time>2020-08-27T07:42:07Z</time>
      </trkpt>
      <trkpt lat="47.37041" lon="0.20345">
        <ele>62</ele>
        <time>2020-08-27T07:42:09Z</time>
      </trkpt>
      <trkpt lat="47.37038" lon="0.20344">
        <ele>62</ele>
        <time>2020-08-27T07:42:11Z</time>
      </trkpt>
      <trkpt lat="47.37036" lon="0.20343">
        <ele>62</ele>
        <time>2020-08-27T07:42:13Z</time>
      </trkpt>
      <trkpt lat="47.37034" lon="0.20342">
        <ele>62</ele>
        <time>2020-08-27T07:42:15Z</time>
      </trkpt>
      <trkpt lat="47.37032" lon="0.20341">
        <ele>62</ele>
        <time>2020-08-27T07:42:17Z</time>
      </trkpt>
      <trkpt lat="47.3703" lon="0.2034">
        <ele>62</ele>
        <time>2020-08-27T07:42:19Z</time>
      </trkpt>
      <trkpt lat="47.37027" lon="0.20339">
        <ele>62</ele>
        <time>2020-08-27T07:42:22Z</time>
      </trkpt>
      <trkpt lat="47.37025" lon="0.20337">
        <ele>62</ele>
        <time>2020-08-27T07:42:24Z</time>
      </trkpt>
      <trkpt lat="47.37021" lon="0.20337">
        <ele>62</ele>
        <time>2020-08-27T07:42:26Z</time>
      </trkpt>
      <trkpt lat="47.37019" lon="0.20336">
        <ele>62</ele>
        <time>2020-08-27T07:42:28Z</time>
      </trkpt>
      <trkpt lat="47.37016" lon="0.20337">
        <ele>62</ele>
        <time>2020-08-27T07:42:30Z</time>
      </trkpt>
      <trkpt lat="47.37014" lon="0.20338">
        <ele>62</ele>
        <time>2020-08-27T07:42:32Z</time>
      </trkpt>
      <trkpt lat="47.37011" lon="0.20337">
        <ele>62</ele>
        <time>2020-08-27T07:42:34Z</time>
      </trkpt>
      <trkpt lat="47.37009" lon="0.20336">
        <ele>62</ele>
        <time>2020-08-27T07:42:36Z</time>
      </trkpt>
      <trkpt lat="47.37007" lon="0.20335">
        <ele>62</ele>
        <time>2020-08-27T07:42:38Z</time>
      </trkpt>
      <trkpt lat="47.37005" lon="0.20334">
        <ele>62</ele>
        <time>2020-08-27T07:42:40Z</time>
      </trkpt>
      <trkpt lat="47.37003" lon="0.20333">
        <ele>63</ele>
        <time>2020-08-27T07:42:42Z</time>
      </trkpt>
      <trkpt lat="47.37001" lon="0.20332">
        <ele>63</ele>
        <time>2020-08-27T07:42:44Z</time>
      </trkpt>
      <trkpt lat="47.36999" lon="0.20331">
        <ele>63</ele>
        <time>2020-08-27T07:42:46Z</time>
      </trkpt>
      <trkpt lat="47.36996" lon="0.2033">
        <ele>63</ele>
        <time>2020-08-27T07:42:48Z</time>
      </trkpt>
      <trkpt lat="47.36993" lon="0.20329">
        <ele>63</ele>
        <time>2020-08-27T07:42:50Z</time>
      </trkpt>
      <trkpt lat="47.36991" lon="0.20329">
        <ele>63</ele>
        <time>2020-08-27T07:42:52Z</time>
      </trkpt>
      <trkpt lat="47.36988" lon="0.20328">
        <ele>63</ele>
        <time>2020-08-27T07:42:55Z</time>
      </trkpt>
      <trkpt lat="47.36986" lon="0.20327">
        <ele>63</ele>
        <time>2020-08-27T07:42:57Z</time>
      </trkpt>
      <trkpt lat="47.36984" lon="0.20326">
        <ele>63</ele>
        <time>2020-08-27T07:42:59Z</time>
      </trkpt>
      <trkpt lat="47.36982" lon="0.20326">
        <ele>63</ele>
        <time>2020-08-27T07:43:01Z</time>
      </trkpt>
      <trkpt lat="47.3698" lon="0.20324">
        <ele>63</ele>
        <time>2020-08-27T07:43:03Z</time>
      </trkpt>
      <trkpt lat="47.36977" lon="0.20324">
        <ele>63</ele>
        <time>2020-08-27T07:43:05Z</time>
      </trkpt>
      <trkpt lat="47.36975" lon="0.20323">
        <ele>63</ele>
        <time>2020-08-27T07:43:07Z</time>
      </trkpt>
      <trkpt lat="47.36972" lon="0.20322">
        <ele>63</ele>
        <time>2020-08-27T07:43:09Z</time>
      </trkpt>
      <trkpt lat="47.3697" lon="0.2032">
        <ele>63</ele>
        <time>2020-08-27T07:43:11Z</time>
      </trkpt>
      <trkpt lat="47.36967" lon="0.2032">
        <ele>63</ele>
        <time>2020-08-27T07:43:13Z</time>
      </trkpt>
      <trkpt lat="47.36965" lon="0.20318">
        <ele>63</ele>
        <time>2020-08-27T07:43:15Z</time>
      </trkpt>
      <trkpt lat="47.36962" lon="0.20317">
        <ele>63</ele>
        <time>2020-08-27T07:43:17Z</time>
      </trkpt>
      <trkpt lat="47.3696" lon="0.20315">
        <ele>63</ele>
        <time>2020-08-27T07:43:19Z</time>
      </trkpt>
      <trkpt lat="47.36957" lon="0.20314">
        <ele>64</ele>
        <time>2020-08-27T07:43:21Z</time>
      </trkpt>
      <trkpt lat="47.36955" lon="0.20314">
        <ele>64</ele>
        <time>2020-08-27T07:43:22Z</time>
      </trkpt>
      <trkpt lat="47.36952" lon="0.20313">
        <ele>64</ele>
        <time>2020-08-27T07:43:24Z</time>
      </trkpt>
      <trkpt lat="47.36949" lon="0.20313">
        <ele>64</ele>
        <time>2020-08-27T07:43:26Z</time>
      </trkpt>
      <trkpt lat="47.36947" lon="0.20313">
        <ele>64</ele>
        <time>2020-08-27T07:43:28Z</time>
      </trkpt>
      <trkpt lat="47.36944" lon="0.20313">
        <ele>64</ele>
        <time>2020-08-27T07:43:30Z</time>
      </trkpt>
      <trkpt lat="47.36942" lon="0.20313">
        <ele>64</ele>
        <time>2020-08-27T07:43:32Z</time>
      </trkpt>
      <trkpt lat="47.3694" lon="0.20313">
        <ele>64</ele>
        <time>2020-08-27T07:43:34Z</time>
      </trkpt>
      <trkpt lat="47.36937" lon="0.20312">
        <ele>64</ele>
        <time>2020-08-27T07:43:36Z</time>
      </trkpt>
      <trkpt lat="47.36935" lon="0.20311">
        <ele>64</ele>
        <time>2020-08-27T07:43:38Z</time>
      </trkpt>
      <trkpt lat="47.36932" lon="0.20311">
        <ele>63</ele>
        <time>2020-08-27T07:43:40Z</time>
      </trkpt>
      <trkpt lat="47.3693" lon="0.2031">
        <ele>63</ele>
        <time>2020-08-27T07:43:42Z</time>
      </trkpt>
      <trkpt lat="47.36928" lon="0.20309">
        <ele>63</ele>
        <time>2020-08-27T07:43:44Z</time>
      </trkpt>
      <trkpt lat="47.36925" lon="0.20309">
        <ele>63</ele>
        <time>2020-08-27T07:43:46Z</time>
      </trkpt>
      <trkpt lat="47.36922" lon="0.20307">
        <ele>63</ele>
        <time>2020-08-27T07:43:49Z</time>
      </trkpt>
      <trkpt lat="47.36921" lon="0.20307">
        <ele>63</ele>
        <time>2020-08-27T07:43:50Z</time>
      </trkpt>
      <trkpt lat="47.36919" lon="0.20306">
        <ele>63</ele>
        <time>2020-08-27T07:43:51Z</time>
      </trkpt>
      <trkpt lat="47.36917" lon="0.20305">
        <ele>63</ele>
        <time>2020-08-27T07:43:52Z</time>
      </trkpt>
      <trkpt lat="47.36914" lon="0.20304">
        <ele>63</ele>
        <time>2020-08-27T07:43:54Z</time>
      </trkpt>
      <trkpt lat="47.36912" lon="0.20303">
        <ele>63</ele>
        <time>2020-08-27T07:43:56Z</time>
      </trkpt>
      <trkpt lat="47.3691" lon="0.20303">
        <ele>63</ele>
        <time>2020-08-27T07:43:58Z</time>
      </trkpt>
      <trkpt lat="47.36907" lon="0.20301">
        <ele>63</ele>
        <time>2020-08-27T07:44:00Z</time>
      </trkpt>
      <trkpt lat="47.36905" lon="0.20301">
        <ele>63</ele>
        <time>2020-08-27T07:44:02Z</time>
      </trkpt>
      <trkpt lat="47.36902" lon="0.203">
        <ele>63</ele>
        <time>2020-08-27T07:44:04Z</time>
      </trkpt>
      <trkpt lat="47.369" lon="0.203">
        <ele>63</ele>
        <time>2020-08-27T07:44:06Z</time>
      </trkpt>
      <trkpt lat="47.36898" lon="0.20299">
        <ele>63</ele>
        <time>2020-08-27T07:44:08Z</time>
      </trkpt>
      <trkpt lat="47.36895" lon="0.20298">
        <ele>63</ele>
        <time>2020-08-27T07:44:10Z</time>
      </trkpt>
      <trkpt lat="47.36892" lon="0.20298">
        <ele>63</ele>
        <time>2020-08-27T07:44:12Z</time>
      </trkpt>
      <trkpt lat="47.36889" lon="0.20297">
        <ele>63</ele>
        <time>2020-08-27T07:44:14Z</time>
      </trkpt>
      <trkpt lat="47.36887" lon="0.20295">
        <ele>64</ele>
        <time>2020-08-27T07:44:16Z</time>
      </trkpt>
      <trkpt lat="47.36884" lon="0.20293">
        <ele>64</ele>
        <time>2020-08-27T07:44:18Z</time>
      </trkpt>
      <trkpt lat="47.36882" lon="0.20292">
        <ele>64</ele>
        <time>2020-08-27T07:44:19Z</time>
      </trkpt>
      <trkpt lat="47.3688" lon="0.20291">
        <ele>64</ele>
        <time>2020-08-27T07:44:21Z</time>
      </trkpt>
      <trkpt lat="47.36878" lon="0.20291">
        <ele>64</ele>
        <time>2020-08-27T07:44:23Z</time>
      </trkpt>
      <trkpt lat="47.36876" lon="0.2029">
        <ele>64</ele>
        <time>2020-08-27T07:44:25Z</time>
      </trkpt>
      <trkpt lat="47.36873" lon="0.20289">
        <ele>64</ele>
        <time>2020-08-27T07:44:27Z</time>
      </trkpt>
      <trkpt lat="47.3687" lon="0.20288">
        <ele>64</ele>
        <time>2020-08-27T07:44:29Z</time>
      </trkpt>
      <trkpt lat="47.36866" lon="0.20287">
        <ele>64</ele>
        <time>2020-08-27T07:44:31Z</time>
      </trkpt>
      <trkpt lat="47.36865" lon="0.20286">
        <ele>64</ele>
        <time>2020-08-27T07:44:32Z</time>
      </trkpt>
      <trkpt lat="47.36862" lon="0.20285">
        <ele>64</ele>
        <time>2020-08-27T07:44:34Z</time>
      </trkpt>
      <trkpt lat="47.36859" lon="0.20283">
        <ele>65</ele>
        <time>2020-08-27T07:44:36Z</time>
      </trkpt>
      <trkpt lat="47.36857" lon="0.20283">
        <ele>65</ele>
        <time>2020-08-27T07:44:38Z</time>
      </trkpt>
      <trkpt lat="47.36854" lon="0.20282">
        <ele>65</ele>
        <time>2020-08-27T07:44:40Z</time>
      </trkpt>
      <trkpt lat="47.36851" lon="0.20282">
        <ele>65</ele>
        <time>2020-08-27T07:44:42Z</time>
      </trkpt>
      <trkpt lat="47.36848" lon="0.20281">
        <ele>65</ele>
        <time>2020-08-27T07:44:44Z</time>
      </trkpt>
      <trkpt lat="47.36846" lon="0.2028">
        <ele>65</ele>
        <time>2020-08-27T07:44:46Z</time>
      </trkpt>
      <trkpt lat="47.36844" lon="0.20278">
        <ele>65</ele>
        <time>2020-08-27T07:44:48Z</time>
      </trkpt>
      <trkpt lat="47.36841" lon="0.20278">
        <ele>65</ele>
        <time>2020-08-27T07:44:50Z</time>
      </trkpt>
      <trkpt lat="47.36838" lon="0.20277">
        <ele>65</ele>
        <time>2020-08-27T07:44:52Z</time>
      </trkpt>
      <trkpt lat="47.36835" lon="0.20277">
        <ele>65</ele>
        <time>2020-08-27T07:44:54Z</time>
      </trkpt>
      <trkpt lat="47.36833" lon="0.20277">
        <ele>66</ele>
        <time>2020-08-27T07:44:56Z</time>
      </trkpt>
      <trkpt lat="47.3683" lon="0.20277">
        <ele>66</ele>
        <time>2020-08-27T07:44:58Z</time>
      </trkpt>
      <trkpt lat="47.36828" lon="0.20276">
        <ele>66</ele>
        <time>2020-08-27T07:45:00Z</time>
      </trkpt>
      <trkpt lat="47.36825" lon="0.20275">
        <ele>66</ele>
        <time>2020-08-27T07:45:02Z</time>
      </trkpt>
      <trkpt lat="47.36822" lon="0.20275">
        <ele>66</ele>
        <time>2020-08-27T07:45:04Z</time>
      </trkpt>
      <trkpt lat="47.3682" lon="0.20274">
        <ele>66</ele>
        <time>2020-08-27T07:45:06Z</time>
      </trkpt>
      <trkpt lat="47.36817" lon="0.20273">
        <ele>66</ele>
        <time>2020-08-27T07:45:09Z</time>
      </trkpt>
      <trkpt lat="47.36814" lon="0.20271">
        <ele>66</ele>
        <time>2020-08-27T07:45:11Z</time>
      </trkpt>
      <trkpt lat="47.36812" lon="0.2027">
        <ele>66</ele>
        <time>2020-08-27T07:45:13Z</time>
      </trkpt>
      <trkpt lat="47.36809" lon="0.20269">
        <ele>66</ele>
        <time>2020-08-27T07:45:15Z</time>
      </trkpt>
      <trkpt lat="47.36807" lon="0.20269">
        <ele>66</ele>
        <time>2020-08-27T07:45:17Z</time>
      </trkpt>
      <trkpt lat="47.36804" lon="0.20268">
        <ele>65</ele>
        <time>2020-08-27T07:45:19Z</time>
      </trkpt>
      <trkpt lat="47.36801" lon="0.20269">
        <ele>65</ele>
        <time>2020-08-27T07:45:21Z</time>
      </trkpt>
      <trkpt lat="47.36799" lon="0.20269">
        <ele>65</ele>
        <time>2020-08-27T07:45:23Z</time>
      </trkpt>
      <trkpt lat="47.36797" lon="0.20268">
        <ele>65</ele>
        <time>2020-08-27T07:45:25Z</time>
      </trkpt>
      <trkpt lat="47.36794" lon="0.2027">
        <ele>65</ele>
        <time>2020-08-27T07:45:27Z</time>
      </trkpt>
      <trkpt lat="47.3679" lon="0.20269">
        <ele>65</ele>
        <time>2020-08-27T07:45:29Z</time>
      </trkpt>
      <trkpt lat="47.36788" lon="0.20269">
        <ele>65</ele>
        <time>2020-08-27T07:45:31Z</time>
      </trkpt>
      <trkpt lat="47.36785" lon="0.20269">
        <ele>65</ele>
        <time>2020-08-27T07:45:33Z</time>
      </trkpt>
      <trkpt lat="47.36782" lon="0.2027">
        <ele>65</ele>
        <time>2020-08-27T07:45:35Z</time>
      </trkpt>
      <trkpt lat="47.3678" lon="0.20269">
        <ele>65</ele>
        <time>2020-08-27T07:45:37Z</time>
      </trkpt>
      <trkpt lat="47.36776" lon="0.20268">
        <ele>64</ele>
        <time>2020-08-27T07:45:39Z</time>
      </trkpt>
      <trkpt lat="47.36774" lon="0.20268">
        <ele>64</ele>
        <time>2020-08-27T07:45:40Z</time>
      </trkpt>
      <trkpt lat="47.36771" lon="0.20268">
        <ele>64</ele>
        <time>2020-08-27T07:45:42Z</time>
      </trkpt>
      <trkpt lat="47.36768" lon="0.20267">
        <ele>64</ele>
        <time>2020-08-27T07:45:44Z</time>
      </trkpt>
      <trkpt lat="47.36765" lon="0.20266">
        <ele>64</ele>
        <time>2020-08-27T07:45:46Z</time>
      </trkpt>
      <trkpt lat="47.36762" lon="0.20265">
        <ele>64</ele>
        <time>2020-08-27T07:45:49Z</time>
      </trkpt>
      <trkpt lat="47.3676" lon="0.20264">
        <ele>64</ele>
        <time>2020-08-27T07:45:51Z</time>
      </trkpt>
      <trkpt lat="47.36757" lon="0.20263">
        <ele>64</ele>
        <time>2020-08-27T07:45:53Z</time>
      </trkpt>
      <trkpt lat="47.36755" lon="0.20263">
        <ele>64</ele>
        <time>2020-08-27T07:45:55Z</time>
      </trkpt>
      <trkpt lat="47.36753" lon="0.20264">
        <ele>64</ele>
        <time>2020-08-27T07:45:57Z</time>
      </trkpt>
      <trkpt lat="47.3675" lon="0.20264">
        <ele>64</ele>
        <time>2020-08-27T07:45:59Z</time>
      </trkpt>
      <trkpt lat="47.36748" lon="0.20265">
        <ele>64</ele>
        <time>2020-08-27T07:46:01Z</time>
      </trkpt>
      <trkpt lat="47.36745" lon="0.20264">
        <ele>63</ele>
        <time>2020-08-27T07:46:03Z</time>
      </trkpt>
      <trkpt lat="47.36742" lon="0.20263">
        <ele>63</ele>
        <time>2020-08-27T07:46:05Z</time>
      </trkpt>
      <trkpt lat="47.36739" lon="0.20263">
        <ele>63</ele>
        <time>2020-08-27T07:46:07Z</time>
      </trkpt>
      <trkpt lat="47.36737" lon="0.20262">
        <ele>62</ele>
        <time>2020-08-27T07:46:09Z</time>
      </trkpt>
      <trkpt lat="47.36734" lon="0.2026">
        <ele>62</ele>
        <time>2020-08-27T07:46:11Z</time>
      </trkpt>
      <trkpt lat="47.36731" lon="0.2026">
        <ele>62</ele>
        <time>2020-08-27T07:46:13Z</time>
      </trkpt>
      <trkpt lat="47.36728" lon="0.2026">
        <ele>61</ele>
        <time>2020-08-27T07:46:15Z</time>
      </trkpt>
      <trkpt lat="47.36726" lon="0.2026">
        <ele>61</ele>
        <time>2020-08-27T07:46:17Z</time>
      </trkpt>
      <trkpt lat="47.36722" lon="0.20259">
        <ele>61</ele>
        <time>2020-08-27T07:46:19Z</time>
      </trkpt>
      <trkpt lat="47.36719" lon="0.20258">
        <ele>60</ele>
        <time>2020-08-27T07:46:21Z</time>
      </trkpt>
      <trkpt lat="47.36717" lon="0.20258">
        <ele>60</ele>
        <time>2020-08-27T07:46:23Z</time>
      </trkpt>
      <trkpt lat="47.36714" lon="0.20258">
        <ele>60</ele>
        <time>2020-08-27T07:46:25Z</time>
      </trkpt>
      <trkpt lat="47.36712" lon="0.20258">
        <ele>59</ele>
        <time>2020-08-27T07:46:27Z</time>
      </trkpt>
      <trkpt lat="47.36709" lon="0.20258">
        <ele>59</ele>
        <time>2020-08-27T07:46:29Z</time>
      </trkpt>
      <trkpt lat="47.36706" lon="0.20258">
        <ele>59</ele>
        <time>2020-08-27T07:46:31Z</time>
      </trkpt>
      <trkpt lat="47.36703" lon="0.20258">
        <ele>58</ele>
        <time>2020-08-27T07:46:33Z</time>
      </trkpt>
      <trkpt lat="47.36699" lon="0.20258">
        <ele>58</ele>
        <time>2020-08-27T07:46:35Z</time>
      </trkpt>
      <trkpt lat="47.36696" lon="0.20258">
        <ele>58</ele>
        <time>2020-08-27T07:46:37Z</time>
      </trkpt>
      <trkpt lat="47.36694" lon="0.20257">
        <ele>57</ele>
        <time>2020-08-27T07:46:39Z</time>
      </trkpt>
      <trkpt lat="47.36691" lon="0.20258">
        <ele>57</ele>
        <time>2020-08-27T07:46:41Z</time>
      </trkpt>
      <trkpt lat="47.36689" lon="0.20257">
        <ele>57</ele>
        <time>2020-08-27T07:46:43Z</time>
      </trkpt>
      <trkpt lat="47.36687" lon="0.20256">
        <ele>57</ele>
        <time>2020-08-27T07:46:45Z</time>
      </trkpt>
      <trkpt lat="47.36685" lon="0.20255">
        <ele>57</ele>
        <time>2020-08-27T07:46:47Z</time>
      </trkpt>
      <trkpt lat="47.36682" lon="0.20253">
        <ele>57</ele>
        <time>2020-08-27T07:46:49Z</time>
      </trkpt>
      <trkpt lat="47.3668" lon="0.20251">
        <ele>57</ele>
        <time>2020-08-27T07:46:51Z</time>
      </trkpt>
      <trkpt lat="47.36678" lon="0.20248">
        <ele>57</ele>
        <time>2020-08-27T07:46:53Z</time>
      </trkpt>
      <trkpt lat="47.36675" lon="0.20246">
        <ele>57</ele>
        <time>2020-08-27T07:46:55Z</time>
      </trkpt>
      <trkpt lat="47.36673" lon="0.20244">
        <ele>57</ele>
        <time>2020-08-27T07:46:57Z</time>
      </trkpt>
      <trkpt lat="47.36671" lon="0.20241">
        <ele>57</ele>
        <time>2020-08-27T07:46:59Z</time>
      </trkpt>
      <trkpt lat="47.36669" lon="0.20239">
        <ele>57</ele>
        <time>2020-08-27T07:47:01Z</time>
      </trkpt>
      <trkpt lat="47.36668" lon="0.20236">
        <ele>57</ele>
        <time>2020-08-27T07:47:03Z</time>
      </trkpt>
      <trkpt lat="47.36665" lon="0.20234">
        <ele>57</ele>
        <time>2020-08-27T07:47:05Z</time>
      </trkpt>
      <trkpt lat="47.36664" lon="0.20232">
        <ele>57</ele>
        <time>2020-08-27T07:47:07Z</time>
      </trkpt>
      <trkpt lat="47.36662" lon="0.2023">
        <ele>57</ele>
        <time>2020-08-27T07:47:09Z</time>
      </trkpt>
      <trkpt lat="47.3666" lon="0.20228">
        <ele>57</ele>
        <time>2020-08-27T07:47:11Z</time>
      </trkpt>
      <trkpt lat="47.36658" lon="0.20225">
        <ele>57</ele>
        <time>2020-08-27T07:47:13Z</time>
      </trkpt>
      <trkpt lat="47.36656" lon="0.20221">
        <ele>56</ele>
        <time>2020-08-27T07:47:15Z</time>
      </trkpt>
      <trkpt lat="47.36654" lon="0.20217">
        <ele>56</ele>
        <time>2020-08-27T07:47:17Z</time>
      </trkpt>
      <trkpt lat="47.36652" lon="0.20213">
        <ele>56</ele>
        <time>2020-08-27T07:47:19Z</time>
      </trkpt>
      <trkpt lat="47.3665" lon="0.20209">
        <ele>56</ele>
        <time>2020-08-27T07:47:21Z</time>
      </trkpt>
      <trkpt lat="47.36648" lon="0.20207">
        <ele>56</ele>
        <time>2020-08-27T07:47:23Z</time>
      </trkpt>
      <trkpt lat="47.36647" lon="0.20211">
        <ele>56</ele>
        <time>2020-08-27T07:47:26Z</time>
      </trkpt>
      <trkpt lat="47.36647" lon="0.20214">
        <ele>56</ele>
        <time>2020-08-27T07:47:28Z</time>
      </trkpt>
      <trkpt lat="47.36647" lon="0.20217">
        <ele>56</ele>
        <time>2020-08-27T07:47:30Z</time>
      </trkpt>
      <trkpt lat="47.36645" lon="0.20221">
        <ele>56</ele>
        <time>2020-08-27T07:47:32Z</time>
      </trkpt>
      <trkpt lat="47.36644" lon="0.20223">
        <ele>57</ele>
        <time>2020-08-27T07:47:34Z</time>
      </trkpt>
      <trkpt lat="47.36642" lon="0.20226">
        <ele>57</ele>
        <time>2020-08-27T07:47:36Z</time>
      </trkpt>
      <trkpt lat="47.3664" lon="0.20229">
        <ele>57</ele>
        <time>2020-08-27T07:47:38Z</time>
      </trkpt>
      <trkpt lat="47.36638" lon="0.20231">
        <ele>56</ele>
        <time>2020-08-27T07:47:40Z</time>
      </trkpt>
      <trkpt lat="47.36636" lon="0.20233">
        <ele>56</ele>
        <time>2020-08-27T07:47:42Z</time>
      </trkpt>
      <trkpt lat="47.36634" lon="0.20233">
        <ele>56</ele>
        <time>2020-08-27T07:47:44Z</time>
      </trkpt>
      <trkpt lat="47.36631" lon="0.20234">
        <ele>56</ele>
        <time>2020-08-27T07:47:46Z</time>
      </trkpt>
      <trkpt lat="47.36628" lon="0.20235">
        <ele>56</ele>
        <time>2020-08-27T07:47:48Z</time>
      </trkpt>
      <trkpt lat="47.36626" lon="0.20236">
        <ele>56</ele>
        <time>2020-08-27T07:47:50Z</time>
      </trkpt>
      <trkpt lat="47.36624" lon="0.20236">
        <ele>56</ele>
        <time>2020-08-27T07:47:52Z</time>
      </trkpt>
      <trkpt lat="47.36622" lon="0.20237">
        <ele>56</ele>
        <time>2020-08-27T07:47:54Z</time>
      </trkpt>
      <trkpt lat="47.36619" lon="0.20238">
        <ele>56</ele>
        <time>2020-08-27T07:47:56Z</time>
      </trkpt>
      <trkpt lat="47.36616" lon="0.20238">
        <ele>56</ele>
        <time>2020-08-27T07:47:58Z</time>
      </trkpt>
      <trkpt lat="47.36613" lon="0.20237">
        <ele>56</ele>
        <time>2020-08-27T07:48:00Z</time>
      </trkpt>
      <trkpt lat="47.3661" lon="0.20237">
        <ele>56</ele>
        <time>2020-08-27T07:48:02Z</time>
      </trkpt>
      <trkpt lat="47.36607" lon="0.20236">
        <ele>56</ele>
        <time>2020-08-27T07:48:04Z</time>
      </trkpt>
      <trkpt lat="47.36605" lon="0.20236">
        <ele>56</ele>
        <time>2020-08-27T07:48:06Z</time>
      </trkpt>
      <trkpt lat="47.36602" lon="0.20236">
        <ele>56</ele>
        <time>2020-08-27T07:48:08Z</time>
      </trkpt>
      <trkpt lat="47.366" lon="0.20236">
        <ele>56</ele>
        <time>2020-08-27T07:48:10Z</time>
      </trkpt>
      <trkpt lat="47.36598" lon="0.20236">
        <ele>56</ele>
        <time>2020-08-27T07:48:12Z</time>
      </trkpt>
      <trkpt lat="47.36595" lon="0.20236">
        <ele>56</ele>
        <time>2020-08-27T07:48:14Z</time>
      </trkpt>
      <trkpt lat="47.36593" lon="0.20237">
        <ele>56</ele>
        <time>2020-08-27T07:48:16Z</time>
      </trkpt>
      <trkpt lat="47.3659" lon="0.20239">
        <ele>56</ele>
        <time>2020-08-27T07:48:18Z</time>
      </trkpt>
      <trkpt lat="47.36589" lon="0.20242">
        <ele>56</ele>
        <time>2020-08-27T07:48:20Z</time>
      </trkpt>
      <trkpt lat="47.36587" lon="0.20244">
        <ele>56</ele>
        <time>2020-08-27T07:48:22Z</time>
      </trkpt>
      <trkpt lat="47.36586" lon="0.20246">
        <ele>56</ele>
        <time>2020-08-27T07:48:24Z</time>
      </trkpt>
      <trkpt lat="47.36584" lon="0.20248">
        <ele>56</ele>
        <time>2020-08-27T07:48:26Z</time>
      </trkpt>
      <trkpt lat="47.36582" lon="0.20252">
        <ele>57</ele>
        <time>2020-08-27T07:48:28Z</time>
      </trkpt>
      <trkpt lat="47.36581" lon="0.20254">
        <ele>57</ele>
        <time>2020-08-27T07:48:30Z</time>
      </trkpt>
      <trkpt lat="47.3658" lon="0.20257">
        <ele>57</ele>
        <time>2020-08-27T07:48:32Z</time>
      </trkpt>
      <trkpt lat="47.36579" lon="0.2026">
        <ele>57</ele>
        <time>2020-08-27T07:48:34Z</time>
      </trkpt>
      <trkpt lat="47.36579" lon="0.20264">
        <ele>57</ele>
        <time>2020-08-27T07:48:36Z</time>
      </trkpt>
      <trkpt lat="47.36579" lon="0.20269">
        <ele>57</ele>
        <time>2020-08-27T07:48:38Z</time>
      </trkpt>
      <trkpt lat="47.36579" lon="0.20273">
        <ele>57</ele>
        <time>2020-08-27T07:48:40Z</time>
      </trkpt>
      <trkpt lat="47.36579" lon="0.20276">
        <ele>57</ele>
        <time>2020-08-27T07:48:42Z</time>
      </trkpt>
      <trkpt lat="47.36579" lon="0.20279">
        <ele>58</ele>
        <time>2020-08-27T07:48:44Z</time>
      </trkpt>
      <trkpt lat="47.36579" lon="0.20283">
        <ele>58</ele>
        <time>2020-08-27T07:48:47Z</time>
      </trkpt>
      <trkpt lat="47.3658" lon="0.20287">
        <ele>58</ele>
        <time>2020-08-27T07:48:50Z</time>
      </trkpt>
      <trkpt lat="47.3658" lon="0.2029">
        <ele>58</ele>
        <time>2020-08-27T07:48:51Z</time>
      </trkpt>
      <trkpt lat="47.36581" lon="0.20295">
        <ele>58</ele>
        <time>2020-08-27T07:48:53Z</time>
      </trkpt>
      <trkpt lat="47.36581" lon="0.20298">
        <ele>58</ele>
        <time>2020-08-27T07:48:55Z</time>
      </trkpt>
      <trkpt lat="47.36582" lon="0.20302">
        <ele>58</ele>
        <time>2020-08-27T07:48:57Z</time>
      </trkpt>
      <trkpt lat="47.36583" lon="0.20305">
        <ele>59</ele>
        <time>2020-08-27T07:48:59Z</time>
      </trkpt>
      <trkpt lat="47.36584" lon="0.20309">
        <ele>59</ele>
        <time>2020-08-27T07:49:01Z</time>
      </trkpt>
      <trkpt lat="47.36584" lon="0.20313">
        <ele>59</ele>
        <time>2020-08-27T07:49:03Z</time>
      </trkpt>
      <trkpt lat="47.36584" lon="0.20317">
        <ele>59</ele>
        <time>2020-08-27T07:49:05Z</time>
      </trkpt>
      <trkpt lat="47.36584" lon="0.2032">
        <ele>59</ele>
        <time>2020-08-27T07:49:07Z</time>
      </trkpt>
      <trkpt lat="47.36584" lon="0.20324">
        <ele>60</ele>
        <time>2020-08-27T07:49:09Z</time>
      </trkpt>
      <trkpt lat="47.36584" lon="0.20328">
        <ele>60</ele>
        <time>2020-08-27T07:49:11Z</time>
      </trkpt>
      <trkpt lat="47.36584" lon="0.20332">
        <ele>60</ele>
        <time>2020-08-27T07:49:13Z</time>
      </trkpt>
      <trkpt lat="47.36584" lon="0.20335">
        <ele>61</ele>
        <time>2020-08-27T07:49:15Z</time>
      </trkpt>
      <trkpt lat="47.36584" lon="0.2034">
        <ele>61</ele>
        <time>2020-08-27T07:49:17Z</time>
      </trkpt>
      <trkpt lat="47.36584" lon="0.20343">
        <ele>61</ele>
        <time>2020-08-27T07:49:19Z</time>
      </trkpt>
      <trkpt lat="47.36585" lon="0.20346">
        <ele>61</ele>
        <time>2020-08-27T07:49:21Z</time>
      </trkpt>
      <trkpt lat="47.36585" lon="0.20349">
        <ele>62</ele>
        <time>2020-08-27T07:49:23Z</time>
      </trkpt>
      <trkpt lat="47.36585" lon="0.20353">
        <ele>62</ele>
        <time>2020-08-27T07:49:25Z</time>
      </trkpt>
      <trkpt lat="47.36584" lon="0.20357">
        <ele>62</ele>
        <time>2020-08-27T07:49:27Z</time>
      </trkpt>
      <trkpt lat="47.36584" lon="0.20361">
        <ele>62</ele>
        <time>2020-08-27T07:49:29Z</time>
      </trkpt>
      <trkpt lat="47.36585" lon="0.20364">
        <ele>63</ele>
        <time>2020-08-27T07:49:31Z</time>
      </trkpt>
      <trkpt lat="47.36584" lon="0.20367">
        <ele>63</ele>
        <time>2020-08-27T07:49:33Z</time>
      </trkpt>
      <trkpt lat="47.36584" lon="0.2037">
        <ele>63</ele>
        <time>2020-08-27T07:49:35Z</time>
      </trkpt>
      <trkpt lat="47.36584" lon="0.20374">
        <ele>63</ele>
        <time>2020-08-27T07:49:37Z</time>
      </trkpt>
      <trkpt lat="47.36585" lon="0.20378">
        <ele>64</ele>
        <time>2020-08-27T07:49:39Z</time>
      </trkpt>
      <trkpt lat="47.36587" lon="0.20381">
        <ele>64</ele>
        <time>2020-08-27T07:49:41Z</time>
      </trkpt>
      <trkpt lat="47.36587" lon="0.20385">
        <ele>64</ele>
        <time>2020-08-27T07:49:43Z</time>
      </trkpt>
      <trkpt lat="47.36588" lon="0.20388">
        <ele>64</ele>
        <time>2020-08-27T07:49:45Z</time>
      </trkpt>
      <trkpt lat="47.36589" lon="0.20391">
        <ele>64</ele>
        <time>2020-08-27T07:49:47Z</time>
      </trkpt>
      <trkpt lat="47.3659" lon="0.20395">
        <ele>65</ele>
        <time>2020-08-27T07:49:49Z</time>
      </trkpt>
      <trkpt lat="47.36591" lon="0.20398">
        <ele>65</ele>
        <time>2020-08-27T07:49:51Z</time>
      </trkpt>
      <trkpt lat="47.36591" lon="0.20401">
        <ele>65</ele>
        <time>2020-08-27T07:49:53Z</time>
      </trkpt>
      <trkpt lat="47.36592" lon="0.20404">
        <ele>65</ele>
        <time>2020-08-27T07:49:55Z</time>
      </trkpt>
      <trkpt lat="47.36593" lon="0.20407">
        <ele>65</ele>
        <time>2020-08-27T07:49:57Z</time>
      </trkpt>
      <trkpt lat="47.36593" lon="0.20411">
        <ele>65</ele>
        <time>2020-08-27T07:49:59Z</time>
      </trkpt>
      <trkpt lat="47.36593" lon="0.20415">
        <ele>65</ele>
        <time>2020-08-27T07:50:01Z</time>
      </trkpt>
      <trkpt lat="47.36593" lon="0.20419">
        <ele>66</ele>
        <time>2020-08-27T07:50:03Z</time>
      </trkpt>
      <trkpt lat="47.36592" lon="0.20423">
        <ele>66</ele>
        <time>2020-08-27T07:50:05Z</time>
      </trkpt>
      <trkpt lat="47.36592" lon="0.20427">
        <ele>66</ele>
        <time>2020-08-27T07:50:07Z</time>
      </trkpt>
      <trkpt lat="47.36593" lon="0.2043">
        <ele>66</ele>
        <time>2020-08-27T07:50:09Z</time>
      </trkpt>
      <trkpt lat="47.36592" lon="0.20434">
        <ele>66</ele>
        <time>2020-08-27T07:50:11Z</time>
      </trkpt>
      <trkpt lat="47.36592" lon="0.20438">
        <ele>66</ele>
        <time>2020-08-27T07:50:13Z</time>
      </trkpt>
      <trkpt lat="47.36591" lon="0.20441">
        <ele>66</ele>
        <time>2020-08-27T07:50:15Z</time>
      </trkpt>
      <trkpt lat="47.36591" lon="0.20444">
        <ele>66</ele>
        <time>2020-08-27T07:50:17Z</time>
      </trkpt>
      <trkpt lat="47.3659" lon="0.20447">
        <ele>66</ele>
        <time>2020-08-27T07:50:19Z</time>
      </trkpt>
      <trkpt lat="47.3659" lon="0.20451">
        <ele>67</ele>
        <time>2020-08-27T07:50:21Z</time>
      </trkpt>
      <trkpt lat="47.3659" lon="0.20455">
        <ele>67</ele>
        <time>2020-08-27T07:50:23Z</time>
      </trkpt>
      <trkpt lat="47.3659" lon="0.20458">
        <ele>67</ele>
        <time>2020-08-27T07:50:25Z</time>
      </trkpt>
      <trkpt lat="47.36589" lon="0.20462">
        <ele>67</ele>
        <time>2020-08-27T07:50:27Z</time>
      </trkpt>
      <trkpt lat="47.36589" lon="0.20465">
        <ele>68</ele>
        <time>2020-08-27T07:50:29Z</time>
      </trkpt>
      <trkpt lat="47.36588" lon="0.20469">
        <ele>68</ele>
        <time>2020-08-27T07:50:31Z</time>
      </trkpt>
      <trkpt lat="47.36588" lon="0.20474">
        <ele>68</ele>
        <time>2020-08-27T07:50:33Z</time>
      </trkpt>
      <trkpt lat="47.36587" lon="0.20478">
        <ele>69</ele>
        <time>2020-08-27T07:50:35Z</time>
      </trkpt>
      <trkpt lat="47.36587" lon="0.20482">
        <ele>69</ele>
        <time>2020-08-27T07:50:37Z</time>
      </trkpt>
      <trkpt lat="47.36586" lon="0.20485">
        <ele>69</ele>
        <time>2020-08-27T07:50:39Z</time>
      </trkpt>
      <trkpt lat="47.36586" lon="0.20488">
        <ele>69</ele>
        <time>2020-08-27T07:50:41Z</time>
      </trkpt>
      <trkpt lat="47.36586" lon="0.20491">
        <ele>70</ele>
        <time>2020-08-27T07:50:43Z</time>
      </trkpt>
      <trkpt lat="47.36586" lon="0.20494">
        <ele>70</ele>
        <time>2020-08-27T07:50:45Z</time>
      </trkpt>
      <trkpt lat="47.36585" lon="0.20498">
        <ele>70</ele>
        <time>2020-08-27T07:50:47Z</time>
      </trkpt>
      <trkpt lat="47.36586" lon="0.20501">
        <ele>70</ele>
        <time>2020-08-27T07:50:49Z</time>
      </trkpt>
      <trkpt lat="47.36585" lon="0.20505">
        <ele>70</ele>
        <time>2020-08-27T07:50:51Z</time>
      </trkpt>
      <trkpt lat="47.36585" lon="0.20508">
        <ele>71</ele>
        <time>2020-08-27T07:50:53Z</time>
      </trkpt>
      <trkpt lat="47.36585" lon="0.20513">
        <ele>71</ele>
        <time>2020-08-27T07:50:55Z</time>
      </trkpt>
      <trkpt lat="47.36585" lon="0.20516">
        <ele>71</ele>
        <time>2020-08-27T07:50:57Z</time>
      </trkpt>
      <trkpt lat="47.36584" lon="0.20519">
        <ele>71</ele>
        <time>2020-08-27T07:50:59Z</time>
      </trkpt>
      <trkpt lat="47.36584" lon="0.20523">
        <ele>71</ele>
        <time>2020-08-27T07:51:01Z</time>
      </trkpt>
      <trkpt lat="47.36584" lon="0.20527">
        <ele>71</ele>
        <time>2020-08-27T07:51:03Z</time>
      </trkpt>
      <trkpt lat="47.36585" lon="0.20531">
        <ele>71</ele>
        <time>2020-08-27T07:51:05Z</time>
      </trkpt>
      <trkpt lat="47.36585" lon="0.20535">
        <ele>72</ele>
        <time>2020-08-27T07:51:07Z</time>
      </trkpt>
      <trkpt lat="47.36585" lon="0.20539">
        <ele>72</ele>
        <time>2020-08-27T07:51:09Z</time>
      </trkpt>
      <trkpt lat="47.36585" lon="0.20543">
        <ele>72</ele>
        <time>2020-08-27T07:51:11Z</time>
      </trkpt>
      <trkpt lat="47.36585" lon="0.20547">
        <ele>72</ele>
        <time>2020-08-27T07:51:13Z</time>
      </trkpt>
      <trkpt lat="47.36585" lon="0.20551">
        <ele>72</ele>
        <time>2020-08-27T07:51:15Z</time>
      </trkpt>
      <trkpt lat="47.36585" lon="0.20554">
        <ele>72</ele>
        <time>2020-08-27T07:51:17Z</time>
      </trkpt>
      <trkpt lat="47.36585" lon="0.20558">
        <ele>72</ele>
        <time>2020-08-27T07:51:19Z</time>
      </trkpt>
      <trkpt lat="47.36586" lon="0.20561">
        <ele>72</ele>
        <time>2020-08-27T07:51:21Z</time>
      </trkpt>
      <trkpt lat="47.36586" lon="0.20565">
        <ele>72</ele>
        <time>2020-08-27T07:51:23Z</time>
      </trkpt>
      <trkpt lat="47.36586" lon="0.20568">
        <ele>72</ele>
        <time>2020-08-27T07:51:25Z</time>
      </trkpt>
      <trkpt lat="47.36585" lon="0.20572">
        <ele>72</ele>
        <time>2020-08-27T07:51:27Z</time>
      </trkpt>
      <trkpt lat="47.36585" lon="0.20576">
        <ele>72</ele>
        <time>2020-08-27T07:51:30Z</time>
      </trkpt>
      <trkpt lat="47.36586" lon="0.20579">
        <ele>72</ele>
        <time>2020-08-27T07:51:32Z</time>
      </trkpt>
      <trkpt lat="47.36586" lon="0.20583">
        <ele>72</ele>
        <time>2020-08-27T07:51:34Z</time>
      </trkpt>
      <trkpt lat="47.36586" lon="0.20586">
        <ele>72</ele>
        <time>2020-08-27T07:51:36Z</time>
      </trkpt>
      <trkpt lat="47.36586" lon="0.20589">
        <ele>72</ele>
        <time>2020-08-27T07:51:38Z</time>
      </trkpt>
      <trkpt lat="47.36587" lon="0.20593">
        <ele>72</ele>
        <time>2020-08-27T07:51:40Z</time>
      </trkpt>
      <trkpt lat="47.36587" lon="0.20596">
        <ele>72</ele>
        <time>2020-08-27T07:51:42Z</time>
      </trkpt>
      <trkpt lat="47.36588" lon="0.206">
        <ele>72</ele>
        <time>2020-08-27T07:51:44Z</time>
      </trkpt>
      <trkpt lat="47.36588" lon="0.20603">
        <ele>72</ele>
        <time>2020-08-27T07:51:46Z</time>
      </trkpt>
      <trkpt lat="47.36588" lon="0.20609">
        <ele>72</ele>
        <time>2020-08-27T07:51:49Z</time>
      </trkpt>
      <trkpt lat="47.36589" lon="0.20612">
        <ele>71</ele>
        <time>2020-08-27T07:51:50Z</time>
      </trkpt>
      <trkpt lat="47.36589" lon="0.20615">
        <ele>71</ele>
        <time>2020-08-27T07:51:52Z</time>
      </trkpt>
      <trkpt lat="47.3659" lon="0.20618">
        <ele>71</ele>
        <time>2020-08-27T07:51:54Z</time>
      </trkpt>
      <trkpt lat="47.3659" lon="0.20622">
        <ele>71</ele>
        <time>2020-08-27T07:51:56Z</time>
      </trkpt>
      <trkpt lat="47.3659" lon="0.20625">
        <ele>71</ele>
        <time>2020-08-27T07:51:58Z</time>
      </trkpt>
      <trkpt lat="47.3659" lon="0.20628">
        <ele>71</ele>
        <time>2020-08-27T07:52:00Z</time>
      </trkpt>
      <trkpt lat="47.36591" lon="0.20631">
        <ele>71</ele>
        <time>2020-08-27T07:52:02Z</time>
      </trkpt>
      <trkpt lat="47.36591" lon="0.20634">
        <ele>71</ele>
        <time>2020-08-27T07:52:04Z</time>
      </trkpt>
      <trkpt lat="47.36592" lon="0.20638">
        <ele>71</ele>
        <time>2020-08-27T07:52:06Z</time>
      </trkpt>
      <trkpt lat="47.36592" lon="0.20641">
        <ele>70</ele>
        <time>2020-08-27T07:52:08Z</time>
      </trkpt>
      <trkpt lat="47.36593" lon="0.20645">
        <ele>70</ele>
        <time>2020-08-27T07:52:10Z</time>
      </trkpt>
      <trkpt lat="47.36593" lon="0.20648">
        <ele>70</ele>
        <time>2020-08-27T07:52:12Z</time>
      </trkpt>
      <trkpt lat="47.36594" lon="0.20651">
        <ele>70</ele>
        <time>2020-08-27T07:52:14Z</time>
      </trkpt>
      <trkpt lat="47.36594" lon="0.20655">
        <ele>70</ele>
        <time>2020-08-27T07:52:16Z</time>
      </trkpt>
      <trkpt lat="47.36595" lon="0.20658">
        <ele>70</ele>
        <time>2020-08-27T07:52:18Z</time>
      </trkpt>
      <trkpt lat="47.36595" lon="0.20661">
        <ele>70</ele>
        <time>2020-08-27T07:52:20Z</time>
      </trkpt>
      <trkpt lat="47.36597" lon="0.20664">
        <ele>70</ele>
        <time>2020-08-27T07:52:22Z</time>
      </trkpt>
      <trkpt lat="47.36597" lon="0.20667">
        <ele>69</ele>
        <time>2020-08-27T07:52:24Z</time>
      </trkpt>
      <trkpt lat="47.36597" lon="0.20671">
        <ele>69</ele>
        <time>2020-08-27T07:52:26Z</time>
      </trkpt>
      <trkpt lat="47.36596" lon="0.20676">
        <ele>69</ele>
        <time>2020-08-27T07:52:28Z</time>
      </trkpt>
      <trkpt lat="47.36597" lon="0.2068">
        <ele>69</ele>
        <time>2020-08-27T07:52:30Z</time>
      </trkpt>
      <trkpt lat="47.36598" lon="0.20683">
        <ele>69</ele>
        <time>2020-08-27T07:52:32Z</time>
      </trkpt>
      <trkpt lat="47.36598" lon="0.20687">
        <ele>69</ele>
        <time>2020-08-27T07:52:34Z</time>
      </trkpt>
      <trkpt lat="47.36599" lon="0.2069">
        <ele>69</ele>
        <time>2020-08-27T07:52:36Z</time>
      </trkpt>
      <trkpt lat="47.366" lon="0.20693">
        <ele>69</ele>
        <time>2020-08-27T07:52:38Z</time>
      </trkpt>
      <trkpt lat="47.36601" lon="0.20697">
        <ele>69</ele>
        <time>2020-08-27T07:52:41Z</time>
      </trkpt>
      <trkpt lat="47.36602" lon="0.207">
        <ele>69</ele>
        <time>2020-08-27T07:52:43Z</time>
      </trkpt>
      <trkpt lat="47.36602" lon="0.20704">
        <ele>69</ele>
        <time>2020-08-27T07:52:45Z</time>
      </trkpt>
      <trkpt lat="47.36603" lon="0.20707">
        <ele>69</ele>
        <time>2020-08-27T07:52:47Z</time>
      </trkpt>
      <trkpt lat="47.36604" lon="0.20711">
        <ele>69</ele>
        <time>2020-08-27T07:52:49Z</time>
      </trkpt>
      <trkpt lat="47.36605" lon="0.20716">
        <ele>69</ele>
        <time>2020-08-27T07:52:51Z</time>
      </trkpt>
      <trkpt lat="47.36606" lon="0.2072">
        <ele>69</ele>
        <time>2020-08-27T07:52:53Z</time>
      </trkpt>
      <trkpt lat="47.36606" lon="0.20723">
        <ele>69</ele>
        <time>2020-08-27T07:52:55Z</time>
      </trkpt>
      <trkpt lat="47.36606" lon="0.20727">
        <ele>69</ele>
        <time>2020-08-27T07:52:57Z</time>
      </trkpt>
      <trkpt lat="47.36608" lon="0.20732">
        <ele>69</ele>
        <time>2020-08-27T07:52:59Z</time>
      </trkpt>
      <trkpt lat="47.36608" lon="0.20736">
        <ele>68</ele>
        <time>2020-08-27T07:53:01Z</time>
      </trkpt>
      <trkpt lat="47.36608" lon="0.2074">
        <ele>68</ele>
        <time>2020-08-27T07:53:04Z</time>
      </trkpt>
      <trkpt lat="47.36609" lon="0.20744">
        <ele>68</ele>
        <time>2020-08-27T07:53:07Z</time>
      </trkpt>
      <trkpt lat="47.36608" lon="0.20748">
        <ele>67</ele>
        <time>2020-08-27T07:53:09Z</time>
      </trkpt>
      <trkpt lat="47.36607" lon="0.20752">
        <ele>67</ele>
        <time>2020-08-27T07:53:11Z</time>
      </trkpt>
      <trkpt lat="47.36607" lon="0.20756">
        <ele>67</ele>
        <time>2020-08-27T07:53:13Z</time>
      </trkpt>
      <trkpt lat="47.36608" lon="0.20759">
        <ele>67</ele>
        <time>2020-08-27T07:53:15Z</time>
      </trkpt>
      <trkpt lat="47.36609" lon="0.20763">
        <ele>66</ele>
        <time>2020-08-27T07:53:17Z</time>
      </trkpt>
      <trkpt lat="47.36609" lon="0.20766">
        <ele>66</ele>
        <time>2020-08-27T07:53:19Z</time>
      </trkpt>
      <trkpt lat="47.3661" lon="0.20769">
        <ele>66</ele>
        <time>2020-08-27T07:53:21Z</time>
      </trkpt>
      <trkpt lat="47.3661" lon="0.20771">
        <ele>66</ele>
        <time>2020-08-27T07:53:23Z</time>
      </trkpt>
      <trkpt lat="47.3661" lon="0.20775">
        <ele>66</ele>
        <time>2020-08-27T07:53:25Z</time>
      </trkpt>
      <trkpt lat="47.3661" lon="0.20778">
        <ele>65</ele>
        <time>2020-08-27T07:53:27Z</time>
      </trkpt>
      <trkpt lat="47.3661" lon="0.20782">
        <ele>65</ele>
        <time>2020-08-27T07:53:29Z</time>
      </trkpt>
      <trkpt lat="47.3661" lon="0.20786">
        <ele>65</ele>
        <time>2020-08-27T07:53:31Z</time>
      </trkpt>
      <trkpt lat="47.36611" lon="0.2079">
        <ele>65</ele>
        <time>2020-08-27T07:53:33Z</time>
      </trkpt>
      <trkpt lat="47.36613" lon="0.20794">
        <ele>65</ele>
        <time>2020-08-27T07:53:35Z</time>
      </trkpt>
      <trkpt lat="47.36614" lon="0.20798">
        <ele>65</ele>
        <time>2020-08-27T07:53:37Z</time>
      </trkpt>
      <trkpt lat="47.36614" lon="0.20803">
        <ele>65</ele>
        <time>2020-08-27T07:53:39Z</time>
      </trkpt>
      <trkpt lat="47.36615" lon="0.20808">
        <ele>65</ele>
        <time>2020-08-27T07:53:41Z</time>
      </trkpt>
      <trkpt lat="47.36617" lon="0.20811">
        <ele>65</ele>
        <time>2020-08-27T07:53:42Z</time>
      </trkpt>
      <trkpt lat="47.36618" lon="0.20815">
        <ele>65</ele>
        <time>2020-08-27T07:53:44Z</time>
      </trkpt>
      <trkpt lat="47.36618" lon="0.20818">
        <ele>65</ele>
        <time>2020-08-27T07:53:46Z</time>
      </trkpt>
      <trkpt lat="47.36619" lon="0.20823">
        <ele>65</ele>
        <time>2020-08-27T07:53:48Z</time>
      </trkpt>
      <trkpt lat="47.36619" lon="0.20827">
        <ele>65</ele>
        <time>2020-08-27T07:53:50Z</time>
      </trkpt>
      <trkpt lat="47.36619" lon="0.20831">
        <ele>65</ele>
        <time>2020-08-27T07:53:52Z</time>
      </trkpt>
      <trkpt lat="47.36618" lon="0.20835">
        <ele>65</ele>
        <time>2020-08-27T07:53:54Z</time>
      </trkpt>
      <trkpt lat="47.36618" lon="0.20838">
        <ele>65</ele>
        <time>2020-08-27T07:53:56Z</time>
      </trkpt>
      <trkpt lat="47.36619" lon="0.20842">
        <ele>65</ele>
        <time>2020-08-27T07:53:58Z</time>
      </trkpt>
      <trkpt lat="47.36619" lon="0.20847">
        <ele>65</ele>
        <time>2020-08-27T07:54:00Z</time>
      </trkpt>
      <trkpt lat="47.36619" lon="0.20849">
        <ele>65</ele>
        <time>2020-08-27T07:54:02Z</time>
      </trkpt>
      <trkpt lat="47.36619" lon="0.20852">
        <ele>65</ele>
        <time>2020-08-27T07:54:04Z</time>
      </trkpt>
      <trkpt lat="47.36618" lon="0.20856">
        <ele>65</ele>
        <time>2020-08-27T07:54:06Z</time>
      </trkpt>
      <trkpt lat="47.36617" lon="0.2086">
        <ele>65</ele>
        <time>2020-08-27T07:54:08Z</time>
      </trkpt>
      <trkpt lat="47.36616" lon="0.20864">
        <ele>65</ele>
        <time>2020-08-27T07:54:10Z</time>
      </trkpt>
      <trkpt lat="47.36616" lon="0.20869">
        <ele>65</ele>
        <time>2020-08-27T07:54:12Z</time>
      </trkpt>
      <trkpt lat="47.36615" lon="0.20874">
        <ele>65</ele>
        <time>2020-08-27T07:54:14Z</time>
      </trkpt>
      <trkpt lat="47.36614" lon="0.20878">
        <ele>65</ele>
        <time>2020-08-27T07:54:16Z</time>
      </trkpt>
      <trkpt lat="47.36613" lon="0.20882">
        <ele>65</ele>
        <time>2020-08-27T07:54:18Z</time>
      </trkpt>
      <trkpt lat="47.36611" lon="0.20886">
        <ele>65</ele>
        <time>2020-08-27T07:54:20Z</time>
      </trkpt>
      <trkpt lat="47.3661" lon="0.20889">
        <ele>64</ele>
        <time>2020-08-27T07:54:21Z</time>
      </trkpt>
      <trkpt lat="47.36608" lon="0.20892">
        <ele>64</ele>
        <time>2020-08-27T07:54:23Z</time>
      </trkpt>
      <trkpt lat="47.36607" lon="0.20896">
        <ele>64</ele>
        <time>2020-08-27T07:54:25Z</time>
      </trkpt>
      <trkpt lat="47.36606" lon="0.20898">
        <ele>64</ele>
        <time>2020-08-27T07:54:27Z</time>
      </trkpt>
      <trkpt lat="47.36605" lon="0.20901">
        <ele>64</ele>
        <time>2020-08-27T07:54:29Z</time>
      </trkpt>
      <trkpt lat="47.36604" lon="0.20905">
        <ele>64</ele>
        <time>2020-08-27T07:54:31Z</time>
      </trkpt>
      <trkpt lat="47.36603" lon="0.20908">
        <ele>63</ele>
        <time>2020-08-27T07:54:32Z</time>
      </trkpt>
      <trkpt lat="47.36601" lon="0.2091">
        <ele>63</ele>
        <time>2020-08-27T07:54:33Z</time>
      </trkpt>
      <trkpt lat="47.366" lon="0.20913">
        <ele>63</ele>
        <time>2020-08-27T07:54:34Z</time>
      </trkpt>
      <trkpt lat="47.36599" lon="0.20916">
        <ele>63</ele>
        <time>2020-08-27T07:54:35Z</time>
      </trkpt>
      <trkpt lat="47.36597" lon="0.20919">
        <ele>63</ele>
        <time>2020-08-27T07:54:37Z</time>
      </trkpt>
      <trkpt lat="47.36596" lon="0.20923">
        <ele>63</ele>
        <time>2020-08-27T07:54:39Z</time>
      </trkpt>
      <trkpt lat="47.36595" lon="0.20925">
        <ele>63</ele>
        <time>2020-08-27T07:54:40Z</time>
      </trkpt>
      <trkpt lat="47.36593" lon="0.20929">
        <ele>62</ele>
        <time>2020-08-27T07:54:42Z</time>
      </trkpt>
      <trkpt lat="47.36591" lon="0.20933">
        <ele>62</ele>
        <time>2020-08-27T07:54:44Z</time>
      </trkpt>
      <trkpt lat="47.36589" lon="0.20936">
        <ele>62</ele>
        <time>2020-08-27T07:54:46Z</time>
      </trkpt>
      <trkpt lat="47.36587" lon="0.20939">
        <ele>62</ele>
        <time>2020-08-27T07:54:48Z</time>
      </trkpt>
      <trkpt lat="47.36586" lon="0.20943">
        <ele>62</ele>
        <time>2020-08-27T07:54:50Z</time>
      </trkpt>
      <trkpt lat="47.36584" lon="0.20946">
        <ele>61</ele>
        <time>2020-08-27T07:54:52Z</time>
      </trkpt>
      <trkpt lat="47.36583" lon="0.2095">
        <ele>61</ele>
        <time>2020-08-27T07:54:54Z</time>
      </trkpt>
      <trkpt lat="47.36581" lon="0.20953">
        <ele>61</ele>
        <time>2020-08-27T07:54:56Z</time>
      </trkpt>
      <trkpt lat="47.3658" lon="0.20956">
        <ele>61</ele>
        <time>2020-08-27T07:54:58Z</time>
      </trkpt>
      <trkpt lat="47.36578" lon="0.20959">
        <ele>61</ele>
        <time>2020-08-27T07:55:01Z</time>
      </trkpt>
      <trkpt lat="47.36576" lon="0.20963">
        <ele>61</ele>
        <time>2020-08-27T07:55:03Z</time>
      </trkpt>
      <trkpt lat="47.36574" lon="0.20966">
        <ele>60</ele>
        <time>2020-08-27T07:55:05Z</time>
      </trkpt>
      <trkpt lat="47.36573" lon="0.20969">
        <ele>60</ele>
        <time>2020-08-27T07:55:07Z</time>
      </trkpt>
      <trkpt lat="47.36571" lon="0.20971">
        <ele>60</ele>
        <time>2020-08-27T07:55:09Z</time>
      </trkpt>
      <trkpt lat="47.3657" lon="0.20974">
        <ele>60</ele>
        <time>2020-08-27T07:55:11Z</time>
      </trkpt>
      <trkpt lat="47.36567" lon="0.20976">
        <ele>60</ele>
        <time>2020-08-27T07:55:13Z</time>
      </trkpt>
      <trkpt lat="47.36565" lon="0.20979">
        <ele>60</ele>
        <time>2020-08-27T07:55:15Z</time>
      </trkpt>
      <trkpt lat="47.36563" lon="0.20981">
        <ele>59</ele>
        <time>2020-08-27T07:55:17Z</time>
      </trkpt>
      <trkpt lat="47.36561" lon="0.20984">
        <ele>59</ele>
        <time>2020-08-27T07:55:19Z</time>
      </trkpt>
      <trkpt lat="47.36558" lon="0.20987">
        <ele>59</ele>
        <time>2020-08-27T07:55:21Z</time>
      </trkpt>
      <trkpt lat="47.36556" lon="0.20989">
        <ele>59</ele>
        <time>2020-08-27T07:55:23Z</time>
      </trkpt>
      <trkpt lat="47.36555" lon="0.2099">
        <ele>59</ele>
        <time>2020-08-27T07:55:25Z</time>
      </trkpt>
      <trkpt lat="47.36553" lon="0.20992">
        <ele>59</ele>
        <time>2020-08-27T07:55:27Z</time>
      </trkpt>
      <trkpt lat="47.3655" lon="0.20994">
        <ele>59</ele>
        <time>2020-08-27T07:55:29Z</time>
      </trkpt>
      <trkpt lat="47.36547" lon="0.20995">
        <ele>58</ele>
        <time>2020-08-27T07:55:31Z</time>
      </trkpt>
      <trkpt lat="47.36545" lon="0.20996">
        <ele>58</ele>
        <time>2020-08-27T07:55:33Z</time>
      </trkpt>
      <trkpt lat="47.36542" lon="0.20999">
        <ele>58</ele>
        <time>2020-08-27T07:55:35Z</time>
      </trkpt>
      <trkpt lat="47.3654" lon="0.21001">
        <ele>58</ele>
        <time>2020-08-27T07:55:37Z</time>
      </trkpt>
      <trkpt lat="47.36537" lon="0.21003">
        <ele>58</ele>
        <time>2020-08-27T07:55:39Z</time>
      </trkpt>
      <trkpt lat="47.36535" lon="0.21005">
        <ele>57</ele>
        <time>2020-08-27T07:55:41Z</time>
      </trkpt>
      <trkpt lat="47.36532" lon="0.21007">
        <ele>57</ele>
        <time>2020-08-27T07:55:43Z</time>
      </trkpt>
      <trkpt lat="47.36529" lon="0.21006">
        <ele>57</ele>
        <time>2020-08-27T07:55:45Z</time>
      </trkpt>
      <trkpt lat="47.36527" lon="0.21005">
        <ele>57</ele>
        <time>2020-08-27T07:55:47Z</time>
      </trkpt>
      <trkpt lat="47.36525" lon="0.21004">
        <ele>57</ele>
        <time>2020-08-27T07:55:49Z</time>
      </trkpt>
      <trkpt lat="47.36522" lon="0.21003">
        <ele>57</ele>
        <time>2020-08-27T07:55:51Z</time>
      </trkpt>
      <trkpt lat="47.36519" lon="0.21003">
        <ele>57</ele>
        <time>2020-08-27T07:55:53Z</time>
      </trkpt>
      <trkpt lat="47.36516" lon="0.21001">
        <ele>57</ele>
        <time>2020-08-27T07:55:55Z</time>
      </trkpt>
      <trkpt lat="47.36513" lon="0.21001">
        <ele>57</ele>
        <time>2020-08-27T07:55:57Z</time>
      </trkpt>
      <trkpt lat="47.36511" lon="0.21">
        <ele>57</ele>
        <time>2020-08-27T07:55:59Z</time>
      </trkpt>
      <trkpt lat="47.36508" lon="0.21001">
        <ele>57</ele>
        <time>2020-08-27T07:56:01Z</time>
      </trkpt>
      <trkpt lat="47.36506" lon="0.21">
        <ele>57</ele>
        <time>2020-08-27T07:56:03Z</time>
      </trkpt>
      <trkpt lat="47.36504" lon="0.20999">
        <ele>58</ele>
        <time>2020-08-27T07:56:05Z</time>
      </trkpt>
      <trkpt lat="47.36502" lon="0.20998">
        <ele>58</ele>
        <time>2020-08-27T07:56:07Z</time>
      </trkpt>
      <trkpt lat="47.36499" lon="0.20996">
        <ele>58</ele>
        <time>2020-08-27T07:56:09Z</time>
      </trkpt>
      <trkpt lat="47.36497" lon="0.20996">
        <ele>58</ele>
        <time>2020-08-27T07:56:11Z</time>
      </trkpt>
      <trkpt lat="47.36494" lon="0.20995">
        <ele>57</ele>
        <time>2020-08-27T07:56:13Z</time>
      </trkpt>
      <trkpt lat="47.36493" lon="0.20995">
        <ele>57</ele>
        <time>2020-08-27T07:56:15Z</time>
      </trkpt>
      <trkpt lat="47.36491" lon="0.20997">
        <ele>57</ele>
        <time>2020-08-27T07:56:18Z</time>
      </trkpt>
      <trkpt lat="47.36489" lon="0.20996">
        <ele>57</ele>
        <time>2020-08-27T07:56:30Z</time>
      </trkpt>
      <trkpt lat="47.36487" lon="0.20994">
        <ele>57</ele>
        <time>2020-08-27T07:56:32Z</time>
      </trkpt>
      <trkpt lat="47.36484" lon="0.20992">
        <ele>57</ele>
        <time>2020-08-27T07:56:34Z</time>
      </trkpt>
      <trkpt lat="47.36482" lon="0.20991">
        <ele>57</ele>
        <time>2020-08-27T07:56:36Z</time>
      </trkpt>
      <trkpt lat="47.3648" lon="0.2099">
        <ele>57</ele>
        <time>2020-08-27T07:56:38Z</time>
      </trkpt>
      <trkpt lat="47.36478" lon="0.2099">
        <ele>57</ele>
        <time>2020-08-27T07:56:40Z</time>
      </trkpt>
      <trkpt lat="47.36475" lon="0.20989">
        <ele>57</ele>
        <time>2020-08-27T07:56:42Z</time>
      </trkpt>
      <trkpt lat="47.36472" lon="0.20988">
        <ele>56</ele>
        <time>2020-08-27T07:56:44Z</time>
      </trkpt>
      <trkpt lat="47.36469" lon="0.20986">
        <ele>56</ele>
        <time>2020-08-27T07:56:46Z</time>
      </trkpt>
      <trkpt lat="47.36466" lon="0.20986">
        <ele>56</ele>
        <time>2020-08-27T07:56:48Z</time>
      </trkpt>
      <trkpt lat="47.36463" lon="0.20986">
        <ele>56</ele>
        <time>2020-08-27T07:56:50Z</time>
      </trkpt>
      <trkpt lat="47.3646" lon="0.20986">
        <ele>56</ele>
        <time>2020-08-27T07:56:52Z</time>
      </trkpt>
      <trkpt lat="47.36458" lon="0.20985">
        <ele>56</ele>
        <time>2020-08-27T07:56:53Z</time>
      </trkpt>
      <trkpt lat="47.36456" lon="0.20984">
        <ele>56</ele>
        <time>2020-08-27T07:56:54Z</time>
      </trkpt>
      <trkpt lat="47.36454" lon="0.20984">
        <ele>56</ele>
        <time>2020-08-27T07:56:55Z</time>
      </trkpt>
      <trkpt lat="47.36453" lon="0.20984">
        <ele>56</ele>
        <time>2020-08-27T07:56:56Z</time>
      </trkpt>
      <trkpt lat="47.36449" lon="0.20984">
        <ele>56</ele>
        <time>2020-08-27T07:56:58Z</time>
      </trkpt>
      <trkpt lat="47.36446" lon="0.20984">
        <ele>56</ele>
        <time>2020-08-27T07:57:00Z</time>
      </trkpt>
      <trkpt lat="47.36444" lon="0.20984">
        <ele>56</ele>
        <time>2020-08-27T07:57:02Z</time>
      </trkpt>
      <trkpt lat="47.36442" lon="0.20984">
        <ele>56</ele>
        <time>2020-08-27T07:57:04Z</time>
      </trkpt>
      <trkpt lat="47.36439" lon="0.20983">
        <ele>56</ele>
        <time>2020-08-27T07:57:06Z</time>
      </trkpt>
      <trkpt lat="47.36437" lon="0.20981">
        <ele>56</ele>
        <time>2020-08-27T07:57:08Z</time>
      </trkpt>
      <trkpt lat="47.36434" lon="0.2098">
        <ele>56</ele>
        <time>2020-08-27T07:57:10Z</time>
      </trkpt>
      <trkpt lat="47.36431" lon="0.20979">
        <ele>56</ele>
        <time>2020-08-27T07:57:12Z</time>
      </trkpt>
      <trkpt lat="47.36429" lon="0.20978">
        <ele>56</ele>
        <time>2020-08-27T07:57:14Z</time>
      </trkpt>
      <trkpt lat="47.36426" lon="0.20978">
        <ele>56</ele>
        <time>2020-08-27T07:57:16Z</time>
      </trkpt>
      <trkpt lat="47.36424" lon="0.20977">
        <ele>56</ele>
        <time>2020-08-27T07:57:18Z</time>
      </trkpt>
      <trkpt lat="47.36422" lon="0.20976">
        <ele>56</ele>
        <time>2020-08-27T07:57:20Z</time>
      </trkpt>
      <trkpt lat="47.36419" lon="0.20975">
        <ele>56</ele>
        <time>2020-08-27T07:57:22Z</time>
      </trkpt>
      <trkpt lat="47.36416" lon="0.20975">
        <ele>56</ele>
        <time>2020-08-27T07:57:24Z</time>
      </trkpt>
      <trkpt lat="47.36412" lon="0.20974">
        <ele>56</ele>
        <time>2020-08-27T07:57:26Z</time>
      </trkpt>
      <trkpt lat="47.3641" lon="0.20974">
        <ele>56</ele>
        <time>2020-08-27T07:57:27Z</time>
      </trkpt>
      <trkpt lat="47.36408" lon="0.20973">
        <ele>56</ele>
        <time>2020-08-27T07:57:28Z</time>
      </trkpt>
      <trkpt lat="47.36406" lon="0.20972">
        <ele>56</ele>
        <time>2020-08-27T07:57:29Z</time>
      </trkpt>
      <trkpt lat="47.36404" lon="0.20972">
        <ele>56</ele>
        <time>2020-08-27T07:57:30Z</time>
      </trkpt>
      <trkpt lat="47.36403" lon="0.20971">
        <ele>56</ele>
        <time>2020-08-27T07:57:31Z</time>
      </trkpt>
      <trkpt lat="47.364" lon="0.20971">
        <ele>56</ele>
        <time>2020-08-27T07:57:33Z</time>
      </trkpt>
      <trkpt lat="47.36398" lon="0.2097">
        <ele>56</ele>
        <time>2020-08-27T07:57:35Z</time>
      </trkpt>
      <trkpt lat="47.36397" lon="0.20967">
        <ele>56</ele>
        <time>2020-08-27T07:57:37Z</time>
      </trkpt>
      <trkpt lat="47.36398" lon="0.20962">
        <ele>56</ele>
        <time>2020-08-27T07:57:39Z</time>
      </trkpt>
      <trkpt lat="47.36397" lon="0.20959">
        <ele>56</ele>
        <time>2020-08-27T07:57:42Z</time>
      </trkpt>
      <trkpt lat="47.36395" lon="0.20959">
        <ele>56</ele>
        <time>2020-08-27T07:57:48Z</time>
      </trkpt>
      <trkpt lat="47.36394" lon="0.20958">
        <ele>56</ele>
        <time>2020-08-27T07:57:52Z</time>
      </trkpt>
      <trkpt lat="47.36393" lon="0.20956">
        <ele>56</ele>
        <time>2020-08-27T07:58:06Z</time>
      </trkpt>
      <trkpt lat="47.36394" lon="0.20953">
        <ele>56</ele>
        <time>2020-08-27T07:58:10Z</time>
      </trkpt>
      <trkpt lat="47.36396" lon="0.20952">
        <ele>56</ele>
        <time>2020-08-27T07:58:18Z</time>
      </trkpt>
      <trkpt lat="47.36394" lon="0.20951">
        <ele>56</ele>
        <time>2020-08-27T07:58:24Z</time>
      </trkpt>
      <trkpt lat="47.36392" lon="0.2095">
        <ele>56</ele>
        <time>2020-08-27T07:58:30Z</time>
      </trkpt>
      <trkpt lat="47.36389" lon="0.20949">
        <ele>56</ele>
        <time>2020-08-27T07:58:33Z</time>
      </trkpt>
      <trkpt lat="47.36387" lon="0.20948">
        <ele>57</ele>
        <time>2020-08-27T07:58:35Z</time>
      </trkpt>
      <trkpt lat="47.36385" lon="0.20948">
        <ele>57</ele>
        <time>2020-08-27T07:58:38Z</time>
      </trkpt>
      <trkpt lat="47.36383" lon="0.20949">
        <ele>57</ele>
        <time>2020-08-27T07:58:41Z</time>
      </trkpt>
      <trkpt lat="47.36381" lon="0.20949">
        <ele>57</ele>
        <time>2020-08-27T07:58:43Z</time>
      </trkpt>
      <trkpt lat="47.36379" lon="0.20949">
        <ele>58</ele>
        <time>2020-08-27T07:58:46Z</time>
      </trkpt>
      <trkpt lat="47.36377" lon="0.20949">
        <ele>58</ele>
        <time>2020-08-27T07:58:49Z</time>
      </trkpt>
      <trkpt lat="47.36375" lon="0.2095">
        <ele>58</ele>
        <time>2020-08-27T07:58:53Z</time>
      </trkpt>
      <trkpt lat="47.36372" lon="0.2095">
        <ele>58</ele>
        <time>2020-08-27T07:58:56Z</time>
      </trkpt>
      <trkpt lat="47.36371" lon="0.20949">
        <ele>58</ele>
        <time>2020-08-27T07:58:59Z</time>
      </trkpt>
      <trkpt lat="47.3637" lon="0.20946">
        <ele>58</ele>
        <time>2020-08-27T07:59:03Z</time>
      </trkpt>
      <trkpt lat="47.36369" lon="0.20944">
        <ele>59</ele>
        <time>2020-08-27T07:59:08Z</time>
      </trkpt>
      <trkpt lat="47.36367" lon="0.20943">
        <ele>59</ele>
        <time>2020-08-27T07:59:12Z</time>
      </trkpt>
      <trkpt lat="47.36365" lon="0.20943">
        <ele>59</ele>
        <time>2020-08-27T07:59:15Z</time>
      </trkpt>
      <trkpt lat="47.36363" lon="0.20943">
        <ele>59</ele>
        <time>2020-08-27T07:59:24Z</time>
      </trkpt>
      <trkpt lat="47.36361" lon="0.20943">
        <ele>59</ele>
        <time>2020-08-27T07:59:27Z</time>
      </trkpt>
      <trkpt lat="47.36359" lon="0.20943">
        <ele>59</ele>
        <time>2020-08-27T07:59:29Z</time>
      </trkpt>
      <trkpt lat="47.36357" lon="0.20942">
        <ele>59</ele>
        <time>2020-08-27T07:59:31Z</time>
      </trkpt>
      <trkpt lat="47.36355" lon="0.20941">
        <ele>59</ele>
        <time>2020-08-27T07:59:34Z</time>
      </trkpt>
      <trkpt lat="47.36352" lon="0.20941">
        <ele>59</ele>
        <time>2020-08-27T07:59:38Z</time>
      </trkpt>
      <trkpt lat="47.3635" lon="0.20941">
        <ele>59</ele>
        <time>2020-08-27T07:59:40Z</time>
      </trkpt>
      <trkpt lat="47.36348" lon="0.2094">
        <ele>59</ele>
        <time>2020-08-27T07:59:42Z</time>
      </trkpt>
      <trkpt lat="47.36346" lon="0.20939">
        <ele>59</ele>
        <time>2020-08-27T07:59:45Z</time>
      </trkpt>
      <trkpt lat="47.36344" lon="0.20938">
        <ele>59</ele>
        <time>2020-08-27T07:59:48Z</time>
      </trkpt>
      <trkpt lat="47.36342" lon="0.20937">
        <ele>59</ele>
        <time>2020-08-27T07:59:51Z</time>
      </trkpt>
      <trkpt lat="47.36339" lon="0.20937">
        <ele>59</ele>
        <time>2020-08-27T07:59:54Z</time>
      </trkpt>
      <trkpt lat="47.36337" lon="0.20936">
        <ele>59</ele>
        <time>2020-08-27T07:59:56Z</time>
      </trkpt>
      <trkpt lat="47.36335" lon="0.20935">
        <ele>59</ele>
        <time>2020-08-27T07:59:58Z</time>
      </trkpt>
      <trkpt lat="47.36333" lon="0.20935">
        <ele>59</ele>
        <time>2020-08-27T08:00:00Z</time>
      </trkpt>
      <trkpt lat="47.36331" lon="0.20935">
        <ele>59</ele>
        <time>2020-08-27T08:00:02Z</time>
      </trkpt>
      <trkpt lat="47.36329" lon="0.20934">
        <ele>59</ele>
        <time>2020-08-27T08:00:04Z</time>
      </trkpt>
      <trkpt lat="47.36326" lon="0.20932">
        <ele>60</ele>
        <time>2020-08-27T08:00:06Z</time>
      </trkpt>
      <trkpt lat="47.36324" lon="0.20932">
        <ele>60</ele>
        <time>2020-08-27T08:00:08Z</time>
      </trkpt>
      <trkpt lat="47.36322" lon="0.2093">
        <ele>60</ele>
        <time>2020-08-27T08:00:10Z</time>
      </trkpt>
      <trkpt lat="47.36319" lon="0.2093">
        <ele>60</ele>
        <time>2020-08-27T08:00:12Z</time>
      </trkpt>
      <trkpt lat="47.36316" lon="0.2093">
        <ele>60</ele>
        <time>2020-08-27T08:00:14Z</time>
      </trkpt>
      <trkpt lat="47.36314" lon="0.20929">
        <ele>60</ele>
        <time>2020-08-27T08:00:16Z</time>
      </trkpt>
      <trkpt lat="47.36312" lon="0.20929">
        <ele>60</ele>
        <time>2020-08-27T08:00:17Z</time>
      </trkpt>
      <trkpt lat="47.36309" lon="0.20927">
        <ele>61</ele>
        <time>2020-08-27T08:00:19Z</time>
      </trkpt>
      <trkpt lat="47.36306" lon="0.20927">
        <ele>61</ele>
        <time>2020-08-27T08:00:21Z</time>
      </trkpt>
      <trkpt lat="47.36303" lon="0.20926">
        <ele>61</ele>
        <time>2020-08-27T08:00:23Z</time>
      </trkpt>
      <trkpt lat="47.36301" lon="0.20925">
        <ele>61</ele>
        <time>2020-08-27T08:00:25Z</time>
      </trkpt>
      <trkpt lat="47.36298" lon="0.20925">
        <ele>61</ele>
        <time>2020-08-27T08:00:28Z</time>
      </trkpt>
      <trkpt lat="47.36296" lon="0.20926">
        <ele>62</ele>
        <time>2020-08-27T08:00:30Z</time>
      </trkpt>
      <trkpt lat="47.36294" lon="0.20928">
        <ele>62</ele>
        <time>2020-08-27T08:00:32Z</time>
      </trkpt>
      <trkpt lat="47.36291" lon="0.2093">
        <ele>62</ele>
        <time>2020-08-27T08:00:34Z</time>
      </trkpt>
      <trkpt lat="47.36289" lon="0.20932">
        <ele>63</ele>
        <time>2020-08-27T08:00:36Z</time>
      </trkpt>
      <trkpt lat="47.36287" lon="0.20933">
        <ele>63</ele>
        <time>2020-08-27T08:00:38Z</time>
      </trkpt>
      <trkpt lat="47.36284" lon="0.20935">
        <ele>63</ele>
        <time>2020-08-27T08:00:40Z</time>
      </trkpt>
      <trkpt lat="47.36282" lon="0.20935">
        <ele>63</ele>
        <time>2020-08-27T08:00:42Z</time>
      </trkpt>
      <trkpt lat="47.3628" lon="0.20937">
        <ele>64</ele>
        <time>2020-08-27T08:00:44Z</time>
      </trkpt>
      <trkpt lat="47.36279" lon="0.20939">
        <ele>64</ele>
        <time>2020-08-27T08:00:47Z</time>
      </trkpt>
      <trkpt lat="47.36279" lon="0.20942">
        <ele>64</ele>
        <time>2020-08-27T08:00:49Z</time>
      </trkpt>
      <trkpt lat="47.36279" lon="0.20946">
        <ele>64</ele>
        <time>2020-08-27T08:00:51Z</time>
      </trkpt>
      <trkpt lat="47.36279" lon="0.20949">
        <ele>65</ele>
        <time>2020-08-27T08:00:53Z</time>
      </trkpt>
      <trkpt lat="47.3628" lon="0.20952">
        <ele>65</ele>
        <time>2020-08-27T08:00:55Z</time>
      </trkpt>
      <trkpt lat="47.36281" lon="0.20955">
        <ele>65</ele>
        <time>2020-08-27T08:00:57Z</time>
      </trkpt>
      <trkpt lat="47.36282" lon="0.20957">
        <ele>65</ele>
        <time>2020-08-27T08:00:59Z</time>
      </trkpt>
      <trkpt lat="47.36283" lon="0.20961">
        <ele>65</ele>
        <time>2020-08-27T08:01:01Z</time>
      </trkpt>
      <trkpt lat="47.36284" lon="0.20964">
        <ele>65</ele>
        <time>2020-08-27T08:01:04Z</time>
      </trkpt>
      <trkpt lat="47.36285" lon="0.20967">
        <ele>65</ele>
        <time>2020-08-27T08:01:06Z</time>
      </trkpt>
      <trkpt lat="47.36286" lon="0.2097">
        <ele>65</ele>
        <time>2020-08-27T08:01:08Z</time>
      </trkpt>
      <trkpt lat="47.36287" lon="0.20973">
        <ele>65</ele>
        <time>2020-08-27T08:01:10Z</time>
      </trkpt>
      <trkpt lat="47.36288" lon="0.20976">
        <ele>65</ele>
        <time>2020-08-27T08:01:12Z</time>
      </trkpt>
      <trkpt lat="47.36289" lon="0.2098">
        <ele>65</ele>
        <time>2020-08-27T08:01:14Z</time>
      </trkpt>
      <trkpt lat="47.3629" lon="0.20983">
        <ele>65</ele>
        <time>2020-08-27T08:01:16Z</time>
      </trkpt>
      <trkpt lat="47.36292" lon="0.20987">
        <ele>65</ele>
        <time>2020-08-27T08:01:18Z</time>
      </trkpt>
      <trkpt lat="47.36293" lon="0.2099">
        <ele>65</ele>
        <time>2020-08-27T08:01:20Z</time>
      </trkpt>
      <trkpt lat="47.36296" lon="0.20996">
        <ele>65</ele>
        <time>2020-08-27T08:01:23Z</time>
      </trkpt>
      <trkpt lat="47.36297" lon="0.20998">
        <ele>65</ele>
        <time>2020-08-27T08:01:24Z</time>
      </trkpt>
      <trkpt lat="47.36297" lon="0.21002">
        <ele>65</ele>
        <time>2020-08-27T08:01:26Z</time>
      </trkpt>
      <trkpt lat="47.36298" lon="0.21005">
        <ele>65</ele>
        <time>2020-08-27T08:01:28Z</time>
      </trkpt>
      <trkpt lat="47.36303" lon="0.21016">
        <ele>65</ele>
        <time>2020-08-27T08:01:35Z</time>
      </trkpt>
      <trkpt lat="47.36304" lon="0.21026">
        <ele>65</ele>
        <time>2020-08-27T08:01:40Z</time>
      </trkpt>
      <trkpt lat="47.36305" lon="0.21029">
        <ele>66</ele>
        <time>2020-08-27T08:01:42Z</time>
      </trkpt>
      <trkpt lat="47.36307" lon="0.21033">
        <ele>66</ele>
        <time>2020-08-27T08:01:44Z</time>
      </trkpt>
      <trkpt lat="47.36308" lon="0.21036">
        <ele>66</ele>
        <time>2020-08-27T08:01:46Z</time>
      </trkpt>
      <trkpt lat="47.36311" lon="0.2104">
        <ele>66</ele>
        <time>2020-08-27T08:01:48Z</time>
      </trkpt>
      <trkpt lat="47.36314" lon="0.21045">
        <ele>66</ele>
        <time>2020-08-27T08:01:51Z</time>
      </trkpt>
      <trkpt lat="47.36316" lon="0.21049">
        <ele>67</ele>
        <time>2020-08-27T08:01:53Z</time>
      </trkpt>
      <trkpt lat="47.36317" lon="0.21052">
        <ele>67</ele>
        <time>2020-08-27T08:01:55Z</time>
      </trkpt>
      <trkpt lat="47.36317" lon="0.21056">
        <ele>67</ele>
        <time>2020-08-27T08:01:57Z</time>
      </trkpt>
      <trkpt lat="47.36318" lon="0.21059">
        <ele>67</ele>
        <time>2020-08-27T08:01:59Z</time>
      </trkpt>
      <trkpt lat="47.36317" lon="0.21063">
        <ele>68</ele>
        <time>2020-08-27T08:02:01Z</time>
      </trkpt>
      <trkpt lat="47.36317" lon="0.21067">
        <ele>68</ele>
        <time>2020-08-27T08:02:03Z</time>
      </trkpt>
      <trkpt lat="47.36317" lon="0.21071">
        <ele>69</ele>
        <time>2020-08-27T08:02:05Z</time>
      </trkpt>
      <trkpt lat="47.36316" lon="0.21075">
        <ele>69</ele>
        <time>2020-08-27T08:02:07Z</time>
      </trkpt>
      <trkpt lat="47.36315" lon="0.2108">
        <ele>69</ele>
        <time>2020-08-27T08:02:09Z</time>
      </trkpt>
      <trkpt lat="47.36315" lon="0.21083">
        <ele>70</ele>
        <time>2020-08-27T08:02:11Z</time>
      </trkpt>
      <trkpt lat="47.36316" lon="0.21086">
        <ele>70</ele>
        <time>2020-08-27T08:02:13Z</time>
      </trkpt>
      <trkpt lat="47.36316" lon="0.21089">
        <ele>70</ele>
        <time>2020-08-27T08:02:15Z</time>
      </trkpt>
      <trkpt lat="47.36316" lon="0.21092">
        <ele>70</ele>
        <time>2020-08-27T08:02:17Z</time>
      </trkpt>
      <trkpt lat="47.36317" lon="0.21095">
        <ele>71</ele>
        <time>2020-08-27T08:02:19Z</time>
      </trkpt>
      <trkpt lat="47.36317" lon="0.21098">
        <ele>71</ele>
        <time>2020-08-27T08:02:21Z</time>
      </trkpt>
      <trkpt lat="47.36318" lon="0.21101">
        <ele>71</ele>
        <time>2020-08-27T08:02:23Z</time>
      </trkpt>
      <trkpt lat="47.36318" lon="0.21104">
        <ele>71</ele>
        <time>2020-08-27T08:02:25Z</time>
      </trkpt>
      <trkpt lat="47.36317" lon="0.21107">
        <ele>71</ele>
        <time>2020-08-27T08:02:27Z</time>
      </trkpt>
      <trkpt lat="47.36318" lon="0.21111">
        <ele>72</ele>
        <time>2020-08-27T08:02:29Z</time>
      </trkpt>
      <trkpt lat="47.36319" lon="0.21114">
        <ele>72</ele>
        <time>2020-08-27T08:02:31Z</time>
      </trkpt>
      <trkpt lat="47.36319" lon="0.21118">
        <ele>72</ele>
        <time>2020-08-27T08:02:33Z</time>
      </trkpt>
      <trkpt lat="47.36319" lon="0.21121">
        <ele>72</ele>
        <time>2020-08-27T08:02:35Z</time>
      </trkpt>
      <trkpt lat="47.3632" lon="0.21125">
        <ele>72</ele>
        <time>2020-08-27T08:02:38Z</time>
      </trkpt>
      <trkpt lat="47.3632" lon="0.21128">
        <ele>73</ele>
        <time>2020-08-27T08:02:40Z</time>
      </trkpt>
      <trkpt lat="47.36319" lon="0.21132">
        <ele>73</ele>
        <time>2020-08-27T08:02:42Z</time>
      </trkpt>
      <trkpt lat="47.3632" lon="0.21138">
        <ele>73</ele>
        <time>2020-08-27T08:02:47Z</time>
      </trkpt>
      <trkpt lat="47.36321" lon="0.21141">
        <ele>74</ele>
        <time>2020-08-27T08:02:49Z</time>
      </trkpt>
      <trkpt lat="47.36325" lon="0.21154">
        <ele>74</ele>
        <time>2020-08-27T08:02:57Z</time>
      </trkpt>
      <trkpt lat="47.36327" lon="0.2116">
        <ele>74</ele>
        <time>2020-08-27T08:03:01Z</time>
      </trkpt>
      <trkpt lat="47.36329" lon="0.21163">
        <ele>74</ele>
        <time>2020-08-27T08:03:03Z</time>
      </trkpt>
      <trkpt lat="47.3633" lon="0.21168">
        <ele>75</ele>
        <time>2020-08-27T08:03:06Z</time>
      </trkpt>
      <trkpt lat="47.36331" lon="0.21172">
        <ele>74</ele>
        <time>2020-08-27T08:03:08Z</time>
      </trkpt>
      <trkpt lat="47.36331" lon="0.21176">
        <ele>74</ele>
        <time>2020-08-27T08:03:10Z</time>
      </trkpt>
      <trkpt lat="47.36332" lon="0.21178">
        <ele>74</ele>
        <time>2020-08-27T08:03:12Z</time>
      </trkpt>
      <trkpt lat="47.36332" lon="0.21182">
        <ele>74</ele>
        <time>2020-08-27T08:03:14Z</time>
      </trkpt>
      <trkpt lat="47.36332" lon="0.21187">
        <ele>74</ele>
        <time>2020-08-27T08:03:16Z</time>
      </trkpt>
      <trkpt lat="47.36331" lon="0.21192">
        <ele>74</ele>
        <time>2020-08-27T08:03:18Z</time>
      </trkpt>
      <trkpt lat="47.36332" lon="0.21196">
        <ele>74</ele>
        <time>2020-08-27T08:03:20Z</time>
      </trkpt>
      <trkpt lat="47.36334" lon="0.212">
        <ele>74</ele>
        <time>2020-08-27T08:03:22Z</time>
      </trkpt>
      <trkpt lat="47.36334" lon="0.21204">
        <ele>74</ele>
        <time>2020-08-27T08:03:24Z</time>
      </trkpt>
      <trkpt lat="47.36333" lon="0.21206">
        <ele>74</ele>
        <time>2020-08-27T08:03:26Z</time>
      </trkpt>
      <trkpt lat="47.36332" lon="0.2121">
        <ele>74</ele>
        <time>2020-08-27T08:03:28Z</time>
      </trkpt>
      <trkpt lat="47.36331" lon="0.21213">
        <ele>74</ele>
        <time>2020-08-27T08:03:30Z</time>
      </trkpt>
      <trkpt lat="47.36331" lon="0.21217">
        <ele>75</ele>
        <time>2020-08-27T08:03:33Z</time>
      </trkpt>
      <trkpt lat="47.3633" lon="0.2122">
        <ele>75</ele>
        <time>2020-08-27T08:03:35Z</time>
      </trkpt>
      <trkpt lat="47.3633" lon="0.21223">
        <ele>75</ele>
        <time>2020-08-27T08:03:37Z</time>
      </trkpt>
      <trkpt lat="47.36329" lon="0.21226">
        <ele>75</ele>
        <time>2020-08-27T08:03:39Z</time>
      </trkpt>
      <trkpt lat="47.36328" lon="0.21229">
        <ele>76</ele>
        <time>2020-08-27T08:03:41Z</time>
      </trkpt>
      <trkpt lat="47.36328" lon="0.21233">
        <ele>76</ele>
        <time>2020-08-27T08:03:43Z</time>
      </trkpt>
      <trkpt lat="47.36328" lon="0.21238">
        <ele>76</ele>
        <time>2020-08-27T08:03:45Z</time>
      </trkpt>
      <trkpt lat="47.36327" lon="0.21241">
        <ele>76</ele>
        <time>2020-08-27T08:03:47Z</time>
      </trkpt>
      <trkpt lat="47.36326" lon="0.21244">
        <ele>77</ele>
        <time>2020-08-27T08:03:50Z</time>
      </trkpt>
      <trkpt lat="47.36326" lon="0.21248">
        <ele>77</ele>
        <time>2020-08-27T08:03:52Z</time>
      </trkpt>
      <trkpt lat="47.36326" lon="0.21252">
        <ele>77</ele>
        <time>2020-08-27T08:03:54Z</time>
      </trkpt>
      <trkpt lat="47.36325" lon="0.21255">
        <ele>77</ele>
        <time>2020-08-27T08:03:56Z</time>
      </trkpt>
      <trkpt lat="47.36325" lon="0.21259">
        <ele>78</ele>
        <time>2020-08-27T08:03:59Z</time>
      </trkpt>
      <trkpt lat="47.36324" lon="0.21262">
        <ele>78</ele>
        <time>2020-08-27T08:04:01Z</time>
      </trkpt>
      <trkpt lat="47.36325" lon="0.21264">
        <ele>78</ele>
        <time>2020-08-27T08:04:03Z</time>
      </trkpt>
      <trkpt lat="47.36324" lon="0.21267">
        <ele>78</ele>
        <time>2020-08-27T08:04:05Z</time>
      </trkpt>
      <trkpt lat="47.36324" lon="0.2127">
        <ele>78</ele>
        <time>2020-08-27T08:04:08Z</time>
      </trkpt>
      <trkpt lat="47.36323" lon="0.21274">
        <ele>79</ele>
        <time>2020-08-27T08:04:10Z</time>
      </trkpt>
      <trkpt lat="47.36322" lon="0.21277">
        <ele>79</ele>
        <time>2020-08-27T08:04:12Z</time>
      </trkpt>
      <trkpt lat="47.36321" lon="0.2128">
        <ele>79</ele>
        <time>2020-08-27T08:04:14Z</time>
      </trkpt>
      <trkpt lat="47.3632" lon="0.21284">
        <ele>80</ele>
        <time>2020-08-27T08:04:16Z</time>
      </trkpt>
      <trkpt lat="47.36319" lon="0.21287">
        <ele>80</ele>
        <time>2020-08-27T08:04:18Z</time>
      </trkpt>
      <trkpt lat="47.36317" lon="0.2129">
        <ele>80</ele>
        <time>2020-08-27T08:04:20Z</time>
      </trkpt>
      <trkpt lat="47.36315" lon="0.21294">
        <ele>81</ele>
        <time>2020-08-27T08:04:22Z</time>
      </trkpt>
      <trkpt lat="47.36314" lon="0.21298">
        <ele>81</ele>
        <time>2020-08-27T08:04:24Z</time>
      </trkpt>
      <trkpt lat="47.36313" lon="0.21301">
        <ele>82</ele>
        <time>2020-08-27T08:04:26Z</time>
      </trkpt>
      <trkpt lat="47.36313" lon="0.21305">
        <ele>82</ele>
        <time>2020-08-27T08:04:28Z</time>
      </trkpt>
      <trkpt lat="47.36313" lon="0.21308">
        <ele>82</ele>
        <time>2020-08-27T08:04:30Z</time>
      </trkpt>
      <trkpt lat="47.36311" lon="0.21311">
        <ele>82</ele>
        <time>2020-08-27T08:04:32Z</time>
      </trkpt>
      <trkpt lat="47.36309" lon="0.21314">
        <ele>82</ele>
        <time>2020-08-27T08:04:34Z</time>
      </trkpt>
      <trkpt lat="47.36308" lon="0.21316">
        <ele>83</ele>
        <time>2020-08-27T08:04:35Z</time>
      </trkpt>
      <trkpt lat="47.36306" lon="0.21319">
        <ele>83</ele>
        <time>2020-08-27T08:04:37Z</time>
      </trkpt>
      <trkpt lat="47.36306" lon="0.21321">
        <ele>83</ele>
        <time>2020-08-27T08:04:40Z</time>
      </trkpt>
      <trkpt lat="47.36305" lon="0.21325">
        <ele>83</ele>
        <time>2020-08-27T08:04:44Z</time>
      </trkpt>
      <trkpt lat="47.36304" lon="0.21327">
        <ele>83</ele>
        <time>2020-08-27T08:04:46Z</time>
      </trkpt>
      <trkpt lat="47.36303" lon="0.2133">
        <ele>83</ele>
        <time>2020-08-27T08:04:49Z</time>
      </trkpt>
      <trkpt lat="47.36302" lon="0.2133">
        <ele>83</ele>
        <time>2020-08-27T08:04:54Z</time>
      </trkpt>
      <trkpt lat="47.36301" lon="0.21334">
        <ele>84</ele>
        <time>2020-08-27T08:04:57Z</time>
      </trkpt>
      <trkpt lat="47.36299" lon="0.21337">
        <ele>84</ele>
        <time>2020-08-27T08:05:00Z</time>
      </trkpt>
      <trkpt lat="47.36298" lon="0.21339">
        <ele>84</ele>
        <time>2020-08-27T08:05:02Z</time>
      </trkpt>
      <trkpt lat="47.36297" lon="0.21341">
        <ele>84</ele>
        <time>2020-08-27T08:05:05Z</time>
      </trkpt>
      <trkpt lat="47.36296" lon="0.21345">
        <ele>84</ele>
        <time>2020-08-27T08:05:07Z</time>
      </trkpt>
      <trkpt lat="47.36296" lon="0.21349">
        <ele>84</ele>
        <time>2020-08-27T08:05:09Z</time>
      </trkpt>
      <trkpt lat="47.36296" lon="0.21352">
        <ele>84</ele>
        <time>2020-08-27T08:05:11Z</time>
      </trkpt>
      <trkpt lat="47.36294" lon="0.21354">
        <ele>84</ele>
        <time>2020-08-27T08:05:13Z</time>
      </trkpt>
      <trkpt lat="47.36294" lon="0.21357">
        <ele>84</ele>
        <time>2020-08-27T08:05:15Z</time>
      </trkpt>
      <trkpt lat="47.36293" lon="0.21361">
        <ele>84</ele>
        <time>2020-08-27T08:05:17Z</time>
      </trkpt>
      <trkpt lat="47.36292" lon="0.21364">
        <ele>84</ele>
        <time>2020-08-27T08:05:19Z</time>
      </trkpt>
      <trkpt lat="47.36291" lon="0.21367">
        <ele>84</ele>
        <time>2020-08-27T08:05:21Z</time>
      </trkpt>
      <trkpt lat="47.3629" lon="0.2137">
        <ele>84</ele>
        <time>2020-08-27T08:05:23Z</time>
      </trkpt>
      <trkpt lat="47.36288" lon="0.21374">
        <ele>84</ele>
        <time>2020-08-27T08:05:25Z</time>
      </trkpt>
      <trkpt lat="47.36288" lon="0.21377">
        <ele>84</ele>
        <time>2020-08-27T08:05:27Z</time>
      </trkpt>
      <trkpt lat="47.36287" lon="0.21381">
        <ele>84</ele>
        <time>2020-08-27T08:05:30Z</time>
      </trkpt>
      <trkpt lat="47.36285" lon="0.21385">
        <ele>84</ele>
        <time>2020-08-27T08:05:32Z</time>
      </trkpt>
      <trkpt lat="47.36283" lon="0.21388">
        <ele>84</ele>
        <time>2020-08-27T08:05:34Z</time>
      </trkpt>
      <trkpt lat="47.36281" lon="0.2139">
        <ele>84</ele>
        <time>2020-08-27T08:05:36Z</time>
      </trkpt>
      <trkpt lat="47.36279" lon="0.21392">
        <ele>84</ele>
        <time>2020-08-27T08:05:38Z</time>
      </trkpt>
      <trkpt lat="47.36278" lon="0.21393">
        <ele>84</ele>
        <time>2020-08-27T08:05:40Z</time>
      </trkpt>
      <trkpt lat="47.36277" lon="0.21395">
        <ele>84</ele>
        <time>2020-08-27T08:05:42Z</time>
      </trkpt>
      <trkpt lat="47.36276" lon="0.21399">
        <ele>84</ele>
        <time>2020-08-27T08:05:44Z</time>
      </trkpt>
      <trkpt lat="47.36275" lon="0.21401">
        <ele>84</ele>
        <time>2020-08-27T08:05:46Z</time>
      </trkpt>
      <trkpt lat="47.36273" lon="0.21404">
        <ele>84</ele>
        <time>2020-08-27T08:05:49Z</time>
      </trkpt>
      <trkpt lat="47.36272" lon="0.21407">
        <ele>84</ele>
        <time>2020-08-27T08:05:51Z</time>
      </trkpt>
      <trkpt lat="47.36271" lon="0.2141">
        <ele>84</ele>
        <time>2020-08-27T08:05:53Z</time>
      </trkpt>
      <trkpt lat="47.36269" lon="0.21413">
        <ele>84</ele>
        <time>2020-08-27T08:05:55Z</time>
      </trkpt>
      <trkpt lat="47.36268" lon="0.21416">
        <ele>84</ele>
        <time>2020-08-27T08:05:57Z</time>
      </trkpt>
      <trkpt lat="47.36267" lon="0.2142">
        <ele>84</ele>
        <time>2020-08-27T08:05:59Z</time>
      </trkpt>
      <trkpt lat="47.36266" lon="0.21423">
        <ele>84</ele>
        <time>2020-08-27T08:06:01Z</time>
      </trkpt>
      <trkpt lat="47.36265" lon="0.21425">
        <ele>84</ele>
        <time>2020-08-27T08:06:03Z</time>
      </trkpt>
      <trkpt lat="47.36264" lon="0.21429">
        <ele>84</ele>
        <time>2020-08-27T08:06:05Z</time>
      </trkpt>
      <trkpt lat="47.36263" lon="0.21432">
        <ele>84</ele>
        <time>2020-08-27T08:06:07Z</time>
      </trkpt>
      <trkpt lat="47.36262" lon="0.21435">
        <ele>84</ele>
        <time>2020-08-27T08:06:09Z</time>
      </trkpt>
      <trkpt lat="47.36261" lon="0.21439">
        <ele>84</ele>
        <time>2020-08-27T08:06:11Z</time>
      </trkpt>
      <trkpt lat="47.3626" lon="0.21443">
        <ele>84</ele>
        <time>2020-08-27T08:06:13Z</time>
      </trkpt>
      <trkpt lat="47.3626" lon="0.21447">
        <ele>83</ele>
        <time>2020-08-27T08:06:15Z</time>
      </trkpt>
      <trkpt lat="47.36259" lon="0.21451">
        <ele>83</ele>
        <time>2020-08-27T08:06:17Z</time>
      </trkpt>
      <trkpt lat="47.36259" lon="0.21453">
        <ele>83</ele>
        <time>2020-08-27T08:06:19Z</time>
      </trkpt>
      <trkpt lat="47.36258" lon="0.21457">
        <ele>83</ele>
        <time>2020-08-27T08:06:21Z</time>
      </trkpt>
      <trkpt lat="47.36257" lon="0.2146">
        <ele>83</ele>
        <time>2020-08-27T08:06:23Z</time>
      </trkpt>
      <trkpt lat="47.36256" lon="0.21462">
        <ele>83</ele>
        <time>2020-08-27T08:06:25Z</time>
      </trkpt>
      <trkpt lat="47.36256" lon="0.21465">
        <ele>83</ele>
        <time>2020-08-27T08:06:27Z</time>
      </trkpt>
      <trkpt lat="47.36255" lon="0.21469">
        <ele>83</ele>
        <time>2020-08-27T08:06:30Z</time>
      </trkpt>
      <trkpt lat="47.36254" lon="0.21473">
        <ele>83</ele>
        <time>2020-08-27T08:06:32Z</time>
      </trkpt>
      <trkpt lat="47.36254" lon="0.21475">
        <ele>83</ele>
        <time>2020-08-27T08:06:34Z</time>
      </trkpt>
      <trkpt lat="47.36253" lon="0.21479">
        <ele>83</ele>
        <time>2020-08-27T08:06:36Z</time>
      </trkpt>
      <trkpt lat="47.36253" lon="0.21482">
        <ele>83</ele>
        <time>2020-08-27T08:06:38Z</time>
      </trkpt>
      <trkpt lat="47.36252" lon="0.21484">
        <ele>83</ele>
        <time>2020-08-27T08:06:40Z</time>
      </trkpt>
      <trkpt lat="47.36251" lon="0.21489">
        <ele>83</ele>
        <time>2020-08-27T08:06:42Z</time>
      </trkpt>
      <trkpt lat="47.3625" lon="0.21492">
        <ele>82</ele>
        <time>2020-08-27T08:06:43Z</time>
      </trkpt>
      <trkpt lat="47.36249" lon="0.21497">
        <ele>82</ele>
        <time>2020-08-27T08:06:45Z</time>
      </trkpt>
      <trkpt lat="47.36249" lon="0.215">
        <ele>82</ele>
        <time>2020-08-27T08:06:47Z</time>
      </trkpt>
      <trkpt lat="47.36248" lon="0.21502">
        <ele>83</ele>
        <time>2020-08-27T08:06:49Z</time>
      </trkpt>
      <trkpt lat="47.36248" lon="0.21506">
        <ele>83</ele>
        <time>2020-08-27T08:06:51Z</time>
      </trkpt>
      <trkpt lat="47.36248" lon="0.2151">
        <ele>83</ele>
        <time>2020-08-27T08:06:53Z</time>
      </trkpt>
      <trkpt lat="47.36248" lon="0.21515">
        <ele>83</ele>
        <time>2020-08-27T08:06:55Z</time>
      </trkpt>
      <trkpt lat="47.36247" lon="0.21518">
        <ele>83</ele>
        <time>2020-08-27T08:06:57Z</time>
      </trkpt>
      <trkpt lat="47.36247" lon="0.21521">
        <ele>83</ele>
        <time>2020-08-27T08:06:59Z</time>
      </trkpt>
      <trkpt lat="47.36247" lon="0.21524">
        <ele>83</ele>
        <time>2020-08-27T08:07:01Z</time>
      </trkpt>
      <trkpt lat="47.36247" lon="0.21527">
        <ele>83</ele>
        <time>2020-08-27T08:07:03Z</time>
      </trkpt>
      <trkpt lat="47.36247" lon="0.21531">
        <ele>84</ele>
        <time>2020-08-27T08:07:05Z</time>
      </trkpt>
      <trkpt lat="47.36246" lon="0.21536">
        <ele>84</ele>
        <time>2020-08-27T08:07:07Z</time>
      </trkpt>
      <trkpt lat="47.36245" lon="0.21539">
        <ele>84</ele>
        <time>2020-08-27T08:07:09Z</time>
      </trkpt>
      <trkpt lat="47.36244" lon="0.21542">
        <ele>84</ele>
        <time>2020-08-27T08:07:11Z</time>
      </trkpt>
      <trkpt lat="47.36243" lon="0.21546">
        <ele>84</ele>
        <time>2020-08-27T08:07:13Z</time>
      </trkpt>
      <trkpt lat="47.36242" lon="0.21548">
        <ele>84</ele>
        <time>2020-08-27T08:07:15Z</time>
      </trkpt>
      <trkpt lat="47.36241" lon="0.21551">
        <ele>84</ele>
        <time>2020-08-27T08:07:17Z</time>
      </trkpt>
      <trkpt lat="47.36241" lon="0.21555">
        <ele>84</ele>
        <time>2020-08-27T08:07:19Z</time>
      </trkpt>
      <trkpt lat="47.3624" lon="0.21558">
        <ele>84</ele>
        <time>2020-08-27T08:07:21Z</time>
      </trkpt>
      <trkpt lat="47.3624" lon="0.21561">
        <ele>84</ele>
        <time>2020-08-27T08:07:23Z</time>
      </trkpt>
      <trkpt lat="47.36239" lon="0.21566">
        <ele>84</ele>
        <time>2020-08-27T08:07:25Z</time>
      </trkpt>
      <trkpt lat="47.36238" lon="0.21569">
        <ele>84</ele>
        <time>2020-08-27T08:07:27Z</time>
      </trkpt>
      <trkpt lat="47.36236" lon="0.21571">
        <ele>84</ele>
        <time>2020-08-27T08:07:29Z</time>
      </trkpt>
      <trkpt lat="47.36236" lon="0.21574">
        <ele>84</ele>
        <time>2020-08-27T08:07:31Z</time>
      </trkpt>
      <trkpt lat="47.36236" lon="0.21578">
        <ele>84</ele>
        <time>2020-08-27T08:07:33Z</time>
      </trkpt>
      <trkpt lat="47.36236" lon="0.21583">
        <ele>84</ele>
        <time>2020-08-27T08:07:35Z</time>
      </trkpt>
      <trkpt lat="47.36235" lon="0.21586">
        <ele>84</ele>
        <time>2020-08-27T08:07:37Z</time>
      </trkpt>
      <trkpt lat="47.36234" lon="0.2159">
        <ele>84</ele>
        <time>2020-08-27T08:07:39Z</time>
      </trkpt>
      <trkpt lat="47.36233" lon="0.21593">
        <ele>84</ele>
        <time>2020-08-27T08:07:41Z</time>
      </trkpt>
      <trkpt lat="47.36232" lon="0.21597">
        <ele>84</ele>
        <time>2020-08-27T08:07:43Z</time>
      </trkpt>
      <trkpt lat="47.36231" lon="0.21602">
        <ele>84</ele>
        <time>2020-08-27T08:07:45Z</time>
      </trkpt>
      <trkpt lat="47.3623" lon="0.21606">
        <ele>84</ele>
        <time>2020-08-27T08:07:47Z</time>
      </trkpt>
      <trkpt lat="47.36229" lon="0.2161">
        <ele>84</ele>
        <time>2020-08-27T08:07:49Z</time>
      </trkpt>
      <trkpt lat="47.36228" lon="0.21614">
        <ele>84</ele>
        <time>2020-08-27T08:07:51Z</time>
      </trkpt>
      <trkpt lat="47.36226" lon="0.21617">
        <ele>84</ele>
        <time>2020-08-27T08:07:53Z</time>
      </trkpt>
      <trkpt lat="47.36225" lon="0.2162">
        <ele>84</ele>
        <time>2020-08-27T08:07:55Z</time>
      </trkpt>
      <trkpt lat="47.36224" lon="0.21624">
        <ele>84</ele>
        <time>2020-08-27T08:07:57Z</time>
      </trkpt>
      <trkpt lat="47.36223" lon="0.21628">
        <ele>84</ele>
        <time>2020-08-27T08:07:59Z</time>
      </trkpt>
      <trkpt lat="47.36222" lon="0.21631">
        <ele>84</ele>
        <time>2020-08-27T08:08:01Z</time>
      </trkpt>
      <trkpt lat="47.36222" lon="0.21635">
        <ele>84</ele>
        <time>2020-08-27T08:08:03Z</time>
      </trkpt>
      <trkpt lat="47.3622" lon="0.21639">
        <ele>84</ele>
        <time>2020-08-27T08:08:05Z</time>
      </trkpt>
      <trkpt lat="47.36219" lon="0.21643">
        <ele>84</ele>
        <time>2020-08-27T08:08:07Z</time>
      </trkpt>
      <trkpt lat="47.36218" lon="0.21648">
        <ele>84</ele>
        <time>2020-08-27T08:08:09Z</time>
      </trkpt>
      <trkpt lat="47.36217" lon="0.21652">
        <ele>84</ele>
        <time>2020-08-27T08:08:11Z</time>
      </trkpt>
      <trkpt lat="47.36217" lon="0.21657">
        <ele>84</ele>
        <time>2020-08-27T08:08:13Z</time>
      </trkpt>
      <trkpt lat="47.36216" lon="0.21661">
        <ele>84</ele>
        <time>2020-08-27T08:08:15Z</time>
      </trkpt>
      <trkpt lat="47.36214" lon="0.21664">
        <ele>84</ele>
        <time>2020-08-27T08:08:17Z</time>
      </trkpt>
      <trkpt lat="47.36213" lon="0.21668">
        <ele>85</ele>
        <time>2020-08-27T08:08:19Z</time>
      </trkpt>
      <trkpt lat="47.36213" lon="0.21671">
        <ele>85</ele>
        <time>2020-08-27T08:08:21Z</time>
      </trkpt>
      <trkpt lat="47.36212" lon="0.21675">
        <ele>85</ele>
        <time>2020-08-27T08:08:23Z</time>
      </trkpt>
      <trkpt lat="47.36211" lon="0.2168">
        <ele>85</ele>
        <time>2020-08-27T08:08:25Z</time>
      </trkpt>
      <trkpt lat="47.3621" lon="0.21684">
        <ele>85</ele>
        <time>2020-08-27T08:08:27Z</time>
      </trkpt>
      <trkpt lat="47.3621" lon="0.21688">
        <ele>85</ele>
        <time>2020-08-27T08:08:29Z</time>
      </trkpt>
      <trkpt lat="47.36209" lon="0.21691">
        <ele>85</ele>
        <time>2020-08-27T08:08:31Z</time>
      </trkpt>
      <trkpt lat="47.36209" lon="0.21694">
        <ele>85</ele>
        <time>2020-08-27T08:08:33Z</time>
      </trkpt>
      <trkpt lat="47.36209" lon="0.21697">
        <ele>85</ele>
        <time>2020-08-27T08:08:35Z</time>
      </trkpt>
      <trkpt lat="47.36207" lon="0.217">
        <ele>85</ele>
        <time>2020-08-27T08:08:37Z</time>
      </trkpt>
      <trkpt lat="47.36206" lon="0.21703">
        <ele>85</ele>
        <time>2020-08-27T08:08:39Z</time>
      </trkpt>
      <trkpt lat="47.36205" lon="0.21706">
        <ele>85</ele>
        <time>2020-08-27T08:08:41Z</time>
      </trkpt>
      <trkpt lat="47.36205" lon="0.2171">
        <ele>85</ele>
        <time>2020-08-27T08:08:43Z</time>
      </trkpt>
      <trkpt lat="47.36204" lon="0.21713">
        <ele>85</ele>
        <time>2020-08-27T08:08:45Z</time>
      </trkpt>
      <trkpt lat="47.36203" lon="0.21717">
        <ele>85</ele>
        <time>2020-08-27T08:08:47Z</time>
      </trkpt>
      <trkpt lat="47.36202" lon="0.2172">
        <ele>85</ele>
        <time>2020-08-27T08:08:49Z</time>
      </trkpt>
      <trkpt lat="47.362" lon="0.21723">
        <ele>84</ele>
        <time>2020-08-27T08:08:51Z</time>
      </trkpt>
      <trkpt lat="47.36199" lon="0.21726">
        <ele>84</ele>
        <time>2020-08-27T08:08:53Z</time>
      </trkpt>
      <trkpt lat="47.36199" lon="0.21729">
        <ele>84</ele>
        <time>2020-08-27T08:08:55Z</time>
      </trkpt>
      <trkpt lat="47.36198" lon="0.21733">
        <ele>84</ele>
        <time>2020-08-27T08:08:58Z</time>
      </trkpt>
      <trkpt lat="47.36197" lon="0.21737">
        <ele>84</ele>
        <time>2020-08-27T08:09:00Z</time>
      </trkpt>
      <trkpt lat="47.36196" lon="0.2174">
        <ele>84</ele>
        <time>2020-08-27T08:09:02Z</time>
      </trkpt>
      <trkpt lat="47.36195" lon="0.21744">
        <ele>84</ele>
        <time>2020-08-27T08:09:04Z</time>
      </trkpt>
      <trkpt lat="47.36195" lon="0.21747">
        <ele>84</ele>
        <time>2020-08-27T08:09:06Z</time>
      </trkpt>
      <trkpt lat="47.36194" lon="0.21751">
        <ele>83</ele>
        <time>2020-08-27T08:09:08Z</time>
      </trkpt>
      <trkpt lat="47.36193" lon="0.21754">
        <ele>83</ele>
        <time>2020-08-27T08:09:10Z</time>
      </trkpt>
      <trkpt lat="47.36193" lon="0.21757">
        <ele>83</ele>
        <time>2020-08-27T08:09:12Z</time>
      </trkpt>
      <trkpt lat="47.36192" lon="0.21761">
        <ele>83</ele>
        <time>2020-08-27T08:09:14Z</time>
      </trkpt>
      <trkpt lat="47.36191" lon="0.21765">
        <ele>83</ele>
        <time>2020-08-27T08:09:16Z</time>
      </trkpt>
      <trkpt lat="47.3619" lon="0.21769">
        <ele>83</ele>
        <time>2020-08-27T08:09:18Z</time>
      </trkpt>
      <trkpt lat="47.36189" lon="0.21773">
        <ele>82</ele>
        <time>2020-08-27T08:09:20Z</time>
      </trkpt>
      <trkpt lat="47.36188" lon="0.21777">
        <ele>82</ele>
        <time>2020-08-27T08:09:22Z</time>
      </trkpt>
      <trkpt lat="47.36188" lon="0.2178">
        <ele>82</ele>
        <time>2020-08-27T08:09:24Z</time>
      </trkpt>
      <trkpt lat="47.36187" lon="0.21784">
        <ele>82</ele>
        <time>2020-08-27T08:09:26Z</time>
      </trkpt>
      <trkpt lat="47.36186" lon="0.21788">
        <ele>82</ele>
        <time>2020-08-27T08:09:28Z</time>
      </trkpt>
      <trkpt lat="47.36185" lon="0.21791">
        <ele>82</ele>
        <time>2020-08-27T08:09:30Z</time>
      </trkpt>
      <trkpt lat="47.36184" lon="0.21794">
        <ele>82</ele>
        <time>2020-08-27T08:09:32Z</time>
      </trkpt>
      <trkpt lat="47.36183" lon="0.21798">
        <ele>82</ele>
        <time>2020-08-27T08:09:34Z</time>
      </trkpt>
      <trkpt lat="47.36181" lon="0.21802">
        <ele>82</ele>
        <time>2020-08-27T08:09:36Z</time>
      </trkpt>
      <trkpt lat="47.3618" lon="0.21805">
        <ele>82</ele>
        <time>2020-08-27T08:09:38Z</time>
      </trkpt>
      <trkpt lat="47.36179" lon="0.21809">
        <ele>82</ele>
        <time>2020-08-27T08:09:40Z</time>
      </trkpt>
      <trkpt lat="47.36178" lon="0.21812">
        <ele>82</ele>
        <time>2020-08-27T08:09:42Z</time>
      </trkpt>
      <trkpt lat="47.36177" lon="0.21816">
        <ele>82</ele>
        <time>2020-08-27T08:09:44Z</time>
      </trkpt>
      <trkpt lat="47.36177" lon="0.21819">
        <ele>82</ele>
        <time>2020-08-27T08:09:46Z</time>
      </trkpt>
      <trkpt lat="47.36176" lon="0.21822">
        <ele>82</ele>
        <time>2020-08-27T08:09:48Z</time>
      </trkpt>
      <trkpt lat="47.36175" lon="0.21825">
        <ele>82</ele>
        <time>2020-08-27T08:09:50Z</time>
      </trkpt>
      <trkpt lat="47.36174" lon="0.21828">
        <ele>82</ele>
        <time>2020-08-27T08:09:52Z</time>
      </trkpt>
      <trkpt lat="47.36173" lon="0.21832">
        <ele>82</ele>
        <time>2020-08-27T08:09:54Z</time>
      </trkpt>
      <trkpt lat="47.36172" lon="0.21835">
        <ele>82</ele>
        <time>2020-08-27T08:09:56Z</time>
      </trkpt>
      <trkpt lat="47.36171" lon="0.21839">
        <ele>82</ele>
        <time>2020-08-27T08:09:58Z</time>
      </trkpt>
      <trkpt lat="47.3617" lon="0.21842">
        <ele>82</ele>
        <time>2020-08-27T08:10:00Z</time>
      </trkpt>
      <trkpt lat="47.36168" lon="0.21846">
        <ele>83</ele>
        <time>2020-08-27T08:10:02Z</time>
      </trkpt>
      <trkpt lat="47.36168" lon="0.21851">
        <ele>83</ele>
        <time>2020-08-27T08:10:04Z</time>
      </trkpt>
      <trkpt lat="47.36167" lon="0.21855">
        <ele>83</ele>
        <time>2020-08-27T08:10:06Z</time>
      </trkpt>
      <trkpt lat="47.36166" lon="0.21858">
        <ele>83</ele>
        <time>2020-08-27T08:10:08Z</time>
      </trkpt>
      <trkpt lat="47.36165" lon="0.21861">
        <ele>83</ele>
        <time>2020-08-27T08:10:10Z</time>
      </trkpt>
      <trkpt lat="47.36164" lon="0.21864">
        <ele>83</ele>
        <time>2020-08-27T08:10:12Z</time>
      </trkpt>
      <trkpt lat="47.36162" lon="0.21867">
        <ele>83</ele>
        <time>2020-08-27T08:10:14Z</time>
      </trkpt>
      <trkpt lat="47.36162" lon="0.2187">
        <ele>83</ele>
        <time>2020-08-27T08:10:16Z</time>
      </trkpt>
      <trkpt lat="47.36161" lon="0.21873">
        <ele>83</ele>
        <time>2020-08-27T08:10:18Z</time>
      </trkpt>
      <trkpt lat="47.3616" lon="0.21876">
        <ele>83</ele>
        <time>2020-08-27T08:10:20Z</time>
      </trkpt>
      <trkpt lat="47.3616" lon="0.2188">
        <ele>84</ele>
        <time>2020-08-27T08:10:23Z</time>
      </trkpt>
      <trkpt lat="47.36159" lon="0.21884">
        <ele>84</ele>
        <time>2020-08-27T08:10:25Z</time>
      </trkpt>
      <trkpt lat="47.36158" lon="0.21887">
        <ele>84</ele>
        <time>2020-08-27T08:10:28Z</time>
      </trkpt>
      <trkpt lat="47.36158" lon="0.2189">
        <ele>84</ele>
        <time>2020-08-27T08:10:30Z</time>
      </trkpt>
      <trkpt lat="47.36157" lon="0.21894">
        <ele>84</ele>
        <time>2020-08-27T08:10:32Z</time>
      </trkpt>
      <trkpt lat="47.36157" lon="0.21898">
        <ele>84</ele>
        <time>2020-08-27T08:10:34Z</time>
      </trkpt>
      <trkpt lat="47.36156" lon="0.21902">
        <ele>84</ele>
        <time>2020-08-27T08:10:36Z</time>
      </trkpt>
      <trkpt lat="47.36155" lon="0.21904">
        <ele>84</ele>
        <time>2020-08-27T08:10:37Z</time>
      </trkpt>
      <trkpt lat="47.36154" lon="0.21909">
        <ele>84</ele>
        <time>2020-08-27T08:10:39Z</time>
      </trkpt>
      <trkpt lat="47.36152" lon="0.21912">
        <ele>85</ele>
        <time>2020-08-27T08:10:41Z</time>
      </trkpt>
      <trkpt lat="47.36152" lon="0.21914">
        <ele>85</ele>
        <time>2020-08-27T08:10:43Z</time>
      </trkpt>
      <trkpt lat="47.3615" lon="0.21917">
        <ele>85</ele>
        <time>2020-08-27T08:10:45Z</time>
      </trkpt>
      <trkpt lat="47.3615" lon="0.2192">
        <ele>85</ele>
        <time>2020-08-27T08:10:47Z</time>
      </trkpt>
      <trkpt lat="47.36149" lon="0.21923">
        <ele>85</ele>
        <time>2020-08-27T08:10:49Z</time>
      </trkpt>
      <trkpt lat="47.36149" lon="0.21926">
        <ele>85</ele>
        <time>2020-08-27T08:10:51Z</time>
      </trkpt>
      <trkpt lat="47.36148" lon="0.2193">
        <ele>85</ele>
        <time>2020-08-27T08:10:54Z</time>
      </trkpt>
      <trkpt lat="47.36147" lon="0.21933">
        <ele>85</ele>
        <time>2020-08-27T08:10:56Z</time>
      </trkpt>
      <trkpt lat="47.36146" lon="0.21937">
        <ele>86</ele>
        <time>2020-08-27T08:10:58Z</time>
      </trkpt>
      <trkpt lat="47.36146" lon="0.21941">
        <ele>86</ele>
        <time>2020-08-27T08:11:00Z</time>
      </trkpt>
      <trkpt lat="47.36146" lon="0.21943">
        <ele>86</ele>
        <time>2020-08-27T08:11:02Z</time>
      </trkpt>
      <trkpt lat="47.36145" lon="0.21947">
        <ele>86</ele>
        <time>2020-08-27T08:11:04Z</time>
      </trkpt>
      <trkpt lat="47.36144" lon="0.2195">
        <ele>86</ele>
        <time>2020-08-27T08:11:06Z</time>
      </trkpt>
      <trkpt lat="47.36143" lon="0.21954">
        <ele>86</ele>
        <time>2020-08-27T08:11:08Z</time>
      </trkpt>
      <trkpt lat="47.36142" lon="0.21957">
        <ele>86</ele>
        <time>2020-08-27T08:11:10Z</time>
      </trkpt>
      <trkpt lat="47.36141" lon="0.21962">
        <ele>86</ele>
        <time>2020-08-27T08:11:12Z</time>
      </trkpt>
      <trkpt lat="47.36141" lon="0.21965">
        <ele>86</ele>
        <time>2020-08-27T08:11:14Z</time>
      </trkpt>
      <trkpt lat="47.3614" lon="0.21968">
        <ele>86</ele>
        <time>2020-08-27T08:11:16Z</time>
      </trkpt>
      <trkpt lat="47.3614" lon="0.21972">
        <ele>87</ele>
        <time>2020-08-27T08:11:18Z</time>
      </trkpt>
      <trkpt lat="47.36138" lon="0.21974">
        <ele>87</ele>
        <time>2020-08-27T08:11:20Z</time>
      </trkpt>
      <trkpt lat="47.36138" lon="0.21978">
        <ele>87</ele>
        <time>2020-08-27T08:11:22Z</time>
      </trkpt>
      <trkpt lat="47.36138" lon="0.21981">
        <ele>87</ele>
        <time>2020-08-27T08:11:24Z</time>
      </trkpt>
      <trkpt lat="47.36138" lon="0.21984">
        <ele>87</ele>
        <time>2020-08-27T08:11:26Z</time>
      </trkpt>
      <trkpt lat="47.36138" lon="0.21987">
        <ele>87</ele>
        <time>2020-08-27T08:11:28Z</time>
      </trkpt>
      <trkpt lat="47.36137" lon="0.21991">
        <ele>87</ele>
        <time>2020-08-27T08:11:30Z</time>
      </trkpt>
      <trkpt lat="47.36137" lon="0.21995">
        <ele>87</ele>
        <time>2020-08-27T08:11:32Z</time>
      </trkpt>
      <trkpt lat="47.36136" lon="0.21998">
        <ele>88</ele>
        <time>2020-08-27T08:11:34Z</time>
      </trkpt>
      <trkpt lat="47.36135" lon="0.22001">
        <ele>88</ele>
        <time>2020-08-27T08:11:36Z</time>
      </trkpt>
      <trkpt lat="47.36135" lon="0.22004">
        <ele>88</ele>
        <time>2020-08-27T08:11:38Z</time>
      </trkpt>
      <trkpt lat="47.36134" lon="0.22007">
        <ele>88</ele>
        <time>2020-08-27T08:11:40Z</time>
      </trkpt>
      <trkpt lat="47.36134" lon="0.22011">
        <ele>89</ele>
        <time>2020-08-27T08:11:42Z</time>
      </trkpt>
      <trkpt lat="47.36135" lon="0.22015">
        <ele>89</ele>
        <time>2020-08-27T08:11:44Z</time>
      </trkpt>
      <trkpt lat="47.36134" lon="0.22018">
        <ele>89</ele>
        <time>2020-08-27T08:11:46Z</time>
      </trkpt>
      <trkpt lat="47.36134" lon="0.22021">
        <ele>89</ele>
        <time>2020-08-27T08:11:48Z</time>
      </trkpt>
      <trkpt lat="47.36133" lon="0.22024">
        <ele>89</ele>
        <time>2020-08-27T08:11:50Z</time>
      </trkpt>
      <trkpt lat="47.36131" lon="0.22028">
        <ele>90</ele>
        <time>2020-08-27T08:11:52Z</time>
      </trkpt>
      <trkpt lat="47.3613" lon="0.22031">
        <ele>90</ele>
        <time>2020-08-27T08:11:54Z</time>
      </trkpt>
      <trkpt lat="47.36129" lon="0.22035">
        <ele>90</ele>
        <time>2020-08-27T08:11:56Z</time>
      </trkpt>
      <trkpt lat="47.36128" lon="0.22039">
        <ele>90</ele>
        <time>2020-08-27T08:11:58Z</time>
      </trkpt>
      <trkpt lat="47.36127" lon="0.22043">
        <ele>90</ele>
        <time>2020-08-27T08:12:00Z</time>
      </trkpt>
      <trkpt lat="47.36125" lon="0.22047">
        <ele>90</ele>
        <time>2020-08-27T08:12:02Z</time>
      </trkpt>
      <trkpt lat="47.36124" lon="0.22051">
        <ele>90</ele>
        <time>2020-08-27T08:12:04Z</time>
      </trkpt>
      <trkpt lat="47.36124" lon="0.22055">
        <ele>90</ele>
        <time>2020-08-27T08:12:06Z</time>
      </trkpt>
      <trkpt lat="47.36124" lon="0.22059">
        <ele>90</ele>
        <time>2020-08-27T08:12:08Z</time>
      </trkpt>
      <trkpt lat="47.36123" lon="0.22063">
        <ele>90</ele>
        <time>2020-08-27T08:12:10Z</time>
      </trkpt>
      <trkpt lat="47.36123" lon="0.22067">
        <ele>90</ele>
        <time>2020-08-27T08:12:12Z</time>
      </trkpt>
      <trkpt lat="47.36122" lon="0.2207">
        <ele>90</ele>
        <time>2020-08-27T08:12:14Z</time>
      </trkpt>
      <trkpt lat="47.36122" lon="0.22073">
        <ele>90</ele>
        <time>2020-08-27T08:12:16Z</time>
      </trkpt>
      <trkpt lat="47.36121" lon="0.22078">
        <ele>90</ele>
        <time>2020-08-27T08:12:18Z</time>
      </trkpt>
      <trkpt lat="47.36121" lon="0.22081">
        <ele>90</ele>
        <time>2020-08-27T08:12:20Z</time>
      </trkpt>
      <trkpt lat="47.3612" lon="0.22086">
        <ele>90</ele>
        <time>2020-08-27T08:12:22Z</time>
      </trkpt>
      <trkpt lat="47.3612" lon="0.22089">
        <ele>90</ele>
        <time>2020-08-27T08:12:24Z</time>
      </trkpt>
      <trkpt lat="47.3612" lon="0.22093">
        <ele>90</ele>
        <time>2020-08-27T08:12:26Z</time>
      </trkpt>
      <trkpt lat="47.3612" lon="0.22098">
        <ele>90</ele>
        <time>2020-08-27T08:12:28Z</time>
      </trkpt>
      <trkpt lat="47.36119" lon="0.22101">
        <ele>90</ele>
        <time>2020-08-27T08:12:29Z</time>
      </trkpt>
      <trkpt lat="47.36119" lon="0.22105">
        <ele>89</ele>
        <time>2020-08-27T08:12:31Z</time>
      </trkpt>
      <trkpt lat="47.36118" lon="0.22108">
        <ele>89</ele>
        <time>2020-08-27T08:12:33Z</time>
      </trkpt>
      <trkpt lat="47.36117" lon="0.22111">
        <ele>89</ele>
        <time>2020-08-27T08:12:35Z</time>
      </trkpt>
      <trkpt lat="47.36116" lon="0.22114">
        <ele>89</ele>
        <time>2020-08-27T08:12:37Z</time>
      </trkpt>
      <trkpt lat="47.36115" lon="0.22118">
        <ele>89</ele>
        <time>2020-08-27T08:12:39Z</time>
      </trkpt>
      <trkpt lat="47.36114" lon="0.2212">
        <ele>89</ele>
        <time>2020-08-27T08:12:40Z</time>
      </trkpt>
      <trkpt lat="47.36114" lon="0.22123">
        <ele>89</ele>
        <time>2020-08-27T08:12:42Z</time>
      </trkpt>
      <trkpt lat="47.36113" lon="0.22127">
        <ele>89</ele>
        <time>2020-08-27T08:12:44Z</time>
      </trkpt>
      <trkpt lat="47.36113" lon="0.2213">
        <ele>89</ele>
        <time>2020-08-27T08:12:46Z</time>
      </trkpt>
      <trkpt lat="47.36112" lon="0.22135">
        <ele>89</ele>
        <time>2020-08-27T08:12:48Z</time>
      </trkpt>
      <trkpt lat="47.3611" lon="0.22138">
        <ele>89</ele>
        <time>2020-08-27T08:12:49Z</time>
      </trkpt>
      <trkpt lat="47.36109" lon="0.22142">
        <ele>88</ele>
        <time>2020-08-27T08:12:51Z</time>
      </trkpt>
      <trkpt lat="47.36109" lon="0.22145">
        <ele>88</ele>
        <time>2020-08-27T08:12:53Z</time>
      </trkpt>
      <trkpt lat="47.36107" lon="0.22149">
        <ele>88</ele>
        <time>2020-08-27T08:12:55Z</time>
      </trkpt>
      <trkpt lat="47.36106" lon="0.22153">
        <ele>88</ele>
        <time>2020-08-27T08:12:57Z</time>
      </trkpt>
      <trkpt lat="47.36105" lon="0.22156">
        <ele>88</ele>
        <time>2020-08-27T08:12:58Z</time>
      </trkpt>
      <trkpt lat="47.36105" lon="0.2216">
        <ele>88</ele>
        <time>2020-08-27T08:13:00Z</time>
      </trkpt>
      <trkpt lat="47.36104" lon="0.22164">
        <ele>88</ele>
        <time>2020-08-27T08:13:02Z</time>
      </trkpt>
      <trkpt lat="47.36104" lon="0.22168">
        <ele>88</ele>
        <time>2020-08-27T08:13:04Z</time>
      </trkpt>
      <trkpt lat="47.36103" lon="0.22172">
        <ele>88</ele>
        <time>2020-08-27T08:13:06Z</time>
      </trkpt>
      <trkpt lat="47.36103" lon="0.22176">
        <ele>88</ele>
        <time>2020-08-27T08:13:08Z</time>
      </trkpt>
      <trkpt lat="47.36102" lon="0.22181">
        <ele>88</ele>
        <time>2020-08-27T08:13:10Z</time>
      </trkpt>
      <trkpt lat="47.361" lon="0.22185">
        <ele>88</ele>
        <time>2020-08-27T08:13:12Z</time>
      </trkpt>
      <trkpt lat="47.36099" lon="0.22189">
        <ele>88</ele>
        <time>2020-08-27T08:13:14Z</time>
      </trkpt>
      <trkpt lat="47.36099" lon="0.22194">
        <ele>88</ele>
        <time>2020-08-27T08:13:16Z</time>
      </trkpt>
      <trkpt lat="47.36098" lon="0.22198">
        <ele>88</ele>
        <time>2020-08-27T08:13:18Z</time>
      </trkpt>
      <trkpt lat="47.36095" lon="0.22201">
        <ele>88</ele>
        <time>2020-08-27T08:13:20Z</time>
      </trkpt>
      <trkpt lat="47.36094" lon="0.22205">
        <ele>88</ele>
        <time>2020-08-27T08:13:22Z</time>
      </trkpt>
      <trkpt lat="47.36092" lon="0.22209">
        <ele>88</ele>
        <time>2020-08-27T08:13:24Z</time>
      </trkpt>
      <trkpt lat="47.36091" lon="0.22213">
        <ele>87</ele>
        <time>2020-08-27T08:13:26Z</time>
      </trkpt>
      <trkpt lat="47.3609" lon="0.22216">
        <ele>87</ele>
        <time>2020-08-27T08:13:28Z</time>
      </trkpt>
      <trkpt lat="47.36088" lon="0.2222">
        <ele>87</ele>
        <time>2020-08-27T08:13:30Z</time>
      </trkpt>
      <trkpt lat="47.36087" lon="0.22222">
        <ele>87</ele>
        <time>2020-08-27T08:13:32Z</time>
      </trkpt>
      <trkpt lat="47.36086" lon="0.22225">
        <ele>87</ele>
        <time>2020-08-27T08:13:34Z</time>
      </trkpt>
      <trkpt lat="47.36084" lon="0.22228">
        <ele>87</ele>
        <time>2020-08-27T08:13:36Z</time>
      </trkpt>
      <trkpt lat="47.36083" lon="0.22231">
        <ele>87</ele>
        <time>2020-08-27T08:13:38Z</time>
      </trkpt>
      <trkpt lat="47.36082" lon="0.22235">
        <ele>87</ele>
        <time>2020-08-27T08:13:40Z</time>
      </trkpt>
      <trkpt lat="47.3608" lon="0.22237">
        <ele>87</ele>
        <time>2020-08-27T08:13:42Z</time>
      </trkpt>
      <trkpt lat="47.36079" lon="0.22241">
        <ele>86</ele>
        <time>2020-08-27T08:13:44Z</time>
      </trkpt>
      <trkpt lat="47.36077" lon="0.22244">
        <ele>86</ele>
        <time>2020-08-27T08:13:46Z</time>
      </trkpt>
      <trkpt lat="47.36075" lon="0.22247">
        <ele>86</ele>
        <time>2020-08-27T08:13:48Z</time>
      </trkpt>
      <trkpt lat="47.36074" lon="0.22251">
        <ele>86</ele>
        <time>2020-08-27T08:13:50Z</time>
      </trkpt>
      <trkpt lat="47.36073" lon="0.22254">
        <ele>86</ele>
        <time>2020-08-27T08:13:52Z</time>
      </trkpt>
      <trkpt lat="47.36072" lon="0.22257">
        <ele>86</ele>
        <time>2020-08-27T08:13:54Z</time>
      </trkpt>
      <trkpt lat="47.36071" lon="0.22261">
        <ele>86</ele>
        <time>2020-08-27T08:13:56Z</time>
      </trkpt>
      <trkpt lat="47.3607" lon="0.22264">
        <ele>85</ele>
        <time>2020-08-27T08:13:58Z</time>
      </trkpt>
      <trkpt lat="47.36068" lon="0.22267">
        <ele>85</ele>
        <time>2020-08-27T08:14:00Z</time>
      </trkpt>
      <trkpt lat="47.36066" lon="0.2227">
        <ele>85</ele>
        <time>2020-08-27T08:14:02Z</time>
      </trkpt>
      <trkpt lat="47.36065" lon="0.22274">
        <ele>85</ele>
        <time>2020-08-27T08:14:04Z</time>
      </trkpt>
      <trkpt lat="47.36063" lon="0.22277">
        <ele>85</ele>
        <time>2020-08-27T08:14:06Z</time>
      </trkpt>
      <trkpt lat="47.36061" lon="0.2228">
        <ele>85</ele>
        <time>2020-08-27T08:14:08Z</time>
      </trkpt>
      <trkpt lat="47.36059" lon="0.22282">
        <ele>85</ele>
        <time>2020-08-27T08:14:10Z</time>
      </trkpt>
      <trkpt lat="47.36056" lon="0.22285">
        <ele>85</ele>
        <time>2020-08-27T08:14:12Z</time>
      </trkpt>
      <trkpt lat="47.36055" lon="0.22288">
        <ele>86</ele>
        <time>2020-08-27T08:14:14Z</time>
      </trkpt>
      <trkpt lat="47.36053" lon="0.2229">
        <ele>86</ele>
        <time>2020-08-27T08:14:16Z</time>
      </trkpt>
      <trkpt lat="47.36052" lon="0.22293">
        <ele>86</ele>
        <time>2020-08-27T08:14:19Z</time>
      </trkpt>
      <trkpt lat="47.3605" lon="0.22296">
        <ele>86</ele>
        <time>2020-08-27T08:14:21Z</time>
      </trkpt>
      <trkpt lat="47.36048" lon="0.223">
        <ele>86</ele>
        <time>2020-08-27T08:14:23Z</time>
      </trkpt>
      <trkpt lat="47.36048" lon="0.22303">
        <ele>86</ele>
        <time>2020-08-27T08:14:25Z</time>
      </trkpt>
      <trkpt lat="47.36047" lon="0.22305">
        <ele>86</ele>
        <time>2020-08-27T08:14:27Z</time>
      </trkpt>
      <trkpt lat="47.36046" lon="0.22309">
        <ele>86</ele>
        <time>2020-08-27T08:14:30Z</time>
      </trkpt>
      <trkpt lat="47.36044" lon="0.2231">
        <ele>87</ele>
        <time>2020-08-27T08:14:32Z</time>
      </trkpt>
      <trkpt lat="47.36041" lon="0.22311">
        <ele>87</ele>
        <time>2020-08-27T08:14:34Z</time>
      </trkpt>
      <trkpt lat="47.3604" lon="0.22312">
        <ele>87</ele>
        <time>2020-08-27T08:14:35Z</time>
      </trkpt>
      <trkpt lat="47.36038" lon="0.22312">
        <ele>87</ele>
        <time>2020-08-27T08:14:36Z</time>
      </trkpt>
      <trkpt lat="47.36034" lon="0.22312">
        <ele>87</ele>
        <time>2020-08-27T08:14:38Z</time>
      </trkpt>
      <trkpt lat="47.36033" lon="0.22312">
        <ele>87</ele>
        <time>2020-08-27T08:14:40Z</time>
      </trkpt>
      <trkpt lat="47.3603" lon="0.22311">
        <ele>88</ele>
        <time>2020-08-27T08:14:42Z</time>
      </trkpt>
      <trkpt lat="47.36028" lon="0.22311">
        <ele>88</ele>
        <time>2020-08-27T08:14:45Z</time>
      </trkpt>
      <trkpt lat="47.36025" lon="0.22311">
        <ele>88</ele>
        <time>2020-08-27T08:14:47Z</time>
      </trkpt>
      <trkpt lat="47.36023" lon="0.22312">
        <ele>88</ele>
        <time>2020-08-27T08:14:49Z</time>
      </trkpt>
      <trkpt lat="47.36021" lon="0.22312">
        <ele>88</ele>
        <time>2020-08-27T08:14:51Z</time>
      </trkpt>
      <trkpt lat="47.36018" lon="0.22311">
        <ele>88</ele>
        <time>2020-08-27T08:14:53Z</time>
      </trkpt>
      <trkpt lat="47.36016" lon="0.22309">
        <ele>88</ele>
        <time>2020-08-27T08:14:55Z</time>
      </trkpt>
      <trkpt lat="47.36013" lon="0.22308">
        <ele>88</ele>
        <time>2020-08-27T08:14:57Z</time>
      </trkpt>
      <trkpt lat="47.36011" lon="0.22307">
        <ele>88</ele>
        <time>2020-08-27T08:14:59Z</time>
      </trkpt>
      <trkpt lat="47.36008" lon="0.22306">
        <ele>88</ele>
        <time>2020-08-27T08:15:01Z</time>
      </trkpt>
      <trkpt lat="47.36004" lon="0.22305">
        <ele>87</ele>
        <time>2020-08-27T08:15:03Z</time>
      </trkpt>
      <trkpt lat="47.36002" lon="0.22304">
        <ele>87</ele>
        <time>2020-08-27T08:15:05Z</time>
      </trkpt>
      <trkpt lat="47.36" lon="0.22303">
        <ele>87</ele>
        <time>2020-08-27T08:15:07Z</time>
      </trkpt>
      <trkpt lat="47.35997" lon="0.22302">
        <ele>87</ele>
        <time>2020-08-27T08:15:09Z</time>
      </trkpt>
      <trkpt lat="47.35995" lon="0.223">
        <ele>87</ele>
        <time>2020-08-27T08:15:11Z</time>
      </trkpt>
      <trkpt lat="47.35993" lon="0.22299">
        <ele>87</ele>
        <time>2020-08-27T08:15:13Z</time>
      </trkpt>
      <trkpt lat="47.3599" lon="0.22298">
        <ele>87</ele>
        <time>2020-08-27T08:15:15Z</time>
      </trkpt>
      <trkpt lat="47.35988" lon="0.22297">
        <ele>87</ele>
        <time>2020-08-27T08:15:17Z</time>
      </trkpt>
      <trkpt lat="47.35986" lon="0.22296">
        <ele>87</ele>
        <time>2020-08-27T08:15:19Z</time>
      </trkpt>
      <trkpt lat="47.35984" lon="0.22295">
        <ele>87</ele>
        <time>2020-08-27T08:15:21Z</time>
      </trkpt>
      <trkpt lat="47.35982" lon="0.22295">
        <ele>87</ele>
        <time>2020-08-27T08:15:23Z</time>
      </trkpt>
      <trkpt lat="47.3598" lon="0.22295">
        <ele>87</ele>
        <time>2020-08-27T08:15:25Z</time>
      </trkpt>
      <trkpt lat="47.35978" lon="0.22294">
        <ele>87</ele>
        <time>2020-08-27T08:15:27Z</time>
      </trkpt>
      <trkpt lat="47.35976" lon="0.22294">
        <ele>87</ele>
        <time>2020-08-27T08:15:29Z</time>
      </trkpt>
      <trkpt lat="47.35973" lon="0.22294">
        <ele>87</ele>
        <time>2020-08-27T08:15:31Z</time>
      </trkpt>
      <trkpt lat="47.3597" lon="0.22295">
        <ele>86</ele>
        <time>2020-08-27T08:15:34Z</time>
      </trkpt>
      <trkpt lat="47.35968" lon="0.22297">
        <ele>86</ele>
        <time>2020-08-27T08:15:37Z</time>
      </trkpt>
      <trkpt lat="47.35965" lon="0.22297">
        <ele>86</ele>
        <time>2020-08-27T08:15:39Z</time>
      </trkpt>
      <trkpt lat="47.35963" lon="0.22299">
        <ele>86</ele>
        <time>2020-08-27T08:15:41Z</time>
      </trkpt>
      <trkpt lat="47.3596" lon="0.22299">
        <ele>86</ele>
        <time>2020-08-27T08:15:43Z</time>
      </trkpt>
      <trkpt lat="47.35957" lon="0.22299">
        <ele>86</ele>
        <time>2020-08-27T08:15:45Z</time>
      </trkpt>
      <trkpt lat="47.35955" lon="0.22299">
        <ele>86</ele>
        <time>2020-08-27T08:15:47Z</time>
      </trkpt>
      <trkpt lat="47.35952" lon="0.223">
        <ele>86</ele>
        <time>2020-08-27T08:15:49Z</time>
      </trkpt>
      <trkpt lat="47.3595" lon="0.22301">
        <ele>86</ele>
        <time>2020-08-27T08:15:51Z</time>
      </trkpt>
      <trkpt lat="47.35947" lon="0.22301">
        <ele>86</ele>
        <time>2020-08-27T08:15:53Z</time>
      </trkpt>
      <trkpt lat="47.35945" lon="0.22301">
        <ele>86</ele>
        <time>2020-08-27T08:15:55Z</time>
      </trkpt>
      <trkpt lat="47.35943" lon="0.22302">
        <ele>86</ele>
        <time>2020-08-27T08:15:57Z</time>
      </trkpt>
      <trkpt lat="47.3594" lon="0.22303">
        <ele>86</ele>
        <time>2020-08-27T08:15:59Z</time>
      </trkpt>
      <trkpt lat="47.35938" lon="0.22302">
        <ele>86</ele>
        <time>2020-08-27T08:16:01Z</time>
      </trkpt>
      <trkpt lat="47.35936" lon="0.22303">
        <ele>86</ele>
        <time>2020-08-27T08:16:03Z</time>
      </trkpt>
      <trkpt lat="47.35934" lon="0.22303">
        <ele>86</ele>
        <time>2020-08-27T08:16:05Z</time>
      </trkpt>
      <trkpt lat="47.35931" lon="0.22302">
        <ele>86</ele>
        <time>2020-08-27T08:16:08Z</time>
      </trkpt>
      <trkpt lat="47.35928" lon="0.22302">
        <ele>86</ele>
        <time>2020-08-27T08:16:10Z</time>
      </trkpt>
      <trkpt lat="47.35926" lon="0.22302">
        <ele>86</ele>
        <time>2020-08-27T08:16:12Z</time>
      </trkpt>
      <trkpt lat="47.35924" lon="0.22302">
        <ele>86</ele>
        <time>2020-08-27T08:16:14Z</time>
      </trkpt>
      <trkpt lat="47.35922" lon="0.22302">
        <ele>86</ele>
        <time>2020-08-27T08:16:16Z</time>
      </trkpt>
      <trkpt lat="47.3592" lon="0.22302">
        <ele>86</ele>
        <time>2020-08-27T08:16:18Z</time>
      </trkpt>
      <trkpt lat="47.35917" lon="0.22303">
        <ele>86</ele>
        <time>2020-08-27T08:16:20Z</time>
      </trkpt>
      <trkpt lat="47.35915" lon="0.22304">
        <ele>86</ele>
        <time>2020-08-27T08:16:22Z</time>
      </trkpt>
      <trkpt lat="47.35913" lon="0.22306">
        <ele>87</ele>
        <time>2020-08-27T08:16:24Z</time>
      </trkpt>
      <trkpt lat="47.35911" lon="0.22306">
        <ele>87</ele>
        <time>2020-08-27T08:16:26Z</time>
      </trkpt>
      <trkpt lat="47.35907" lon="0.22306">
        <ele>87</ele>
        <time>2020-08-27T08:16:28Z</time>
      </trkpt>
      <trkpt lat="47.35904" lon="0.22306">
        <ele>87</ele>
        <time>2020-08-27T08:16:30Z</time>
      </trkpt>
      <trkpt lat="47.35901" lon="0.22306">
        <ele>87</ele>
        <time>2020-08-27T08:16:32Z</time>
      </trkpt>
      <trkpt lat="47.35898" lon="0.22305">
        <ele>87</ele>
        <time>2020-08-27T08:16:34Z</time>
      </trkpt>
      <trkpt lat="47.35895" lon="0.22305">
        <ele>87</ele>
        <time>2020-08-27T08:16:36Z</time>
      </trkpt>
      <trkpt lat="47.35893" lon="0.22305">
        <ele>87</ele>
        <time>2020-08-27T08:16:38Z</time>
      </trkpt>
      <trkpt lat="47.3589" lon="0.22306">
        <ele>87</ele>
        <time>2020-08-27T08:16:40Z</time>
      </trkpt>
      <trkpt lat="47.35887" lon="0.22306">
        <ele>87</ele>
        <time>2020-08-27T08:16:42Z</time>
      </trkpt>
      <trkpt lat="47.35884" lon="0.22306">
        <ele>87</ele>
        <time>2020-08-27T08:16:44Z</time>
      </trkpt>
      <trkpt lat="47.35882" lon="0.22306">
        <ele>87</ele>
        <time>2020-08-27T08:16:46Z</time>
      </trkpt>
      <trkpt lat="47.3588" lon="0.22307">
        <ele>87</ele>
        <time>2020-08-27T08:16:48Z</time>
      </trkpt>
      <trkpt lat="47.35877" lon="0.22308">
        <ele>87</ele>
        <time>2020-08-27T08:16:50Z</time>
      </trkpt>
      <trkpt lat="47.35875" lon="0.22309">
        <ele>87</ele>
        <time>2020-08-27T08:16:52Z</time>
      </trkpt>
      <trkpt lat="47.35872" lon="0.22309">
        <ele>87</ele>
        <time>2020-08-27T08:16:54Z</time>
      </trkpt>
      <trkpt lat="47.35869" lon="0.2231">
        <ele>87</ele>
        <time>2020-08-27T08:16:56Z</time>
      </trkpt>
      <trkpt lat="47.35866" lon="0.22309">
        <ele>87</ele>
        <time>2020-08-27T08:16:58Z</time>
      </trkpt>
      <trkpt lat="47.35864" lon="0.22309">
        <ele>87</ele>
        <time>2020-08-27T08:17:00Z</time>
      </trkpt>
      <trkpt lat="47.35862" lon="0.22309">
        <ele>87</ele>
        <time>2020-08-27T08:17:02Z</time>
      </trkpt>
      <trkpt lat="47.35859" lon="0.22308">
        <ele>86</ele>
        <time>2020-08-27T08:17:04Z</time>
      </trkpt>
      <trkpt lat="47.35855" lon="0.22307">
        <ele>86</ele>
        <time>2020-08-27T08:17:06Z</time>
      </trkpt>
      <trkpt lat="47.35853" lon="0.22307">
        <ele>86</ele>
        <time>2020-08-27T08:17:08Z</time>
      </trkpt>
      <trkpt lat="47.35851" lon="0.22307">
        <ele>86</ele>
        <time>2020-08-27T08:17:10Z</time>
      </trkpt>
      <trkpt lat="47.35849" lon="0.22307">
        <ele>86</ele>
        <time>2020-08-27T08:17:12Z</time>
      </trkpt>
      <trkpt lat="47.35847" lon="0.22307">
        <ele>85</ele>
        <time>2020-08-27T08:17:14Z</time>
      </trkpt>
      <trkpt lat="47.35844" lon="0.22306">
        <ele>85</ele>
        <time>2020-08-27T08:17:16Z</time>
      </trkpt>
      <trkpt lat="47.35842" lon="0.22307">
        <ele>85</ele>
        <time>2020-08-27T08:17:18Z</time>
      </trkpt>
      <trkpt lat="47.3584" lon="0.22307">
        <ele>85</ele>
        <time>2020-08-27T08:17:20Z</time>
      </trkpt>
      <trkpt lat="47.35837" lon="0.22306">
        <ele>85</ele>
        <time>2020-08-27T08:17:22Z</time>
      </trkpt>
      <trkpt lat="47.35835" lon="0.22306">
        <ele>85</ele>
        <time>2020-08-27T08:17:24Z</time>
      </trkpt>
      <trkpt lat="47.35832" lon="0.22307">
        <ele>84</ele>
        <time>2020-08-27T08:17:26Z</time>
      </trkpt>
      <trkpt lat="47.35829" lon="0.22307">
        <ele>84</ele>
        <time>2020-08-27T08:17:28Z</time>
      </trkpt>
      <trkpt lat="47.35826" lon="0.22306">
        <ele>84</ele>
        <time>2020-08-27T08:17:30Z</time>
      </trkpt>
      <trkpt lat="47.35823" lon="0.22305">
        <ele>84</ele>
        <time>2020-08-27T08:17:32Z</time>
      </trkpt>
      <trkpt lat="47.3582" lon="0.22304">
        <ele>84</ele>
        <time>2020-08-27T08:17:34Z</time>
      </trkpt>
      <trkpt lat="47.35818" lon="0.22304">
        <ele>83</ele>
        <time>2020-08-27T08:17:36Z</time>
      </trkpt>
      <trkpt lat="47.35816" lon="0.22305">
        <ele>83</ele>
        <time>2020-08-27T08:17:38Z</time>
      </trkpt>
      <trkpt lat="47.35814" lon="0.22305">
        <ele>83</ele>
        <time>2020-08-27T08:17:41Z</time>
      </trkpt>
      <trkpt lat="47.35812" lon="0.22305">
        <ele>83</ele>
        <time>2020-08-27T08:17:43Z</time>
      </trkpt>
      <trkpt lat="47.3581" lon="0.22305">
        <ele>83</ele>
        <time>2020-08-27T08:17:45Z</time>
      </trkpt>
      <trkpt lat="47.35807" lon="0.22305">
        <ele>83</ele>
        <time>2020-08-27T08:17:47Z</time>
      </trkpt>
      <trkpt lat="47.35804" lon="0.22305">
        <ele>83</ele>
        <time>2020-08-27T08:17:49Z</time>
      </trkpt>
      <trkpt lat="47.35801" lon="0.22305">
        <ele>83</ele>
        <time>2020-08-27T08:17:51Z</time>
      </trkpt>
      <trkpt lat="47.35798" lon="0.22305">
        <ele>83</ele>
        <time>2020-08-27T08:17:53Z</time>
      </trkpt>
      <trkpt lat="47.35796" lon="0.22306">
        <ele>82</ele>
        <time>2020-08-27T08:17:55Z</time>
      </trkpt>
      <trkpt lat="47.35793" lon="0.22305">
        <ele>83</ele>
        <time>2020-08-27T08:17:57Z</time>
      </trkpt>
      <trkpt lat="47.35791" lon="0.22305">
        <ele>83</ele>
        <time>2020-08-27T08:17:59Z</time>
      </trkpt>
      <trkpt lat="47.35788" lon="0.22305">
        <ele>83</ele>
        <time>2020-08-27T08:18:02Z</time>
      </trkpt>
      <trkpt lat="47.35786" lon="0.22305">
        <ele>83</ele>
        <time>2020-08-27T08:18:04Z</time>
      </trkpt>
      <trkpt lat="47.35783" lon="0.22304">
        <ele>83</ele>
        <time>2020-08-27T08:18:06Z</time>
      </trkpt>
      <trkpt lat="47.35781" lon="0.22305">
        <ele>83</ele>
        <time>2020-08-27T08:18:09Z</time>
      </trkpt>
      <trkpt lat="47.35779" lon="0.22306">
        <ele>82</ele>
        <time>2020-08-27T08:18:11Z</time>
      </trkpt>
      <trkpt lat="47.35778" lon="0.22308">
        <ele>83</ele>
        <time>2020-08-27T08:18:13Z</time>
      </trkpt>
      <trkpt lat="47.35775" lon="0.2231">
        <ele>83</ele>
        <time>2020-08-27T08:18:16Z</time>
      </trkpt>
      <trkpt lat="47.35773" lon="0.22311">
        <ele>83</ele>
        <time>2020-08-27T08:18:18Z</time>
      </trkpt>
      <trkpt lat="47.3577" lon="0.22311">
        <ele>83</ele>
        <time>2020-08-27T08:18:20Z</time>
      </trkpt>
      <trkpt lat="47.35768" lon="0.22311">
        <ele>83</ele>
        <time>2020-08-27T08:18:22Z</time>
      </trkpt>
      <trkpt lat="47.35766" lon="0.22313">
        <ele>83</ele>
        <time>2020-08-27T08:18:24Z</time>
      </trkpt>
      <trkpt lat="47.35763" lon="0.22315">
        <ele>84</ele>
        <time>2020-08-27T08:18:26Z</time>
      </trkpt>
      <trkpt lat="47.35761" lon="0.22315">
        <ele>84</ele>
        <time>2020-08-27T08:18:27Z</time>
      </trkpt>
      <trkpt lat="47.35759" lon="0.22317">
        <ele>84</ele>
        <time>2020-08-27T08:18:29Z</time>
      </trkpt>
      <trkpt lat="47.35756" lon="0.22319">
        <ele>84</ele>
        <time>2020-08-27T08:18:31Z</time>
      </trkpt>
      <trkpt lat="47.35753" lon="0.2232">
        <ele>85</ele>
        <time>2020-08-27T08:18:33Z</time>
      </trkpt>
      <trkpt lat="47.35751" lon="0.22321">
        <ele>85</ele>
        <time>2020-08-27T08:18:35Z</time>
      </trkpt>
      <trkpt lat="47.35748" lon="0.22322">
        <ele>85</ele>
        <time>2020-08-27T08:18:37Z</time>
      </trkpt>
      <trkpt lat="47.35746" lon="0.22322">
        <ele>86</ele>
        <time>2020-08-27T08:18:38Z</time>
      </trkpt>
      <trkpt lat="47.35743" lon="0.22323">
        <ele>86</ele>
        <time>2020-08-27T08:18:40Z</time>
      </trkpt>
      <trkpt lat="47.3574" lon="0.22323">
        <ele>86</ele>
        <time>2020-08-27T08:18:42Z</time>
      </trkpt>
      <trkpt lat="47.35738" lon="0.22323">
        <ele>87</ele>
        <time>2020-08-27T08:18:44Z</time>
      </trkpt>
      <trkpt lat="47.35736" lon="0.22323">
        <ele>87</ele>
        <time>2020-08-27T08:18:45Z</time>
      </trkpt>
      <trkpt lat="47.35734" lon="0.22323">
        <ele>87</ele>
        <time>2020-08-27T08:18:46Z</time>
      </trkpt>
      <trkpt lat="47.35732" lon="0.22322">
        <ele>87</ele>
        <time>2020-08-27T08:18:48Z</time>
      </trkpt>
      <trkpt lat="47.35729" lon="0.22321">
        <ele>88</ele>
        <time>2020-08-27T08:18:50Z</time>
      </trkpt>
      <trkpt lat="47.35727" lon="0.2232">
        <ele>88</ele>
        <time>2020-08-27T08:18:52Z</time>
      </trkpt>
      <trkpt lat="47.35725" lon="0.22319">
        <ele>88</ele>
        <time>2020-08-27T08:18:54Z</time>
      </trkpt>
      <trkpt lat="47.35723" lon="0.22318">
        <ele>88</ele>
        <time>2020-08-27T08:18:56Z</time>
      </trkpt>
      <trkpt lat="47.35721" lon="0.22319">
        <ele>89</ele>
        <time>2020-08-27T08:18:58Z</time>
      </trkpt>
      <trkpt lat="47.35719" lon="0.22319">
        <ele>89</ele>
        <time>2020-08-27T08:19:00Z</time>
      </trkpt>
      <trkpt lat="47.35717" lon="0.2232">
        <ele>89</ele>
        <time>2020-08-27T08:19:02Z</time>
      </trkpt>
      <trkpt lat="47.35715" lon="0.2232">
        <ele>89</ele>
        <time>2020-08-27T08:19:04Z</time>
      </trkpt>
      <trkpt lat="47.35713" lon="0.2232">
        <ele>89</ele>
        <time>2020-08-27T08:19:06Z</time>
      </trkpt>
      <trkpt lat="47.3571" lon="0.22322">
        <ele>89</ele>
        <time>2020-08-27T08:19:08Z</time>
      </trkpt>
      <trkpt lat="47.35708" lon="0.22322">
        <ele>90</ele>
        <time>2020-08-27T08:19:10Z</time>
      </trkpt>
      <trkpt lat="47.35705" lon="0.22323">
        <ele>90</ele>
        <time>2020-08-27T08:19:14Z</time>
      </trkpt>
      <trkpt lat="47.35703" lon="0.22324">
        <ele>90</ele>
        <time>2020-08-27T08:19:16Z</time>
      </trkpt>
      <trkpt lat="47.357" lon="0.22324">
        <ele>90</ele>
        <time>2020-08-27T08:19:18Z</time>
      </trkpt>
      <trkpt lat="47.35698" lon="0.22324">
        <ele>90</ele>
        <time>2020-08-27T08:19:19Z</time>
      </trkpt>
      <trkpt lat="47.35695" lon="0.22323">
        <ele>90</ele>
        <time>2020-08-27T08:19:21Z</time>
      </trkpt>
      <trkpt lat="47.35692" lon="0.22323">
        <ele>90</ele>
        <time>2020-08-27T08:19:24Z</time>
      </trkpt>
      <trkpt lat="47.35691" lon="0.22323">
        <ele>90</ele>
        <time>2020-08-27T08:19:25Z</time>
      </trkpt>
      <trkpt lat="47.35688" lon="0.22324">
        <ele>90</ele>
        <time>2020-08-27T08:19:27Z</time>
      </trkpt>
      <trkpt lat="47.35686" lon="0.22324">
        <ele>90</ele>
        <time>2020-08-27T08:19:29Z</time>
      </trkpt>
      <trkpt lat="47.35684" lon="0.22325">
        <ele>90</ele>
        <time>2020-08-27T08:19:31Z</time>
      </trkpt>
      <trkpt lat="47.35682" lon="0.22326">
        <ele>90</ele>
        <time>2020-08-27T08:19:33Z</time>
      </trkpt>
      <trkpt lat="47.3568" lon="0.22327">
        <ele>90</ele>
        <time>2020-08-27T08:19:35Z</time>
      </trkpt>
      <trkpt lat="47.35677" lon="0.22327">
        <ele>90</ele>
        <time>2020-08-27T08:19:38Z</time>
      </trkpt>
      <trkpt lat="47.35675" lon="0.22327">
        <ele>90</ele>
        <time>2020-08-27T08:19:40Z</time>
      </trkpt>
      <trkpt lat="47.35673" lon="0.22325">
        <ele>90</ele>
        <time>2020-08-27T08:19:42Z</time>
      </trkpt>
      <trkpt lat="47.3567" lon="0.22326">
        <ele>90</ele>
        <time>2020-08-27T08:19:44Z</time>
      </trkpt>
      <trkpt lat="47.35669" lon="0.22328">
        <ele>90</ele>
        <time>2020-08-27T08:19:46Z</time>
      </trkpt>
      <trkpt lat="47.35666" lon="0.22328">
        <ele>90</ele>
        <time>2020-08-27T08:19:48Z</time>
      </trkpt>
      <trkpt lat="47.35664" lon="0.22328">
        <ele>90</ele>
        <time>2020-08-27T08:19:50Z</time>
      </trkpt>
      <trkpt lat="47.35662" lon="0.22328">
        <ele>90</ele>
        <time>2020-08-27T08:19:52Z</time>
      </trkpt>
      <trkpt lat="47.35659" lon="0.22329">
        <ele>89</ele>
        <time>2020-08-27T08:19:54Z</time>
      </trkpt>
      <trkpt lat="47.35655" lon="0.22329">
        <ele>89</ele>
        <time>2020-08-27T08:19:56Z</time>
      </trkpt>
      <trkpt lat="47.35652" lon="0.2233">
        <ele>89</ele>
        <time>2020-08-27T08:19:58Z</time>
      </trkpt>
      <trkpt lat="47.35649" lon="0.22331">
        <ele>89</ele>
        <time>2020-08-27T08:20:00Z</time>
      </trkpt>
      <trkpt lat="47.35647" lon="0.22331">
        <ele>89</ele>
        <time>2020-08-27T08:20:02Z</time>
      </trkpt>
      <trkpt lat="47.35645" lon="0.22332">
        <ele>89</ele>
        <time>2020-08-27T08:20:04Z</time>
      </trkpt>
      <trkpt lat="47.35643" lon="0.22331">
        <ele>89</ele>
        <time>2020-08-27T08:20:06Z</time>
      </trkpt>
      <trkpt lat="47.3564" lon="0.22331">
        <ele>89</ele>
        <time>2020-08-27T08:20:08Z</time>
      </trkpt>
      <trkpt lat="47.35638" lon="0.22331">
        <ele>89</ele>
        <time>2020-08-27T08:20:11Z</time>
      </trkpt>
      <trkpt lat="47.35635" lon="0.22332">
        <ele>89</ele>
        <time>2020-08-27T08:20:14Z</time>
      </trkpt>
      <trkpt lat="47.35633" lon="0.22334">
        <ele>88</ele>
        <time>2020-08-27T08:20:16Z</time>
      </trkpt>
      <trkpt lat="47.35631" lon="0.22334">
        <ele>88</ele>
        <time>2020-08-27T08:20:18Z</time>
      </trkpt>
      <trkpt lat="47.3563" lon="0.22333">
        <ele>89</ele>
        <time>2020-08-27T08:20:19Z</time>
      </trkpt>
      <trkpt lat="47.35628" lon="0.22333">
        <ele>89</ele>
        <time>2020-08-27T08:20:21Z</time>
      </trkpt>
      <trkpt lat="47.35626" lon="0.22334">
        <ele>88</ele>
        <time>2020-08-27T08:20:23Z</time>
      </trkpt>
      <trkpt lat="47.35623" lon="0.22334">
        <ele>88</ele>
        <time>2020-08-27T08:20:25Z</time>
      </trkpt>
      <trkpt lat="47.35621" lon="0.22334">
        <ele>88</ele>
        <time>2020-08-27T08:20:27Z</time>
      </trkpt>
      <trkpt lat="47.35619" lon="0.22333">
        <ele>89</ele>
        <time>2020-08-27T08:20:29Z</time>
      </trkpt>
      <trkpt lat="47.35617" lon="0.22332">
        <ele>89</ele>
        <time>2020-08-27T08:20:31Z</time>
      </trkpt>
      <trkpt lat="47.35615" lon="0.22332">
        <ele>89</ele>
        <time>2020-08-27T08:20:33Z</time>
      </trkpt>
      <trkpt lat="47.35613" lon="0.22331">
        <ele>89</ele>
        <time>2020-08-27T08:20:35Z</time>
      </trkpt>
      <trkpt lat="47.3561" lon="0.22331">
        <ele>89</ele>
        <time>2020-08-27T08:20:38Z</time>
      </trkpt>
      <trkpt lat="47.35606" lon="0.22329">
        <ele>89</ele>
        <time>2020-08-27T08:20:40Z</time>
      </trkpt>
      <trkpt lat="47.35604" lon="0.22328">
        <ele>89</ele>
        <time>2020-08-27T08:20:42Z</time>
      </trkpt>
      <trkpt lat="47.35602" lon="0.22326">
        <ele>89</ele>
        <time>2020-08-27T08:20:44Z</time>
      </trkpt>
      <trkpt lat="47.356" lon="0.22326">
        <ele>89</ele>
        <time>2020-08-27T08:20:46Z</time>
      </trkpt>
      <trkpt lat="47.35597" lon="0.22325">
        <ele>89</ele>
        <time>2020-08-27T08:20:48Z</time>
      </trkpt>
      <trkpt lat="47.35595" lon="0.22324">
        <ele>89</ele>
        <time>2020-08-27T08:20:50Z</time>
      </trkpt>
      <trkpt lat="47.35593" lon="0.22324">
        <ele>89</ele>
        <time>2020-08-27T08:20:53Z</time>
      </trkpt>
      <trkpt lat="47.35591" lon="0.22322">
        <ele>89</ele>
        <time>2020-08-27T08:20:55Z</time>
      </trkpt>
      <trkpt lat="47.35589" lon="0.22321">
        <ele>89</ele>
        <time>2020-08-27T08:20:57Z</time>
      </trkpt>
      <trkpt lat="47.35586" lon="0.2232">
        <ele>89</ele>
        <time>2020-08-27T08:20:59Z</time>
      </trkpt>
      <trkpt lat="47.35583" lon="0.22319">
        <ele>89</ele>
        <time>2020-08-27T08:21:01Z</time>
      </trkpt>
      <trkpt lat="47.3558" lon="0.22319">
        <ele>89</ele>
        <time>2020-08-27T08:21:03Z</time>
      </trkpt>
      <trkpt lat="47.35577" lon="0.22319">
        <ele>89</ele>
        <time>2020-08-27T08:21:05Z</time>
      </trkpt>
      <trkpt lat="47.35575" lon="0.22318">
        <ele>89</ele>
        <time>2020-08-27T08:21:07Z</time>
      </trkpt>
      <trkpt lat="47.35573" lon="0.22318">
        <ele>89</ele>
        <time>2020-08-27T08:21:09Z</time>
      </trkpt>
      <trkpt lat="47.35571" lon="0.22317">
        <ele>89</ele>
        <time>2020-08-27T08:21:11Z</time>
      </trkpt>
      <trkpt lat="47.35569" lon="0.22317">
        <ele>89</ele>
        <time>2020-08-27T08:21:13Z</time>
      </trkpt>
      <trkpt lat="47.35566" lon="0.22317">
        <ele>89</ele>
        <time>2020-08-27T08:21:15Z</time>
      </trkpt>
      <trkpt lat="47.35564" lon="0.22318">
        <ele>89</ele>
        <time>2020-08-27T08:21:17Z</time>
      </trkpt>
      <trkpt lat="47.35562" lon="0.22318">
        <ele>89</ele>
        <time>2020-08-27T08:21:19Z</time>
      </trkpt>
      <trkpt lat="47.3556" lon="0.22318">
        <ele>89</ele>
        <time>2020-08-27T08:21:20Z</time>
      </trkpt>
      <trkpt lat="47.35557" lon="0.22318">
        <ele>89</ele>
        <time>2020-08-27T08:21:22Z</time>
      </trkpt>
      <trkpt lat="47.35554" lon="0.22317">
        <ele>89</ele>
        <time>2020-08-27T08:21:24Z</time>
      </trkpt>
      <trkpt lat="47.35553" lon="0.22315">
        <ele>89</ele>
        <time>2020-08-27T08:21:26Z</time>
      </trkpt>
      <trkpt lat="47.3555" lon="0.22314">
        <ele>89</ele>
        <time>2020-08-27T08:21:28Z</time>
      </trkpt>
      <trkpt lat="47.35548" lon="0.22314">
        <ele>89</ele>
        <time>2020-08-27T08:21:30Z</time>
      </trkpt>
      <trkpt lat="47.35546" lon="0.22315">
        <ele>89</ele>
        <time>2020-08-27T08:21:32Z</time>
      </trkpt>
      <trkpt lat="47.35544" lon="0.22315">
        <ele>89</ele>
        <time>2020-08-27T08:21:34Z</time>
      </trkpt>
      <trkpt lat="47.35542" lon="0.22316">
        <ele>89</ele>
        <time>2020-08-27T08:21:37Z</time>
      </trkpt>
      <trkpt lat="47.35542" lon="0.22313">
        <ele>89</ele>
        <time>2020-08-27T08:21:48Z</time>
      </trkpt>
      <trkpt lat="47.35541" lon="0.2231">
        <ele>90</ele>
        <time>2020-08-27T08:21:56Z</time>
      </trkpt>
      <trkpt lat="47.35539" lon="0.22308">
        <ele>90</ele>
        <time>2020-08-27T08:22:01Z</time>
      </trkpt>
      <trkpt lat="47.35538" lon="0.22306">
        <ele>90</ele>
        <time>2020-08-27T08:22:03Z</time>
      </trkpt>
      <trkpt lat="47.35536" lon="0.22302">
        <ele>90</ele>
        <time>2020-08-27T08:22:05Z</time>
      </trkpt>
      <trkpt lat="47.35534" lon="0.22299">
        <ele>91</ele>
        <time>2020-08-27T08:22:07Z</time>
      </trkpt>
      <trkpt lat="47.35534" lon="0.22296">
        <ele>91</ele>
        <time>2020-08-27T08:22:09Z</time>
      </trkpt>
      <trkpt lat="47.35535" lon="0.22293">
        <ele>91</ele>
        <time>2020-08-27T08:22:11Z</time>
      </trkpt>
      <trkpt lat="47.35536" lon="0.2229">
        <ele>91</ele>
        <time>2020-08-27T08:22:14Z</time>
      </trkpt>
      <trkpt lat="47.35535" lon="0.22287">
        <ele>91</ele>
        <time>2020-08-27T08:22:18Z</time>
      </trkpt>
      <trkpt lat="47.35535" lon="0.22291">
        <ele>91</ele>
        <time>2020-08-27T08:22:50Z</time>
      </trkpt>
      <trkpt lat="47.35534" lon="0.22293">
        <ele>91</ele>
        <time>2020-08-27T08:22:54Z</time>
      </trkpt>
      <trkpt lat="47.35533" lon="0.22296">
        <ele>91</ele>
        <time>2020-08-27T08:22:57Z</time>
      </trkpt>
      <trkpt lat="47.35536" lon="0.22297">
        <ele>91</ele>
        <time>2020-08-27T08:23:06Z</time>
      </trkpt>
      <trkpt lat="47.35535" lon="0.223">
        <ele>90</ele>
        <time>2020-08-27T08:23:10Z</time>
      </trkpt>
      <trkpt lat="47.35535" lon="0.22303">
        <ele>90</ele>
        <time>2020-08-27T08:23:14Z</time>
      </trkpt>
      <trkpt lat="47.35537" lon="0.22301">
        <ele>90</ele>
        <time>2020-08-27T08:23:31Z</time>
      </trkpt>
      <trkpt lat="47.35537" lon="0.22298">
        <ele>90</ele>
        <time>2020-08-27T08:23:41Z</time>
      </trkpt>
      <trkpt lat="47.35537" lon="0.22295">
        <ele>91</ele>
        <time>2020-08-27T08:24:36Z</time>
      </trkpt>
      <trkpt lat="47.35539" lon="0.22294">
        <ele>91</ele>
        <time>2020-08-27T08:24:49Z</time>
      </trkpt>
      <trkpt lat="47.35535" lon="0.22294">
        <ele>91</ele>
        <time>2020-08-27T08:25:12Z</time>
      </trkpt>
      <trkpt lat="47.35536" lon="0.22296">
        <ele>91</ele>
        <time>2020-08-27T08:25:28Z</time>
      </trkpt>
      <trkpt lat="47.35537" lon="0.223">
        <ele>90</ele>
        <time>2020-08-27T08:26:13Z</time>
      </trkpt>
      <trkpt lat="47.35538" lon="0.22303">
        <ele>90</ele>
        <time>2020-08-27T08:26:15Z</time>
      </trkpt>
      <trkpt lat="47.35539" lon="0.22306">
        <ele>90</ele>
        <time>2020-08-27T08:26:17Z</time>
      </trkpt>
      <trkpt lat="47.3554" lon="0.22309">
        <ele>90</ele>
        <time>2020-08-27T08:26:19Z</time>
      </trkpt>
      <trkpt lat="47.35539" lon="0.22312">
        <ele>90</ele>
        <time>2020-08-27T08:26:23Z</time>
      </trkpt>
      <trkpt lat="47.35538" lon="0.22313">
        <ele>90</ele>
        <time>2020-08-27T08:26:33Z</time>
      </trkpt>
      <trkpt lat="47.35536" lon="0.22314">
        <ele>90</ele>
        <time>2020-08-27T08:26:54Z</time>
      </trkpt>
      <trkpt lat="47.35537" lon="0.22316">
        <ele>89</ele>
        <time>2020-08-27T08:27:03Z</time>
      </trkpt>
      <trkpt lat="47.35538" lon="0.22318">
        <ele>89</ele>
        <time>2020-08-27T08:27:05Z</time>
      </trkpt>
      <trkpt lat="47.35539" lon="0.22321">
        <ele>89</ele>
        <time>2020-08-27T08:27:07Z</time>
      </trkpt>
      <trkpt lat="47.3554" lon="0.22324">
        <ele>89</ele>
        <time>2020-08-27T08:27:09Z</time>
      </trkpt>
      <trkpt lat="47.35542" lon="0.22327">
        <ele>88</ele>
        <time>2020-08-27T08:27:12Z</time>
      </trkpt>
      <trkpt lat="47.35543" lon="0.2233">
        <ele>88</ele>
        <time>2020-08-27T08:27:15Z</time>
      </trkpt>
      <trkpt lat="47.35543" lon="0.22333">
        <ele>88</ele>
        <time>2020-08-27T08:27:18Z</time>
      </trkpt>
      <trkpt lat="47.35544" lon="0.22336">
        <ele>88</ele>
        <time>2020-08-27T08:27:22Z</time>
      </trkpt>
      <trkpt lat="47.35545" lon="0.22338">
        <ele>88</ele>
        <time>2020-08-27T08:27:25Z</time>
      </trkpt>
      <trkpt lat="47.35546" lon="0.2234">
        <ele>88</ele>
        <time>2020-08-27T08:27:27Z</time>
      </trkpt>
      <trkpt lat="47.35549" lon="0.22342">
        <ele>88</ele>
        <time>2020-08-27T08:27:30Z</time>
      </trkpt>
      <trkpt lat="47.35551" lon="0.22344">
        <ele>88</ele>
        <time>2020-08-27T08:27:32Z</time>
      </trkpt>
      <trkpt lat="47.35552" lon="0.22347">
        <ele>88</ele>
        <time>2020-08-27T08:27:34Z</time>
      </trkpt>
      <trkpt lat="47.35553" lon="0.2235">
        <ele>88</ele>
        <time>2020-08-27T08:27:36Z</time>
      </trkpt>
      <trkpt lat="47.35555" lon="0.22353">
        <ele>88</ele>
        <time>2020-08-27T08:27:38Z</time>
      </trkpt>
      <trkpt lat="47.35557" lon="0.22356">
        <ele>89</ele>
        <time>2020-08-27T08:27:41Z</time>
      </trkpt>
      <trkpt lat="47.35558" lon="0.22359">
        <ele>89</ele>
        <time>2020-08-27T08:27:44Z</time>
      </trkpt>
      <trkpt lat="47.35558" lon="0.22362">
        <ele>89</ele>
        <time>2020-08-27T08:27:46Z</time>
      </trkpt>
      <trkpt lat="47.3556" lon="0.22364">
        <ele>89</ele>
        <time>2020-08-27T08:27:48Z</time>
      </trkpt>
      <trkpt lat="47.35561" lon="0.22368">
        <ele>89</ele>
        <time>2020-08-27T08:27:51Z</time>
      </trkpt>
      <trkpt lat="47.35562" lon="0.22372">
        <ele>89</ele>
        <time>2020-08-27T08:27:53Z</time>
      </trkpt>
      <trkpt lat="47.35562" lon="0.22375">
        <ele>89</ele>
        <time>2020-08-27T08:27:55Z</time>
      </trkpt>
      <trkpt lat="47.35562" lon="0.22379">
        <ele>89</ele>
        <time>2020-08-27T08:27:58Z</time>
      </trkpt>
      <trkpt lat="47.35563" lon="0.22382">
        <ele>89</ele>
        <time>2020-08-27T08:28:00Z</time>
      </trkpt>
      <trkpt lat="47.35564" lon="0.22385">
        <ele>89</ele>
        <time>2020-08-27T08:28:02Z</time>
      </trkpt>
      <trkpt lat="47.35564" lon="0.22388">
        <ele>89</ele>
        <time>2020-08-27T08:28:04Z</time>
      </trkpt>
      <trkpt lat="47.35565" lon="0.2239">
        <ele>89</ele>
        <time>2020-08-27T08:28:06Z</time>
      </trkpt>
      <trkpt lat="47.35566" lon="0.22393">
        <ele>89</ele>
        <time>2020-08-27T08:28:08Z</time>
      </trkpt>
      <trkpt lat="47.35566" lon="0.22396">
        <ele>89</ele>
        <time>2020-08-27T08:28:10Z</time>
      </trkpt>
      <trkpt lat="47.35567" lon="0.22399">
        <ele>89</ele>
        <time>2020-08-27T08:28:12Z</time>
      </trkpt>
      <trkpt lat="47.35568" lon="0.22402">
        <ele>89</ele>
        <time>2020-08-27T08:28:14Z</time>
      </trkpt>
      <trkpt lat="47.35569" lon="0.22406">
        <ele>89</ele>
        <time>2020-08-27T08:28:16Z</time>
      </trkpt>
      <trkpt lat="47.3557" lon="0.22409">
        <ele>89</ele>
        <time>2020-08-27T08:28:18Z</time>
      </trkpt>
      <trkpt lat="47.35571" lon="0.22412">
        <ele>89</ele>
        <time>2020-08-27T08:28:20Z</time>
      </trkpt>
      <trkpt lat="47.35572" lon="0.22416">
        <ele>89</ele>
        <time>2020-08-27T08:28:22Z</time>
      </trkpt>
      <trkpt lat="47.35573" lon="0.22419">
        <ele>90</ele>
        <time>2020-08-27T08:28:25Z</time>
      </trkpt>
      <trkpt lat="47.35575" lon="0.22421">
        <ele>90</ele>
        <time>2020-08-27T08:28:27Z</time>
      </trkpt>
      <trkpt lat="47.35577" lon="0.22422">
        <ele>90</ele>
        <time>2020-08-27T08:28:29Z</time>
      </trkpt>
      <trkpt lat="47.35578" lon="0.22424">
        <ele>90</ele>
        <time>2020-08-27T08:28:32Z</time>
      </trkpt>
      <trkpt lat="47.35578" lon="0.22428">
        <ele>90</ele>
        <time>2020-08-27T08:28:38Z</time>
      </trkpt>
      <trkpt lat="47.35578" lon="0.22431">
        <ele>90</ele>
        <time>2020-08-27T08:28:40Z</time>
      </trkpt>
      <trkpt lat="47.35579" lon="0.22435">
        <ele>90</ele>
        <time>2020-08-27T08:28:43Z</time>
      </trkpt>
      <trkpt lat="47.3558" lon="0.22438">
        <ele>90</ele>
        <time>2020-08-27T08:28:45Z</time>
      </trkpt>
      <trkpt lat="47.35582" lon="0.22438">
        <ele>90</ele>
        <time>2020-08-27T08:28:49Z</time>
      </trkpt>
      <trkpt lat="47.35584" lon="0.22438">
        <ele>90</ele>
        <time>2020-08-27T08:28:52Z</time>
      </trkpt>
      <trkpt lat="47.35586" lon="0.22438">
        <ele>90</ele>
        <time>2020-08-27T08:28:56Z</time>
      </trkpt>
      <trkpt lat="47.35588" lon="0.22439">
        <ele>90</ele>
        <time>2020-08-27T08:28:58Z</time>
      </trkpt>
      <trkpt lat="47.3559" lon="0.2244">
        <ele>91</ele>
        <time>2020-08-27T08:29:00Z</time>
      </trkpt>
      <trkpt lat="47.35593" lon="0.22441">
        <ele>91</ele>
        <time>2020-08-27T08:29:02Z</time>
      </trkpt>
      <trkpt lat="47.35596" lon="0.22441">
        <ele>91</ele>
        <time>2020-08-27T08:29:04Z</time>
      </trkpt>
      <trkpt lat="47.35598" lon="0.22442">
        <ele>91</ele>
        <time>2020-08-27T08:29:06Z</time>
      </trkpt>
      <trkpt lat="47.356" lon="0.22441">
        <ele>91</ele>
        <time>2020-08-27T08:29:08Z</time>
      </trkpt>
      <trkpt lat="47.35602" lon="0.22441">
        <ele>91</ele>
        <time>2020-08-27T08:29:15Z</time>
      </trkpt>
      <trkpt lat="47.35604" lon="0.22441">
        <ele>91</ele>
        <time>2020-08-27T08:29:18Z</time>
      </trkpt>
      <trkpt lat="47.35607" lon="0.22441">
        <ele>91</ele>
        <time>2020-08-27T08:29:21Z</time>
      </trkpt>
      <trkpt lat="47.35609" lon="0.22441">
        <ele>91</ele>
        <time>2020-08-27T08:29:25Z</time>
      </trkpt>
      <trkpt lat="47.35611" lon="0.22441">
        <ele>91</ele>
        <time>2020-08-27T08:29:27Z</time>
      </trkpt>
      <trkpt lat="47.35612" lon="0.22443">
        <ele>92</ele>
        <time>2020-08-27T08:29:30Z</time>
      </trkpt>
      <trkpt lat="47.35615" lon="0.22444">
        <ele>92</ele>
        <time>2020-08-27T08:29:32Z</time>
      </trkpt>
      <trkpt lat="47.35618" lon="0.22445">
        <ele>92</ele>
        <time>2020-08-27T08:29:33Z</time>
      </trkpt>
      <trkpt lat="47.3562" lon="0.22448">
        <ele>92</ele>
        <time>2020-08-27T08:29:34Z</time>
      </trkpt>
      <trkpt lat="47.35622" lon="0.2245">
        <ele>93</ele>
        <time>2020-08-27T08:29:35Z</time>
      </trkpt>
      <trkpt lat="47.35624" lon="0.22451">
        <ele>93</ele>
        <time>2020-08-27T08:29:36Z</time>
      </trkpt>
      <trkpt lat="47.35625" lon="0.22452">
        <ele>93</ele>
        <time>2020-08-27T08:29:37Z</time>
      </trkpt>
      <trkpt lat="47.35627" lon="0.22453">
        <ele>93</ele>
        <time>2020-08-27T08:29:39Z</time>
      </trkpt>
      <trkpt lat="47.35629" lon="0.22455">
        <ele>93</ele>
        <time>2020-08-27T08:29:41Z</time>
      </trkpt>
      <trkpt lat="47.35631" lon="0.22457">
        <ele>94</ele>
        <time>2020-08-27T08:29:43Z</time>
      </trkpt>
      <trkpt lat="47.35633" lon="0.22458">
        <ele>94</ele>
        <time>2020-08-27T08:29:44Z</time>
      </trkpt>
      <trkpt lat="47.35635" lon="0.2246">
        <ele>94</ele>
        <time>2020-08-27T08:29:46Z</time>
      </trkpt>
      <trkpt lat="47.35636" lon="0.22463">
        <ele>94</ele>
        <time>2020-08-27T08:29:48Z</time>
      </trkpt>
      <trkpt lat="47.35639" lon="0.22465">
        <ele>94</ele>
        <time>2020-08-27T08:29:51Z</time>
      </trkpt>
      <trkpt lat="47.35641" lon="0.22467">
        <ele>94</ele>
        <time>2020-08-27T08:29:53Z</time>
      </trkpt>
      <trkpt lat="47.35643" lon="0.22471">
        <ele>94</ele>
        <time>2020-08-27T08:29:55Z</time>
      </trkpt>
      <trkpt lat="47.35645" lon="0.22473">
        <ele>95</ele>
        <time>2020-08-27T08:29:56Z</time>
      </trkpt>
      <trkpt lat="47.35647" lon="0.22475">
        <ele>95</ele>
        <time>2020-08-27T08:29:58Z</time>
      </trkpt>
      <trkpt lat="47.35649" lon="0.22477">
        <ele>95</ele>
        <time>2020-08-27T08:30:00Z</time>
      </trkpt>
      <trkpt lat="47.35652" lon="0.2248">
        <ele>95</ele>
        <time>2020-08-27T08:30:02Z</time>
      </trkpt>
      <trkpt lat="47.35655" lon="0.22482">
        <ele>95</ele>
        <time>2020-08-27T08:30:04Z</time>
      </trkpt>
      <trkpt lat="47.35657" lon="0.22484">
        <ele>95</ele>
        <time>2020-08-27T08:30:06Z</time>
      </trkpt>
      <trkpt lat="47.35659" lon="0.22486">
        <ele>95</ele>
        <time>2020-08-27T08:30:08Z</time>
      </trkpt>
      <trkpt lat="47.35661" lon="0.22489">
        <ele>95</ele>
        <time>2020-08-27T08:30:11Z</time>
      </trkpt>
      <trkpt lat="47.35663" lon="0.22491">
        <ele>95</ele>
        <time>2020-08-27T08:30:13Z</time>
      </trkpt>
      <trkpt lat="47.35665" lon="0.22494">
        <ele>95</ele>
        <time>2020-08-27T08:30:15Z</time>
      </trkpt>
      <trkpt lat="47.35667" lon="0.22496">
        <ele>94</ele>
        <time>2020-08-27T08:30:17Z</time>
      </trkpt>
      <trkpt lat="47.3567" lon="0.22499">
        <ele>94</ele>
        <time>2020-08-27T08:30:19Z</time>
      </trkpt>
      <trkpt lat="47.35672" lon="0.22501">
        <ele>94</ele>
        <time>2020-08-27T08:30:21Z</time>
      </trkpt>
      <trkpt lat="47.35674" lon="0.22503">
        <ele>94</ele>
        <time>2020-08-27T08:30:23Z</time>
      </trkpt>
      <trkpt lat="47.35674" lon="0.22506">
        <ele>94</ele>
        <time>2020-08-27T08:30:28Z</time>
      </trkpt>
      <trkpt lat="47.35676" lon="0.22509">
        <ele>94</ele>
        <time>2020-08-27T08:30:30Z</time>
      </trkpt>
      <trkpt lat="47.35678" lon="0.22513">
        <ele>94</ele>
        <time>2020-08-27T08:30:32Z</time>
      </trkpt>
      <trkpt lat="47.35679" lon="0.22516">
        <ele>94</ele>
        <time>2020-08-27T08:30:34Z</time>
      </trkpt>
      <trkpt lat="47.35681" lon="0.22517">
        <ele>94</ele>
        <time>2020-08-27T08:30:36Z</time>
      </trkpt>
      <trkpt lat="47.35684" lon="0.2252">
        <ele>94</ele>
        <time>2020-08-27T08:30:39Z</time>
      </trkpt>
      <trkpt lat="47.35687" lon="0.22522">
        <ele>94</ele>
        <time>2020-08-27T08:30:42Z</time>
      </trkpt>
      <trkpt lat="47.35688" lon="0.22525">
        <ele>94</ele>
        <time>2020-08-27T08:30:44Z</time>
      </trkpt>
      <trkpt lat="47.3569" lon="0.22526">
        <ele>94</ele>
        <time>2020-08-27T08:30:46Z</time>
      </trkpt>
      <trkpt lat="47.35692" lon="0.22528">
        <ele>94</ele>
        <time>2020-08-27T08:30:48Z</time>
      </trkpt>
      <trkpt lat="47.35694" lon="0.2253">
        <ele>94</ele>
        <time>2020-08-27T08:30:50Z</time>
      </trkpt>
      <trkpt lat="47.35696" lon="0.22533">
        <ele>94</ele>
        <time>2020-08-27T08:30:52Z</time>
      </trkpt>
      <trkpt lat="47.35698" lon="0.22534">
        <ele>94</ele>
        <time>2020-08-27T08:30:54Z</time>
      </trkpt>
      <trkpt lat="47.357" lon="0.22537">
        <ele>94</ele>
        <time>2020-08-27T08:30:56Z</time>
      </trkpt>
      <trkpt lat="47.357" lon="0.22539">
        <ele>94</ele>
        <time>2020-08-27T08:30:58Z</time>
      </trkpt>
      <trkpt lat="47.35702" lon="0.22541">
        <ele>94</ele>
        <time>2020-08-27T08:31:00Z</time>
      </trkpt>
      <trkpt lat="47.35703" lon="0.22543">
        <ele>94</ele>
        <time>2020-08-27T08:31:03Z</time>
      </trkpt>
      <trkpt lat="47.35706" lon="0.22545">
        <ele>94</ele>
        <time>2020-08-27T08:31:05Z</time>
      </trkpt>
      <trkpt lat="47.35707" lon="0.22547">
        <ele>94</ele>
        <time>2020-08-27T08:31:07Z</time>
      </trkpt>
      <trkpt lat="47.3571" lon="0.2255">
        <ele>94</ele>
        <time>2020-08-27T08:31:09Z</time>
      </trkpt>
      <trkpt lat="47.35711" lon="0.22551">
        <ele>94</ele>
        <time>2020-08-27T08:31:10Z</time>
      </trkpt>
      <trkpt lat="47.35713" lon="0.22554">
        <ele>94</ele>
        <time>2020-08-27T08:31:12Z</time>
      </trkpt>
      <trkpt lat="47.35715" lon="0.22556">
        <ele>94</ele>
        <time>2020-08-27T08:31:14Z</time>
      </trkpt>
      <trkpt lat="47.35717" lon="0.22558">
        <ele>94</ele>
        <time>2020-08-27T08:31:16Z</time>
      </trkpt>
      <trkpt lat="47.3572" lon="0.22562">
        <ele>94</ele>
        <time>2020-08-27T08:31:18Z</time>
      </trkpt>
      <trkpt lat="47.35722" lon="0.22563">
        <ele>94</ele>
        <time>2020-08-27T08:31:20Z</time>
      </trkpt>
      <trkpt lat="47.35724" lon="0.22565">
        <ele>94</ele>
        <time>2020-08-27T08:31:22Z</time>
      </trkpt>
      <trkpt lat="47.35725" lon="0.22567">
        <ele>94</ele>
        <time>2020-08-27T08:31:24Z</time>
      </trkpt>
      <trkpt lat="47.35728" lon="0.22569">
        <ele>95</ele>
        <time>2020-08-27T08:31:27Z</time>
      </trkpt>
      <trkpt lat="47.35731" lon="0.22571">
        <ele>95</ele>
        <time>2020-08-27T08:31:29Z</time>
      </trkpt>
      <trkpt lat="47.35734" lon="0.22576">
        <ele>95</ele>
        <time>2020-08-27T08:31:31Z</time>
      </trkpt>
      <trkpt lat="47.35735" lon="0.22578">
        <ele>95</ele>
        <time>2020-08-27T08:31:33Z</time>
      </trkpt>
      <trkpt lat="47.35735" lon="0.22582">
        <ele>95</ele>
        <time>2020-08-27T08:31:42Z</time>
      </trkpt>
      <trkpt lat="47.35736" lon="0.22585">
        <ele>96</ele>
        <time>2020-08-27T08:31:47Z</time>
      </trkpt>
      <trkpt lat="47.35738" lon="0.22585">
        <ele>96</ele>
        <time>2020-08-27T08:31:49Z</time>
      </trkpt>
      <trkpt lat="47.3574" lon="0.22586">
        <ele>96</ele>
        <time>2020-08-27T08:31:51Z</time>
      </trkpt>
      <trkpt lat="47.35743" lon="0.22587">
        <ele>96</ele>
        <time>2020-08-27T08:31:53Z</time>
      </trkpt>
      <trkpt lat="47.35745" lon="0.22588">
        <ele>96</ele>
        <time>2020-08-27T08:31:55Z</time>
      </trkpt>
      <trkpt lat="47.35748" lon="0.2259">
        <ele>96</ele>
        <time>2020-08-27T08:31:57Z</time>
      </trkpt>
      <trkpt lat="47.3575" lon="0.22591">
        <ele>96</ele>
        <time>2020-08-27T08:31:59Z</time>
      </trkpt>
      <trkpt lat="47.35752" lon="0.22592">
        <ele>96</ele>
        <time>2020-08-27T08:32:01Z</time>
      </trkpt>
      <trkpt lat="47.35755" lon="0.22594">
        <ele>96</ele>
        <time>2020-08-27T08:32:03Z</time>
      </trkpt>
      <trkpt lat="47.35757" lon="0.22595">
        <ele>96</ele>
        <time>2020-08-27T08:32:05Z</time>
      </trkpt>
      <trkpt lat="47.35759" lon="0.22597">
        <ele>96</ele>
        <time>2020-08-27T08:32:07Z</time>
      </trkpt>
      <trkpt lat="47.35762" lon="0.22598">
        <ele>96</ele>
        <time>2020-08-27T08:32:09Z</time>
      </trkpt>
      <trkpt lat="47.35764" lon="0.226">
        <ele>96</ele>
        <time>2020-08-27T08:32:11Z</time>
      </trkpt>
      <trkpt lat="47.35767" lon="0.22602">
        <ele>96</ele>
        <time>2020-08-27T08:32:13Z</time>
      </trkpt>
      <trkpt lat="47.35769" lon="0.22604">
        <ele>96</ele>
        <time>2020-08-27T08:32:15Z</time>
      </trkpt>
      <trkpt lat="47.35772" lon="0.22606">
        <ele>96</ele>
        <time>2020-08-27T08:32:17Z</time>
      </trkpt>
      <trkpt lat="47.35775" lon="0.22608">
        <ele>96</ele>
        <time>2020-08-27T08:32:19Z</time>
      </trkpt>
      <trkpt lat="47.35777" lon="0.2261">
        <ele>96</ele>
        <time>2020-08-27T08:32:21Z</time>
      </trkpt>
      <trkpt lat="47.35779" lon="0.22612">
        <ele>96</ele>
        <time>2020-08-27T08:32:23Z</time>
      </trkpt>
      <trkpt lat="47.35782" lon="0.22613">
        <ele>96</ele>
        <time>2020-08-27T08:32:25Z</time>
      </trkpt>
      <trkpt lat="47.35785" lon="0.22616">
        <ele>96</ele>
        <time>2020-08-27T08:32:27Z</time>
      </trkpt>
      <trkpt lat="47.35786" lon="0.22617">
        <ele>96</ele>
        <time>2020-08-27T08:32:28Z</time>
      </trkpt>
      <trkpt lat="47.35789" lon="0.22619">
        <ele>96</ele>
        <time>2020-08-27T08:32:30Z</time>
      </trkpt>
      <trkpt lat="47.35792" lon="0.22621">
        <ele>96</ele>
        <time>2020-08-27T08:32:32Z</time>
      </trkpt>
      <trkpt lat="47.35794" lon="0.22623">
        <ele>96</ele>
        <time>2020-08-27T08:32:33Z</time>
      </trkpt>
      <trkpt lat="47.35795" lon="0.22624">
        <ele>96</ele>
        <time>2020-08-27T08:32:34Z</time>
      </trkpt>
      <trkpt lat="47.35798" lon="0.22627">
        <ele>96</ele>
        <time>2020-08-27T08:32:36Z</time>
      </trkpt>
      <trkpt lat="47.358" lon="0.22628">
        <ele>96</ele>
        <time>2020-08-27T08:32:37Z</time>
      </trkpt>
      <trkpt lat="47.35802" lon="0.2263">
        <ele>96</ele>
        <time>2020-08-27T08:32:38Z</time>
      </trkpt>
      <trkpt lat="47.35804" lon="0.22631">
        <ele>96</ele>
        <time>2020-08-27T08:32:39Z</time>
      </trkpt>
      <trkpt lat="47.35806" lon="0.22632">
        <ele>96</ele>
        <time>2020-08-27T08:32:40Z</time>
      </trkpt>
      <trkpt lat="47.35808" lon="0.22634">
        <ele>96</ele>
        <time>2020-08-27T08:32:42Z</time>
      </trkpt>
      <trkpt lat="47.3581" lon="0.22635">
        <ele>97</ele>
        <time>2020-08-27T08:32:44Z</time>
      </trkpt>
      <trkpt lat="47.35812" lon="0.22637">
        <ele>97</ele>
        <time>2020-08-27T08:32:46Z</time>
      </trkpt>
      <trkpt lat="47.35814" lon="0.22638">
        <ele>97</ele>
        <time>2020-08-27T08:32:48Z</time>
      </trkpt>
      <trkpt lat="47.35816" lon="0.22641">
        <ele>97</ele>
        <time>2020-08-27T08:32:50Z</time>
      </trkpt>
      <trkpt lat="47.35818" lon="0.22642">
        <ele>97</ele>
        <time>2020-08-27T08:32:52Z</time>
      </trkpt>
      <trkpt lat="47.35819" lon="0.22644">
        <ele>98</ele>
        <time>2020-08-27T08:32:54Z</time>
      </trkpt>
      <trkpt lat="47.35821" lon="0.22645">
        <ele>98</ele>
        <time>2020-08-27T08:32:56Z</time>
      </trkpt>
      <trkpt lat="47.35823" lon="0.22647">
        <ele>98</ele>
        <time>2020-08-27T08:32:58Z</time>
      </trkpt>
      <trkpt lat="47.35826" lon="0.22649">
        <ele>98</ele>
        <time>2020-08-27T08:33:00Z</time>
      </trkpt>
      <trkpt lat="47.35828" lon="0.22652">
        <ele>98</ele>
        <time>2020-08-27T08:33:02Z</time>
      </trkpt>
      <trkpt lat="47.35831" lon="0.22654">
        <ele>98</ele>
        <time>2020-08-27T08:33:04Z</time>
      </trkpt>
      <trkpt lat="47.35834" lon="0.22656">
        <ele>98</ele>
        <time>2020-08-27T08:33:06Z</time>
      </trkpt>
      <trkpt lat="47.35835" lon="0.22657">
        <ele>98</ele>
        <time>2020-08-27T08:33:07Z</time>
      </trkpt>
      <trkpt lat="47.35838" lon="0.22659">
        <ele>98</ele>
        <time>2020-08-27T08:33:09Z</time>
      </trkpt>
      <trkpt lat="47.35841" lon="0.22661">
        <ele>98</ele>
        <time>2020-08-27T08:33:11Z</time>
      </trkpt>
      <trkpt lat="47.35843" lon="0.22663">
        <ele>98</ele>
        <time>2020-08-27T08:33:13Z</time>
      </trkpt>
      <trkpt lat="47.35845" lon="0.22665">
        <ele>98</ele>
        <time>2020-08-27T08:33:15Z</time>
      </trkpt>
      <trkpt lat="47.35848" lon="0.22668">
        <ele>98</ele>
        <time>2020-08-27T08:33:17Z</time>
      </trkpt>
      <trkpt lat="47.3585" lon="0.22669">
        <ele>98</ele>
        <time>2020-08-27T08:33:18Z</time>
      </trkpt>
      <trkpt lat="47.35852" lon="0.22672">
        <ele>98</ele>
        <time>2020-08-27T08:33:20Z</time>
      </trkpt>
      <trkpt lat="47.35855" lon="0.22673">
        <ele>97</ele>
        <time>2020-08-27T08:33:22Z</time>
      </trkpt>
      <trkpt lat="47.35857" lon="0.22674">
        <ele>97</ele>
        <time>2020-08-27T08:33:24Z</time>
      </trkpt>
      <trkpt lat="47.35859" lon="0.22676">
        <ele>97</ele>
        <time>2020-08-27T08:33:26Z</time>
      </trkpt>
      <trkpt lat="47.35861" lon="0.22679">
        <ele>97</ele>
        <time>2020-08-27T08:33:29Z</time>
      </trkpt>
      <trkpt lat="47.35863" lon="0.2268">
        <ele>96</ele>
        <time>2020-08-27T08:33:31Z</time>
      </trkpt>
      <trkpt lat="47.35865" lon="0.22681">
        <ele>96</ele>
        <time>2020-08-27T08:33:33Z</time>
      </trkpt>
      <trkpt lat="47.35868" lon="0.22682">
        <ele>96</ele>
        <time>2020-08-27T08:33:35Z</time>
      </trkpt>
      <trkpt lat="47.35871" lon="0.22683">
        <ele>96</ele>
        <time>2020-08-27T08:33:38Z</time>
      </trkpt>
      <trkpt lat="47.35873" lon="0.22684">
        <ele>96</ele>
        <time>2020-08-27T08:33:41Z</time>
      </trkpt>
      <trkpt lat="47.35875" lon="0.22683">
        <ele>96</ele>
        <time>2020-08-27T08:33:44Z</time>
      </trkpt>
      <trkpt lat="47.35877" lon="0.22684">
        <ele>96</ele>
        <time>2020-08-27T08:33:46Z</time>
      </trkpt>
      <trkpt lat="47.3588" lon="0.22686">
        <ele>96</ele>
        <time>2020-08-27T08:33:48Z</time>
      </trkpt>
      <trkpt lat="47.35882" lon="0.22687">
        <ele>96</ele>
        <time>2020-08-27T08:33:50Z</time>
      </trkpt>
      <trkpt lat="47.35884" lon="0.2269">
        <ele>96</ele>
        <time>2020-08-27T08:33:52Z</time>
      </trkpt>
      <trkpt lat="47.35885" lon="0.22692">
        <ele>96</ele>
        <time>2020-08-27T08:33:54Z</time>
      </trkpt>
      <trkpt lat="47.35887" lon="0.22694">
        <ele>96</ele>
        <time>2020-08-27T08:33:56Z</time>
      </trkpt>
      <trkpt lat="47.35889" lon="0.22697">
        <ele>96</ele>
        <time>2020-08-27T08:33:58Z</time>
      </trkpt>
      <trkpt lat="47.35892" lon="0.22699">
        <ele>96</ele>
        <time>2020-08-27T08:34:00Z</time>
      </trkpt>
      <trkpt lat="47.35895" lon="0.227">
        <ele>96</ele>
        <time>2020-08-27T08:34:02Z</time>
      </trkpt>
      <trkpt lat="47.35898" lon="0.22701">
        <ele>96</ele>
        <time>2020-08-27T08:34:04Z</time>
      </trkpt>
      <trkpt lat="47.35902" lon="0.22703">
        <ele>96</ele>
        <time>2020-08-27T08:34:06Z</time>
      </trkpt>
      <trkpt lat="47.35905" lon="0.22705">
        <ele>97</ele>
        <time>2020-08-27T08:34:08Z</time>
      </trkpt>
      <trkpt lat="47.35907" lon="0.22706">
        <ele>97</ele>
        <time>2020-08-27T08:34:10Z</time>
      </trkpt>
      <trkpt lat="47.35909" lon="0.22708">
        <ele>97</ele>
        <time>2020-08-27T08:34:12Z</time>
      </trkpt>
      <trkpt lat="47.35911" lon="0.22711">
        <ele>97</ele>
        <time>2020-08-27T08:34:14Z</time>
      </trkpt>
      <trkpt lat="47.35913" lon="0.22714">
        <ele>97</ele>
        <time>2020-08-27T08:34:16Z</time>
      </trkpt>
      <trkpt lat="47.35917" lon="0.22716">
        <ele>97</ele>
        <time>2020-08-27T08:34:18Z</time>
      </trkpt>
      <trkpt lat="47.35919" lon="0.22717">
        <ele>97</ele>
        <time>2020-08-27T08:34:19Z</time>
      </trkpt>
      <trkpt lat="47.35922" lon="0.22721">
        <ele>98</ele>
        <time>2020-08-27T08:34:21Z</time>
      </trkpt>
      <trkpt lat="47.35923" lon="0.22723">
        <ele>98</ele>
        <time>2020-08-27T08:34:23Z</time>
      </trkpt>
      <trkpt lat="47.35925" lon="0.22724">
        <ele>98</ele>
        <time>2020-08-27T08:34:25Z</time>
      </trkpt>
      <trkpt lat="47.35927" lon="0.22726">
        <ele>98</ele>
        <time>2020-08-27T08:34:27Z</time>
      </trkpt>
      <trkpt lat="47.3593" lon="0.22729">
        <ele>98</ele>
        <time>2020-08-27T08:34:29Z</time>
      </trkpt>
      <trkpt lat="47.35933" lon="0.22731">
        <ele>98</ele>
        <time>2020-08-27T08:34:31Z</time>
      </trkpt>
      <trkpt lat="47.35935" lon="0.22733">
        <ele>98</ele>
        <time>2020-08-27T08:34:32Z</time>
      </trkpt>
      <trkpt lat="47.35938" lon="0.22736">
        <ele>98</ele>
        <time>2020-08-27T08:34:34Z</time>
      </trkpt>
      <trkpt lat="47.3594" lon="0.22739">
        <ele>98</ele>
        <time>2020-08-27T08:34:36Z</time>
      </trkpt>
      <trkpt lat="47.35942" lon="0.2274">
        <ele>98</ele>
        <time>2020-08-27T08:34:37Z</time>
      </trkpt>
      <trkpt lat="47.35944" lon="0.22742">
        <ele>98</ele>
        <time>2020-08-27T08:34:39Z</time>
      </trkpt>
      <trkpt lat="47.35946" lon="0.22744">
        <ele>99</ele>
        <time>2020-08-27T08:34:41Z</time>
      </trkpt>
      <trkpt lat="47.35948" lon="0.22745">
        <ele>99</ele>
        <time>2020-08-27T08:34:43Z</time>
      </trkpt>
      <trkpt lat="47.35951" lon="0.22747">
        <ele>99</ele>
        <time>2020-08-27T08:34:45Z</time>
      </trkpt>
      <trkpt lat="47.35952" lon="0.22749">
        <ele>99</ele>
        <time>2020-08-27T08:34:47Z</time>
      </trkpt>
      <trkpt lat="47.35954" lon="0.22751">
        <ele>98</ele>
        <time>2020-08-27T08:34:49Z</time>
      </trkpt>
      <trkpt lat="47.35956" lon="0.22753">
        <ele>98</ele>
        <time>2020-08-27T08:34:52Z</time>
      </trkpt>
      <trkpt lat="47.35957" lon="0.22756">
        <ele>98</ele>
        <time>2020-08-27T08:34:54Z</time>
      </trkpt>
      <trkpt lat="47.35958" lon="0.22758">
        <ele>98</ele>
        <time>2020-08-27T08:34:57Z</time>
      </trkpt>
      <trkpt lat="47.3596" lon="0.2276">
        <ele>98</ele>
        <time>2020-08-27T08:34:59Z</time>
      </trkpt>
      <trkpt lat="47.35962" lon="0.22762">
        <ele>98</ele>
        <time>2020-08-27T08:35:01Z</time>
      </trkpt>
      <trkpt lat="47.35964" lon="0.22765">
        <ele>98</ele>
        <time>2020-08-27T08:35:03Z</time>
      </trkpt>
      <trkpt lat="47.35966" lon="0.22766">
        <ele>98</ele>
        <time>2020-08-27T08:35:04Z</time>
      </trkpt>
      <trkpt lat="47.35969" lon="0.22768">
        <ele>98</ele>
        <time>2020-08-27T08:35:06Z</time>
      </trkpt>
      <trkpt lat="47.3597" lon="0.2277">
        <ele>98</ele>
        <time>2020-08-27T08:35:08Z</time>
      </trkpt>
      <trkpt lat="47.35972" lon="0.22772">
        <ele>98</ele>
        <time>2020-08-27T08:35:10Z</time>
      </trkpt>
      <trkpt lat="47.35975" lon="0.22775">
        <ele>98</ele>
        <time>2020-08-27T08:35:12Z</time>
      </trkpt>
      <trkpt lat="47.35977" lon="0.22777">
        <ele>98</ele>
        <time>2020-08-27T08:35:14Z</time>
      </trkpt>
      <trkpt lat="47.3598" lon="0.22781">
        <ele>98</ele>
        <time>2020-08-27T08:35:16Z</time>
      </trkpt>
      <trkpt lat="47.35982" lon="0.22783">
        <ele>98</ele>
        <time>2020-08-27T08:35:18Z</time>
      </trkpt>
      <trkpt lat="47.35984" lon="0.22784">
        <ele>98</ele>
        <time>2020-08-27T08:35:20Z</time>
      </trkpt>
      <trkpt lat="47.35987" lon="0.22787">
        <ele>97</ele>
        <time>2020-08-27T08:35:22Z</time>
      </trkpt>
      <trkpt lat="47.35989" lon="0.22789">
        <ele>97</ele>
        <time>2020-08-27T08:35:24Z</time>
      </trkpt>
      <trkpt lat="47.35991" lon="0.22791">
        <ele>97</ele>
        <time>2020-08-27T08:35:25Z</time>
      </trkpt>
      <trkpt lat="47.35993" lon="0.22793">
        <ele>97</ele>
        <time>2020-08-27T08:35:27Z</time>
      </trkpt>
      <trkpt lat="47.35995" lon="0.22795">
        <ele>97</ele>
        <time>2020-08-27T08:35:29Z</time>
      </trkpt>
      <trkpt lat="47.35996" lon="0.22797">
        <ele>97</ele>
        <time>2020-08-27T08:35:31Z</time>
      </trkpt>
      <trkpt lat="47.35998" lon="0.22798">
        <ele>97</ele>
        <time>2020-08-27T08:35:33Z</time>
      </trkpt>
      <trkpt lat="47.36" lon="0.228">
        <ele>97</ele>
        <time>2020-08-27T08:35:35Z</time>
      </trkpt>
      <trkpt lat="47.36002" lon="0.22803">
        <ele>96</ele>
        <time>2020-08-27T08:35:38Z</time>
      </trkpt>
      <trkpt lat="47.36004" lon="0.22805">
        <ele>96</ele>
        <time>2020-08-27T08:35:41Z</time>
      </trkpt>
      <trkpt lat="47.36005" lon="0.22807">
        <ele>96</ele>
        <time>2020-08-27T08:35:43Z</time>
      </trkpt>
      <trkpt lat="47.36007" lon="0.2281">
        <ele>96</ele>
        <time>2020-08-27T08:35:45Z</time>
      </trkpt>
      <trkpt lat="47.36009" lon="0.22811">
        <ele>96</ele>
        <time>2020-08-27T08:35:47Z</time>
      </trkpt>
      <trkpt lat="47.36011" lon="0.22813">
        <ele>96</ele>
        <time>2020-08-27T08:35:49Z</time>
      </trkpt>
      <trkpt lat="47.36013" lon="0.22815">
        <ele>95</ele>
        <time>2020-08-27T08:35:51Z</time>
      </trkpt>
      <trkpt lat="47.36014" lon="0.22818">
        <ele>95</ele>
        <time>2020-08-27T08:35:53Z</time>
      </trkpt>
      <trkpt lat="47.36016" lon="0.22821">
        <ele>95</ele>
        <time>2020-08-27T08:35:55Z</time>
      </trkpt>
      <trkpt lat="47.36019" lon="0.22824">
        <ele>95</ele>
        <time>2020-08-27T08:35:57Z</time>
      </trkpt>
      <trkpt lat="47.36022" lon="0.22826">
        <ele>95</ele>
        <time>2020-08-27T08:35:59Z</time>
      </trkpt>
      <trkpt lat="47.36025" lon="0.22828">
        <ele>95</ele>
        <time>2020-08-27T08:36:01Z</time>
      </trkpt>
      <trkpt lat="47.36027" lon="0.22832">
        <ele>95</ele>
        <time>2020-08-27T08:36:03Z</time>
      </trkpt>
      <trkpt lat="47.36029" lon="0.22835">
        <ele>94</ele>
        <time>2020-08-27T08:36:05Z</time>
      </trkpt>
      <trkpt lat="47.36032" lon="0.22837">
        <ele>94</ele>
        <time>2020-08-27T08:36:07Z</time>
      </trkpt>
      <trkpt lat="47.36033" lon="0.22839">
        <ele>94</ele>
        <time>2020-08-27T08:36:08Z</time>
      </trkpt>
      <trkpt lat="47.36035" lon="0.22843">
        <ele>94</ele>
        <time>2020-08-27T08:36:10Z</time>
      </trkpt>
      <trkpt lat="47.36037" lon="0.22847">
        <ele>94</ele>
        <time>2020-08-27T08:36:12Z</time>
      </trkpt>
      <trkpt lat="47.36038" lon="0.22848">
        <ele>94</ele>
        <time>2020-08-27T08:36:13Z</time>
      </trkpt>
      <trkpt lat="47.3604" lon="0.22851">
        <ele>94</ele>
        <time>2020-08-27T08:36:15Z</time>
      </trkpt>
      <trkpt lat="47.36042" lon="0.22853">
        <ele>94</ele>
        <time>2020-08-27T08:36:17Z</time>
      </trkpt>
      <trkpt lat="47.36043" lon="0.22857">
        <ele>93</ele>
        <time>2020-08-27T08:36:20Z</time>
      </trkpt>
      <trkpt lat="47.36045" lon="0.22859">
        <ele>93</ele>
        <time>2020-08-27T08:36:22Z</time>
      </trkpt>
      <trkpt lat="47.36047" lon="0.22861">
        <ele>93</ele>
        <time>2020-08-27T08:36:24Z</time>
      </trkpt>
      <trkpt lat="47.3605" lon="0.22864">
        <ele>93</ele>
        <time>2020-08-27T08:36:26Z</time>
      </trkpt>
      <trkpt lat="47.36052" lon="0.22867">
        <ele>93</ele>
        <time>2020-08-27T08:36:28Z</time>
      </trkpt>
      <trkpt lat="47.36055" lon="0.22869">
        <ele>93</ele>
        <time>2020-08-27T08:36:30Z</time>
      </trkpt>
      <trkpt lat="47.36056" lon="0.22871">
        <ele>93</ele>
        <time>2020-08-27T08:36:32Z</time>
      </trkpt>
      <trkpt lat="47.36059" lon="0.22874">
        <ele>93</ele>
        <time>2020-08-27T08:36:34Z</time>
      </trkpt>
      <trkpt lat="47.36059" lon="0.22877">
        <ele>93</ele>
        <time>2020-08-27T08:36:36Z</time>
      </trkpt>
      <trkpt lat="47.36061" lon="0.22881">
        <ele>93</ele>
        <time>2020-08-27T08:36:38Z</time>
      </trkpt>
      <trkpt lat="47.36064" lon="0.22884">
        <ele>93</ele>
        <time>2020-08-27T08:36:40Z</time>
      </trkpt>
      <trkpt lat="47.36066" lon="0.22887">
        <ele>93</ele>
        <time>2020-08-27T08:36:42Z</time>
      </trkpt>
      <trkpt lat="47.36068" lon="0.22891">
        <ele>94</ele>
        <time>2020-08-27T08:36:44Z</time>
      </trkpt>
      <trkpt lat="47.36068" lon="0.22894">
        <ele>94</ele>
        <time>2020-08-27T08:36:45Z</time>
      </trkpt>
      <trkpt lat="47.36071" lon="0.22897">
        <ele>94</ele>
        <time>2020-08-27T08:36:47Z</time>
      </trkpt>
      <trkpt lat="47.36072" lon="0.22901">
        <ele>94</ele>
        <time>2020-08-27T08:36:49Z</time>
      </trkpt>
      <trkpt lat="47.36074" lon="0.22904">
        <ele>94</ele>
        <time>2020-08-27T08:36:51Z</time>
      </trkpt>
      <trkpt lat="47.36075" lon="0.22907">
        <ele>94</ele>
        <time>2020-08-27T08:36:53Z</time>
      </trkpt>
      <trkpt lat="47.36077" lon="0.22911">
        <ele>94</ele>
        <time>2020-08-27T08:36:55Z</time>
      </trkpt>
      <trkpt lat="47.36078" lon="0.22915">
        <ele>94</ele>
        <time>2020-08-27T08:36:57Z</time>
      </trkpt>
      <trkpt lat="47.36079" lon="0.22918">
        <ele>94</ele>
        <time>2020-08-27T08:36:59Z</time>
      </trkpt>
      <trkpt lat="47.3608" lon="0.22922">
        <ele>94</ele>
        <time>2020-08-27T08:37:01Z</time>
      </trkpt>
      <trkpt lat="47.3608" lon="0.22925">
        <ele>94</ele>
        <time>2020-08-27T08:37:02Z</time>
      </trkpt>
      <trkpt lat="47.36081" lon="0.22929">
        <ele>94</ele>
        <time>2020-08-27T08:37:04Z</time>
      </trkpt>
      <trkpt lat="47.36083" lon="0.22933">
        <ele>94</ele>
        <time>2020-08-27T08:37:06Z</time>
      </trkpt>
      <trkpt lat="47.36085" lon="0.22935">
        <ele>93</ele>
        <time>2020-08-27T08:37:07Z</time>
      </trkpt>
      <trkpt lat="47.36085" lon="0.22937">
        <ele>93</ele>
        <time>2020-08-27T08:37:09Z</time>
      </trkpt>
      <trkpt lat="47.36087" lon="0.2294">
        <ele>93</ele>
        <time>2020-08-27T08:37:11Z</time>
      </trkpt>
      <trkpt lat="47.36088" lon="0.22943">
        <ele>93</ele>
        <time>2020-08-27T08:37:13Z</time>
      </trkpt>
      <trkpt lat="47.3609" lon="0.22945">
        <ele>93</ele>
        <time>2020-08-27T08:37:15Z</time>
      </trkpt>
      <trkpt lat="47.36091" lon="0.22949">
        <ele>93</ele>
        <time>2020-08-27T08:37:17Z</time>
      </trkpt>
      <trkpt lat="47.36092" lon="0.22952">
        <ele>93</ele>
        <time>2020-08-27T08:37:19Z</time>
      </trkpt>
      <trkpt lat="47.36093" lon="0.22955">
        <ele>93</ele>
        <time>2020-08-27T08:37:21Z</time>
      </trkpt>
      <trkpt lat="47.36094" lon="0.22959">
        <ele>93</ele>
        <time>2020-08-27T08:37:23Z</time>
      </trkpt>
      <trkpt lat="47.36095" lon="0.22962">
        <ele>93</ele>
        <time>2020-08-27T08:37:25Z</time>
      </trkpt>
      <trkpt lat="47.36095" lon="0.22966">
        <ele>93</ele>
        <time>2020-08-27T08:37:27Z</time>
      </trkpt>
      <trkpt lat="47.36096" lon="0.22969">
        <ele>93</ele>
        <time>2020-08-27T08:37:29Z</time>
      </trkpt>
      <trkpt lat="47.36097" lon="0.22972">
        <ele>93</ele>
        <time>2020-08-27T08:37:31Z</time>
      </trkpt>
      <trkpt lat="47.36097" lon="0.22975">
        <ele>93</ele>
        <time>2020-08-27T08:37:33Z</time>
      </trkpt>
      <trkpt lat="47.361" lon="0.22978">
        <ele>93</ele>
        <time>2020-08-27T08:37:35Z</time>
      </trkpt>
      <trkpt lat="47.36101" lon="0.22981">
        <ele>93</ele>
        <time>2020-08-27T08:37:37Z</time>
      </trkpt>
      <trkpt lat="47.36102" lon="0.22984">
        <ele>93</ele>
        <time>2020-08-27T08:37:38Z</time>
      </trkpt>
      <trkpt lat="47.36103" lon="0.22987">
        <ele>93</ele>
        <time>2020-08-27T08:37:40Z</time>
      </trkpt>
      <trkpt lat="47.36104" lon="0.22991">
        <ele>93</ele>
        <time>2020-08-27T08:37:42Z</time>
      </trkpt>
      <trkpt lat="47.36105" lon="0.22995">
        <ele>93</ele>
        <time>2020-08-27T08:37:44Z</time>
      </trkpt>
      <trkpt lat="47.36106" lon="0.22999">
        <ele>93</ele>
        <time>2020-08-27T08:37:46Z</time>
      </trkpt>
      <trkpt lat="47.36107" lon="0.23001">
        <ele>93</ele>
        <time>2020-08-27T08:37:47Z</time>
      </trkpt>
      <trkpt lat="47.36108" lon="0.23005">
        <ele>93</ele>
        <time>2020-08-27T08:37:49Z</time>
      </trkpt>
      <trkpt lat="47.36108" lon="0.23009">
        <ele>93</ele>
        <time>2020-08-27T08:37:51Z</time>
      </trkpt>
      <trkpt lat="47.36108" lon="0.23013">
        <ele>93</ele>
        <time>2020-08-27T08:37:53Z</time>
      </trkpt>
      <trkpt lat="47.36107" lon="0.23016">
        <ele>93</ele>
        <time>2020-08-27T08:37:55Z</time>
      </trkpt>
      <trkpt lat="47.36108" lon="0.2302">
        <ele>93</ele>
        <time>2020-08-27T08:37:57Z</time>
      </trkpt>
      <trkpt lat="47.3611" lon="0.23024">
        <ele>93</ele>
        <time>2020-08-27T08:37:59Z</time>
      </trkpt>
      <trkpt lat="47.36112" lon="0.23027">
        <ele>94</ele>
        <time>2020-08-27T08:38:01Z</time>
      </trkpt>
      <trkpt lat="47.36114" lon="0.2303">
        <ele>94</ele>
        <time>2020-08-27T08:38:03Z</time>
      </trkpt>
      <trkpt lat="47.36114" lon="0.23033">
        <ele>93</ele>
        <time>2020-08-27T08:38:05Z</time>
      </trkpt>
      <trkpt lat="47.36115" lon="0.23036">
        <ele>93</ele>
        <time>2020-08-27T08:38:06Z</time>
      </trkpt>
      <trkpt lat="47.36116" lon="0.2304">
        <ele>93</ele>
        <time>2020-08-27T08:38:08Z</time>
      </trkpt>
      <trkpt lat="47.36116" lon="0.23043">
        <ele>93</ele>
        <time>2020-08-27T08:38:10Z</time>
      </trkpt>
      <trkpt lat="47.36117" lon="0.23047">
        <ele>93</ele>
        <time>2020-08-27T08:38:12Z</time>
      </trkpt>
      <trkpt lat="47.36118" lon="0.2305">
        <ele>93</ele>
        <time>2020-08-27T08:38:14Z</time>
      </trkpt>
      <trkpt lat="47.36119" lon="0.23054">
        <ele>93</ele>
        <time>2020-08-27T08:38:17Z</time>
      </trkpt>
      <trkpt lat="47.36119" lon="0.23057">
        <ele>93</ele>
        <time>2020-08-27T08:38:19Z</time>
      </trkpt>
      <trkpt lat="47.3612" lon="0.2306">
        <ele>93</ele>
        <time>2020-08-27T08:38:21Z</time>
      </trkpt>
      <trkpt lat="47.36121" lon="0.23064">
        <ele>93</ele>
        <time>2020-08-27T08:38:23Z</time>
      </trkpt>
      <trkpt lat="47.36122" lon="0.23067">
        <ele>93</ele>
        <time>2020-08-27T08:38:25Z</time>
      </trkpt>
      <trkpt lat="47.36123" lon="0.23071">
        <ele>93</ele>
        <time>2020-08-27T08:38:27Z</time>
      </trkpt>
      <trkpt lat="47.36124" lon="0.23075">
        <ele>93</ele>
        <time>2020-08-27T08:38:29Z</time>
      </trkpt>
      <trkpt lat="47.36126" lon="0.23079">
        <ele>93</ele>
        <time>2020-08-27T08:38:31Z</time>
      </trkpt>
      <trkpt lat="47.36127" lon="0.23083">
        <ele>93</ele>
        <time>2020-08-27T08:38:33Z</time>
      </trkpt>
      <trkpt lat="47.36129" lon="0.23085">
        <ele>93</ele>
        <time>2020-08-27T08:38:35Z</time>
      </trkpt>
      <trkpt lat="47.36129" lon="0.23088">
        <ele>93</ele>
        <time>2020-08-27T08:38:37Z</time>
      </trkpt>
      <trkpt lat="47.3613" lon="0.23091">
        <ele>93</ele>
        <time>2020-08-27T08:38:39Z</time>
      </trkpt>
      <trkpt lat="47.36131" lon="0.23095">
        <ele>93</ele>
        <time>2020-08-27T08:38:41Z</time>
      </trkpt>
      <trkpt lat="47.36132" lon="0.23097">
        <ele>93</ele>
        <time>2020-08-27T08:38:43Z</time>
      </trkpt>
      <trkpt lat="47.36133" lon="0.23101">
        <ele>93</ele>
        <time>2020-08-27T08:38:45Z</time>
      </trkpt>
      <trkpt lat="47.36134" lon="0.23105">
        <ele>93</ele>
        <time>2020-08-27T08:38:47Z</time>
      </trkpt>
      <trkpt lat="47.36135" lon="0.23109">
        <ele>92</ele>
        <time>2020-08-27T08:38:49Z</time>
      </trkpt>
      <trkpt lat="47.36136" lon="0.23112">
        <ele>92</ele>
        <time>2020-08-27T08:38:51Z</time>
      </trkpt>
      <trkpt lat="47.36136" lon="0.23115">
        <ele>92</ele>
        <time>2020-08-27T08:38:53Z</time>
      </trkpt>
      <trkpt lat="47.36137" lon="0.23118">
        <ele>92</ele>
        <time>2020-08-27T08:38:55Z</time>
      </trkpt>
      <trkpt lat="47.36137" lon="0.23121">
        <ele>92</ele>
        <time>2020-08-27T08:38:57Z</time>
      </trkpt>
      <trkpt lat="47.36139" lon="0.23125">
        <ele>93</ele>
        <time>2020-08-27T08:38:59Z</time>
      </trkpt>
      <trkpt lat="47.3614" lon="0.23128">
        <ele>93</ele>
        <time>2020-08-27T08:39:01Z</time>
      </trkpt>
      <trkpt lat="47.36142" lon="0.23133">
        <ele>93</ele>
        <time>2020-08-27T08:39:03Z</time>
      </trkpt>
      <trkpt lat="47.36143" lon="0.23138">
        <ele>93</ele>
        <time>2020-08-27T08:39:05Z</time>
      </trkpt>
      <trkpt lat="47.36143" lon="0.23142">
        <ele>93</ele>
        <time>2020-08-27T08:39:07Z</time>
      </trkpt>
      <trkpt lat="47.36144" lon="0.23146">
        <ele>93</ele>
        <time>2020-08-27T08:39:09Z</time>
      </trkpt>
      <trkpt lat="47.36145" lon="0.2315">
        <ele>93</ele>
        <time>2020-08-27T08:39:11Z</time>
      </trkpt>
      <trkpt lat="47.36145" lon="0.23153">
        <ele>92</ele>
        <time>2020-08-27T08:39:13Z</time>
      </trkpt>
      <trkpt lat="47.36145" lon="0.23157">
        <ele>92</ele>
        <time>2020-08-27T08:39:15Z</time>
      </trkpt>
      <trkpt lat="47.36146" lon="0.2316">
        <ele>92</ele>
        <time>2020-08-27T08:39:17Z</time>
      </trkpt>
      <trkpt lat="47.36147" lon="0.23163">
        <ele>92</ele>
        <time>2020-08-27T08:39:19Z</time>
      </trkpt>
      <trkpt lat="47.36148" lon="0.23167">
        <ele>92</ele>
        <time>2020-08-27T08:39:21Z</time>
      </trkpt>
      <trkpt lat="47.36149" lon="0.23171">
        <ele>92</ele>
        <time>2020-08-27T08:39:23Z</time>
      </trkpt>
      <trkpt lat="47.3615" lon="0.23174">
        <ele>92</ele>
        <time>2020-08-27T08:39:25Z</time>
      </trkpt>
      <trkpt lat="47.36151" lon="0.23177">
        <ele>92</ele>
        <time>2020-08-27T08:39:27Z</time>
      </trkpt>
      <trkpt lat="47.36152" lon="0.23181">
        <ele>92</ele>
        <time>2020-08-27T08:39:29Z</time>
      </trkpt>
      <trkpt lat="47.36153" lon="0.23185">
        <ele>92</ele>
        <time>2020-08-27T08:39:31Z</time>
      </trkpt>
      <trkpt lat="47.36153" lon="0.23187">
        <ele>91</ele>
        <time>2020-08-27T08:39:32Z</time>
      </trkpt>
      <trkpt lat="47.36154" lon="0.23192">
        <ele>91</ele>
        <time>2020-08-27T08:39:34Z</time>
      </trkpt>
      <trkpt lat="47.36155" lon="0.23196">
        <ele>91</ele>
        <time>2020-08-27T08:39:36Z</time>
      </trkpt>
      <trkpt lat="47.36156" lon="0.23201">
        <ele>91</ele>
        <time>2020-08-27T08:39:38Z</time>
      </trkpt>
      <trkpt lat="47.36157" lon="0.23205">
        <ele>91</ele>
        <time>2020-08-27T08:39:40Z</time>
      </trkpt>
      <trkpt lat="47.36159" lon="0.23209">
        <ele>91</ele>
        <time>2020-08-27T08:39:42Z</time>
      </trkpt>
      <trkpt lat="47.3616" lon="0.23211">
        <ele>91</ele>
        <time>2020-08-27T08:39:43Z</time>
      </trkpt>
      <trkpt lat="47.36162" lon="0.23215">
        <ele>90</ele>
        <time>2020-08-27T08:39:45Z</time>
      </trkpt>
      <trkpt lat="47.36163" lon="0.23217">
        <ele>90</ele>
        <time>2020-08-27T08:39:47Z</time>
      </trkpt>
      <trkpt lat="47.36164" lon="0.2322">
        <ele>90</ele>
        <time>2020-08-27T08:39:49Z</time>
      </trkpt>
      <trkpt lat="47.36165" lon="0.23223">
        <ele>90</ele>
        <time>2020-08-27T08:39:51Z</time>
      </trkpt>
      <trkpt lat="47.36165" lon="0.23226">
        <ele>90</ele>
        <time>2020-08-27T08:39:53Z</time>
      </trkpt>
      <trkpt lat="47.36166" lon="0.2323">
        <ele>90</ele>
        <time>2020-08-27T08:39:55Z</time>
      </trkpt>
      <trkpt lat="47.36166" lon="0.23234">
        <ele>90</ele>
        <time>2020-08-27T08:39:57Z</time>
      </trkpt>
      <trkpt lat="47.36168" lon="0.23238">
        <ele>89</ele>
        <time>2020-08-27T08:39:59Z</time>
      </trkpt>
      <trkpt lat="47.36168" lon="0.23241">
        <ele>89</ele>
        <time>2020-08-27T08:40:01Z</time>
      </trkpt>
      <trkpt lat="47.36168" lon="0.23244">
        <ele>89</ele>
        <time>2020-08-27T08:40:03Z</time>
      </trkpt>
      <trkpt lat="47.36169" lon="0.23248">
        <ele>89</ele>
        <time>2020-08-27T08:40:05Z</time>
      </trkpt>
      <trkpt lat="47.36169" lon="0.2325">
        <ele>89</ele>
        <time>2020-08-27T08:40:07Z</time>
      </trkpt>
      <trkpt lat="47.36169" lon="0.23253">
        <ele>88</ele>
        <time>2020-08-27T08:40:09Z</time>
      </trkpt>
      <trkpt lat="47.3617" lon="0.23256">
        <ele>88</ele>
        <time>2020-08-27T08:40:11Z</time>
      </trkpt>
      <trkpt lat="47.36172" lon="0.2326">
        <ele>88</ele>
        <time>2020-08-27T08:40:13Z</time>
      </trkpt>
      <trkpt lat="47.36172" lon="0.23263">
        <ele>88</ele>
        <time>2020-08-27T08:40:15Z</time>
      </trkpt>
      <trkpt lat="47.36172" lon="0.23267">
        <ele>88</ele>
        <time>2020-08-27T08:40:17Z</time>
      </trkpt>
      <trkpt lat="47.36172" lon="0.23271">
        <ele>88</ele>
        <time>2020-08-27T08:40:19Z</time>
      </trkpt>
      <trkpt lat="47.36174" lon="0.23275">
        <ele>88</ele>
        <time>2020-08-27T08:40:21Z</time>
      </trkpt>
      <trkpt lat="47.36175" lon="0.23278">
        <ele>88</ele>
        <time>2020-08-27T08:40:23Z</time>
      </trkpt>
      <trkpt lat="47.36176" lon="0.23282">
        <ele>88</ele>
        <time>2020-08-27T08:40:25Z</time>
      </trkpt>
      <trkpt lat="47.36177" lon="0.23285">
        <ele>87</ele>
        <time>2020-08-27T08:40:27Z</time>
      </trkpt>
      <trkpt lat="47.36178" lon="0.23289">
        <ele>87</ele>
        <time>2020-08-27T08:40:29Z</time>
      </trkpt>
      <trkpt lat="47.36179" lon="0.23292">
        <ele>87</ele>
        <time>2020-08-27T08:40:31Z</time>
      </trkpt>
      <trkpt lat="47.36179" lon="0.23295">
        <ele>87</ele>
        <time>2020-08-27T08:40:33Z</time>
      </trkpt>
      <trkpt lat="47.3618" lon="0.23299">
        <ele>86</ele>
        <time>2020-08-27T08:40:35Z</time>
      </trkpt>
      <trkpt lat="47.36182" lon="0.23303">
        <ele>86</ele>
        <time>2020-08-27T08:40:37Z</time>
      </trkpt>
      <trkpt lat="47.36184" lon="0.23306">
        <ele>86</ele>
        <time>2020-08-27T08:40:39Z</time>
      </trkpt>
      <trkpt lat="47.36184" lon="0.2331">
        <ele>86</ele>
        <time>2020-08-27T08:40:41Z</time>
      </trkpt>
      <trkpt lat="47.36184" lon="0.23314">
        <ele>86</ele>
        <time>2020-08-27T08:40:43Z</time>
      </trkpt>
      <trkpt lat="47.36185" lon="0.23318">
        <ele>86</ele>
        <time>2020-08-27T08:40:45Z</time>
      </trkpt>
      <trkpt lat="47.36186" lon="0.23323">
        <ele>86</ele>
        <time>2020-08-27T08:40:47Z</time>
      </trkpt>
      <trkpt lat="47.36187" lon="0.23327">
        <ele>86</ele>
        <time>2020-08-27T08:40:49Z</time>
      </trkpt>
      <trkpt lat="47.36188" lon="0.23331">
        <ele>86</ele>
        <time>2020-08-27T08:40:51Z</time>
      </trkpt>
      <trkpt lat="47.3619" lon="0.23335">
        <ele>86</ele>
        <time>2020-08-27T08:40:53Z</time>
      </trkpt>
      <trkpt lat="47.36192" lon="0.23338">
        <ele>86</ele>
        <time>2020-08-27T08:40:55Z</time>
      </trkpt>
      <trkpt lat="47.36193" lon="0.23341">
        <ele>86</ele>
        <time>2020-08-27T08:40:57Z</time>
      </trkpt>
      <trkpt lat="47.36193" lon="0.23345">
        <ele>86</ele>
        <time>2020-08-27T08:41:00Z</time>
      </trkpt>
      <trkpt lat="47.36194" lon="0.23349">
        <ele>86</ele>
        <time>2020-08-27T08:41:02Z</time>
      </trkpt>
      <trkpt lat="47.36196" lon="0.23352">
        <ele>86</ele>
        <time>2020-08-27T08:41:04Z</time>
      </trkpt>
      <trkpt lat="47.36197" lon="0.23354">
        <ele>86</ele>
        <time>2020-08-27T08:41:06Z</time>
      </trkpt>
      <trkpt lat="47.36198" lon="0.23358">
        <ele>86</ele>
        <time>2020-08-27T08:41:08Z</time>
      </trkpt>
      <trkpt lat="47.36199" lon="0.23361">
        <ele>86</ele>
        <time>2020-08-27T08:41:10Z</time>
      </trkpt>
      <trkpt lat="47.362" lon="0.23364">
        <ele>86</ele>
        <time>2020-08-27T08:41:12Z</time>
      </trkpt>
      <trkpt lat="47.36202" lon="0.23366">
        <ele>86</ele>
        <time>2020-08-27T08:41:13Z</time>
      </trkpt>
      <trkpt lat="47.36203" lon="0.2337">
        <ele>86</ele>
        <time>2020-08-27T08:41:15Z</time>
      </trkpt>
      <trkpt lat="47.36206" lon="0.23373">
        <ele>86</ele>
        <time>2020-08-27T08:41:17Z</time>
      </trkpt>
      <trkpt lat="47.36208" lon="0.23376">
        <ele>86</ele>
        <time>2020-08-27T08:41:19Z</time>
      </trkpt>
      <trkpt lat="47.36209" lon="0.23378">
        <ele>87</ele>
        <time>2020-08-27T08:41:21Z</time>
      </trkpt>
      <trkpt lat="47.3621" lon="0.23381">
        <ele>87</ele>
        <time>2020-08-27T08:41:23Z</time>
      </trkpt>
      <trkpt lat="47.36212" lon="0.23384">
        <ele>87</ele>
        <time>2020-08-27T08:41:25Z</time>
      </trkpt>
      <trkpt lat="47.36214" lon="0.23387">
        <ele>87</ele>
        <time>2020-08-27T08:41:27Z</time>
      </trkpt>
      <trkpt lat="47.36215" lon="0.2339">
        <ele>87</ele>
        <time>2020-08-27T08:41:29Z</time>
      </trkpt>
      <trkpt lat="47.36216" lon="0.23392">
        <ele>87</ele>
        <time>2020-08-27T08:41:31Z</time>
      </trkpt>
      <trkpt lat="47.36218" lon="0.23396">
        <ele>88</ele>
        <time>2020-08-27T08:41:34Z</time>
      </trkpt>
      <trkpt lat="47.36219" lon="0.23398">
        <ele>88</ele>
        <time>2020-08-27T08:41:36Z</time>
      </trkpt>
      <trkpt lat="47.36221" lon="0.23399">
        <ele>88</ele>
        <time>2020-08-27T08:41:38Z</time>
      </trkpt>
      <trkpt lat="47.36224" lon="0.23402">
        <ele>88</ele>
        <time>2020-08-27T08:41:40Z</time>
      </trkpt>
      <trkpt lat="47.36226" lon="0.23405">
        <ele>88</ele>
        <time>2020-08-27T08:41:42Z</time>
      </trkpt>
      <trkpt lat="47.36228" lon="0.23409">
        <ele>89</ele>
        <time>2020-08-27T08:41:44Z</time>
      </trkpt>
      <trkpt lat="47.36229" lon="0.23411">
        <ele>89</ele>
        <time>2020-08-27T08:41:45Z</time>
      </trkpt>
      <trkpt lat="47.3623" lon="0.23415">
        <ele>89</ele>
        <time>2020-08-27T08:41:47Z</time>
      </trkpt>
      <trkpt lat="47.36232" lon="0.23418">
        <ele>89</ele>
        <time>2020-08-27T08:41:49Z</time>
      </trkpt>
      <trkpt lat="47.36233" lon="0.2342">
        <ele>89</ele>
        <time>2020-08-27T08:41:51Z</time>
      </trkpt>
      <trkpt lat="47.36235" lon="0.23424">
        <ele>90</ele>
        <time>2020-08-27T08:41:54Z</time>
      </trkpt>
      <trkpt lat="47.36236" lon="0.23426">
        <ele>90</ele>
        <time>2020-08-27T08:41:56Z</time>
      </trkpt>
      <trkpt lat="47.36238" lon="0.23428">
        <ele>90</ele>
        <time>2020-08-27T08:41:58Z</time>
      </trkpt>
      <trkpt lat="47.36238" lon="0.23431">
        <ele>90</ele>
        <time>2020-08-27T08:42:00Z</time>
      </trkpt>
      <trkpt lat="47.36238" lon="0.23434">
        <ele>91</ele>
        <time>2020-08-27T08:42:02Z</time>
      </trkpt>
      <trkpt lat="47.36239" lon="0.23437">
        <ele>91</ele>
        <time>2020-08-27T08:42:04Z</time>
      </trkpt>
      <trkpt lat="47.36241" lon="0.2344">
        <ele>91</ele>
        <time>2020-08-27T08:42:06Z</time>
      </trkpt>
      <trkpt lat="47.36243" lon="0.23443">
        <ele>91</ele>
        <time>2020-08-27T08:42:08Z</time>
      </trkpt>
      <trkpt lat="47.36244" lon="0.23445">
        <ele>91</ele>
        <time>2020-08-27T08:42:10Z</time>
      </trkpt>
      <trkpt lat="47.36245" lon="0.23447">
        <ele>92</ele>
        <time>2020-08-27T08:42:12Z</time>
      </trkpt>
      <trkpt lat="47.36247" lon="0.2345">
        <ele>92</ele>
        <time>2020-08-27T08:42:14Z</time>
      </trkpt>
      <trkpt lat="47.36249" lon="0.23453">
        <ele>92</ele>
        <time>2020-08-27T08:42:16Z</time>
      </trkpt>
      <trkpt lat="47.36251" lon="0.23456">
        <ele>93</ele>
        <time>2020-08-27T08:42:18Z</time>
      </trkpt>
      <trkpt lat="47.36253" lon="0.23459">
        <ele>93</ele>
        <time>2020-08-27T08:42:20Z</time>
      </trkpt>
      <trkpt lat="47.36254" lon="0.23461">
        <ele>93</ele>
        <time>2020-08-27T08:42:23Z</time>
      </trkpt>
      <trkpt lat="47.36254" lon="0.23464">
        <ele>94</ele>
        <time>2020-08-27T08:42:27Z</time>
      </trkpt>
      <trkpt lat="47.36255" lon="0.23467">
        <ele>94</ele>
        <time>2020-08-27T08:42:29Z</time>
      </trkpt>
      <trkpt lat="47.36257" lon="0.23469">
        <ele>94</ele>
        <time>2020-08-27T08:42:36Z</time>
      </trkpt>
      <trkpt lat="47.36259" lon="0.2347">
        <ele>94</ele>
        <time>2020-08-27T08:42:38Z</time>
      </trkpt>
      <trkpt lat="47.36261" lon="0.23472">
        <ele>94</ele>
        <time>2020-08-27T08:42:41Z</time>
      </trkpt>
      <trkpt lat="47.36263" lon="0.23474">
        <ele>95</ele>
        <time>2020-08-27T08:42:44Z</time>
      </trkpt>
      <trkpt lat="47.36265" lon="0.23476">
        <ele>95</ele>
        <time>2020-08-27T08:42:46Z</time>
      </trkpt>
      <trkpt lat="47.36268" lon="0.23477">
        <ele>95</ele>
        <time>2020-08-27T08:42:48Z</time>
      </trkpt>
      <trkpt lat="47.36272" lon="0.23479">
        <ele>95</ele>
        <time>2020-08-27T08:42:50Z</time>
      </trkpt>
      <trkpt lat="47.36275" lon="0.2348">
        <ele>95</ele>
        <time>2020-08-27T08:42:52Z</time>
      </trkpt>
      <trkpt lat="47.36277" lon="0.23483">
        <ele>96</ele>
        <time>2020-08-27T08:42:54Z</time>
      </trkpt>
      <trkpt lat="47.3628" lon="0.23486">
        <ele>96</ele>
        <time>2020-08-27T08:42:56Z</time>
      </trkpt>
      <trkpt lat="47.36282" lon="0.23487">
        <ele>96</ele>
        <time>2020-08-27T08:42:58Z</time>
      </trkpt>
      <trkpt lat="47.36285" lon="0.23488">
        <ele>96</ele>
        <time>2020-08-27T08:43:00Z</time>
      </trkpt>
      <trkpt lat="47.36288" lon="0.23489">
        <ele>96</ele>
        <time>2020-08-27T08:43:02Z</time>
      </trkpt>
      <trkpt lat="47.3629" lon="0.2349">
        <ele>96</ele>
        <time>2020-08-27T08:43:04Z</time>
      </trkpt>
      <trkpt lat="47.36292" lon="0.23491">
        <ele>96</ele>
        <time>2020-08-27T08:43:05Z</time>
      </trkpt>
      <trkpt lat="47.36295" lon="0.23492">
        <ele>96</ele>
        <time>2020-08-27T08:43:07Z</time>
      </trkpt>
      <trkpt lat="47.36298" lon="0.23494">
        <ele>96</ele>
        <time>2020-08-27T08:43:10Z</time>
      </trkpt>
      <trkpt lat="47.36299" lon="0.23495">
        <ele>96</ele>
        <time>2020-08-27T08:43:11Z</time>
      </trkpt>
      <trkpt lat="47.36301" lon="0.23496">
        <ele>96</ele>
        <time>2020-08-27T08:43:12Z</time>
      </trkpt>
      <trkpt lat="47.36303" lon="0.23498">
        <ele>95</ele>
        <time>2020-08-27T08:43:14Z</time>
      </trkpt>
      <trkpt lat="47.36306" lon="0.235">
        <ele>95</ele>
        <time>2020-08-27T08:43:17Z</time>
      </trkpt>
      <trkpt lat="47.36309" lon="0.23502">
        <ele>95</ele>
        <time>2020-08-27T08:43:19Z</time>
      </trkpt>
      <trkpt lat="47.36311" lon="0.23503">
        <ele>95</ele>
        <time>2020-08-27T08:43:21Z</time>
      </trkpt>
      <trkpt lat="47.36313" lon="0.23505">
        <ele>95</ele>
        <time>2020-08-27T08:43:23Z</time>
      </trkpt>
      <trkpt lat="47.36316" lon="0.23508">
        <ele>95</ele>
        <time>2020-08-27T08:43:25Z</time>
      </trkpt>
      <trkpt lat="47.36318" lon="0.23512">
        <ele>95</ele>
        <time>2020-08-27T08:43:27Z</time>
      </trkpt>
      <trkpt lat="47.3632" lon="0.23514">
        <ele>95</ele>
        <time>2020-08-27T08:43:28Z</time>
      </trkpt>
      <trkpt lat="47.36321" lon="0.23516">
        <ele>95</ele>
        <time>2020-08-27T08:43:29Z</time>
      </trkpt>
      <trkpt lat="47.36323" lon="0.23519">
        <ele>96</ele>
        <time>2020-08-27T08:43:31Z</time>
      </trkpt>
      <trkpt lat="47.36325" lon="0.23522">
        <ele>96</ele>
        <time>2020-08-27T08:43:33Z</time>
      </trkpt>
      <trkpt lat="47.36328" lon="0.23524">
        <ele>96</ele>
        <time>2020-08-27T08:43:35Z</time>
      </trkpt>
      <trkpt lat="47.3633" lon="0.23527">
        <ele>96</ele>
        <time>2020-08-27T08:43:37Z</time>
      </trkpt>
      <trkpt lat="47.36332" lon="0.2353">
        <ele>96</ele>
        <time>2020-08-27T08:43:39Z</time>
      </trkpt>
      <trkpt lat="47.36334" lon="0.23532">
        <ele>96</ele>
        <time>2020-08-27T08:43:41Z</time>
      </trkpt>
      <trkpt lat="47.36335" lon="0.23534">
        <ele>96</ele>
        <time>2020-08-27T08:43:43Z</time>
      </trkpt>
      <trkpt lat="47.36336" lon="0.23537">
        <ele>96</ele>
        <time>2020-08-27T08:43:45Z</time>
      </trkpt>
      <trkpt lat="47.36338" lon="0.2354">
        <ele>96</ele>
        <time>2020-08-27T08:43:47Z</time>
      </trkpt>
      <trkpt lat="47.36339" lon="0.23542">
        <ele>96</ele>
        <time>2020-08-27T08:43:49Z</time>
      </trkpt>
      <trkpt lat="47.36341" lon="0.23545">
        <ele>96</ele>
        <time>2020-08-27T08:43:51Z</time>
      </trkpt>
      <trkpt lat="47.36342" lon="0.23547">
        <ele>96</ele>
        <time>2020-08-27T08:43:53Z</time>
      </trkpt>
      <trkpt lat="47.36344" lon="0.2355">
        <ele>96</ele>
        <time>2020-08-27T08:43:55Z</time>
      </trkpt>
      <trkpt lat="47.36346" lon="0.23553">
        <ele>96</ele>
        <time>2020-08-27T08:43:57Z</time>
      </trkpt>
      <trkpt lat="47.36347" lon="0.23557">
        <ele>97</ele>
        <time>2020-08-27T08:43:59Z</time>
      </trkpt>
      <trkpt lat="47.36349" lon="0.2356">
        <ele>97</ele>
        <time>2020-08-27T08:44:01Z</time>
      </trkpt>
      <trkpt lat="47.36351" lon="0.23564">
        <ele>97</ele>
        <time>2020-08-27T08:44:03Z</time>
      </trkpt>
      <trkpt lat="47.36352" lon="0.23566">
        <ele>97</ele>
        <time>2020-08-27T08:44:05Z</time>
      </trkpt>
      <trkpt lat="47.36354" lon="0.23569">
        <ele>97</ele>
        <time>2020-08-27T08:44:07Z</time>
      </trkpt>
      <trkpt lat="47.36356" lon="0.23572">
        <ele>98</ele>
        <time>2020-08-27T08:44:09Z</time>
      </trkpt>
      <trkpt lat="47.36357" lon="0.23576">
        <ele>98</ele>
        <time>2020-08-27T08:44:11Z</time>
      </trkpt>
      <trkpt lat="47.36358" lon="0.23578">
        <ele>98</ele>
        <time>2020-08-27T08:44:13Z</time>
      </trkpt>
      <trkpt lat="47.36359" lon="0.23581">
        <ele>98</ele>
        <time>2020-08-27T08:44:15Z</time>
      </trkpt>
      <trkpt lat="47.36361" lon="0.23584">
        <ele>99</ele>
        <time>2020-08-27T08:44:17Z</time>
      </trkpt>
      <trkpt lat="47.36362" lon="0.23586">
        <ele>98</ele>
        <time>2020-08-27T08:44:19Z</time>
      </trkpt>
      <trkpt lat="47.36364" lon="0.23589">
        <ele>98</ele>
        <time>2020-08-27T08:44:21Z</time>
      </trkpt>
      <trkpt lat="47.36365" lon="0.23592">
        <ele>98</ele>
        <time>2020-08-27T08:44:23Z</time>
      </trkpt>
      <trkpt lat="47.36367" lon="0.23595">
        <ele>98</ele>
        <time>2020-08-27T08:44:25Z</time>
      </trkpt>
      <trkpt lat="47.36369" lon="0.23598">
        <ele>97</ele>
        <time>2020-08-27T08:44:27Z</time>
      </trkpt>
      <trkpt lat="47.36371" lon="0.23602">
        <ele>97</ele>
        <time>2020-08-27T08:44:29Z</time>
      </trkpt>
      <trkpt lat="47.36373" lon="0.23605">
        <ele>97</ele>
        <time>2020-08-27T08:44:31Z</time>
      </trkpt>
      <trkpt lat="47.36374" lon="0.23608">
        <ele>96</ele>
        <time>2020-08-27T08:44:33Z</time>
      </trkpt>
      <trkpt lat="47.36376" lon="0.23611">
        <ele>96</ele>
        <time>2020-08-27T08:44:35Z</time>
      </trkpt>
      <trkpt lat="47.36377" lon="0.23613">
        <ele>96</ele>
        <time>2020-08-27T08:44:37Z</time>
      </trkpt>
      <trkpt lat="47.36378" lon="0.23616">
        <ele>96</ele>
        <time>2020-08-27T08:44:39Z</time>
      </trkpt>
      <trkpt lat="47.3638" lon="0.23618">
        <ele>96</ele>
        <time>2020-08-27T08:44:41Z</time>
      </trkpt>
      <trkpt lat="47.36382" lon="0.2362">
        <ele>96</ele>
        <time>2020-08-27T08:44:43Z</time>
      </trkpt>
      <trkpt lat="47.36384" lon="0.23622">
        <ele>96</ele>
        <time>2020-08-27T08:44:45Z</time>
      </trkpt>
      <trkpt lat="47.36386" lon="0.23624">
        <ele>96</ele>
        <time>2020-08-27T08:44:47Z</time>
      </trkpt>
      <trkpt lat="47.36388" lon="0.23627">
        <ele>96</ele>
        <time>2020-08-27T08:44:49Z</time>
      </trkpt>
      <trkpt lat="47.36391" lon="0.2363">
        <ele>96</ele>
        <time>2020-08-27T08:44:51Z</time>
      </trkpt>
      <trkpt lat="47.36393" lon="0.23631">
        <ele>96</ele>
        <time>2020-08-27T08:44:52Z</time>
      </trkpt>
      <trkpt lat="47.36395" lon="0.23634">
        <ele>96</ele>
        <time>2020-08-27T08:44:54Z</time>
      </trkpt>
      <trkpt lat="47.36398" lon="0.23635">
        <ele>96</ele>
        <time>2020-08-27T08:44:56Z</time>
      </trkpt>
      <trkpt lat="47.364" lon="0.23637">
        <ele>95</ele>
        <time>2020-08-27T08:44:58Z</time>
      </trkpt>
      <trkpt lat="47.36403" lon="0.23639">
        <ele>95</ele>
        <time>2020-08-27T08:45:00Z</time>
      </trkpt>
      <trkpt lat="47.36406" lon="0.23639">
        <ele>94</ele>
        <time>2020-08-27T08:45:02Z</time>
      </trkpt>
      <trkpt lat="47.36409" lon="0.2364">
        <ele>94</ele>
        <time>2020-08-27T08:45:04Z</time>
      </trkpt>
      <trkpt lat="47.36411" lon="0.23641">
        <ele>94</ele>
        <time>2020-08-27T08:45:06Z</time>
      </trkpt>
      <trkpt lat="47.36414" lon="0.23641">
        <ele>93</ele>
        <time>2020-08-27T08:45:08Z</time>
      </trkpt>
      <trkpt lat="47.36417" lon="0.23641">
        <ele>93</ele>
        <time>2020-08-27T08:45:10Z</time>
      </trkpt>
      <trkpt lat="47.36419" lon="0.2364">
        <ele>93</ele>
        <time>2020-08-27T08:45:12Z</time>
      </trkpt>
      <trkpt lat="47.36421" lon="0.2364">
        <ele>92</ele>
        <time>2020-08-27T08:45:14Z</time>
      </trkpt>
      <trkpt lat="47.36424" lon="0.2364">
        <ele>92</ele>
        <time>2020-08-27T08:45:16Z</time>
      </trkpt>
      <trkpt lat="47.36426" lon="0.2364">
        <ele>92</ele>
        <time>2020-08-27T08:45:18Z</time>
      </trkpt>
      <trkpt lat="47.36429" lon="0.2364">
        <ele>92</ele>
        <time>2020-08-27T08:45:20Z</time>
      </trkpt>
      <trkpt lat="47.36431" lon="0.23639">
        <ele>92</ele>
        <time>2020-08-27T08:45:22Z</time>
      </trkpt>
      <trkpt lat="47.36434" lon="0.23639">
        <ele>92</ele>
        <time>2020-08-27T08:45:24Z</time>
      </trkpt>
      <trkpt lat="47.36436" lon="0.23638">
        <ele>92</ele>
        <time>2020-08-27T08:45:26Z</time>
      </trkpt>
      <trkpt lat="47.36439" lon="0.23637">
        <ele>92</ele>
        <time>2020-08-27T08:45:29Z</time>
      </trkpt>
      <trkpt lat="47.36442" lon="0.23637">
        <ele>92</ele>
        <time>2020-08-27T08:45:32Z</time>
      </trkpt>
      <trkpt lat="47.36445" lon="0.23636">
        <ele>92</ele>
        <time>2020-08-27T08:45:34Z</time>
      </trkpt>
      <trkpt lat="47.36448" lon="0.23636">
        <ele>92</ele>
        <time>2020-08-27T08:45:36Z</time>
      </trkpt>
      <trkpt lat="47.3645" lon="0.23635">
        <ele>92</ele>
        <time>2020-08-27T08:45:38Z</time>
      </trkpt>
      <trkpt lat="47.36453" lon="0.23634">
        <ele>92</ele>
        <time>2020-08-27T08:45:40Z</time>
      </trkpt>
      <trkpt lat="47.36456" lon="0.23633">
        <ele>92</ele>
        <time>2020-08-27T08:45:42Z</time>
      </trkpt>
      <trkpt lat="47.36459" lon="0.23632">
        <ele>92</ele>
        <time>2020-08-27T08:45:44Z</time>
      </trkpt>
      <trkpt lat="47.36461" lon="0.23631">
        <ele>92</ele>
        <time>2020-08-27T08:45:46Z</time>
      </trkpt>
      <trkpt lat="47.36464" lon="0.2363">
        <ele>92</ele>
        <time>2020-08-27T08:45:48Z</time>
      </trkpt>
      <trkpt lat="47.36466" lon="0.2363">
        <ele>92</ele>
        <time>2020-08-27T08:45:50Z</time>
      </trkpt>
      <trkpt lat="47.36469" lon="0.2363">
        <ele>92</ele>
        <time>2020-08-27T08:45:52Z</time>
      </trkpt>
      <trkpt lat="47.36471" lon="0.23629">
        <ele>92</ele>
        <time>2020-08-27T08:45:54Z</time>
      </trkpt>
      <trkpt lat="47.36475" lon="0.23629">
        <ele>91</ele>
        <time>2020-08-27T08:45:57Z</time>
      </trkpt>
      <trkpt lat="47.36476" lon="0.23629">
        <ele>91</ele>
        <time>2020-08-27T08:45:58Z</time>
      </trkpt>
      <trkpt lat="47.36479" lon="0.23628">
        <ele>91</ele>
        <time>2020-08-27T08:46:00Z</time>
      </trkpt>
      <trkpt lat="47.36482" lon="0.23627">
        <ele>91</ele>
        <time>2020-08-27T08:46:02Z</time>
      </trkpt>
      <trkpt lat="47.36485" lon="0.23626">
        <ele>91</ele>
        <time>2020-08-27T08:46:04Z</time>
      </trkpt>
      <trkpt lat="47.36488" lon="0.23626">
        <ele>91</ele>
        <time>2020-08-27T08:46:06Z</time>
      </trkpt>
      <trkpt lat="47.3649" lon="0.23626">
        <ele>91</ele>
        <time>2020-08-27T08:46:08Z</time>
      </trkpt>
      <trkpt lat="47.36493" lon="0.23625">
        <ele>91</ele>
        <time>2020-08-27T08:46:10Z</time>
      </trkpt>
      <trkpt lat="47.36496" lon="0.23625">
        <ele>91</ele>
        <time>2020-08-27T08:46:12Z</time>
      </trkpt>
      <trkpt lat="47.36499" lon="0.23624">
        <ele>91</ele>
        <time>2020-08-27T08:46:14Z</time>
      </trkpt>
      <trkpt lat="47.36502" lon="0.23623">
        <ele>91</ele>
        <time>2020-08-27T08:46:16Z</time>
      </trkpt>
      <trkpt lat="47.36505" lon="0.23623">
        <ele>91</ele>
        <time>2020-08-27T08:46:18Z</time>
      </trkpt>
      <trkpt lat="47.36507" lon="0.23623">
        <ele>91</ele>
        <time>2020-08-27T08:46:20Z</time>
      </trkpt>
      <trkpt lat="47.36509" lon="0.23623">
        <ele>91</ele>
        <time>2020-08-27T08:46:22Z</time>
      </trkpt>
      <trkpt lat="47.36512" lon="0.23622">
        <ele>91</ele>
        <time>2020-08-27T08:46:24Z</time>
      </trkpt>
      <trkpt lat="47.36514" lon="0.23622">
        <ele>91</ele>
        <time>2020-08-27T08:46:26Z</time>
      </trkpt>
      <trkpt lat="47.36517" lon="0.23622">
        <ele>91</ele>
        <time>2020-08-27T08:46:28Z</time>
      </trkpt>
      <trkpt lat="47.36519" lon="0.23621">
        <ele>91</ele>
        <time>2020-08-27T08:46:30Z</time>
      </trkpt>
      <trkpt lat="47.36522" lon="0.23621">
        <ele>91</ele>
        <time>2020-08-27T08:46:32Z</time>
      </trkpt>
      <trkpt lat="47.36524" lon="0.23621">
        <ele>91</ele>
        <time>2020-08-27T08:46:34Z</time>
      </trkpt>
      <trkpt lat="47.36526" lon="0.2362">
        <ele>91</ele>
        <time>2020-08-27T08:46:36Z</time>
      </trkpt>
      <trkpt lat="47.36528" lon="0.23618">
        <ele>91</ele>
        <time>2020-08-27T08:46:38Z</time>
      </trkpt>
      <trkpt lat="47.36529" lon="0.23617">
        <ele>91</ele>
        <time>2020-08-27T08:46:40Z</time>
      </trkpt>
      <trkpt lat="47.36531" lon="0.23615">
        <ele>91</ele>
        <time>2020-08-27T08:46:42Z</time>
      </trkpt>
      <trkpt lat="47.36532" lon="0.23612">
        <ele>91</ele>
        <time>2020-08-27T08:46:44Z</time>
      </trkpt>
      <trkpt lat="47.36534" lon="0.23609">
        <ele>91</ele>
        <time>2020-08-27T08:46:46Z</time>
      </trkpt>
      <trkpt lat="47.36534" lon="0.23605">
        <ele>91</ele>
        <time>2020-08-27T08:46:50Z</time>
      </trkpt>
      <trkpt lat="47.36535" lon="0.23602">
        <ele>91</ele>
        <time>2020-08-27T08:46:53Z</time>
      </trkpt>
      <trkpt lat="47.36536" lon="0.23599">
        <ele>91</ele>
        <time>2020-08-27T08:46:55Z</time>
      </trkpt>
      <trkpt lat="47.36537" lon="0.23596">
        <ele>91</ele>
        <time>2020-08-27T08:46:56Z</time>
      </trkpt>
      <trkpt lat="47.36537" lon="0.23591">
        <ele>91</ele>
        <time>2020-08-27T08:46:58Z</time>
      </trkpt>
      <trkpt lat="47.36537" lon="0.23588">
        <ele>91</ele>
        <time>2020-08-27T08:47:00Z</time>
      </trkpt>
      <trkpt lat="47.36536" lon="0.23585">
        <ele>91</ele>
        <time>2020-08-27T08:47:02Z</time>
      </trkpt>
      <trkpt lat="47.36534" lon="0.23585">
        <ele>91</ele>
        <time>2020-08-27T08:47:07Z</time>
      </trkpt>
      <trkpt lat="47.36535" lon="0.23581">
        <ele>91</ele>
        <time>2020-08-27T08:47:20Z</time>
      </trkpt>
      <trkpt lat="47.36536" lon="0.23577">
        <ele>91</ele>
        <time>2020-08-27T08:47:22Z</time>
      </trkpt>
      <trkpt lat="47.36536" lon="0.23573">
        <ele>91</ele>
        <time>2020-08-27T08:47:24Z</time>
      </trkpt>
      <trkpt lat="47.36536" lon="0.23568">
        <ele>91</ele>
        <time>2020-08-27T08:47:26Z</time>
      </trkpt>
      <trkpt lat="47.36537" lon="0.23564">
        <ele>91</ele>
        <time>2020-08-27T08:47:28Z</time>
      </trkpt>
      <trkpt lat="47.36536" lon="0.2356">
        <ele>91</ele>
        <time>2020-08-27T08:47:30Z</time>
      </trkpt>
      <trkpt lat="47.36536" lon="0.23555">
        <ele>90</ele>
        <time>2020-08-27T08:47:32Z</time>
      </trkpt>
      <trkpt lat="47.36536" lon="0.2355">
        <ele>90</ele>
        <time>2020-08-27T08:47:34Z</time>
      </trkpt>
      <trkpt lat="47.36537" lon="0.23546">
        <ele>90</ele>
        <time>2020-08-27T08:47:36Z</time>
      </trkpt>
      <trkpt lat="47.36537" lon="0.23542">
        <ele>90</ele>
        <time>2020-08-27T08:47:38Z</time>
      </trkpt>
      <trkpt lat="47.36537" lon="0.23539">
        <ele>90</ele>
        <time>2020-08-27T08:47:40Z</time>
      </trkpt>
      <trkpt lat="47.36537" lon="0.23536">
        <ele>90</ele>
        <time>2020-08-27T08:47:42Z</time>
      </trkpt>
      <trkpt lat="47.36538" lon="0.23531">
        <ele>90</ele>
        <time>2020-08-27T08:47:44Z</time>
      </trkpt>
      <trkpt lat="47.36538" lon="0.23527">
        <ele>90</ele>
        <time>2020-08-27T08:47:46Z</time>
      </trkpt>
      <trkpt lat="47.36538" lon="0.23523">
        <ele>90</ele>
        <time>2020-08-27T08:47:48Z</time>
      </trkpt>
      <trkpt lat="47.36539" lon="0.23518">
        <ele>90</ele>
        <time>2020-08-27T08:47:50Z</time>
      </trkpt>
      <trkpt lat="47.3654" lon="0.23514">
        <ele>90</ele>
        <time>2020-08-27T08:47:52Z</time>
      </trkpt>
      <trkpt lat="47.36541" lon="0.2351">
        <ele>89</ele>
        <time>2020-08-27T08:47:54Z</time>
      </trkpt>
      <trkpt lat="47.36542" lon="0.23506">
        <ele>89</ele>
        <time>2020-08-27T08:47:56Z</time>
      </trkpt>
      <trkpt lat="47.36543" lon="0.23503">
        <ele>89</ele>
        <time>2020-08-27T08:47:58Z</time>
      </trkpt>
      <trkpt lat="47.36544" lon="0.235">
        <ele>89</ele>
        <time>2020-08-27T08:48:00Z</time>
      </trkpt>
      <trkpt lat="47.36544" lon="0.23496">
        <ele>89</ele>
        <time>2020-08-27T08:48:02Z</time>
      </trkpt>
      <trkpt lat="47.36545" lon="0.23493">
        <ele>89</ele>
        <time>2020-08-27T08:48:04Z</time>
      </trkpt>
      <trkpt lat="47.36546" lon="0.2349">
        <ele>89</ele>
        <time>2020-08-27T08:48:06Z</time>
      </trkpt>
      <trkpt lat="47.36546" lon="0.23486">
        <ele>88</ele>
        <time>2020-08-27T08:48:08Z</time>
      </trkpt>
      <trkpt lat="47.36547" lon="0.23483">
        <ele>88</ele>
        <time>2020-08-27T08:48:10Z</time>
      </trkpt>
      <trkpt lat="47.36548" lon="0.23479">
        <ele>88</ele>
        <time>2020-08-27T08:48:12Z</time>
      </trkpt>
      <trkpt lat="47.36548" lon="0.23476">
        <ele>88</ele>
        <time>2020-08-27T08:48:14Z</time>
      </trkpt>
      <trkpt lat="47.36549" lon="0.23472">
        <ele>88</ele>
        <time>2020-08-27T08:48:16Z</time>
      </trkpt>
      <trkpt lat="47.3655" lon="0.23468">
        <ele>88</ele>
        <time>2020-08-27T08:48:18Z</time>
      </trkpt>
      <trkpt lat="47.3655" lon="0.23464">
        <ele>88</ele>
        <time>2020-08-27T08:48:20Z</time>
      </trkpt>
      <trkpt lat="47.36549" lon="0.23461">
        <ele>88</ele>
        <time>2020-08-27T08:48:23Z</time>
      </trkpt>
      <trkpt lat="47.36549" lon="0.23458">
        <ele>88</ele>
        <time>2020-08-27T08:48:34Z</time>
      </trkpt>
      <trkpt lat="47.3655" lon="0.23455">
        <ele>88</ele>
        <time>2020-08-27T08:48:36Z</time>
      </trkpt>
      <trkpt lat="47.3655" lon="0.23452">
        <ele>88</ele>
        <time>2020-08-27T08:48:38Z</time>
      </trkpt>
      <trkpt lat="47.3655" lon="0.23449">
        <ele>88</ele>
        <time>2020-08-27T08:48:39Z</time>
      </trkpt>
      <trkpt lat="47.36551" lon="0.23444">
        <ele>88</ele>
        <time>2020-08-27T08:48:41Z</time>
      </trkpt>
      <trkpt lat="47.36551" lon="0.2344">
        <ele>88</ele>
        <time>2020-08-27T08:48:43Z</time>
      </trkpt>
      <trkpt lat="47.36551" lon="0.23437">
        <ele>88</ele>
        <time>2020-08-27T08:48:45Z</time>
      </trkpt>
      <trkpt lat="47.36552" lon="0.23433">
        <ele>88</ele>
        <time>2020-08-27T08:48:47Z</time>
      </trkpt>
      <trkpt lat="47.36553" lon="0.23429">
        <ele>88</ele>
        <time>2020-08-27T08:48:49Z</time>
      </trkpt>
      <trkpt lat="47.36553" lon="0.23424">
        <ele>88</ele>
        <time>2020-08-27T08:48:51Z</time>
      </trkpt>
      <trkpt lat="47.36554" lon="0.2342">
        <ele>88</ele>
        <time>2020-08-27T08:48:53Z</time>
      </trkpt>
      <trkpt lat="47.36554" lon="0.23415">
        <ele>88</ele>
        <time>2020-08-27T08:48:55Z</time>
      </trkpt>
      <trkpt lat="47.36554" lon="0.2341">
        <ele>88</ele>
        <time>2020-08-27T08:48:57Z</time>
      </trkpt>
      <trkpt lat="47.36554" lon="0.23408">
        <ele>88</ele>
        <time>2020-08-27T08:48:58Z</time>
      </trkpt>
      <trkpt lat="47.36554" lon="0.23405">
        <ele>88</ele>
        <time>2020-08-27T08:48:59Z</time>
      </trkpt>
      <trkpt lat="47.36555" lon="0.23401">
        <ele>88</ele>
        <time>2020-08-27T08:49:01Z</time>
      </trkpt>
      <trkpt lat="47.36555" lon="0.23397">
        <ele>88</ele>
        <time>2020-08-27T08:49:03Z</time>
      </trkpt>
      <trkpt lat="47.36554" lon="0.23393">
        <ele>88</ele>
        <time>2020-08-27T08:49:05Z</time>
      </trkpt>
      <trkpt lat="47.36554" lon="0.2339">
        <ele>88</ele>
        <time>2020-08-27T08:49:06Z</time>
      </trkpt>
      <trkpt lat="47.36554" lon="0.23388">
        <ele>88</ele>
        <time>2020-08-27T08:49:07Z</time>
      </trkpt>
      <trkpt lat="47.36553" lon="0.23383">
        <ele>88</ele>
        <time>2020-08-27T08:49:09Z</time>
      </trkpt>
      <trkpt lat="47.36553" lon="0.2338">
        <ele>88</ele>
        <time>2020-08-27T08:49:11Z</time>
      </trkpt>
      <trkpt lat="47.36555" lon="0.23377">
        <ele>88</ele>
        <time>2020-08-27T08:49:13Z</time>
      </trkpt>
      <trkpt lat="47.36556" lon="0.23374">
        <ele>88</ele>
        <time>2020-08-27T08:49:15Z</time>
      </trkpt>
      <trkpt lat="47.36556" lon="0.23371">
        <ele>88</ele>
        <time>2020-08-27T08:49:17Z</time>
      </trkpt>
      <trkpt lat="47.36555" lon="0.23368">
        <ele>88</ele>
        <time>2020-08-27T08:49:19Z</time>
      </trkpt>
      <trkpt lat="47.36555" lon="0.23365">
        <ele>88</ele>
        <time>2020-08-27T08:49:21Z</time>
      </trkpt>
      <trkpt lat="47.36554" lon="0.23363">
        <ele>88</ele>
        <time>2020-08-27T08:49:23Z</time>
      </trkpt>
      <trkpt lat="47.36554" lon="0.2336">
        <ele>88</ele>
        <time>2020-08-27T08:49:26Z</time>
      </trkpt>
      <trkpt lat="47.36555" lon="0.23356">
        <ele>88</ele>
        <time>2020-08-27T08:49:29Z</time>
      </trkpt>
      <trkpt lat="47.36555" lon="0.23353">
        <ele>88</ele>
        <time>2020-08-27T08:49:31Z</time>
      </trkpt>
      <trkpt lat="47.36556" lon="0.23349">
        <ele>87</ele>
        <time>2020-08-27T08:49:33Z</time>
      </trkpt>
      <trkpt lat="47.36556" lon="0.23346">
        <ele>87</ele>
        <time>2020-08-27T08:49:34Z</time>
      </trkpt>
      <trkpt lat="47.36556" lon="0.23343">
        <ele>87</ele>
        <time>2020-08-27T08:49:36Z</time>
      </trkpt>
      <trkpt lat="47.36556" lon="0.23339">
        <ele>88</ele>
        <time>2020-08-27T08:49:39Z</time>
      </trkpt>
      <trkpt lat="47.36556" lon="0.23336">
        <ele>88</ele>
        <time>2020-08-27T08:49:42Z</time>
      </trkpt>
      <trkpt lat="47.36555" lon="0.23332">
        <ele>88</ele>
        <time>2020-08-27T08:49:44Z</time>
      </trkpt>
      <trkpt lat="47.36556" lon="0.23327">
        <ele>88</ele>
        <time>2020-08-27T08:49:47Z</time>
      </trkpt>
      <trkpt lat="47.36555" lon="0.23324">
        <ele>88</ele>
        <time>2020-08-27T08:49:48Z</time>
      </trkpt>
      <trkpt lat="47.36555" lon="0.23321">
        <ele>88</ele>
        <time>2020-08-27T08:49:49Z</time>
      </trkpt>
      <trkpt lat="47.36554" lon="0.23317">
        <ele>89</ele>
        <time>2020-08-27T08:49:50Z</time>
      </trkpt>
      <trkpt lat="47.36555" lon="0.23313">
        <ele>89</ele>
        <time>2020-08-27T08:49:52Z</time>
      </trkpt>
      <trkpt lat="47.36555" lon="0.23308">
        <ele>89</ele>
        <time>2020-08-27T08:49:54Z</time>
      </trkpt>
      <trkpt lat="47.36555" lon="0.23304">
        <ele>90</ele>
        <time>2020-08-27T08:49:57Z</time>
      </trkpt>
      <trkpt lat="47.36555" lon="0.23301">
        <ele>90</ele>
        <time>2020-08-27T08:49:59Z</time>
      </trkpt>
      <trkpt lat="47.36554" lon="0.23298">
        <ele>90</ele>
        <time>2020-08-27T08:50:01Z</time>
      </trkpt>
      <trkpt lat="47.36556" lon="0.23298">
        <ele>90</ele>
        <time>2020-08-27T08:50:05Z</time>
      </trkpt>
      <trkpt lat="47.36556" lon="0.23295">
        <ele>90</ele>
        <time>2020-08-27T08:50:11Z</time>
      </trkpt>
      <trkpt lat="47.36555" lon="0.23293">
        <ele>90</ele>
        <time>2020-08-27T08:50:30Z</time>
      </trkpt>
      <trkpt lat="47.36557" lon="0.23291">
        <ele>90</ele>
        <time>2020-08-27T08:50:33Z</time>
      </trkpt>
      <trkpt lat="47.36558" lon="0.23289">
        <ele>90</ele>
        <time>2020-08-27T08:50:37Z</time>
      </trkpt>
      <trkpt lat="47.36557" lon="0.23287">
        <ele>90</ele>
        <time>2020-08-27T08:51:54Z</time>
      </trkpt>
      <trkpt lat="47.36559" lon="0.23288">
        <ele>90</ele>
        <time>2020-08-27T08:52:04Z</time>
      </trkpt>
      <trkpt lat="47.36558" lon="0.23286">
        <ele>90</ele>
        <time>2020-08-27T08:52:35Z</time>
      </trkpt>
      <trkpt lat="47.3656" lon="0.23284">
        <ele>90</ele>
        <time>2020-08-27T08:52:38Z</time>
      </trkpt>
      <trkpt lat="47.3656" lon="0.23286">
        <ele>90</ele>
        <time>2020-08-27T08:52:44Z</time>
      </trkpt>
      <trkpt lat="47.36559" lon="0.23283">
        <ele>90</ele>
        <time>2020-08-27T08:53:07Z</time>
      </trkpt>
      <trkpt lat="47.3656" lon="0.2328">
        <ele>90</ele>
        <time>2020-08-27T08:53:10Z</time>
      </trkpt>
      <trkpt lat="47.36562" lon="0.23285">
        <ele>90</ele>
        <time>2020-08-27T08:53:22Z</time>
      </trkpt>
      <trkpt lat="47.3656" lon="0.23284">
        <ele>90</ele>
        <time>2020-08-27T08:54:02Z</time>
      </trkpt>
      <trkpt lat="47.3656" lon="0.23287">
        <ele>90</ele>
        <time>2020-08-27T08:54:51Z</time>
      </trkpt>
      <trkpt lat="47.36562" lon="0.23288">
        <ele>90</ele>
        <time>2020-08-27T08:55:04Z</time>
      </trkpt>
      <trkpt lat="47.36564" lon="0.23288">
        <ele>90</ele>
        <time>2020-08-27T08:55:12Z</time>
      </trkpt>
      <trkpt lat="47.36563" lon="0.23286">
        <ele>90</ele>
        <time>2020-08-27T08:55:26Z</time>
      </trkpt>
      <trkpt lat="47.36561" lon="0.23287">
        <ele>90</ele>
        <time>2020-08-27T08:55:36Z</time>
      </trkpt>
      <trkpt lat="47.36559" lon="0.23287">
        <ele>90</ele>
        <time>2020-08-27T08:55:41Z</time>
      </trkpt>
      <trkpt lat="47.36557" lon="0.23288">
        <ele>90</ele>
        <time>2020-08-27T08:55:49Z</time>
      </trkpt>
      <trkpt lat="47.36555" lon="0.23287">
        <ele>90</ele>
        <time>2020-08-27T08:56:06Z</time>
      </trkpt>
      <trkpt lat="47.36557" lon="0.23288">
        <ele>90</ele>
        <time>2020-08-27T08:56:29Z</time>
      </trkpt>
      <trkpt lat="47.36557" lon="0.23285">
        <ele>90</ele>
        <time>2020-08-27T08:56:40Z</time>
      </trkpt>
      <trkpt lat="47.36557" lon="0.23288">
        <ele>90</ele>
        <time>2020-08-27T08:57:00Z</time>
      </trkpt>
      <trkpt lat="47.36561" lon="0.2329">
        <ele>90</ele>
        <time>2020-08-27T08:57:23Z</time>
      </trkpt>
      <trkpt lat="47.36559" lon="0.23289">
        <ele>90</ele>
        <time>2020-08-27T08:57:29Z</time>
      </trkpt>
      <trkpt lat="47.36557" lon="0.23288">
        <ele>90</ele>
        <time>2020-08-27T08:57:38Z</time>
      </trkpt>
      <trkpt lat="47.36556" lon="0.2329">
        <ele>90</ele>
        <time>2020-08-27T08:57:46Z</time>
      </trkpt>
      <trkpt lat="47.36555" lon="0.23292">
        <ele>90</ele>
        <time>2020-08-27T08:58:02Z</time>
      </trkpt>
      <trkpt lat="47.36553" lon="0.23292">
        <ele>90</ele>
        <time>2020-08-27T08:58:05Z</time>
      </trkpt>
      <trkpt lat="47.36551" lon="0.23291">
        <ele>90</ele>
        <time>2020-08-27T08:58:26Z</time>
      </trkpt>
      <trkpt lat="47.36553" lon="0.23289">
        <ele>90</ele>
        <time>2020-08-27T08:58:56Z</time>
      </trkpt>
      <trkpt lat="47.36555" lon="0.23288">
        <ele>90</ele>
        <time>2020-08-27T08:59:20Z</time>
      </trkpt>
      <trkpt lat="47.36556" lon="0.23286">
        <ele>90</ele>
        <time>2020-08-27T08:59:31Z</time>
      </trkpt>
      <trkpt lat="47.36557" lon="0.23283">
        <ele>90</ele>
        <time>2020-08-27T08:59:33Z</time>
      </trkpt>
      <trkpt lat="47.3656" lon="0.23282">
        <ele>90</ele>
        <time>2020-08-27T08:59:36Z</time>
      </trkpt>
      <trkpt lat="47.36562" lon="0.23279">
        <ele>90</ele>
        <time>2020-08-27T08:59:39Z</time>
      </trkpt>
      <trkpt lat="47.36562" lon="0.23276">
        <ele>90</ele>
        <time>2020-08-27T08:59:43Z</time>
      </trkpt>
      <trkpt lat="47.36564" lon="0.23275">
        <ele>90</ele>
        <time>2020-08-27T08:59:45Z</time>
      </trkpt>
      <trkpt lat="47.36566" lon="0.23273">
        <ele>90</ele>
        <time>2020-08-27T08:59:48Z</time>
      </trkpt>
      <trkpt lat="47.36574" lon="0.23266">
        <ele>90</ele>
        <time>2020-08-27T08:59:56Z</time>
      </trkpt>
      <trkpt lat="47.36577" lon="0.23264">
        <ele>90</ele>
        <time>2020-08-27T08:59:58Z</time>
      </trkpt>
      <trkpt lat="47.36579" lon="0.23263">
        <ele>90</ele>
        <time>2020-08-27T09:00:00Z</time>
      </trkpt>
      <trkpt lat="47.36581" lon="0.2326">
        <ele>90</ele>
        <time>2020-08-27T09:00:03Z</time>
      </trkpt>
      <trkpt lat="47.36583" lon="0.23257">
        <ele>90</ele>
        <time>2020-08-27T09:00:05Z</time>
      </trkpt>
      <trkpt lat="47.36585" lon="0.23255">
        <ele>91</ele>
        <time>2020-08-27T09:00:07Z</time>
      </trkpt>
      <trkpt lat="47.36587" lon="0.23253">
        <ele>91</ele>
        <time>2020-08-27T09:00:09Z</time>
      </trkpt>
      <trkpt lat="47.36589" lon="0.23252">
        <ele>91</ele>
        <time>2020-08-27T09:00:11Z</time>
      </trkpt>
      <trkpt lat="47.36591" lon="0.2325">
        <ele>91</ele>
        <time>2020-08-27T09:00:13Z</time>
      </trkpt>
      <trkpt lat="47.36592" lon="0.23248">
        <ele>91</ele>
        <time>2020-08-27T09:00:15Z</time>
      </trkpt>
      <trkpt lat="47.36593" lon="0.23245">
        <ele>91</ele>
        <time>2020-08-27T09:00:17Z</time>
      </trkpt>
      <trkpt lat="47.36596" lon="0.23244">
        <ele>92</ele>
        <time>2020-08-27T09:00:19Z</time>
      </trkpt>
      <trkpt lat="47.36598" lon="0.23241">
        <ele>92</ele>
        <time>2020-08-27T09:00:21Z</time>
      </trkpt>
      <trkpt lat="47.36604" lon="0.23237">
        <ele>92</ele>
        <time>2020-08-27T09:00:26Z</time>
      </trkpt>
      <trkpt lat="47.36607" lon="0.23236">
        <ele>93</ele>
        <time>2020-08-27T09:00:29Z</time>
      </trkpt>
      <trkpt lat="47.3661" lon="0.23236">
        <ele>93</ele>
        <time>2020-08-27T09:00:31Z</time>
      </trkpt>
      <trkpt lat="47.36612" lon="0.23235">
        <ele>93</ele>
        <time>2020-08-27T09:00:32Z</time>
      </trkpt>
      <trkpt lat="47.36614" lon="0.23235">
        <ele>93</ele>
        <time>2020-08-27T09:00:33Z</time>
      </trkpt>
      <trkpt lat="47.36623" lon="0.23234">
        <ele>93</ele>
        <time>2020-08-27T09:00:39Z</time>
      </trkpt>
      <trkpt lat="47.36632" lon="0.23231">
        <ele>93</ele>
        <time>2020-08-27T09:00:45Z</time>
      </trkpt>
      <trkpt lat="47.36634" lon="0.23231">
        <ele>93</ele>
        <time>2020-08-27T09:00:47Z</time>
      </trkpt>
      <trkpt lat="47.36637" lon="0.2323">
        <ele>93</ele>
        <time>2020-08-27T09:00:49Z</time>
      </trkpt>
      <trkpt lat="47.36645" lon="0.23226">
        <ele>93</ele>
        <time>2020-08-27T09:00:55Z</time>
      </trkpt>
      <trkpt lat="47.36647" lon="0.23225">
        <ele>92</ele>
        <time>2020-08-27T09:00:57Z</time>
      </trkpt>
      <trkpt lat="47.36649" lon="0.23225">
        <ele>92</ele>
        <time>2020-08-27T09:00:59Z</time>
      </trkpt>
      <trkpt lat="47.36653" lon="0.23223">
        <ele>92</ele>
        <time>2020-08-27T09:01:02Z</time>
      </trkpt>
      <trkpt lat="47.36655" lon="0.23221">
        <ele>92</ele>
        <time>2020-08-27T09:01:04Z</time>
      </trkpt>
      <trkpt lat="47.36656" lon="0.23219">
        <ele>92</ele>
        <time>2020-08-27T09:01:06Z</time>
      </trkpt>
      <trkpt lat="47.36658" lon="0.23216">
        <ele>92</ele>
        <time>2020-08-27T09:01:08Z</time>
      </trkpt>
      <trkpt lat="47.36659" lon="0.23215">
        <ele>92</ele>
        <time>2020-08-27T09:01:10Z</time>
      </trkpt>
      <trkpt lat="47.36661" lon="0.23213">
        <ele>91</ele>
        <time>2020-08-27T09:01:12Z</time>
      </trkpt>
      <trkpt lat="47.36664" lon="0.23211">
        <ele>91</ele>
        <time>2020-08-27T09:01:14Z</time>
      </trkpt>
      <trkpt lat="47.36666" lon="0.23208">
        <ele>91</ele>
        <time>2020-08-27T09:01:17Z</time>
      </trkpt>
      <trkpt lat="47.36667" lon="0.23205">
        <ele>91</ele>
        <time>2020-08-27T09:01:19Z</time>
      </trkpt>
      <trkpt lat="47.36669" lon="0.23204">
        <ele>91</ele>
        <time>2020-08-27T09:01:20Z</time>
      </trkpt>
      <trkpt lat="47.3667" lon="0.23202">
        <ele>90</ele>
        <time>2020-08-27T09:01:21Z</time>
      </trkpt>
      <trkpt lat="47.36672" lon="0.23199">
        <ele>90</ele>
        <time>2020-08-27T09:01:23Z</time>
      </trkpt>
      <trkpt lat="47.36674" lon="0.23195">
        <ele>90</ele>
        <time>2020-08-27T09:01:25Z</time>
      </trkpt>
      <trkpt lat="47.3668" lon="0.23183">
        <ele>89</ele>
        <time>2020-08-27T09:01:33Z</time>
      </trkpt>
      <trkpt lat="47.36681" lon="0.23179">
        <ele>89</ele>
        <time>2020-08-27T09:01:35Z</time>
      </trkpt>
      <trkpt lat="47.36686" lon="0.23166">
        <ele>89</ele>
        <time>2020-08-27T09:01:42Z</time>
      </trkpt>
      <trkpt lat="47.36692" lon="0.23154">
        <ele>88</ele>
        <time>2020-08-27T09:01:49Z</time>
      </trkpt>
      <trkpt lat="47.36698" lon="0.23143">
        <ele>87</ele>
        <time>2020-08-27T09:01:56Z</time>
      </trkpt>
      <trkpt lat="47.36705" lon="0.2313">
        <ele>86</ele>
        <time>2020-08-27T09:02:03Z</time>
      </trkpt>
      <trkpt lat="47.36707" lon="0.23117">
        <ele>86</ele>
        <time>2020-08-27T09:02:09Z</time>
      </trkpt>
      <trkpt lat="47.36711" lon="0.23105">
        <ele>84</ele>
        <time>2020-08-27T09:02:16Z</time>
      </trkpt>
      <trkpt lat="47.36713" lon="0.23092">
        <ele>83</ele>
        <time>2020-08-27T09:02:25Z</time>
      </trkpt>
      <trkpt lat="47.36713" lon="0.23089">
        <ele>83</ele>
        <time>2020-08-27T09:02:27Z</time>
      </trkpt>
      <trkpt lat="47.36714" lon="0.23085">
        <ele>83</ele>
        <time>2020-08-27T09:02:30Z</time>
      </trkpt>
      <trkpt lat="47.36714" lon="0.23082">
        <ele>82</ele>
        <time>2020-08-27T09:02:32Z</time>
      </trkpt>
      <trkpt lat="47.36713" lon="0.23078">
        <ele>82</ele>
        <time>2020-08-27T09:02:34Z</time>
      </trkpt>
      <trkpt lat="47.36714" lon="0.23075">
        <ele>82</ele>
        <time>2020-08-27T09:02:36Z</time>
      </trkpt>
      <trkpt lat="47.36714" lon="0.23072">
        <ele>81</ele>
        <time>2020-08-27T09:02:38Z</time>
      </trkpt>
      <trkpt lat="47.36715" lon="0.23069">
        <ele>81</ele>
        <time>2020-08-27T09:02:40Z</time>
      </trkpt>
      <trkpt lat="47.36715" lon="0.23065">
        <ele>80</ele>
        <time>2020-08-27T09:02:42Z</time>
      </trkpt>
      <trkpt lat="47.36715" lon="0.23062">
        <ele>80</ele>
        <time>2020-08-27T09:02:44Z</time>
      </trkpt>
      <trkpt lat="47.36716" lon="0.23058">
        <ele>79</ele>
        <time>2020-08-27T09:02:46Z</time>
      </trkpt>
      <trkpt lat="47.36716" lon="0.23054">
        <ele>79</ele>
        <time>2020-08-27T09:02:48Z</time>
      </trkpt>
      <trkpt lat="47.36716" lon="0.23051">
        <ele>78</ele>
        <time>2020-08-27T09:02:50Z</time>
      </trkpt>
      <trkpt lat="47.36717" lon="0.23046">
        <ele>78</ele>
        <time>2020-08-27T09:02:52Z</time>
      </trkpt>
      <trkpt lat="47.36718" lon="0.23042">
        <ele>78</ele>
        <time>2020-08-27T09:02:54Z</time>
      </trkpt>
      <trkpt lat="47.36719" lon="0.23039">
        <ele>77</ele>
        <time>2020-08-27T09:02:56Z</time>
      </trkpt>
      <trkpt lat="47.36719" lon="0.23035">
        <ele>77</ele>
        <time>2020-08-27T09:02:58Z</time>
      </trkpt>
      <trkpt lat="47.36719" lon="0.2303">
        <ele>77</ele>
        <time>2020-08-27T09:03:00Z</time>
      </trkpt>
      <trkpt lat="47.3672" lon="0.23027">
        <ele>76</ele>
        <time>2020-08-27T09:03:02Z</time>
      </trkpt>
      <trkpt lat="47.3672" lon="0.23023">
        <ele>76</ele>
        <time>2020-08-27T09:03:04Z</time>
      </trkpt>
      <trkpt lat="47.36721" lon="0.23019">
        <ele>76</ele>
        <time>2020-08-27T09:03:06Z</time>
      </trkpt>
      <trkpt lat="47.36722" lon="0.23016">
        <ele>76</ele>
        <time>2020-08-27T09:03:08Z</time>
      </trkpt>
      <trkpt lat="47.36722" lon="0.23013">
        <ele>76</ele>
        <time>2020-08-27T09:03:10Z</time>
      </trkpt>
      <trkpt lat="47.36722" lon="0.23009">
        <ele>75</ele>
        <time>2020-08-27T09:03:12Z</time>
      </trkpt>
      <trkpt lat="47.36722" lon="0.23005">
        <ele>75</ele>
        <time>2020-08-27T09:03:14Z</time>
      </trkpt>
      <trkpt lat="47.36723" lon="0.23">
        <ele>75</ele>
        <time>2020-08-27T09:03:16Z</time>
      </trkpt>
      <trkpt lat="47.36722" lon="0.22997">
        <ele>76</ele>
        <time>2020-08-27T09:03:18Z</time>
      </trkpt>
      <trkpt lat="47.36722" lon="0.22994">
        <ele>76</ele>
        <time>2020-08-27T09:03:20Z</time>
      </trkpt>
      <trkpt lat="47.36722" lon="0.2299">
        <ele>76</ele>
        <time>2020-08-27T09:03:22Z</time>
      </trkpt>
      <trkpt lat="47.36722" lon="0.22985">
        <ele>76</ele>
        <time>2020-08-27T09:03:24Z</time>
      </trkpt>
      <trkpt lat="47.36722" lon="0.22981">
        <ele>76</ele>
        <time>2020-08-27T09:03:26Z</time>
      </trkpt>
      <trkpt lat="47.36722" lon="0.22978">
        <ele>76</ele>
        <time>2020-08-27T09:03:28Z</time>
      </trkpt>
      <trkpt lat="47.36723" lon="0.22974">
        <ele>76</ele>
        <time>2020-08-27T09:03:30Z</time>
      </trkpt>
      <trkpt lat="47.36723" lon="0.2297">
        <ele>76</ele>
        <time>2020-08-27T09:03:32Z</time>
      </trkpt>
      <trkpt lat="47.36723" lon="0.22966">
        <ele>76</ele>
        <time>2020-08-27T09:03:34Z</time>
      </trkpt>
      <trkpt lat="47.36723" lon="0.22962">
        <ele>76</ele>
        <time>2020-08-27T09:03:36Z</time>
      </trkpt>
      <trkpt lat="47.36723" lon="0.22959">
        <ele>76</ele>
        <time>2020-08-27T09:03:38Z</time>
      </trkpt>
      <trkpt lat="47.36723" lon="0.22956">
        <ele>76</ele>
        <time>2020-08-27T09:03:40Z</time>
      </trkpt>
      <trkpt lat="47.36723" lon="0.22953">
        <ele>76</ele>
        <time>2020-08-27T09:03:42Z</time>
      </trkpt>
      <trkpt lat="47.36724" lon="0.22951">
        <ele>76</ele>
        <time>2020-08-27T09:03:44Z</time>
      </trkpt>
      <trkpt lat="47.36724" lon="0.22947">
        <ele>76</ele>
        <time>2020-08-27T09:03:46Z</time>
      </trkpt>
      <trkpt lat="47.36724" lon="0.22943">
        <ele>76</ele>
        <time>2020-08-27T09:03:48Z</time>
      </trkpt>
      <trkpt lat="47.36724" lon="0.22939">
        <ele>76</ele>
        <time>2020-08-27T09:03:50Z</time>
      </trkpt>
      <trkpt lat="47.36725" lon="0.22935">
        <ele>76</ele>
        <time>2020-08-27T09:03:52Z</time>
      </trkpt>
      <trkpt lat="47.36725" lon="0.22931">
        <ele>76</ele>
        <time>2020-08-27T09:03:54Z</time>
      </trkpt>
      <trkpt lat="47.36725" lon="0.22927">
        <ele>76</ele>
        <time>2020-08-27T09:03:56Z</time>
      </trkpt>
      <trkpt lat="47.36726" lon="0.22923">
        <ele>76</ele>
        <time>2020-08-27T09:03:58Z</time>
      </trkpt>
      <trkpt lat="47.36727" lon="0.22919">
        <ele>76</ele>
        <time>2020-08-27T09:04:00Z</time>
      </trkpt>
      <trkpt lat="47.36727" lon="0.22914">
        <ele>76</ele>
        <time>2020-08-27T09:04:02Z</time>
      </trkpt>
      <trkpt lat="47.36728" lon="0.2291">
        <ele>75</ele>
        <time>2020-08-27T09:04:04Z</time>
      </trkpt>
      <trkpt lat="47.36729" lon="0.22902">
        <ele>75</ele>
        <time>2020-08-27T09:04:08Z</time>
      </trkpt>
      <trkpt lat="47.36729" lon="0.229">
        <ele>75</ele>
        <time>2020-08-27T09:04:10Z</time>
      </trkpt>
      <trkpt lat="47.36729" lon="0.22897">
        <ele>75</ele>
        <time>2020-08-27T09:04:12Z</time>
      </trkpt>
      <trkpt lat="47.36729" lon="0.22893">
        <ele>75</ele>
        <time>2020-08-27T09:04:14Z</time>
      </trkpt>
      <trkpt lat="47.36729" lon="0.22889">
        <ele>75</ele>
        <time>2020-08-27T09:04:16Z</time>
      </trkpt>
      <trkpt lat="47.36729" lon="0.22886">
        <ele>75</ele>
        <time>2020-08-27T09:04:18Z</time>
      </trkpt>
      <trkpt lat="47.36729" lon="0.22883">
        <ele>74</ele>
        <time>2020-08-27T09:04:20Z</time>
      </trkpt>
      <trkpt lat="47.3673" lon="0.22879">
        <ele>74</ele>
        <time>2020-08-27T09:04:22Z</time>
      </trkpt>
      <trkpt lat="47.36731" lon="0.22874">
        <ele>74</ele>
        <time>2020-08-27T09:04:24Z</time>
      </trkpt>
      <trkpt lat="47.36732" lon="0.22871">
        <ele>74</ele>
        <time>2020-08-27T09:04:26Z</time>
      </trkpt>
      <trkpt lat="47.36732" lon="0.22868">
        <ele>74</ele>
        <time>2020-08-27T09:04:28Z</time>
      </trkpt>
      <trkpt lat="47.36733" lon="0.22865">
        <ele>74</ele>
        <time>2020-08-27T09:04:30Z</time>
      </trkpt>
      <trkpt lat="47.36733" lon="0.22861">
        <ele>74</ele>
        <time>2020-08-27T09:04:32Z</time>
      </trkpt>
      <trkpt lat="47.36735" lon="0.22858">
        <ele>73</ele>
        <time>2020-08-27T09:04:34Z</time>
      </trkpt>
      <trkpt lat="47.36736" lon="0.22853">
        <ele>73</ele>
        <time>2020-08-27T09:04:37Z</time>
      </trkpt>
      <trkpt lat="47.36737" lon="0.22849">
        <ele>73</ele>
        <time>2020-08-27T09:04:39Z</time>
      </trkpt>
      <trkpt lat="47.36737" lon="0.22843">
        <ele>73</ele>
        <time>2020-08-27T09:04:42Z</time>
      </trkpt>
      <trkpt lat="47.36737" lon="0.22839">
        <ele>74</ele>
        <time>2020-08-27T09:04:44Z</time>
      </trkpt>
      <trkpt lat="47.36737" lon="0.22836">
        <ele>74</ele>
        <time>2020-08-27T09:04:46Z</time>
      </trkpt>
      <trkpt lat="47.36737" lon="0.22832">
        <ele>74</ele>
        <time>2020-08-27T09:04:48Z</time>
      </trkpt>
      <trkpt lat="47.36736" lon="0.22828">
        <ele>74</ele>
        <time>2020-08-27T09:04:50Z</time>
      </trkpt>
      <trkpt lat="47.36735" lon="0.22823">
        <ele>75</ele>
        <time>2020-08-27T09:04:52Z</time>
      </trkpt>
      <trkpt lat="47.36735" lon="0.2282">
        <ele>75</ele>
        <time>2020-08-27T09:04:54Z</time>
      </trkpt>
      <trkpt lat="47.36736" lon="0.22814">
        <ele>76</ele>
        <time>2020-08-27T09:04:57Z</time>
      </trkpt>
      <trkpt lat="47.36735" lon="0.22807">
        <ele>76</ele>
        <time>2020-08-27T09:05:00Z</time>
      </trkpt>
      <trkpt lat="47.36735" lon="0.22802">
        <ele>76</ele>
        <time>2020-08-27T09:05:02Z</time>
      </trkpt>
      <trkpt lat="47.36737" lon="0.22788">
        <ele>76</ele>
        <time>2020-08-27T09:05:08Z</time>
      </trkpt>
      <trkpt lat="47.36741" lon="0.22775">
        <ele>74</ele>
        <time>2020-08-27T09:05:15Z</time>
      </trkpt>
      <trkpt lat="47.36746" lon="0.22767">
        <ele>73</ele>
        <time>2020-08-27T09:05:20Z</time>
      </trkpt>
      <trkpt lat="47.36747" lon="0.22765">
        <ele>72</ele>
        <time>2020-08-27T09:05:22Z</time>
      </trkpt>
      <trkpt lat="47.36749" lon="0.22763">
        <ele>71</ele>
        <time>2020-08-27T09:05:24Z</time>
      </trkpt>
      <trkpt lat="47.36751" lon="0.22762">
        <ele>70</ele>
        <time>2020-08-27T09:05:25Z</time>
      </trkpt>
      <trkpt lat="47.36754" lon="0.2276">
        <ele>70</ele>
        <time>2020-08-27T09:05:27Z</time>
      </trkpt>
      <trkpt lat="47.36755" lon="0.22759">
        <ele>70</ele>
        <time>2020-08-27T09:05:28Z</time>
      </trkpt>
      <trkpt lat="47.36758" lon="0.22757">
        <ele>69</ele>
        <time>2020-08-27T09:05:30Z</time>
      </trkpt>
      <trkpt lat="47.36761" lon="0.22757">
        <ele>69</ele>
        <time>2020-08-27T09:05:32Z</time>
      </trkpt>
      <trkpt lat="47.36764" lon="0.22756">
        <ele>68</ele>
        <time>2020-08-27T09:05:34Z</time>
      </trkpt>
      <trkpt lat="47.36767" lon="0.22755">
        <ele>68</ele>
        <time>2020-08-27T09:05:37Z</time>
      </trkpt>
      <trkpt lat="47.36771" lon="0.22753">
        <ele>67</ele>
        <time>2020-08-27T09:05:40Z</time>
      </trkpt>
      <trkpt lat="47.36776" lon="0.22752">
        <ele>66</ele>
        <time>2020-08-27T09:05:44Z</time>
      </trkpt>
      <trkpt lat="47.36778" lon="0.22751">
        <ele>66</ele>
        <time>2020-08-27T09:05:46Z</time>
      </trkpt>
      <trkpt lat="47.3678" lon="0.2275">
        <ele>66</ele>
        <time>2020-08-27T09:05:48Z</time>
      </trkpt>
      <trkpt lat="47.36783" lon="0.22749">
        <ele>66</ele>
        <time>2020-08-27T09:05:50Z</time>
      </trkpt>
      <trkpt lat="47.36785" lon="0.22748">
        <ele>66</ele>
        <time>2020-08-27T09:05:52Z</time>
      </trkpt>
      <trkpt lat="47.36787" lon="0.22748">
        <ele>66</ele>
        <time>2020-08-27T09:05:54Z</time>
      </trkpt>
      <trkpt lat="47.36789" lon="0.22748">
        <ele>66</ele>
        <time>2020-08-27T09:05:56Z</time>
      </trkpt>
      <trkpt lat="47.36791" lon="0.22748">
        <ele>66</ele>
        <time>2020-08-27T09:05:58Z</time>
      </trkpt>
      <trkpt lat="47.36794" lon="0.22747">
        <ele>67</ele>
        <time>2020-08-27T09:06:00Z</time>
      </trkpt>
      <trkpt lat="47.36797" lon="0.22747">
        <ele>67</ele>
        <time>2020-08-27T09:06:02Z</time>
      </trkpt>
      <trkpt lat="47.368" lon="0.22746">
        <ele>67</ele>
        <time>2020-08-27T09:06:04Z</time>
      </trkpt>
      <trkpt lat="47.36803" lon="0.22744">
        <ele>67</ele>
        <time>2020-08-27T09:06:06Z</time>
      </trkpt>
      <trkpt lat="47.36805" lon="0.22743">
        <ele>67</ele>
        <time>2020-08-27T09:06:08Z</time>
      </trkpt>
      <trkpt lat="47.36808" lon="0.22741">
        <ele>68</ele>
        <time>2020-08-27T09:06:10Z</time>
      </trkpt>
      <trkpt lat="47.36811" lon="0.22739">
        <ele>68</ele>
        <time>2020-08-27T09:06:12Z</time>
      </trkpt>
      <trkpt lat="47.36814" lon="0.22738">
        <ele>68</ele>
        <time>2020-08-27T09:06:14Z</time>
      </trkpt>
      <trkpt lat="47.36816" lon="0.22737">
        <ele>69</ele>
        <time>2020-08-27T09:06:16Z</time>
      </trkpt>
      <trkpt lat="47.36819" lon="0.22736">
        <ele>69</ele>
        <time>2020-08-27T09:06:19Z</time>
      </trkpt>
      <trkpt lat="47.36821" lon="0.22736">
        <ele>69</ele>
        <time>2020-08-27T09:06:21Z</time>
      </trkpt>
      <trkpt lat="47.36823" lon="0.22736">
        <ele>69</ele>
        <time>2020-08-27T09:06:25Z</time>
      </trkpt>
      <trkpt lat="47.36827" lon="0.22736">
        <ele>70</ele>
        <time>2020-08-27T09:06:30Z</time>
      </trkpt>
      <trkpt lat="47.36829" lon="0.22736">
        <ele>70</ele>
        <time>2020-08-27T09:06:32Z</time>
      </trkpt>
      <trkpt lat="47.36832" lon="0.22735">
        <ele>70</ele>
        <time>2020-08-27T09:06:35Z</time>
      </trkpt>
      <trkpt lat="47.36834" lon="0.22734">
        <ele>71</ele>
        <time>2020-08-27T09:06:39Z</time>
      </trkpt>
      <trkpt lat="47.36839" lon="0.22732">
        <ele>71</ele>
        <time>2020-08-27T09:06:45Z</time>
      </trkpt>
      <trkpt lat="47.36841" lon="0.22731">
        <ele>71</ele>
        <time>2020-08-27T09:06:46Z</time>
      </trkpt>
      <trkpt lat="47.3685" lon="0.22727">
        <ele>72</ele>
        <time>2020-08-27T09:06:51Z</time>
      </trkpt>
      <trkpt lat="47.36859" lon="0.22723">
        <ele>73</ele>
        <time>2020-08-27T09:06:59Z</time>
      </trkpt>
      <trkpt lat="47.36861" lon="0.22722">
        <ele>73</ele>
        <time>2020-08-27T09:07:02Z</time>
      </trkpt>
      <trkpt lat="47.36863" lon="0.2272">
        <ele>74</ele>
        <time>2020-08-27T09:07:04Z</time>
      </trkpt>
      <trkpt lat="47.36864" lon="0.22719">
        <ele>74</ele>
        <time>2020-08-27T09:07:06Z</time>
      </trkpt>
      <trkpt lat="47.36866" lon="0.22717">
        <ele>74</ele>
        <time>2020-08-27T09:07:08Z</time>
      </trkpt>
      <trkpt lat="47.36868" lon="0.22715">
        <ele>74</ele>
        <time>2020-08-27T09:07:09Z</time>
      </trkpt>
      <trkpt lat="47.3687" lon="0.22713">
        <ele>74</ele>
        <time>2020-08-27T09:07:11Z</time>
      </trkpt>
      <trkpt lat="47.36872" lon="0.22711">
        <ele>74</ele>
        <time>2020-08-27T09:07:13Z</time>
      </trkpt>
      <trkpt lat="47.36873" lon="0.22708">
        <ele>74</ele>
        <time>2020-08-27T09:07:15Z</time>
      </trkpt>
      <trkpt lat="47.36874" lon="0.22704">
        <ele>74</ele>
        <time>2020-08-27T09:07:18Z</time>
      </trkpt>
      <trkpt lat="47.36874" lon="0.22701">
        <ele>74</ele>
        <time>2020-08-27T09:07:20Z</time>
      </trkpt>
      <trkpt lat="47.36874" lon="0.22699">
        <ele>74</ele>
        <time>2020-08-27T09:07:23Z</time>
      </trkpt>
      <trkpt lat="47.36875" lon="0.22694">
        <ele>74</ele>
        <time>2020-08-27T09:07:26Z</time>
      </trkpt>
      <trkpt lat="47.36875" lon="0.22692">
        <ele>75</ele>
        <time>2020-08-27T09:07:28Z</time>
      </trkpt>
      <trkpt lat="47.36875" lon="0.22688">
        <ele>75</ele>
        <time>2020-08-27T09:07:30Z</time>
      </trkpt>
      <trkpt lat="47.36875" lon="0.22684">
        <ele>75</ele>
        <time>2020-08-27T09:07:32Z</time>
      </trkpt>
      <trkpt lat="47.36876" lon="0.22681">
        <ele>75</ele>
        <time>2020-08-27T09:07:34Z</time>
      </trkpt>
      <trkpt lat="47.36877" lon="0.22677">
        <ele>75</ele>
        <time>2020-08-27T09:07:36Z</time>
      </trkpt>
      <trkpt lat="47.36877" lon="0.22673">
        <ele>75</ele>
        <time>2020-08-27T09:07:38Z</time>
      </trkpt>
      <trkpt lat="47.36877" lon="0.22669">
        <ele>75</ele>
        <time>2020-08-27T09:07:40Z</time>
      </trkpt>
      <trkpt lat="47.36878" lon="0.22665">
        <ele>75</ele>
        <time>2020-08-27T09:07:42Z</time>
      </trkpt>
      <trkpt lat="47.36877" lon="0.22661">
        <ele>75</ele>
        <time>2020-08-27T09:07:44Z</time>
      </trkpt>
      <trkpt lat="47.36877" lon="0.22658">
        <ele>75</ele>
        <time>2020-08-27T09:07:46Z</time>
      </trkpt>
      <trkpt lat="47.36877" lon="0.22655">
        <ele>75</ele>
        <time>2020-08-27T09:07:48Z</time>
      </trkpt>
      <trkpt lat="47.36877" lon="0.22651">
        <ele>75</ele>
        <time>2020-08-27T09:07:50Z</time>
      </trkpt>
      <trkpt lat="47.36877" lon="0.22646">
        <ele>75</ele>
        <time>2020-08-27T09:07:52Z</time>
      </trkpt>
      <trkpt lat="47.36878" lon="0.22643">
        <ele>75</ele>
        <time>2020-08-27T09:07:55Z</time>
      </trkpt>
      <trkpt lat="47.36877" lon="0.22639">
        <ele>75</ele>
        <time>2020-08-27T09:07:58Z</time>
      </trkpt>
      <trkpt lat="47.36877" lon="0.22636">
        <ele>75</ele>
        <time>2020-08-27T09:08:00Z</time>
      </trkpt>
      <trkpt lat="47.36877" lon="0.22632">
        <ele>75</ele>
        <time>2020-08-27T09:08:02Z</time>
      </trkpt>
      <trkpt lat="47.36876" lon="0.22629">
        <ele>75</ele>
        <time>2020-08-27T09:08:04Z</time>
      </trkpt>
      <trkpt lat="47.36876" lon="0.22625">
        <ele>75</ele>
        <time>2020-08-27T09:08:06Z</time>
      </trkpt>
      <trkpt lat="47.36876" lon="0.22622">
        <ele>75</ele>
        <time>2020-08-27T09:08:08Z</time>
      </trkpt>
      <trkpt lat="47.36875" lon="0.22619">
        <ele>75</ele>
        <time>2020-08-27T09:08:10Z</time>
      </trkpt>
      <trkpt lat="47.36876" lon="0.22614">
        <ele>76</ele>
        <time>2020-08-27T09:08:13Z</time>
      </trkpt>
      <trkpt lat="47.36877" lon="0.2261">
        <ele>76</ele>
        <time>2020-08-27T09:08:15Z</time>
      </trkpt>
      <trkpt lat="47.36878" lon="0.22606">
        <ele>76</ele>
        <time>2020-08-27T09:08:17Z</time>
      </trkpt>
      <trkpt lat="47.36878" lon="0.226">
        <ele>76</ele>
        <time>2020-08-27T09:08:19Z</time>
      </trkpt>
      <trkpt lat="47.36878" lon="0.22597">
        <ele>76</ele>
        <time>2020-08-27T09:08:21Z</time>
      </trkpt>
      <trkpt lat="47.36878" lon="0.22593">
        <ele>76</ele>
        <time>2020-08-27T09:08:23Z</time>
      </trkpt>
      <trkpt lat="47.36878" lon="0.2259">
        <ele>77</ele>
        <time>2020-08-27T09:08:24Z</time>
      </trkpt>
      <trkpt lat="47.36879" lon="0.22587">
        <ele>77</ele>
        <time>2020-08-27T09:08:25Z</time>
      </trkpt>
      <trkpt lat="47.3688" lon="0.22583">
        <ele>77</ele>
        <time>2020-08-27T09:08:27Z</time>
      </trkpt>
      <trkpt lat="47.3688" lon="0.22579">
        <ele>77</ele>
        <time>2020-08-27T09:08:29Z</time>
      </trkpt>
      <trkpt lat="47.36881" lon="0.22576">
        <ele>77</ele>
        <time>2020-08-27T09:08:31Z</time>
      </trkpt>
      <trkpt lat="47.36882" lon="0.22573">
        <ele>78</ele>
        <time>2020-08-27T09:08:33Z</time>
      </trkpt>
      <trkpt lat="47.36882" lon="0.22568">
        <ele>78</ele>
        <time>2020-08-27T09:08:35Z</time>
      </trkpt>
      <trkpt lat="47.36881" lon="0.22564">
        <ele>78</ele>
        <time>2020-08-27T09:08:37Z</time>
      </trkpt>
      <trkpt lat="47.36881" lon="0.22561">
        <ele>78</ele>
        <time>2020-08-27T09:08:39Z</time>
      </trkpt>
      <trkpt lat="47.36881" lon="0.22558">
        <ele>78</ele>
        <time>2020-08-27T09:08:41Z</time>
      </trkpt>
      <trkpt lat="47.3688" lon="0.22555">
        <ele>78</ele>
        <time>2020-08-27T09:08:43Z</time>
      </trkpt>
      <trkpt lat="47.3688" lon="0.22551">
        <ele>78</ele>
        <time>2020-08-27T09:08:45Z</time>
      </trkpt>
      <trkpt lat="47.3688" lon="0.22546">
        <ele>78</ele>
        <time>2020-08-27T09:08:47Z</time>
      </trkpt>
      <trkpt lat="47.3688" lon="0.22543">
        <ele>79</ele>
        <time>2020-08-27T09:08:49Z</time>
      </trkpt>
      <trkpt lat="47.3688" lon="0.22539">
        <ele>79</ele>
        <time>2020-08-27T09:08:51Z</time>
      </trkpt>
      <trkpt lat="47.3688" lon="0.22535">
        <ele>79</ele>
        <time>2020-08-27T09:08:53Z</time>
      </trkpt>
      <trkpt lat="47.3688" lon="0.22531">
        <ele>79</ele>
        <time>2020-08-27T09:08:55Z</time>
      </trkpt>
      <trkpt lat="47.36881" lon="0.22527">
        <ele>79</ele>
        <time>2020-08-27T09:08:57Z</time>
      </trkpt>
      <trkpt lat="47.36881" lon="0.22524">
        <ele>79</ele>
        <time>2020-08-27T09:08:59Z</time>
      </trkpt>
      <trkpt lat="47.36881" lon="0.22521">
        <ele>79</ele>
        <time>2020-08-27T09:09:01Z</time>
      </trkpt>
      <trkpt lat="47.36881" lon="0.22517">
        <ele>79</ele>
        <time>2020-08-27T09:09:03Z</time>
      </trkpt>
      <trkpt lat="47.36881" lon="0.22513">
        <ele>78</ele>
        <time>2020-08-27T09:09:05Z</time>
      </trkpt>
      <trkpt lat="47.3688" lon="0.22509">
        <ele>78</ele>
        <time>2020-08-27T09:09:07Z</time>
      </trkpt>
      <trkpt lat="47.36881" lon="0.22505">
        <ele>78</ele>
        <time>2020-08-27T09:09:10Z</time>
      </trkpt>
      <trkpt lat="47.36882" lon="0.22502">
        <ele>78</ele>
        <time>2020-08-27T09:09:12Z</time>
      </trkpt>
      <trkpt lat="47.36882" lon="0.22498">
        <ele>78</ele>
        <time>2020-08-27T09:09:14Z</time>
      </trkpt>
      <trkpt lat="47.36882" lon="0.22495">
        <ele>78</ele>
        <time>2020-08-27T09:09:15Z</time>
      </trkpt>
      <trkpt lat="47.36882" lon="0.22493">
        <ele>78</ele>
        <time>2020-08-27T09:09:17Z</time>
      </trkpt>
      <trkpt lat="47.36883" lon="0.22488">
        <ele>78</ele>
        <time>2020-08-27T09:09:19Z</time>
      </trkpt>
      <trkpt lat="47.36883" lon="0.22484">
        <ele>78</ele>
        <time>2020-08-27T09:09:21Z</time>
      </trkpt>
      <trkpt lat="47.36884" lon="0.2248">
        <ele>78</ele>
        <time>2020-08-27T09:09:23Z</time>
      </trkpt>
      <trkpt lat="47.36884" lon="0.22477">
        <ele>78</ele>
        <time>2020-08-27T09:09:25Z</time>
      </trkpt>
      <trkpt lat="47.36885" lon="0.22474">
        <ele>78</ele>
        <time>2020-08-27T09:09:26Z</time>
      </trkpt>
      <trkpt lat="47.36885" lon="0.22468">
        <ele>78</ele>
        <time>2020-08-27T09:09:28Z</time>
      </trkpt>
      <trkpt lat="47.36886" lon="0.22466">
        <ele>78</ele>
        <time>2020-08-27T09:09:29Z</time>
      </trkpt>
      <trkpt lat="47.36886" lon="0.22461">
        <ele>78</ele>
        <time>2020-08-27T09:09:31Z</time>
      </trkpt>
      <trkpt lat="47.36887" lon="0.22457">
        <ele>78</ele>
        <time>2020-08-27T09:09:33Z</time>
      </trkpt>
      <trkpt lat="47.36887" lon="0.22454">
        <ele>78</ele>
        <time>2020-08-27T09:09:38Z</time>
      </trkpt>
      <trkpt lat="47.36888" lon="0.22451">
        <ele>78</ele>
        <time>2020-08-27T09:09:40Z</time>
      </trkpt>
      <trkpt lat="47.36889" lon="0.22447">
        <ele>78</ele>
        <time>2020-08-27T09:09:42Z</time>
      </trkpt>
      <trkpt lat="47.3689" lon="0.22443">
        <ele>78</ele>
        <time>2020-08-27T09:09:44Z</time>
      </trkpt>
      <trkpt lat="47.3689" lon="0.2244">
        <ele>78</ele>
        <time>2020-08-27T09:09:46Z</time>
      </trkpt>
      <trkpt lat="47.36891" lon="0.22436">
        <ele>78</ele>
        <time>2020-08-27T09:09:48Z</time>
      </trkpt>
      <trkpt lat="47.36891" lon="0.22432">
        <ele>78</ele>
        <time>2020-08-27T09:09:50Z</time>
      </trkpt>
      <trkpt lat="47.36892" lon="0.22427">
        <ele>78</ele>
        <time>2020-08-27T09:09:52Z</time>
      </trkpt>
      <trkpt lat="47.36893" lon="0.22424">
        <ele>78</ele>
        <time>2020-08-27T09:09:54Z</time>
      </trkpt>
      <trkpt lat="47.36894" lon="0.22419">
        <ele>78</ele>
        <time>2020-08-27T09:09:56Z</time>
      </trkpt>
      <trkpt lat="47.36894" lon="0.22415">
        <ele>78</ele>
        <time>2020-08-27T09:09:58Z</time>
      </trkpt>
      <trkpt lat="47.36894" lon="0.22412">
        <ele>78</ele>
        <time>2020-08-27T09:10:00Z</time>
      </trkpt>
      <trkpt lat="47.36894" lon="0.22408">
        <ele>78</ele>
        <time>2020-08-27T09:10:02Z</time>
      </trkpt>
      <trkpt lat="47.36894" lon="0.22405">
        <ele>78</ele>
        <time>2020-08-27T09:10:04Z</time>
      </trkpt>
      <trkpt lat="47.36894" lon="0.22401">
        <ele>78</ele>
        <time>2020-08-27T09:10:06Z</time>
      </trkpt>
      <trkpt lat="47.36895" lon="0.22398">
        <ele>78</ele>
        <time>2020-08-27T09:10:07Z</time>
      </trkpt>
      <trkpt lat="47.36895" lon="0.22393">
        <ele>78</ele>
        <time>2020-08-27T09:10:09Z</time>
      </trkpt>
      <trkpt lat="47.36895" lon="0.22389">
        <ele>78</ele>
        <time>2020-08-27T09:10:11Z</time>
      </trkpt>
      <trkpt lat="47.36896" lon="0.22386">
        <ele>78</ele>
        <time>2020-08-27T09:10:13Z</time>
      </trkpt>
      <trkpt lat="47.36896" lon="0.22381">
        <ele>78</ele>
        <time>2020-08-27T09:10:15Z</time>
      </trkpt>
      <trkpt lat="47.36896" lon="0.22377">
        <ele>78</ele>
        <time>2020-08-27T09:10:17Z</time>
      </trkpt>
      <trkpt lat="47.36897" lon="0.22373">
        <ele>78</ele>
        <time>2020-08-27T09:10:19Z</time>
      </trkpt>
      <trkpt lat="47.36896" lon="0.2237">
        <ele>78</ele>
        <time>2020-08-27T09:10:21Z</time>
      </trkpt>
      <trkpt lat="47.36897" lon="0.22365">
        <ele>78</ele>
        <time>2020-08-27T09:10:23Z</time>
      </trkpt>
      <trkpt lat="47.36897" lon="0.22361">
        <ele>78</ele>
        <time>2020-08-27T09:10:25Z</time>
      </trkpt>
      <trkpt lat="47.36898" lon="0.22357">
        <ele>78</ele>
        <time>2020-08-27T09:10:27Z</time>
      </trkpt>
      <trkpt lat="47.36899" lon="0.22354">
        <ele>78</ele>
        <time>2020-08-27T09:10:29Z</time>
      </trkpt>
      <trkpt lat="47.36899" lon="0.22351">
        <ele>78</ele>
        <time>2020-08-27T09:10:31Z</time>
      </trkpt>
      <trkpt lat="47.36899" lon="0.22348">
        <ele>77</ele>
        <time>2020-08-27T09:10:33Z</time>
      </trkpt>
      <trkpt lat="47.36899" lon="0.22344">
        <ele>77</ele>
        <time>2020-08-27T09:10:35Z</time>
      </trkpt>
      <trkpt lat="47.36899" lon="0.2234">
        <ele>77</ele>
        <time>2020-08-27T09:10:37Z</time>
      </trkpt>
      <trkpt lat="47.36899" lon="0.22337">
        <ele>77</ele>
        <time>2020-08-27T09:10:39Z</time>
      </trkpt>
      <trkpt lat="47.36899" lon="0.22333">
        <ele>77</ele>
        <time>2020-08-27T09:10:41Z</time>
      </trkpt>
      <trkpt lat="47.36899" lon="0.22329">
        <ele>77</ele>
        <time>2020-08-27T09:10:43Z</time>
      </trkpt>
      <trkpt lat="47.36899" lon="0.22324">
        <ele>77</ele>
        <time>2020-08-27T09:10:45Z</time>
      </trkpt>
      <trkpt lat="47.36899" lon="0.2232">
        <ele>77</ele>
        <time>2020-08-27T09:10:47Z</time>
      </trkpt>
      <trkpt lat="47.36899" lon="0.22316">
        <ele>77</ele>
        <time>2020-08-27T09:10:49Z</time>
      </trkpt>
      <trkpt lat="47.36899" lon="0.22312">
        <ele>77</ele>
        <time>2020-08-27T09:10:51Z</time>
      </trkpt>
      <trkpt lat="47.36899" lon="0.22308">
        <ele>77</ele>
        <time>2020-08-27T09:10:53Z</time>
      </trkpt>
      <trkpt lat="47.36899" lon="0.22304">
        <ele>77</ele>
        <time>2020-08-27T09:10:55Z</time>
      </trkpt>
      <trkpt lat="47.369" lon="0.223">
        <ele>77</ele>
        <time>2020-08-27T09:10:57Z</time>
      </trkpt>
      <trkpt lat="47.369" lon="0.22296">
        <ele>77</ele>
        <time>2020-08-27T09:10:59Z</time>
      </trkpt>
      <trkpt lat="47.369" lon="0.22292">
        <ele>77</ele>
        <time>2020-08-27T09:11:01Z</time>
      </trkpt>
      <trkpt lat="47.369" lon="0.22289">
        <ele>77</ele>
        <time>2020-08-27T09:11:03Z</time>
      </trkpt>
      <trkpt lat="47.36901" lon="0.22284">
        <ele>77</ele>
        <time>2020-08-27T09:11:05Z</time>
      </trkpt>
      <trkpt lat="47.36901" lon="0.2228">
        <ele>77</ele>
        <time>2020-08-27T09:11:07Z</time>
      </trkpt>
      <trkpt lat="47.36902" lon="0.22276">
        <ele>77</ele>
        <time>2020-08-27T09:11:09Z</time>
      </trkpt>
      <trkpt lat="47.36902" lon="0.22273">
        <ele>78</ele>
        <time>2020-08-27T09:11:11Z</time>
      </trkpt>
      <trkpt lat="47.36903" lon="0.22269">
        <ele>78</ele>
        <time>2020-08-27T09:11:13Z</time>
      </trkpt>
      <trkpt lat="47.36903" lon="0.22265">
        <ele>78</ele>
        <time>2020-08-27T09:11:15Z</time>
      </trkpt>
      <trkpt lat="47.36903" lon="0.22261">
        <ele>78</ele>
        <time>2020-08-27T09:11:17Z</time>
      </trkpt>
      <trkpt lat="47.36904" lon="0.22257">
        <ele>78</ele>
        <time>2020-08-27T09:11:19Z</time>
      </trkpt>
      <trkpt lat="47.36904" lon="0.22253">
        <ele>78</ele>
        <time>2020-08-27T09:11:21Z</time>
      </trkpt>
      <trkpt lat="47.36904" lon="0.22249">
        <ele>78</ele>
        <time>2020-08-27T09:11:23Z</time>
      </trkpt>
      <trkpt lat="47.36905" lon="0.22245">
        <ele>78</ele>
        <time>2020-08-27T09:11:25Z</time>
      </trkpt>
      <trkpt lat="47.36905" lon="0.22241">
        <ele>78</ele>
        <time>2020-08-27T09:11:27Z</time>
      </trkpt>
      <trkpt lat="47.36905" lon="0.22238">
        <ele>78</ele>
        <time>2020-08-27T09:11:29Z</time>
      </trkpt>
      <trkpt lat="47.36906" lon="0.22234">
        <ele>79</ele>
        <time>2020-08-27T09:11:31Z</time>
      </trkpt>
      <trkpt lat="47.36907" lon="0.2223">
        <ele>79</ele>
        <time>2020-08-27T09:11:33Z</time>
      </trkpt>
      <trkpt lat="47.36907" lon="0.22227">
        <ele>79</ele>
        <time>2020-08-27T09:11:35Z</time>
      </trkpt>
      <trkpt lat="47.36907" lon="0.22223">
        <ele>79</ele>
        <time>2020-08-27T09:11:37Z</time>
      </trkpt>
      <trkpt lat="47.36908" lon="0.22219">
        <ele>79</ele>
        <time>2020-08-27T09:11:39Z</time>
      </trkpt>
      <trkpt lat="47.36908" lon="0.22215">
        <ele>79</ele>
        <time>2020-08-27T09:11:41Z</time>
      </trkpt>
      <trkpt lat="47.36908" lon="0.22212">
        <ele>79</ele>
        <time>2020-08-27T09:11:43Z</time>
      </trkpt>
      <trkpt lat="47.36909" lon="0.22209">
        <ele>79</ele>
        <time>2020-08-27T09:11:45Z</time>
      </trkpt>
      <trkpt lat="47.3691" lon="0.22205">
        <ele>79</ele>
        <time>2020-08-27T09:11:47Z</time>
      </trkpt>
      <trkpt lat="47.3691" lon="0.22201">
        <ele>79</ele>
        <time>2020-08-27T09:11:49Z</time>
      </trkpt>
      <trkpt lat="47.36911" lon="0.22198">
        <ele>79</ele>
        <time>2020-08-27T09:11:51Z</time>
      </trkpt>
      <trkpt lat="47.36911" lon="0.22195">
        <ele>79</ele>
        <time>2020-08-27T09:11:53Z</time>
      </trkpt>
      <trkpt lat="47.36911" lon="0.22191">
        <ele>79</ele>
        <time>2020-08-27T09:11:55Z</time>
      </trkpt>
      <trkpt lat="47.36912" lon="0.22187">
        <ele>79</ele>
        <time>2020-08-27T09:11:57Z</time>
      </trkpt>
      <trkpt lat="47.36913" lon="0.22182">
        <ele>79</ele>
        <time>2020-08-27T09:11:59Z</time>
      </trkpt>
      <trkpt lat="47.36913" lon="0.22177">
        <ele>79</ele>
        <time>2020-08-27T09:12:01Z</time>
      </trkpt>
      <trkpt lat="47.36913" lon="0.22173">
        <ele>79</ele>
        <time>2020-08-27T09:12:03Z</time>
      </trkpt>
      <trkpt lat="47.36914" lon="0.22168">
        <ele>79</ele>
        <time>2020-08-27T09:12:05Z</time>
      </trkpt>
      <trkpt lat="47.36914" lon="0.22165">
        <ele>79</ele>
        <time>2020-08-27T09:12:07Z</time>
      </trkpt>
      <trkpt lat="47.36915" lon="0.22161">
        <ele>79</ele>
        <time>2020-08-27T09:12:09Z</time>
      </trkpt>
      <trkpt lat="47.36916" lon="0.22157">
        <ele>79</ele>
        <time>2020-08-27T09:12:11Z</time>
      </trkpt>
      <trkpt lat="47.36917" lon="0.22153">
        <ele>80</ele>
        <time>2020-08-27T09:12:13Z</time>
      </trkpt>
      <trkpt lat="47.36917" lon="0.22149">
        <ele>80</ele>
        <time>2020-08-27T09:12:16Z</time>
      </trkpt>
      <trkpt lat="47.36918" lon="0.22144">
        <ele>80</ele>
        <time>2020-08-27T09:12:18Z</time>
      </trkpt>
      <trkpt lat="47.36918" lon="0.22141">
        <ele>80</ele>
        <time>2020-08-27T09:12:20Z</time>
      </trkpt>
      <trkpt lat="47.36917" lon="0.22138">
        <ele>80</ele>
        <time>2020-08-27T09:12:22Z</time>
      </trkpt>
      <trkpt lat="47.36918" lon="0.22135">
        <ele>80</ele>
        <time>2020-08-27T09:12:24Z</time>
      </trkpt>
      <trkpt lat="47.36918" lon="0.22131">
        <ele>80</ele>
        <time>2020-08-27T09:12:26Z</time>
      </trkpt>
      <trkpt lat="47.36918" lon="0.22128">
        <ele>80</ele>
        <time>2020-08-27T09:12:28Z</time>
      </trkpt>
      <trkpt lat="47.36918" lon="0.22124">
        <ele>80</ele>
        <time>2020-08-27T09:12:30Z</time>
      </trkpt>
      <trkpt lat="47.36918" lon="0.2212">
        <ele>80</ele>
        <time>2020-08-27T09:12:32Z</time>
      </trkpt>
      <trkpt lat="47.36918" lon="0.22116">
        <ele>81</ele>
        <time>2020-08-27T09:12:34Z</time>
      </trkpt>
      <trkpt lat="47.36918" lon="0.22112">
        <ele>81</ele>
        <time>2020-08-27T09:12:36Z</time>
      </trkpt>
      <trkpt lat="47.36917" lon="0.22108">
        <ele>81</ele>
        <time>2020-08-27T09:12:38Z</time>
      </trkpt>
      <trkpt lat="47.36918" lon="0.22104">
        <ele>81</ele>
        <time>2020-08-27T09:12:40Z</time>
      </trkpt>
      <trkpt lat="47.36918" lon="0.22099">
        <ele>81</ele>
        <time>2020-08-27T09:12:42Z</time>
      </trkpt>
      <trkpt lat="47.36918" lon="0.22094">
        <ele>81</ele>
        <time>2020-08-27T09:12:44Z</time>
      </trkpt>
      <trkpt lat="47.36918" lon="0.22089">
        <ele>81</ele>
        <time>2020-08-27T09:12:46Z</time>
      </trkpt>
      <trkpt lat="47.36918" lon="0.22084">
        <ele>81</ele>
        <time>2020-08-27T09:12:48Z</time>
      </trkpt>
      <trkpt lat="47.36917" lon="0.22081">
        <ele>81</ele>
        <time>2020-08-27T09:12:50Z</time>
      </trkpt>
      <trkpt lat="47.36918" lon="0.22078">
        <ele>81</ele>
        <time>2020-08-27T09:12:52Z</time>
      </trkpt>
      <trkpt lat="47.36918" lon="0.22074">
        <ele>81</ele>
        <time>2020-08-27T09:12:54Z</time>
      </trkpt>
      <trkpt lat="47.36918" lon="0.22071">
        <ele>81</ele>
        <time>2020-08-27T09:12:56Z</time>
      </trkpt>
      <trkpt lat="47.36918" lon="0.22067">
        <ele>81</ele>
        <time>2020-08-27T09:12:58Z</time>
      </trkpt>
      <trkpt lat="47.36918" lon="0.22063">
        <ele>81</ele>
        <time>2020-08-27T09:13:00Z</time>
      </trkpt>
      <trkpt lat="47.36917" lon="0.22059">
        <ele>81</ele>
        <time>2020-08-27T09:13:02Z</time>
      </trkpt>
      <trkpt lat="47.36917" lon="0.22055">
        <ele>81</ele>
        <time>2020-08-27T09:13:04Z</time>
      </trkpt>
      <trkpt lat="47.36917" lon="0.22051">
        <ele>81</ele>
        <time>2020-08-27T09:13:06Z</time>
      </trkpt>
      <trkpt lat="47.36917" lon="0.22047">
        <ele>81</ele>
        <time>2020-08-27T09:13:08Z</time>
      </trkpt>
      <trkpt lat="47.36917" lon="0.22043">
        <ele>81</ele>
        <time>2020-08-27T09:13:10Z</time>
      </trkpt>
      <trkpt lat="47.36917" lon="0.22039">
        <ele>81</ele>
        <time>2020-08-27T09:13:12Z</time>
      </trkpt>
      <trkpt lat="47.36917" lon="0.22035">
        <ele>81</ele>
        <time>2020-08-27T09:13:14Z</time>
      </trkpt>
      <trkpt lat="47.36918" lon="0.22032">
        <ele>81</ele>
        <time>2020-08-27T09:13:16Z</time>
      </trkpt>
      <trkpt lat="47.36918" lon="0.22027">
        <ele>81</ele>
        <time>2020-08-27T09:13:18Z</time>
      </trkpt>
      <trkpt lat="47.36918" lon="0.22024">
        <ele>81</ele>
        <time>2020-08-27T09:13:20Z</time>
      </trkpt>
      <trkpt lat="47.36918" lon="0.2202">
        <ele>80</ele>
        <time>2020-08-27T09:13:22Z</time>
      </trkpt>
      <trkpt lat="47.36918" lon="0.22016">
        <ele>80</ele>
        <time>2020-08-27T09:13:24Z</time>
      </trkpt>
      <trkpt lat="47.36918" lon="0.22013">
        <ele>80</ele>
        <time>2020-08-27T09:13:26Z</time>
      </trkpt>
      <trkpt lat="47.36918" lon="0.22009">
        <ele>80</ele>
        <time>2020-08-27T09:13:28Z</time>
      </trkpt>
      <trkpt lat="47.36918" lon="0.22005">
        <ele>80</ele>
        <time>2020-08-27T09:13:30Z</time>
      </trkpt>
      <trkpt lat="47.36918" lon="0.22002">
        <ele>80</ele>
        <time>2020-08-27T09:13:32Z</time>
      </trkpt>
      <trkpt lat="47.36918" lon="0.21999">
        <ele>80</ele>
        <time>2020-08-27T09:13:34Z</time>
      </trkpt>
      <trkpt lat="47.36919" lon="0.21995">
        <ele>80</ele>
        <time>2020-08-27T09:13:36Z</time>
      </trkpt>
      <trkpt lat="47.36919" lon="0.21992">
        <ele>80</ele>
        <time>2020-08-27T09:13:38Z</time>
      </trkpt>
      <trkpt lat="47.36919" lon="0.21987">
        <ele>80</ele>
        <time>2020-08-27T09:13:40Z</time>
      </trkpt>
      <trkpt lat="47.36919" lon="0.21983">
        <ele>80</ele>
        <time>2020-08-27T09:13:42Z</time>
      </trkpt>
      <trkpt lat="47.3692" lon="0.21979">
        <ele>80</ele>
        <time>2020-08-27T09:13:44Z</time>
      </trkpt>
      <trkpt lat="47.3692" lon="0.21974">
        <ele>80</ele>
        <time>2020-08-27T09:13:46Z</time>
      </trkpt>
      <trkpt lat="47.3692" lon="0.21969">
        <ele>80</ele>
        <time>2020-08-27T09:13:48Z</time>
      </trkpt>
      <trkpt lat="47.36919" lon="0.21966">
        <ele>80</ele>
        <time>2020-08-27T09:13:49Z</time>
      </trkpt>
      <trkpt lat="47.36919" lon="0.21961">
        <ele>80</ele>
        <time>2020-08-27T09:13:51Z</time>
      </trkpt>
      <trkpt lat="47.3692" lon="0.21957">
        <ele>80</ele>
        <time>2020-08-27T09:13:53Z</time>
      </trkpt>
      <trkpt lat="47.3692" lon="0.21953">
        <ele>80</ele>
        <time>2020-08-27T09:13:55Z</time>
      </trkpt>
      <trkpt lat="47.3692" lon="0.21949">
        <ele>80</ele>
        <time>2020-08-27T09:13:57Z</time>
      </trkpt>
      <trkpt lat="47.36919" lon="0.21946">
        <ele>80</ele>
        <time>2020-08-27T09:13:59Z</time>
      </trkpt>
      <trkpt lat="47.3692" lon="0.21942">
        <ele>80</ele>
        <time>2020-08-27T09:14:01Z</time>
      </trkpt>
      <trkpt lat="47.3692" lon="0.21938">
        <ele>80</ele>
        <time>2020-08-27T09:14:03Z</time>
      </trkpt>
      <trkpt lat="47.36921" lon="0.21935">
        <ele>80</ele>
        <time>2020-08-27T09:14:05Z</time>
      </trkpt>
      <trkpt lat="47.36921" lon="0.21932">
        <ele>80</ele>
        <time>2020-08-27T09:14:07Z</time>
      </trkpt>
      <trkpt lat="47.36922" lon="0.21928">
        <ele>80</ele>
        <time>2020-08-27T09:14:09Z</time>
      </trkpt>
      <trkpt lat="47.36922" lon="0.21921">
        <ele>79</ele>
        <time>2020-08-27T09:14:12Z</time>
      </trkpt>
      <trkpt lat="47.36923" lon="0.21919">
        <ele>79</ele>
        <time>2020-08-27T09:14:14Z</time>
      </trkpt>
      <trkpt lat="47.36923" lon="0.21915">
        <ele>79</ele>
        <time>2020-08-27T09:14:16Z</time>
      </trkpt>
      <trkpt lat="47.36924" lon="0.2191">
        <ele>79</ele>
        <time>2020-08-27T09:14:18Z</time>
      </trkpt>
      <trkpt lat="47.36925" lon="0.21906">
        <ele>79</ele>
        <time>2020-08-27T09:14:20Z</time>
      </trkpt>
      <trkpt lat="47.36926" lon="0.21902">
        <ele>79</ele>
        <time>2020-08-27T09:14:22Z</time>
      </trkpt>
      <trkpt lat="47.36927" lon="0.21898">
        <ele>79</ele>
        <time>2020-08-27T09:14:24Z</time>
      </trkpt>
      <trkpt lat="47.36928" lon="0.21894">
        <ele>79</ele>
        <time>2020-08-27T09:14:26Z</time>
      </trkpt>
      <trkpt lat="47.36929" lon="0.21891">
        <ele>78</ele>
        <time>2020-08-27T09:14:28Z</time>
      </trkpt>
      <trkpt lat="47.3693" lon="0.21887">
        <ele>78</ele>
        <time>2020-08-27T09:14:30Z</time>
      </trkpt>
      <trkpt lat="47.36931" lon="0.21883">
        <ele>78</ele>
        <time>2020-08-27T09:14:32Z</time>
      </trkpt>
      <trkpt lat="47.36933" lon="0.2188">
        <ele>78</ele>
        <time>2020-08-27T09:14:34Z</time>
      </trkpt>
      <trkpt lat="47.36934" lon="0.21877">
        <ele>78</ele>
        <time>2020-08-27T09:14:36Z</time>
      </trkpt>
      <trkpt lat="47.36935" lon="0.21874">
        <ele>78</ele>
        <time>2020-08-27T09:14:38Z</time>
      </trkpt>
      <trkpt lat="47.36936" lon="0.21871">
        <ele>78</ele>
        <time>2020-08-27T09:14:40Z</time>
      </trkpt>
      <trkpt lat="47.36938" lon="0.21868">
        <ele>78</ele>
        <time>2020-08-27T09:14:42Z</time>
      </trkpt>
      <trkpt lat="47.36939" lon="0.21864">
        <ele>77</ele>
        <time>2020-08-27T09:14:45Z</time>
      </trkpt>
      <trkpt lat="47.3694" lon="0.21862">
        <ele>77</ele>
        <time>2020-08-27T09:14:47Z</time>
      </trkpt>
      <trkpt lat="47.3694" lon="0.21859">
        <ele>77</ele>
        <time>2020-08-27T09:14:49Z</time>
      </trkpt>
      <trkpt lat="47.36943" lon="0.21854">
        <ele>77</ele>
        <time>2020-08-27T09:14:51Z</time>
      </trkpt>
      <trkpt lat="47.36944" lon="0.21851">
        <ele>77</ele>
        <time>2020-08-27T09:14:53Z</time>
      </trkpt>
      <trkpt lat="47.36947" lon="0.21847">
        <ele>77</ele>
        <time>2020-08-27T09:14:55Z</time>
      </trkpt>
      <trkpt lat="47.36948" lon="0.21844">
        <ele>76</ele>
        <time>2020-08-27T09:14:57Z</time>
      </trkpt>
      <trkpt lat="47.3695" lon="0.21841">
        <ele>76</ele>
        <time>2020-08-27T09:14:59Z</time>
      </trkpt>
      <trkpt lat="47.36952" lon="0.21837">
        <ele>76</ele>
        <time>2020-08-27T09:15:01Z</time>
      </trkpt>
      <trkpt lat="47.36954" lon="0.21834">
        <ele>76</ele>
        <time>2020-08-27T09:15:03Z</time>
      </trkpt>
      <trkpt lat="47.36956" lon="0.21832">
        <ele>76</ele>
        <time>2020-08-27T09:15:05Z</time>
      </trkpt>
      <trkpt lat="47.36958" lon="0.21829">
        <ele>76</ele>
        <time>2020-08-27T09:15:07Z</time>
      </trkpt>
      <trkpt lat="47.36961" lon="0.21826">
        <ele>76</ele>
        <time>2020-08-27T09:15:09Z</time>
      </trkpt>
      <trkpt lat="47.36963" lon="0.21824">
        <ele>77</ele>
        <time>2020-08-27T09:15:11Z</time>
      </trkpt>
      <trkpt lat="47.36965" lon="0.21822">
        <ele>77</ele>
        <time>2020-08-27T09:15:13Z</time>
      </trkpt>
      <trkpt lat="47.36967" lon="0.2182">
        <ele>77</ele>
        <time>2020-08-27T09:15:15Z</time>
      </trkpt>
      <trkpt lat="47.36969" lon="0.21817">
        <ele>77</ele>
        <time>2020-08-27T09:15:17Z</time>
      </trkpt>
      <trkpt lat="47.36971" lon="0.21814">
        <ele>77</ele>
        <time>2020-08-27T09:15:19Z</time>
      </trkpt>
      <trkpt lat="47.36973" lon="0.21811">
        <ele>77</ele>
        <time>2020-08-27T09:15:21Z</time>
      </trkpt>
      <trkpt lat="47.36974" lon="0.21808">
        <ele>77</ele>
        <time>2020-08-27T09:15:23Z</time>
      </trkpt>
      <trkpt lat="47.36976" lon="0.21805">
        <ele>77</ele>
        <time>2020-08-27T09:15:25Z</time>
      </trkpt>
      <trkpt lat="47.36978" lon="0.21801">
        <ele>77</ele>
        <time>2020-08-27T09:15:27Z</time>
      </trkpt>
      <trkpt lat="47.3698" lon="0.21797">
        <ele>77</ele>
        <time>2020-08-27T09:15:29Z</time>
      </trkpt>
      <trkpt lat="47.36981" lon="0.21793">
        <ele>76</ele>
        <time>2020-08-27T09:15:31Z</time>
      </trkpt>
      <trkpt lat="47.36982" lon="0.2179">
        <ele>76</ele>
        <time>2020-08-27T09:15:33Z</time>
      </trkpt>
      <trkpt lat="47.36983" lon="0.21786">
        <ele>76</ele>
        <time>2020-08-27T09:15:35Z</time>
      </trkpt>
      <trkpt lat="47.36984" lon="0.21783">
        <ele>76</ele>
        <time>2020-08-27T09:15:37Z</time>
      </trkpt>
      <trkpt lat="47.36986" lon="0.2178">
        <ele>76</ele>
        <time>2020-08-27T09:15:39Z</time>
      </trkpt>
      <trkpt lat="47.36987" lon="0.21777">
        <ele>76</ele>
        <time>2020-08-27T09:15:41Z</time>
      </trkpt>
      <trkpt lat="47.36988" lon="0.21774">
        <ele>76</ele>
        <time>2020-08-27T09:15:43Z</time>
      </trkpt>
      <trkpt lat="47.36989" lon="0.2177">
        <ele>76</ele>
        <time>2020-08-27T09:15:45Z</time>
      </trkpt>
      <trkpt lat="47.3699" lon="0.21767">
        <ele>76</ele>
        <time>2020-08-27T09:15:47Z</time>
      </trkpt>
      <trkpt lat="47.36991" lon="0.21764">
        <ele>76</ele>
        <time>2020-08-27T09:15:49Z</time>
      </trkpt>
      <trkpt lat="47.36991" lon="0.2176">
        <ele>76</ele>
        <time>2020-08-27T09:15:51Z</time>
      </trkpt>
      <trkpt lat="47.36991" lon="0.21755">
        <ele>76</ele>
        <time>2020-08-27T09:15:53Z</time>
      </trkpt>
      <trkpt lat="47.36991" lon="0.21751">
        <ele>76</ele>
        <time>2020-08-27T09:15:55Z</time>
      </trkpt>
      <trkpt lat="47.36991" lon="0.21746">
        <ele>76</ele>
        <time>2020-08-27T09:15:57Z</time>
      </trkpt>
      <trkpt lat="47.36991" lon="0.21742">
        <ele>76</ele>
        <time>2020-08-27T09:15:59Z</time>
      </trkpt>
      <trkpt lat="47.36992" lon="0.21738">
        <ele>76</ele>
        <time>2020-08-27T09:16:01Z</time>
      </trkpt>
      <trkpt lat="47.36992" lon="0.21736">
        <ele>76</ele>
        <time>2020-08-27T09:16:03Z</time>
      </trkpt>
      <trkpt lat="47.36992" lon="0.21732">
        <ele>76</ele>
        <time>2020-08-27T09:16:05Z</time>
      </trkpt>
      <trkpt lat="47.36993" lon="0.21728">
        <ele>76</ele>
        <time>2020-08-27T09:16:07Z</time>
      </trkpt>
      <trkpt lat="47.36993" lon="0.21723">
        <ele>76</ele>
        <time>2020-08-27T09:16:09Z</time>
      </trkpt>
      <trkpt lat="47.36993" lon="0.2172">
        <ele>76</ele>
        <time>2020-08-27T09:16:11Z</time>
      </trkpt>
      <trkpt lat="47.36993" lon="0.21716">
        <ele>76</ele>
        <time>2020-08-27T09:16:13Z</time>
      </trkpt>
      <trkpt lat="47.36992" lon="0.21712">
        <ele>76</ele>
        <time>2020-08-27T09:16:15Z</time>
      </trkpt>
      <trkpt lat="47.36992" lon="0.21708">
        <ele>76</ele>
        <time>2020-08-27T09:16:17Z</time>
      </trkpt>
      <trkpt lat="47.36992" lon="0.21705">
        <ele>76</ele>
        <time>2020-08-27T09:16:19Z</time>
      </trkpt>
      <trkpt lat="47.36991" lon="0.21701">
        <ele>76</ele>
        <time>2020-08-27T09:16:21Z</time>
      </trkpt>
      <trkpt lat="47.36992" lon="0.21698">
        <ele>76</ele>
        <time>2020-08-27T09:16:23Z</time>
      </trkpt>
      <trkpt lat="47.36992" lon="0.21694">
        <ele>77</ele>
        <time>2020-08-27T09:16:25Z</time>
      </trkpt>
      <trkpt lat="47.36992" lon="0.2169">
        <ele>77</ele>
        <time>2020-08-27T09:16:27Z</time>
      </trkpt>
      <trkpt lat="47.36991" lon="0.21686">
        <ele>77</ele>
        <time>2020-08-27T09:16:29Z</time>
      </trkpt>
      <trkpt lat="47.36991" lon="0.21681">
        <ele>76</ele>
        <time>2020-08-27T09:16:31Z</time>
      </trkpt>
      <trkpt lat="47.36991" lon="0.21677">
        <ele>76</ele>
        <time>2020-08-27T09:16:33Z</time>
      </trkpt>
      <trkpt lat="47.3699" lon="0.21674">
        <ele>76</ele>
        <time>2020-08-27T09:16:35Z</time>
      </trkpt>
      <trkpt lat="47.3699" lon="0.2167">
        <ele>76</ele>
        <time>2020-08-27T09:16:37Z</time>
      </trkpt>
      <trkpt lat="47.3699" lon="0.21666">
        <ele>76</ele>
        <time>2020-08-27T09:16:39Z</time>
      </trkpt>
      <trkpt lat="47.3699" lon="0.21662">
        <ele>77</ele>
        <time>2020-08-27T09:16:41Z</time>
      </trkpt>
      <trkpt lat="47.3699" lon="0.21658">
        <ele>77</ele>
        <time>2020-08-27T09:16:43Z</time>
      </trkpt>
      <trkpt lat="47.3699" lon="0.21654">
        <ele>77</ele>
        <time>2020-08-27T09:16:45Z</time>
      </trkpt>
      <trkpt lat="47.36989" lon="0.21651">
        <ele>78</ele>
        <time>2020-08-27T09:16:47Z</time>
      </trkpt>
      <trkpt lat="47.36989" lon="0.21647">
        <ele>78</ele>
        <time>2020-08-27T09:16:49Z</time>
      </trkpt>
      <trkpt lat="47.36989" lon="0.21643">
        <ele>78</ele>
        <time>2020-08-27T09:16:51Z</time>
      </trkpt>
      <trkpt lat="47.36989" lon="0.2164">
        <ele>78</ele>
        <time>2020-08-27T09:16:53Z</time>
      </trkpt>
      <trkpt lat="47.36989" lon="0.21637">
        <ele>78</ele>
        <time>2020-08-27T09:16:55Z</time>
      </trkpt>
      <trkpt lat="47.36988" lon="0.21633">
        <ele>79</ele>
        <time>2020-08-27T09:16:57Z</time>
      </trkpt>
      <trkpt lat="47.36988" lon="0.21629">
        <ele>79</ele>
        <time>2020-08-27T09:16:59Z</time>
      </trkpt>
      <trkpt lat="47.36988" lon="0.21625">
        <ele>79</ele>
        <time>2020-08-27T09:17:01Z</time>
      </trkpt>
      <trkpt lat="47.36987" lon="0.21621">
        <ele>79</ele>
        <time>2020-08-27T09:17:03Z</time>
      </trkpt>
      <trkpt lat="47.36987" lon="0.21617">
        <ele>80</ele>
        <time>2020-08-27T09:17:05Z</time>
      </trkpt>
      <trkpt lat="47.36987" lon="0.21613">
        <ele>80</ele>
        <time>2020-08-27T09:17:07Z</time>
      </trkpt>
      <trkpt lat="47.36987" lon="0.21609">
        <ele>80</ele>
        <time>2020-08-27T09:17:09Z</time>
      </trkpt>
      <trkpt lat="47.36987" lon="0.21606">
        <ele>80</ele>
        <time>2020-08-27T09:17:11Z</time>
      </trkpt>
      <trkpt lat="47.36986" lon="0.21603">
        <ele>80</ele>
        <time>2020-08-27T09:17:13Z</time>
      </trkpt>
      <trkpt lat="47.36985" lon="0.21599">
        <ele>81</ele>
        <time>2020-08-27T09:17:15Z</time>
      </trkpt>
      <trkpt lat="47.36984" lon="0.21596">
        <ele>81</ele>
        <time>2020-08-27T09:17:17Z</time>
      </trkpt>
      <trkpt lat="47.36983" lon="0.21593">
        <ele>81</ele>
        <time>2020-08-27T09:17:19Z</time>
      </trkpt>
      <trkpt lat="47.36982" lon="0.2159">
        <ele>81</ele>
        <time>2020-08-27T09:17:21Z</time>
      </trkpt>
      <trkpt lat="47.36981" lon="0.21586">
        <ele>81</ele>
        <time>2020-08-27T09:17:23Z</time>
      </trkpt>
      <trkpt lat="47.3698" lon="0.21583">
        <ele>81</ele>
        <time>2020-08-27T09:17:25Z</time>
      </trkpt>
      <trkpt lat="47.3698" lon="0.21579">
        <ele>81</ele>
        <time>2020-08-27T09:17:27Z</time>
      </trkpt>
      <trkpt lat="47.3698" lon="0.21575">
        <ele>82</ele>
        <time>2020-08-27T09:17:29Z</time>
      </trkpt>
      <trkpt lat="47.36979" lon="0.21571">
        <ele>82</ele>
        <time>2020-08-27T09:17:31Z</time>
      </trkpt>
      <trkpt lat="47.36978" lon="0.21568">
        <ele>82</ele>
        <time>2020-08-27T09:17:33Z</time>
      </trkpt>
      <trkpt lat="47.36978" lon="0.21565">
        <ele>82</ele>
        <time>2020-08-27T09:17:35Z</time>
      </trkpt>
      <trkpt lat="47.36977" lon="0.21562">
        <ele>82</ele>
        <time>2020-08-27T09:17:37Z</time>
      </trkpt>
      <trkpt lat="47.36977" lon="0.21559">
        <ele>83</ele>
        <time>2020-08-27T09:17:39Z</time>
      </trkpt>
      <trkpt lat="47.36976" lon="0.21556">
        <ele>83</ele>
        <time>2020-08-27T09:17:41Z</time>
      </trkpt>
      <trkpt lat="47.36975" lon="0.21553">
        <ele>83</ele>
        <time>2020-08-27T09:17:43Z</time>
      </trkpt>
      <trkpt lat="47.36974" lon="0.21549">
        <ele>83</ele>
        <time>2020-08-27T09:17:45Z</time>
      </trkpt>
      <trkpt lat="47.36973" lon="0.21546">
        <ele>83</ele>
        <time>2020-08-27T09:17:47Z</time>
      </trkpt>
      <trkpt lat="47.36972" lon="0.21542">
        <ele>83</ele>
        <time>2020-08-27T09:17:49Z</time>
      </trkpt>
      <trkpt lat="47.36972" lon="0.21538">
        <ele>83</ele>
        <time>2020-08-27T09:17:51Z</time>
      </trkpt>
      <trkpt lat="47.36972" lon="0.21535">
        <ele>83</ele>
        <time>2020-08-27T09:17:53Z</time>
      </trkpt>
      <trkpt lat="47.36971" lon="0.21531">
        <ele>83</ele>
        <time>2020-08-27T09:17:55Z</time>
      </trkpt>
      <trkpt lat="47.3697" lon="0.21528">
        <ele>83</ele>
        <time>2020-08-27T09:17:57Z</time>
      </trkpt>
      <trkpt lat="47.36969" lon="0.21524">
        <ele>83</ele>
        <time>2020-08-27T09:17:59Z</time>
      </trkpt>
      <trkpt lat="47.36969" lon="0.21521">
        <ele>83</ele>
        <time>2020-08-27T09:18:01Z</time>
      </trkpt>
      <trkpt lat="47.36968" lon="0.21517">
        <ele>83</ele>
        <time>2020-08-27T09:18:03Z</time>
      </trkpt>
      <trkpt lat="47.36968" lon="0.21514">
        <ele>83</ele>
        <time>2020-08-27T09:18:05Z</time>
      </trkpt>
      <trkpt lat="47.36968" lon="0.2151">
        <ele>83</ele>
        <time>2020-08-27T09:18:07Z</time>
      </trkpt>
      <trkpt lat="47.36968" lon="0.21507">
        <ele>83</ele>
        <time>2020-08-27T09:18:09Z</time>
      </trkpt>
      <trkpt lat="47.36967" lon="0.21503">
        <ele>83</ele>
        <time>2020-08-27T09:18:11Z</time>
      </trkpt>
      <trkpt lat="47.36967" lon="0.215">
        <ele>83</ele>
        <time>2020-08-27T09:18:13Z</time>
      </trkpt>
      <trkpt lat="47.36967" lon="0.21496">
        <ele>83</ele>
        <time>2020-08-27T09:18:15Z</time>
      </trkpt>
      <trkpt lat="47.36966" lon="0.21492">
        <ele>83</ele>
        <time>2020-08-27T09:18:17Z</time>
      </trkpt>
      <trkpt lat="47.36966" lon="0.21488">
        <ele>82</ele>
        <time>2020-08-27T09:18:19Z</time>
      </trkpt>
      <trkpt lat="47.36965" lon="0.21484">
        <ele>82</ele>
        <time>2020-08-27T09:18:21Z</time>
      </trkpt>
      <trkpt lat="47.36965" lon="0.21481">
        <ele>82</ele>
        <time>2020-08-27T09:18:23Z</time>
      </trkpt>
      <trkpt lat="47.36965" lon="0.21478">
        <ele>82</ele>
        <time>2020-08-27T09:18:25Z</time>
      </trkpt>
      <trkpt lat="47.36964" lon="0.21474">
        <ele>82</ele>
        <time>2020-08-27T09:18:27Z</time>
      </trkpt>
      <trkpt lat="47.36964" lon="0.2147">
        <ele>82</ele>
        <time>2020-08-27T09:18:29Z</time>
      </trkpt>
      <trkpt lat="47.36963" lon="0.21467">
        <ele>82</ele>
        <time>2020-08-27T09:18:31Z</time>
      </trkpt>
      <trkpt lat="47.36963" lon="0.21463">
        <ele>82</ele>
        <time>2020-08-27T09:18:33Z</time>
      </trkpt>
      <trkpt lat="47.36963" lon="0.21459">
        <ele>81</ele>
        <time>2020-08-27T09:18:35Z</time>
      </trkpt>
      <trkpt lat="47.36963" lon="0.21455">
        <ele>81</ele>
        <time>2020-08-27T09:18:37Z</time>
      </trkpt>
      <trkpt lat="47.36963" lon="0.21451">
        <ele>81</ele>
        <time>2020-08-27T09:18:39Z</time>
      </trkpt>
      <trkpt lat="47.36963" lon="0.21448">
        <ele>81</ele>
        <time>2020-08-27T09:18:41Z</time>
      </trkpt>
      <trkpt lat="47.36964" lon="0.21445">
        <ele>81</ele>
        <time>2020-08-27T09:18:43Z</time>
      </trkpt>
      <trkpt lat="47.36964" lon="0.21442">
        <ele>81</ele>
        <time>2020-08-27T09:18:45Z</time>
      </trkpt>
      <trkpt lat="47.36964" lon="0.21439">
        <ele>81</ele>
        <time>2020-08-27T09:18:47Z</time>
      </trkpt>
      <trkpt lat="47.36964" lon="0.21435">
        <ele>81</ele>
        <time>2020-08-27T09:18:50Z</time>
      </trkpt>
      <trkpt lat="47.36964" lon="0.21432">
        <ele>80</ele>
        <time>2020-08-27T09:18:52Z</time>
      </trkpt>
      <trkpt lat="47.36963" lon="0.21429">
        <ele>80</ele>
        <time>2020-08-27T09:18:54Z</time>
      </trkpt>
      <trkpt lat="47.36963" lon="0.21425">
        <ele>80</ele>
        <time>2020-08-27T09:18:56Z</time>
      </trkpt>
      <trkpt lat="47.36963" lon="0.2142">
        <ele>80</ele>
        <time>2020-08-27T09:18:58Z</time>
      </trkpt>
      <trkpt lat="47.36963" lon="0.21416">
        <ele>80</ele>
        <time>2020-08-27T09:19:00Z</time>
      </trkpt>
      <trkpt lat="47.36963" lon="0.21411">
        <ele>80</ele>
        <time>2020-08-27T09:19:02Z</time>
      </trkpt>
      <trkpt lat="47.36963" lon="0.21407">
        <ele>80</ele>
        <time>2020-08-27T09:19:04Z</time>
      </trkpt>
      <trkpt lat="47.36963" lon="0.21403">
        <ele>79</ele>
        <time>2020-08-27T09:19:06Z</time>
      </trkpt>
      <trkpt lat="47.36963" lon="0.21399">
        <ele>79</ele>
        <time>2020-08-27T09:19:08Z</time>
      </trkpt>
      <trkpt lat="47.36962" lon="0.21395">
        <ele>79</ele>
        <time>2020-08-27T09:19:10Z</time>
      </trkpt>
      <trkpt lat="47.36962" lon="0.21391">
        <ele>79</ele>
        <time>2020-08-27T09:19:12Z</time>
      </trkpt>
      <trkpt lat="47.36962" lon="0.21387">
        <ele>79</ele>
        <time>2020-08-27T09:19:14Z</time>
      </trkpt>
      <trkpt lat="47.36962" lon="0.21383">
        <ele>79</ele>
        <time>2020-08-27T09:19:16Z</time>
      </trkpt>
      <trkpt lat="47.36962" lon="0.21379">
        <ele>79</ele>
        <time>2020-08-27T09:19:18Z</time>
      </trkpt>
      <trkpt lat="47.36962" lon="0.21375">
        <ele>78</ele>
        <time>2020-08-27T09:19:20Z</time>
      </trkpt>
      <trkpt lat="47.36962" lon="0.21372">
        <ele>78</ele>
        <time>2020-08-27T09:19:22Z</time>
      </trkpt>
      <trkpt lat="47.36962" lon="0.21368">
        <ele>78</ele>
        <time>2020-08-27T09:19:24Z</time>
      </trkpt>
      <trkpt lat="47.36962" lon="0.21363">
        <ele>78</ele>
        <time>2020-08-27T09:19:26Z</time>
      </trkpt>
      <trkpt lat="47.36963" lon="0.2136">
        <ele>78</ele>
        <time>2020-08-27T09:19:28Z</time>
      </trkpt>
      <trkpt lat="47.36963" lon="0.21357">
        <ele>78</ele>
        <time>2020-08-27T09:19:30Z</time>
      </trkpt>
      <trkpt lat="47.36963" lon="0.21352">
        <ele>78</ele>
        <time>2020-08-27T09:19:32Z</time>
      </trkpt>
      <trkpt lat="47.36963" lon="0.21348">
        <ele>78</ele>
        <time>2020-08-27T09:19:34Z</time>
      </trkpt>
      <trkpt lat="47.36963" lon="0.21345">
        <ele>78</ele>
        <time>2020-08-27T09:19:36Z</time>
      </trkpt>
      <trkpt lat="47.36963" lon="0.21342">
        <ele>78</ele>
        <time>2020-08-27T09:19:38Z</time>
      </trkpt>
      <trkpt lat="47.36963" lon="0.21338">
        <ele>78</ele>
        <time>2020-08-27T09:19:40Z</time>
      </trkpt>
      <trkpt lat="47.36963" lon="0.21335">
        <ele>78</ele>
        <time>2020-08-27T09:19:42Z</time>
      </trkpt>
      <trkpt lat="47.36963" lon="0.21332">
        <ele>79</ele>
        <time>2020-08-27T09:19:44Z</time>
      </trkpt>
      <trkpt lat="47.36964" lon="0.2133">
        <ele>79</ele>
        <time>2020-08-27T09:19:46Z</time>
      </trkpt>
      <trkpt lat="47.36964" lon="0.21325">
        <ele>79</ele>
        <time>2020-08-27T09:19:48Z</time>
      </trkpt>
      <trkpt lat="47.36963" lon="0.21321">
        <ele>79</ele>
        <time>2020-08-27T09:19:50Z</time>
      </trkpt>
      <trkpt lat="47.36963" lon="0.21318">
        <ele>79</ele>
        <time>2020-08-27T09:19:52Z</time>
      </trkpt>
      <trkpt lat="47.36962" lon="0.21315">
        <ele>79</ele>
        <time>2020-08-27T09:19:54Z</time>
      </trkpt>
      <trkpt lat="47.36962" lon="0.21311">
        <ele>79</ele>
        <time>2020-08-27T09:19:56Z</time>
      </trkpt>
      <trkpt lat="47.36962" lon="0.21307">
        <ele>79</ele>
        <time>2020-08-27T09:19:58Z</time>
      </trkpt>
      <trkpt lat="47.36962" lon="0.21304">
        <ele>79</ele>
        <time>2020-08-27T09:20:00Z</time>
      </trkpt>
      <trkpt lat="47.36961" lon="0.213">
        <ele>79</ele>
        <time>2020-08-27T09:20:02Z</time>
      </trkpt>
      <trkpt lat="47.36961" lon="0.21296">
        <ele>79</ele>
        <time>2020-08-27T09:20:04Z</time>
      </trkpt>
      <trkpt lat="47.36962" lon="0.21292">
        <ele>80</ele>
        <time>2020-08-27T09:20:06Z</time>
      </trkpt>
      <trkpt lat="47.36962" lon="0.21288">
        <ele>80</ele>
        <time>2020-08-27T09:20:08Z</time>
      </trkpt>
      <trkpt lat="47.36962" lon="0.21283">
        <ele>80</ele>
        <time>2020-08-27T09:20:10Z</time>
      </trkpt>
      <trkpt lat="47.36962" lon="0.2128">
        <ele>80</ele>
        <time>2020-08-27T09:20:12Z</time>
      </trkpt>
      <trkpt lat="47.36962" lon="0.21276">
        <ele>80</ele>
        <time>2020-08-27T09:20:14Z</time>
      </trkpt>
      <trkpt lat="47.36962" lon="0.21272">
        <ele>80</ele>
        <time>2020-08-27T09:20:17Z</time>
      </trkpt>
      <trkpt lat="47.36962" lon="0.21269">
        <ele>80</ele>
        <time>2020-08-27T09:20:19Z</time>
      </trkpt>
      <trkpt lat="47.36961" lon="0.21265">
        <ele>80</ele>
        <time>2020-08-27T09:20:21Z</time>
      </trkpt>
      <trkpt lat="47.36961" lon="0.21262">
        <ele>80</ele>
        <time>2020-08-27T09:20:23Z</time>
      </trkpt>
      <trkpt lat="47.36961" lon="0.21257">
        <ele>80</ele>
        <time>2020-08-27T09:20:25Z</time>
      </trkpt>
      <trkpt lat="47.36962" lon="0.21253">
        <ele>80</ele>
        <time>2020-08-27T09:20:27Z</time>
      </trkpt>
      <trkpt lat="47.36961" lon="0.2125">
        <ele>79</ele>
        <time>2020-08-27T09:20:29Z</time>
      </trkpt>
      <trkpt lat="47.36962" lon="0.21246">
        <ele>79</ele>
        <time>2020-08-27T09:20:31Z</time>
      </trkpt>
      <trkpt lat="47.36963" lon="0.21241">
        <ele>79</ele>
        <time>2020-08-27T09:20:33Z</time>
      </trkpt>
      <trkpt lat="47.36963" lon="0.21237">
        <ele>79</ele>
        <time>2020-08-27T09:20:35Z</time>
      </trkpt>
      <trkpt lat="47.36964" lon="0.21232">
        <ele>79</ele>
        <time>2020-08-27T09:20:37Z</time>
      </trkpt>
      <trkpt lat="47.36964" lon="0.21229">
        <ele>79</ele>
        <time>2020-08-27T09:20:39Z</time>
      </trkpt>
      <trkpt lat="47.36965" lon="0.21225">
        <ele>79</ele>
        <time>2020-08-27T09:20:41Z</time>
      </trkpt>
      <trkpt lat="47.36966" lon="0.21221">
        <ele>79</ele>
        <time>2020-08-27T09:20:43Z</time>
      </trkpt>
      <trkpt lat="47.36966" lon="0.21218">
        <ele>79</ele>
        <time>2020-08-27T09:20:44Z</time>
      </trkpt>
      <trkpt lat="47.36967" lon="0.21214">
        <ele>80</ele>
        <time>2020-08-27T09:20:46Z</time>
      </trkpt>
      <trkpt lat="47.36968" lon="0.2121">
        <ele>80</ele>
        <time>2020-08-27T09:20:48Z</time>
      </trkpt>
      <trkpt lat="47.36968" lon="0.21205">
        <ele>80</ele>
        <time>2020-08-27T09:20:50Z</time>
      </trkpt>
      <trkpt lat="47.36967" lon="0.21201">
        <ele>80</ele>
        <time>2020-08-27T09:20:52Z</time>
      </trkpt>
      <trkpt lat="47.36966" lon="0.21198">
        <ele>80</ele>
        <time>2020-08-27T09:20:54Z</time>
      </trkpt>
      <trkpt lat="47.36964" lon="0.21194">
        <ele>80</ele>
        <time>2020-08-27T09:20:56Z</time>
      </trkpt>
      <trkpt lat="47.36964" lon="0.21191">
        <ele>80</ele>
        <time>2020-08-27T09:20:58Z</time>
      </trkpt>
      <trkpt lat="47.36964" lon="0.21187">
        <ele>80</ele>
        <time>2020-08-27T09:21:00Z</time>
      </trkpt>
      <trkpt lat="47.36965" lon="0.21183">
        <ele>80</ele>
        <time>2020-08-27T09:21:02Z</time>
      </trkpt>
      <trkpt lat="47.36964" lon="0.2118">
        <ele>80</ele>
        <time>2020-08-27T09:21:04Z</time>
      </trkpt>
      <trkpt lat="47.36965" lon="0.21177">
        <ele>80</ele>
        <time>2020-08-27T09:21:06Z</time>
      </trkpt>
      <trkpt lat="47.36965" lon="0.21174">
        <ele>80</ele>
        <time>2020-08-27T09:21:08Z</time>
      </trkpt>
      <trkpt lat="47.36965" lon="0.2117">
        <ele>80</ele>
        <time>2020-08-27T09:21:10Z</time>
      </trkpt>
      <trkpt lat="47.36965" lon="0.21166">
        <ele>80</ele>
        <time>2020-08-27T09:21:12Z</time>
      </trkpt>
      <trkpt lat="47.36965" lon="0.21163">
        <ele>80</ele>
        <time>2020-08-27T09:21:14Z</time>
      </trkpt>
      <trkpt lat="47.36966" lon="0.21159">
        <ele>81</ele>
        <time>2020-08-27T09:21:16Z</time>
      </trkpt>
      <trkpt lat="47.36967" lon="0.21155">
        <ele>81</ele>
        <time>2020-08-27T09:21:18Z</time>
      </trkpt>
      <trkpt lat="47.36967" lon="0.21152">
        <ele>81</ele>
        <time>2020-08-27T09:21:20Z</time>
      </trkpt>
      <trkpt lat="47.36967" lon="0.21148">
        <ele>81</ele>
        <time>2020-08-27T09:21:22Z</time>
      </trkpt>
      <trkpt lat="47.36966" lon="0.21145">
        <ele>81</ele>
        <time>2020-08-27T09:21:24Z</time>
      </trkpt>
      <trkpt lat="47.36967" lon="0.2114">
        <ele>81</ele>
        <time>2020-08-27T09:21:26Z</time>
      </trkpt>
      <trkpt lat="47.36967" lon="0.21137">
        <ele>81</ele>
        <time>2020-08-27T09:21:28Z</time>
      </trkpt>
      <trkpt lat="47.36967" lon="0.21133">
        <ele>82</ele>
        <time>2020-08-27T09:21:30Z</time>
      </trkpt>
      <trkpt lat="47.36967" lon="0.21129">
        <ele>82</ele>
        <time>2020-08-27T09:21:32Z</time>
      </trkpt>
      <trkpt lat="47.36968" lon="0.21125">
        <ele>82</ele>
        <time>2020-08-27T09:21:34Z</time>
      </trkpt>
      <trkpt lat="47.36968" lon="0.21121">
        <ele>82</ele>
        <time>2020-08-27T09:21:36Z</time>
      </trkpt>
      <trkpt lat="47.36968" lon="0.21117">
        <ele>82</ele>
        <time>2020-08-27T09:21:38Z</time>
      </trkpt>
      <trkpt lat="47.36969" lon="0.21113">
        <ele>82</ele>
        <time>2020-08-27T09:21:40Z</time>
      </trkpt>
      <trkpt lat="47.3697" lon="0.21109">
        <ele>82</ele>
        <time>2020-08-27T09:21:42Z</time>
      </trkpt>
      <trkpt lat="47.3697" lon="0.21106">
        <ele>83</ele>
        <time>2020-08-27T09:21:44Z</time>
      </trkpt>
      <trkpt lat="47.36971" lon="0.21101">
        <ele>83</ele>
        <time>2020-08-27T09:21:46Z</time>
      </trkpt>
      <trkpt lat="47.36971" lon="0.21097">
        <ele>83</ele>
        <time>2020-08-27T09:21:48Z</time>
      </trkpt>
      <trkpt lat="47.36971" lon="0.21093">
        <ele>83</ele>
        <time>2020-08-27T09:21:50Z</time>
      </trkpt>
      <trkpt lat="47.36971" lon="0.2109">
        <ele>83</ele>
        <time>2020-08-27T09:21:52Z</time>
      </trkpt>
      <trkpt lat="47.36973" lon="0.21086">
        <ele>83</ele>
        <time>2020-08-27T09:21:54Z</time>
      </trkpt>
      <trkpt lat="47.36974" lon="0.2108">
        <ele>84</ele>
        <time>2020-08-27T09:21:57Z</time>
      </trkpt>
      <trkpt lat="47.36976" lon="0.21076">
        <ele>84</ele>
        <time>2020-08-27T09:21:59Z</time>
      </trkpt>
      <trkpt lat="47.36977" lon="0.21071">
        <ele>84</ele>
        <time>2020-08-27T09:22:01Z</time>
      </trkpt>
      <trkpt lat="47.36977" lon="0.21067">
        <ele>84</ele>
        <time>2020-08-27T09:22:03Z</time>
      </trkpt>
      <trkpt lat="47.36977" lon="0.21063">
        <ele>84</ele>
        <time>2020-08-27T09:22:05Z</time>
      </trkpt>
      <trkpt lat="47.36978" lon="0.2106">
        <ele>84</ele>
        <time>2020-08-27T09:22:07Z</time>
      </trkpt>
      <trkpt lat="47.36979" lon="0.21056">
        <ele>84</ele>
        <time>2020-08-27T09:22:09Z</time>
      </trkpt>
      <trkpt lat="47.36981" lon="0.21054">
        <ele>85</ele>
        <time>2020-08-27T09:22:11Z</time>
      </trkpt>
      <trkpt lat="47.36982" lon="0.2105">
        <ele>85</ele>
        <time>2020-08-27T09:22:13Z</time>
      </trkpt>
      <trkpt lat="47.36983" lon="0.21047">
        <ele>85</ele>
        <time>2020-08-27T09:22:15Z</time>
      </trkpt>
      <trkpt lat="47.36983" lon="0.21043">
        <ele>85</ele>
        <time>2020-08-27T09:22:18Z</time>
      </trkpt>
      <trkpt lat="47.36985" lon="0.21039">
        <ele>85</ele>
        <time>2020-08-27T09:22:20Z</time>
      </trkpt>
      <trkpt lat="47.36986" lon="0.21035">
        <ele>85</ele>
        <time>2020-08-27T09:22:22Z</time>
      </trkpt>
      <trkpt lat="47.36987" lon="0.21032">
        <ele>85</ele>
        <time>2020-08-27T09:22:24Z</time>
      </trkpt>
      <trkpt lat="47.36988" lon="0.21029">
        <ele>85</ele>
        <time>2020-08-27T09:22:26Z</time>
      </trkpt>
      <trkpt lat="47.36988" lon="0.21024">
        <ele>84</ele>
        <time>2020-08-27T09:22:28Z</time>
      </trkpt>
      <trkpt lat="47.36988" lon="0.2102">
        <ele>84</ele>
        <time>2020-08-27T09:22:30Z</time>
      </trkpt>
      <trkpt lat="47.36988" lon="0.21015">
        <ele>84</ele>
        <time>2020-08-27T09:22:32Z</time>
      </trkpt>
      <trkpt lat="47.36989" lon="0.21011">
        <ele>84</ele>
        <time>2020-08-27T09:22:34Z</time>
      </trkpt>
      <trkpt lat="47.3699" lon="0.21009">
        <ele>84</ele>
        <time>2020-08-27T09:22:35Z</time>
      </trkpt>
      <trkpt lat="47.36991" lon="0.21004">
        <ele>84</ele>
        <time>2020-08-27T09:22:37Z</time>
      </trkpt>
      <trkpt lat="47.36991" lon="0.21001">
        <ele>84</ele>
        <time>2020-08-27T09:22:39Z</time>
      </trkpt>
      <trkpt lat="47.36991" lon="0.20997">
        <ele>84</ele>
        <time>2020-08-27T09:22:41Z</time>
      </trkpt>
      <trkpt lat="47.36992" lon="0.20994">
        <ele>84</ele>
        <time>2020-08-27T09:22:43Z</time>
      </trkpt>
      <trkpt lat="47.36993" lon="0.2099">
        <ele>84</ele>
        <time>2020-08-27T09:22:45Z</time>
      </trkpt>
      <trkpt lat="47.36993" lon="0.20985">
        <ele>84</ele>
        <time>2020-08-27T09:22:47Z</time>
      </trkpt>
      <trkpt lat="47.36993" lon="0.20982">
        <ele>84</ele>
        <time>2020-08-27T09:22:49Z</time>
      </trkpt>
      <trkpt lat="47.36995" lon="0.20978">
        <ele>84</ele>
        <time>2020-08-27T09:22:51Z</time>
      </trkpt>
      <trkpt lat="47.36996" lon="0.20974">
        <ele>84</ele>
        <time>2020-08-27T09:22:53Z</time>
      </trkpt>
      <trkpt lat="47.36996" lon="0.20968">
        <ele>83</ele>
        <time>2020-08-27T09:22:56Z</time>
      </trkpt>
      <trkpt lat="47.36997" lon="0.20964">
        <ele>83</ele>
        <time>2020-08-27T09:22:58Z</time>
      </trkpt>
      <trkpt lat="47.36999" lon="0.20961">
        <ele>83</ele>
        <time>2020-08-27T09:23:00Z</time>
      </trkpt>
      <trkpt lat="47.37" lon="0.20958">
        <ele>82</ele>
        <time>2020-08-27T09:23:02Z</time>
      </trkpt>
      <trkpt lat="47.37003" lon="0.20953">
        <ele>82</ele>
        <time>2020-08-27T09:23:06Z</time>
      </trkpt>
      <trkpt lat="47.37008" lon="0.20942">
        <ele>81</ele>
        <time>2020-08-27T09:23:12Z</time>
      </trkpt>
      <trkpt lat="47.3701" lon="0.20936">
        <ele>80</ele>
        <time>2020-08-27T09:23:15Z</time>
      </trkpt>
      <trkpt lat="47.37015" lon="0.20925">
        <ele>79</ele>
        <time>2020-08-27T09:23:21Z</time>
      </trkpt>
      <trkpt lat="47.37021" lon="0.20914">
        <ele>79</ele>
        <time>2020-08-27T09:23:26Z</time>
      </trkpt>
      <trkpt lat="47.37026" lon="0.20902">
        <ele>79</ele>
        <time>2020-08-27T09:23:34Z</time>
      </trkpt>
      <trkpt lat="47.37029" lon="0.20895">
        <ele>78</ele>
        <time>2020-08-27T09:23:40Z</time>
      </trkpt>
      <trkpt lat="47.3703" lon="0.20891">
        <ele>78</ele>
        <time>2020-08-27T09:23:42Z</time>
      </trkpt>
      <trkpt lat="47.3703" lon="0.20888">
        <ele>78</ele>
        <time>2020-08-27T09:23:44Z</time>
      </trkpt>
      <trkpt lat="47.37031" lon="0.20885">
        <ele>78</ele>
        <time>2020-08-27T09:23:46Z</time>
      </trkpt>
      <trkpt lat="47.37034" lon="0.20871">
        <ele>78</ele>
        <time>2020-08-27T09:23:53Z</time>
      </trkpt>
      <trkpt lat="47.37035" lon="0.20867">
        <ele>78</ele>
        <time>2020-08-27T09:23:55Z</time>
      </trkpt>
      <trkpt lat="47.37036" lon="0.20861">
        <ele>78</ele>
        <time>2020-08-27T09:23:58Z</time>
      </trkpt>
      <trkpt lat="47.37036" lon="0.20858">
        <ele>78</ele>
        <time>2020-08-27T09:24:00Z</time>
      </trkpt>
      <trkpt lat="47.37037" lon="0.20855">
        <ele>78</ele>
        <time>2020-08-27T09:24:02Z</time>
      </trkpt>
      <trkpt lat="47.37039" lon="0.20852">
        <ele>78</ele>
        <time>2020-08-27T09:24:04Z</time>
      </trkpt>
      <trkpt lat="47.37041" lon="0.20848">
        <ele>77</ele>
        <time>2020-08-27T09:24:06Z</time>
      </trkpt>
      <trkpt lat="47.37042" lon="0.20844">
        <ele>77</ele>
        <time>2020-08-27T09:24:08Z</time>
      </trkpt>
      <trkpt lat="47.37043" lon="0.20841">
        <ele>77</ele>
        <time>2020-08-27T09:24:10Z</time>
      </trkpt>
      <trkpt lat="47.37044" lon="0.20838">
        <ele>77</ele>
        <time>2020-08-27T09:24:12Z</time>
      </trkpt>
      <trkpt lat="47.37045" lon="0.20833">
        <ele>77</ele>
        <time>2020-08-27T09:24:14Z</time>
      </trkpt>
      <trkpt lat="47.37046" lon="0.20829">
        <ele>77</ele>
        <time>2020-08-27T09:24:16Z</time>
      </trkpt>
      <trkpt lat="47.37046" lon="0.20826">
        <ele>76</ele>
        <time>2020-08-27T09:24:18Z</time>
      </trkpt>
      <trkpt lat="47.37047" lon="0.20823">
        <ele>76</ele>
        <time>2020-08-27T09:24:20Z</time>
      </trkpt>
      <trkpt lat="47.37049" lon="0.2082">
        <ele>76</ele>
        <time>2020-08-27T09:24:22Z</time>
      </trkpt>
      <trkpt lat="47.37049" lon="0.20816">
        <ele>76</ele>
        <time>2020-08-27T09:24:24Z</time>
      </trkpt>
      <trkpt lat="47.37049" lon="0.20811">
        <ele>76</ele>
        <time>2020-08-27T09:24:26Z</time>
      </trkpt>
      <trkpt lat="47.37052" lon="0.20797">
        <ele>76</ele>
        <time>2020-08-27T09:24:33Z</time>
      </trkpt>
      <trkpt lat="47.37054" lon="0.20793">
        <ele>75</ele>
        <time>2020-08-27T09:24:35Z</time>
      </trkpt>
      <trkpt lat="47.37055" lon="0.20789">
        <ele>75</ele>
        <time>2020-08-27T09:24:37Z</time>
      </trkpt>
      <trkpt lat="47.37056" lon="0.20785">
        <ele>75</ele>
        <time>2020-08-27T09:24:39Z</time>
      </trkpt>
      <trkpt lat="47.37057" lon="0.20782">
        <ele>75</ele>
        <time>2020-08-27T09:24:41Z</time>
      </trkpt>
      <trkpt lat="47.37058" lon="0.20778">
        <ele>74</ele>
        <time>2020-08-27T09:24:43Z</time>
      </trkpt>
      <trkpt lat="47.37058" lon="0.20775">
        <ele>74</ele>
        <time>2020-08-27T09:24:45Z</time>
      </trkpt>
      <trkpt lat="47.3706" lon="0.20772">
        <ele>74</ele>
        <time>2020-08-27T09:24:47Z</time>
      </trkpt>
      <trkpt lat="47.37065" lon="0.20759">
        <ele>72</ele>
        <time>2020-08-27T09:24:55Z</time>
      </trkpt>
      <trkpt lat="47.37068" lon="0.20748">
        <ele>71</ele>
        <time>2020-08-27T09:25:01Z</time>
      </trkpt>
      <trkpt lat="47.37069" lon="0.20744">
        <ele>71</ele>
        <time>2020-08-27T09:25:03Z</time>
      </trkpt>
      <trkpt lat="47.3707" lon="0.20741">
        <ele>70</ele>
        <time>2020-08-27T09:25:05Z</time>
      </trkpt>
      <trkpt lat="47.37071" lon="0.20737">
        <ele>70</ele>
        <time>2020-08-27T09:25:07Z</time>
      </trkpt>
      <trkpt lat="47.37072" lon="0.20734">
        <ele>70</ele>
        <time>2020-08-27T09:25:09Z</time>
      </trkpt>
      <trkpt lat="47.37073" lon="0.20731">
        <ele>70</ele>
        <time>2020-08-27T09:25:11Z</time>
      </trkpt>
      <trkpt lat="47.37074" lon="0.20728">
        <ele>69</ele>
        <time>2020-08-27T09:25:13Z</time>
      </trkpt>
      <trkpt lat="47.37075" lon="0.20725">
        <ele>69</ele>
        <time>2020-08-27T09:25:15Z</time>
      </trkpt>
      <trkpt lat="47.37076" lon="0.20721">
        <ele>69</ele>
        <time>2020-08-27T09:25:17Z</time>
      </trkpt>
      <trkpt lat="47.37075" lon="0.20718">
        <ele>69</ele>
        <time>2020-08-27T09:25:18Z</time>
      </trkpt>
      <trkpt lat="47.37076" lon="0.20714">
        <ele>69</ele>
        <time>2020-08-27T09:25:20Z</time>
      </trkpt>
      <trkpt lat="47.37077" lon="0.20712">
        <ele>68</ele>
        <time>2020-08-27T09:25:22Z</time>
      </trkpt>
      <trkpt lat="47.37077" lon="0.20708">
        <ele>68</ele>
        <time>2020-08-27T09:25:24Z</time>
      </trkpt>
      <trkpt lat="47.37078" lon="0.20704">
        <ele>68</ele>
        <time>2020-08-27T09:25:26Z</time>
      </trkpt>
      <trkpt lat="47.37079" lon="0.207">
        <ele>68</ele>
        <time>2020-08-27T09:25:28Z</time>
      </trkpt>
      <trkpt lat="47.37081" lon="0.20697">
        <ele>68</ele>
        <time>2020-08-27T09:25:30Z</time>
      </trkpt>
      <trkpt lat="47.37082" lon="0.20693">
        <ele>68</ele>
        <time>2020-08-27T09:25:32Z</time>
      </trkpt>
      <trkpt lat="47.37083" lon="0.2069">
        <ele>68</ele>
        <time>2020-08-27T09:25:34Z</time>
      </trkpt>
      <trkpt lat="47.37084" lon="0.20687">
        <ele>67</ele>
        <time>2020-08-27T09:25:36Z</time>
      </trkpt>
      <trkpt lat="47.37085" lon="0.20684">
        <ele>67</ele>
        <time>2020-08-27T09:25:38Z</time>
      </trkpt>
      <trkpt lat="47.37087" lon="0.20682">
        <ele>67</ele>
        <time>2020-08-27T09:25:40Z</time>
      </trkpt>
      <trkpt lat="47.37089" lon="0.20679">
        <ele>67</ele>
        <time>2020-08-27T09:25:42Z</time>
      </trkpt>
      <trkpt lat="47.37092" lon="0.20677">
        <ele>67</ele>
        <time>2020-08-27T09:25:44Z</time>
      </trkpt>
      <trkpt lat="47.37094" lon="0.20673">
        <ele>67</ele>
        <time>2020-08-27T09:25:46Z</time>
      </trkpt>
      <trkpt lat="47.37096" lon="0.2067">
        <ele>67</ele>
        <time>2020-08-27T09:25:48Z</time>
      </trkpt>
      <trkpt lat="47.37097" lon="0.20667">
        <ele>67</ele>
        <time>2020-08-27T09:25:50Z</time>
      </trkpt>
      <trkpt lat="47.37098" lon="0.20664">
        <ele>66</ele>
        <time>2020-08-27T09:25:52Z</time>
      </trkpt>
      <trkpt lat="47.37098" lon="0.2066">
        <ele>66</ele>
        <time>2020-08-27T09:25:54Z</time>
      </trkpt>
      <trkpt lat="47.371" lon="0.20655">
        <ele>66</ele>
        <time>2020-08-27T09:25:56Z</time>
      </trkpt>
      <trkpt lat="47.371" lon="0.20651">
        <ele>66</ele>
        <time>2020-08-27T09:25:58Z</time>
      </trkpt>
      <trkpt lat="47.371" lon="0.20647">
        <ele>66</ele>
        <time>2020-08-27T09:26:01Z</time>
      </trkpt>
      <trkpt lat="47.371" lon="0.20644">
        <ele>66</ele>
        <time>2020-08-27T09:26:03Z</time>
      </trkpt>
      <trkpt lat="47.37101" lon="0.20641">
        <ele>66</ele>
        <time>2020-08-27T09:26:05Z</time>
      </trkpt>
      <trkpt lat="47.37102" lon="0.20637">
        <ele>65</ele>
        <time>2020-08-27T09:26:07Z</time>
      </trkpt>
      <trkpt lat="47.37103" lon="0.20635">
        <ele>65</ele>
        <time>2020-08-27T09:26:08Z</time>
      </trkpt>
      <trkpt lat="47.37104" lon="0.20632">
        <ele>65</ele>
        <time>2020-08-27T09:26:09Z</time>
      </trkpt>
      <trkpt lat="47.37106" lon="0.20628">
        <ele>65</ele>
        <time>2020-08-27T09:26:11Z</time>
      </trkpt>
      <trkpt lat="47.37106" lon="0.20626">
        <ele>64</ele>
        <time>2020-08-27T09:26:13Z</time>
      </trkpt>
      <trkpt lat="47.37107" lon="0.20621">
        <ele>64</ele>
        <time>2020-08-27T09:26:15Z</time>
      </trkpt>
      <trkpt lat="47.37108" lon="0.20618">
        <ele>64</ele>
        <time>2020-08-27T09:26:16Z</time>
      </trkpt>
      <trkpt lat="47.37109" lon="0.20613">
        <ele>64</ele>
        <time>2020-08-27T09:26:18Z</time>
      </trkpt>
      <trkpt lat="47.37109" lon="0.20609">
        <ele>64</ele>
        <time>2020-08-27T09:26:20Z</time>
      </trkpt>
      <trkpt lat="47.3711" lon="0.20605">
        <ele>64</ele>
        <time>2020-08-27T09:26:22Z</time>
      </trkpt>
      <trkpt lat="47.37111" lon="0.20602">
        <ele>63</ele>
        <time>2020-08-27T09:26:25Z</time>
      </trkpt>
      <trkpt lat="47.37111" lon="0.20598">
        <ele>63</ele>
        <time>2020-08-27T09:26:28Z</time>
      </trkpt>
      <trkpt lat="47.37112" lon="0.20594">
        <ele>63</ele>
        <time>2020-08-27T09:26:30Z</time>
      </trkpt>
      <trkpt lat="47.37113" lon="0.20591">
        <ele>63</ele>
        <time>2020-08-27T09:26:32Z</time>
      </trkpt>
      <trkpt lat="47.37113" lon="0.20588">
        <ele>63</ele>
        <time>2020-08-27T09:26:34Z</time>
      </trkpt>
      <trkpt lat="47.37113" lon="0.20584">
        <ele>63</ele>
        <time>2020-08-27T09:26:36Z</time>
      </trkpt>
      <trkpt lat="47.37115" lon="0.2058">
        <ele>63</ele>
        <time>2020-08-27T09:26:38Z</time>
      </trkpt>
      <trkpt lat="47.37116" lon="0.20576">
        <ele>63</ele>
        <time>2020-08-27T09:26:40Z</time>
      </trkpt>
      <trkpt lat="47.37117" lon="0.20572">
        <ele>63</ele>
        <time>2020-08-27T09:26:42Z</time>
      </trkpt>
      <trkpt lat="47.37119" lon="0.20569">
        <ele>63</ele>
        <time>2020-08-27T09:26:44Z</time>
      </trkpt>
      <trkpt lat="47.3712" lon="0.20565">
        <ele>63</ele>
        <time>2020-08-27T09:26:46Z</time>
      </trkpt>
      <trkpt lat="47.3712" lon="0.20561">
        <ele>63</ele>
        <time>2020-08-27T09:26:48Z</time>
      </trkpt>
      <trkpt lat="47.37121" lon="0.20558">
        <ele>63</ele>
        <time>2020-08-27T09:26:49Z</time>
      </trkpt>
      <trkpt lat="47.37121" lon="0.20554">
        <ele>64</ele>
        <time>2020-08-27T09:26:51Z</time>
      </trkpt>
      <trkpt lat="47.37122" lon="0.20551">
        <ele>64</ele>
        <time>2020-08-27T09:26:53Z</time>
      </trkpt>
      <trkpt lat="47.37123" lon="0.20548">
        <ele>64</ele>
        <time>2020-08-27T09:26:55Z</time>
      </trkpt>
      <trkpt lat="47.37124" lon="0.20544">
        <ele>64</ele>
        <time>2020-08-27T09:26:57Z</time>
      </trkpt>
      <trkpt lat="47.37124" lon="0.20541">
        <ele>64</ele>
        <time>2020-08-27T09:26:59Z</time>
      </trkpt>
      <trkpt lat="47.37125" lon="0.20537">
        <ele>64</ele>
        <time>2020-08-27T09:27:01Z</time>
      </trkpt>
      <trkpt lat="47.37126" lon="0.20533">
        <ele>64</ele>
        <time>2020-08-27T09:27:03Z</time>
      </trkpt>
      <trkpt lat="47.37126" lon="0.2053">
        <ele>64</ele>
        <time>2020-08-27T09:27:04Z</time>
      </trkpt>
      <trkpt lat="47.37127" lon="0.20526">
        <ele>63</ele>
        <time>2020-08-27T09:27:06Z</time>
      </trkpt>
      <trkpt lat="47.37126" lon="0.20522">
        <ele>63</ele>
        <time>2020-08-27T09:27:08Z</time>
      </trkpt>
      <trkpt lat="47.37126" lon="0.20519">
        <ele>63</ele>
        <time>2020-08-27T09:27:10Z</time>
      </trkpt>
      <trkpt lat="47.37127" lon="0.20515">
        <ele>63</ele>
        <time>2020-08-27T09:27:12Z</time>
      </trkpt>
      <trkpt lat="47.37127" lon="0.20511">
        <ele>63</ele>
        <time>2020-08-27T09:27:14Z</time>
      </trkpt>
      <trkpt lat="47.37128" lon="0.20508">
        <ele>63</ele>
        <time>2020-08-27T09:27:16Z</time>
      </trkpt>
      <trkpt lat="47.37128" lon="0.20505">
        <ele>63</ele>
        <time>2020-08-27T09:27:18Z</time>
      </trkpt>
      <trkpt lat="47.37129" lon="0.20501">
        <ele>63</ele>
        <time>2020-08-27T09:27:20Z</time>
      </trkpt>
      <trkpt lat="47.37129" lon="0.20498">
        <ele>63</ele>
        <time>2020-08-27T09:27:22Z</time>
      </trkpt>
      <trkpt lat="47.3713" lon="0.20495">
        <ele>63</ele>
        <time>2020-08-27T09:27:24Z</time>
      </trkpt>
      <trkpt lat="47.3713" lon="0.2049">
        <ele>63</ele>
        <time>2020-08-27T09:27:26Z</time>
      </trkpt>
      <trkpt lat="47.37131" lon="0.20486">
        <ele>63</ele>
        <time>2020-08-27T09:27:28Z</time>
      </trkpt>
      <trkpt lat="47.37132" lon="0.20482">
        <ele>63</ele>
        <time>2020-08-27T09:27:30Z</time>
      </trkpt>
      <trkpt lat="47.37132" lon="0.20479">
        <ele>62</ele>
        <time>2020-08-27T09:27:32Z</time>
      </trkpt>
      <trkpt lat="47.37132" lon="0.20476">
        <ele>62</ele>
        <time>2020-08-27T09:27:34Z</time>
      </trkpt>
      <trkpt lat="47.37132" lon="0.20472">
        <ele>62</ele>
        <time>2020-08-27T09:27:36Z</time>
      </trkpt>
      <trkpt lat="47.37133" lon="0.20468">
        <ele>62</ele>
        <time>2020-08-27T09:27:38Z</time>
      </trkpt>
      <trkpt lat="47.37133" lon="0.20464">
        <ele>62</ele>
        <time>2020-08-27T09:27:40Z</time>
      </trkpt>
      <trkpt lat="47.37134" lon="0.20461">
        <ele>62</ele>
        <time>2020-08-27T09:27:42Z</time>
      </trkpt>
      <trkpt lat="47.37134" lon="0.20457">
        <ele>62</ele>
        <time>2020-08-27T09:27:44Z</time>
      </trkpt>
      <trkpt lat="47.37135" lon="0.20453">
        <ele>62</ele>
        <time>2020-08-27T09:27:46Z</time>
      </trkpt>
      <trkpt lat="47.37136" lon="0.20451">
        <ele>62</ele>
        <time>2020-08-27T09:27:48Z</time>
      </trkpt>
      <trkpt lat="47.37136" lon="0.20448">
        <ele>62</ele>
        <time>2020-08-27T09:27:50Z</time>
      </trkpt>
      <trkpt lat="47.37136" lon="0.20444">
        <ele>62</ele>
        <time>2020-08-27T09:27:52Z</time>
      </trkpt>
      <trkpt lat="47.37136" lon="0.2044">
        <ele>62</ele>
        <time>2020-08-27T09:27:55Z</time>
      </trkpt>
      <trkpt lat="47.37135" lon="0.20436">
        <ele>62</ele>
        <time>2020-08-27T09:27:58Z</time>
      </trkpt>
      <trkpt lat="47.37135" lon="0.20432">
        <ele>62</ele>
        <time>2020-08-27T09:28:00Z</time>
      </trkpt>
      <trkpt lat="47.37134" lon="0.20429">
        <ele>62</ele>
        <time>2020-08-27T09:28:02Z</time>
      </trkpt>
      <trkpt lat="47.37134" lon="0.20426">
        <ele>62</ele>
        <time>2020-08-27T09:28:04Z</time>
      </trkpt>
      <trkpt lat="47.37134" lon="0.20422">
        <ele>62</ele>
        <time>2020-08-27T09:28:06Z</time>
      </trkpt>
      <trkpt lat="47.37134" lon="0.20418">
        <ele>62</ele>
        <time>2020-08-27T09:28:08Z</time>
      </trkpt>
      <trkpt lat="47.37134" lon="0.20415">
        <ele>62</ele>
        <time>2020-08-27T09:28:10Z</time>
      </trkpt>
      <trkpt lat="47.37134" lon="0.20411">
        <ele>62</ele>
        <time>2020-08-27T09:28:13Z</time>
      </trkpt>
      <trkpt lat="47.37133" lon="0.20408">
        <ele>62</ele>
        <time>2020-08-27T09:28:14Z</time>
      </trkpt>
      <trkpt lat="47.37133" lon="0.20404">
        <ele>63</ele>
        <time>2020-08-27T09:28:16Z</time>
      </trkpt>
      <trkpt lat="47.37133" lon="0.204">
        <ele>63</ele>
        <time>2020-08-27T09:28:18Z</time>
      </trkpt>
      <trkpt lat="47.37134" lon="0.20396">
        <ele>63</ele>
        <time>2020-08-27T09:28:20Z</time>
      </trkpt>
      <trkpt lat="47.37134" lon="0.20393">
        <ele>63</ele>
        <time>2020-08-27T09:28:21Z</time>
      </trkpt>
      <trkpt lat="47.37135" lon="0.20388">
        <ele>63</ele>
        <time>2020-08-27T09:28:23Z</time>
      </trkpt>
      <trkpt lat="47.37135" lon="0.20386">
        <ele>64</ele>
        <time>2020-08-27T09:28:24Z</time>
      </trkpt>
      <trkpt lat="47.37136" lon="0.20383">
        <ele>64</ele>
        <time>2020-08-27T09:28:25Z</time>
      </trkpt>
      <trkpt lat="47.37139" lon="0.2038">
        <ele>64</ele>
        <time>2020-08-27T09:28:27Z</time>
      </trkpt>
      <trkpt lat="47.37141" lon="0.20378">
        <ele>64</ele>
        <time>2020-08-27T09:28:29Z</time>
      </trkpt>
      <trkpt lat="47.37144" lon="0.20378">
        <ele>64</ele>
        <time>2020-08-27T09:28:31Z</time>
      </trkpt>
      <trkpt lat="47.37148" lon="0.20379">
        <ele>65</ele>
        <time>2020-08-27T09:28:33Z</time>
      </trkpt>
      <trkpt lat="47.37151" lon="0.20379">
        <ele>65</ele>
        <time>2020-08-27T09:28:35Z</time>
      </trkpt>
      <trkpt lat="47.37154" lon="0.2038">
        <ele>65</ele>
        <time>2020-08-27T09:28:37Z</time>
      </trkpt>
      <trkpt lat="47.37157" lon="0.2038">
        <ele>65</ele>
        <time>2020-08-27T09:28:39Z</time>
      </trkpt>
      <trkpt lat="47.3716" lon="0.20381">
        <ele>65</ele>
        <time>2020-08-27T09:28:41Z</time>
      </trkpt>
      <trkpt lat="47.37162" lon="0.20382">
        <ele>65</ele>
        <time>2020-08-27T09:28:43Z</time>
      </trkpt>
      <trkpt lat="47.37165" lon="0.20382">
        <ele>65</ele>
        <time>2020-08-27T09:28:45Z</time>
      </trkpt>
      <trkpt lat="47.37167" lon="0.20383">
        <ele>65</ele>
        <time>2020-08-27T09:28:46Z</time>
      </trkpt>
      <trkpt lat="47.37169" lon="0.20385">
        <ele>66</ele>
        <time>2020-08-27T09:28:48Z</time>
      </trkpt>
      <trkpt lat="47.37171" lon="0.20387">
        <ele>66</ele>
        <time>2020-08-27T09:28:50Z</time>
      </trkpt>
      <trkpt lat="47.37174" lon="0.20389">
        <ele>66</ele>
        <time>2020-08-27T09:28:52Z</time>
      </trkpt>
      <trkpt lat="47.37177" lon="0.20388">
        <ele>66</ele>
        <time>2020-08-27T09:28:54Z</time>
      </trkpt>
      <trkpt lat="47.37179" lon="0.20389">
        <ele>66</ele>
        <time>2020-08-27T09:28:56Z</time>
      </trkpt>
      <trkpt lat="47.37183" lon="0.20391">
        <ele>67</ele>
        <time>2020-08-27T09:28:58Z</time>
      </trkpt>
      <trkpt lat="47.37186" lon="0.20392">
        <ele>67</ele>
        <time>2020-08-27T09:29:00Z</time>
      </trkpt>
      <trkpt lat="47.37188" lon="0.20393">
        <ele>67</ele>
        <time>2020-08-27T09:29:02Z</time>
      </trkpt>
      <trkpt lat="47.3719" lon="0.20394">
        <ele>67</ele>
        <time>2020-08-27T09:29:04Z</time>
      </trkpt>
      <trkpt lat="47.37193" lon="0.20396">
        <ele>67</ele>
        <time>2020-08-27T09:29:06Z</time>
      </trkpt>
      <trkpt lat="47.37196" lon="0.20397">
        <ele>67</ele>
        <time>2020-08-27T09:29:08Z</time>
      </trkpt>
      <trkpt lat="47.37198" lon="0.20397">
        <ele>67</ele>
        <time>2020-08-27T09:29:10Z</time>
      </trkpt>
      <trkpt lat="47.37201" lon="0.20397">
        <ele>67</ele>
        <time>2020-08-27T09:29:12Z</time>
      </trkpt>
      <trkpt lat="47.37203" lon="0.20398">
        <ele>67</ele>
        <time>2020-08-27T09:29:14Z</time>
      </trkpt>
      <trkpt lat="47.37205" lon="0.20399">
        <ele>67</ele>
        <time>2020-08-27T09:29:16Z</time>
      </trkpt>
      <trkpt lat="47.37208" lon="0.204">
        <ele>67</ele>
        <time>2020-08-27T09:29:18Z</time>
      </trkpt>
      <trkpt lat="47.3721" lon="0.20402">
        <ele>67</ele>
        <time>2020-08-27T09:29:20Z</time>
      </trkpt>
      <trkpt lat="47.37213" lon="0.20405">
        <ele>67</ele>
        <time>2020-08-27T09:29:22Z</time>
      </trkpt>
      <trkpt lat="47.37215" lon="0.20407">
        <ele>67</ele>
        <time>2020-08-27T09:29:24Z</time>
      </trkpt>
      <trkpt lat="47.37217" lon="0.20409">
        <ele>67</ele>
        <time>2020-08-27T09:29:26Z</time>
      </trkpt>
      <trkpt lat="47.3722" lon="0.20413">
        <ele>67</ele>
        <time>2020-08-27T09:29:28Z</time>
      </trkpt>
      <trkpt lat="47.37224" lon="0.20415">
        <ele>67</ele>
        <time>2020-08-27T09:29:30Z</time>
      </trkpt>
      <trkpt lat="47.37227" lon="0.20417">
        <ele>67</ele>
        <time>2020-08-27T09:29:32Z</time>
      </trkpt>
      <trkpt lat="47.37228" lon="0.20418">
        <ele>66</ele>
        <time>2020-08-27T09:29:33Z</time>
      </trkpt>
      <trkpt lat="47.37231" lon="0.20419">
        <ele>66</ele>
        <time>2020-08-27T09:29:35Z</time>
      </trkpt>
      <trkpt lat="47.37233" lon="0.2042">
        <ele>66</ele>
        <time>2020-08-27T09:29:37Z</time>
      </trkpt>
      <trkpt lat="47.37236" lon="0.20422">
        <ele>66</ele>
        <time>2020-08-27T09:29:39Z</time>
      </trkpt>
      <trkpt lat="47.37239" lon="0.20425">
        <ele>66</ele>
        <time>2020-08-27T09:29:41Z</time>
      </trkpt>
      <trkpt lat="47.37241" lon="0.20427">
        <ele>66</ele>
        <time>2020-08-27T09:29:43Z</time>
      </trkpt>
      <trkpt lat="47.37244" lon="0.20429">
        <ele>66</ele>
        <time>2020-08-27T09:29:45Z</time>
      </trkpt>
      <trkpt lat="47.37246" lon="0.20432">
        <ele>66</ele>
        <time>2020-08-27T09:29:47Z</time>
      </trkpt>
      <trkpt lat="47.37248" lon="0.20434">
        <ele>66</ele>
        <time>2020-08-27T09:29:49Z</time>
      </trkpt>
      <trkpt lat="47.3725" lon="0.20436">
        <ele>66</ele>
        <time>2020-08-27T09:29:51Z</time>
      </trkpt>
      <trkpt lat="47.37254" lon="0.20438">
        <ele>66</ele>
        <time>2020-08-27T09:29:53Z</time>
      </trkpt>
      <trkpt lat="47.37256" lon="0.2044">
        <ele>66</ele>
        <time>2020-08-27T09:29:55Z</time>
      </trkpt>
      <trkpt lat="47.37258" lon="0.20443">
        <ele>66</ele>
        <time>2020-08-27T09:29:57Z</time>
      </trkpt>
      <trkpt lat="47.3726" lon="0.20444">
        <ele>66</ele>
        <time>2020-08-27T09:29:59Z</time>
      </trkpt>
      <trkpt lat="47.37261" lon="0.20446">
        <ele>65</ele>
        <time>2020-08-27T09:30:01Z</time>
      </trkpt>
      <trkpt lat="47.37263" lon="0.20447">
        <ele>65</ele>
        <time>2020-08-27T09:30:02Z</time>
      </trkpt>
      <trkpt lat="47.37265" lon="0.20449">
        <ele>65</ele>
        <time>2020-08-27T09:30:03Z</time>
      </trkpt>
      <trkpt lat="47.37267" lon="0.20451">
        <ele>65</ele>
        <time>2020-08-27T09:30:05Z</time>
      </trkpt>
      <trkpt lat="47.37268" lon="0.20453">
        <ele>65</ele>
        <time>2020-08-27T09:30:07Z</time>
      </trkpt>
      <trkpt lat="47.3727" lon="0.20455">
        <ele>65</ele>
        <time>2020-08-27T09:30:10Z</time>
      </trkpt>
      <trkpt lat="47.37272" lon="0.20456">
        <ele>65</ele>
        <time>2020-08-27T09:30:12Z</time>
      </trkpt>
      <trkpt lat="47.37275" lon="0.20457">
        <ele>65</ele>
        <time>2020-08-27T09:30:15Z</time>
      </trkpt>
      <trkpt lat="47.37277" lon="0.20458">
        <ele>65</ele>
        <time>2020-08-27T09:30:22Z</time>
      </trkpt>
      <trkpt lat="47.3728" lon="0.20459">
        <ele>65</ele>
        <time>2020-08-27T09:30:24Z</time>
      </trkpt>
      <trkpt lat="47.37283" lon="0.20459">
        <ele>65</ele>
        <time>2020-08-27T09:30:26Z</time>
      </trkpt>
      <trkpt lat="47.37286" lon="0.20459">
        <ele>65</ele>
        <time>2020-08-27T09:30:28Z</time>
      </trkpt>
      <trkpt lat="47.37289" lon="0.20458">
        <ele>65</ele>
        <time>2020-08-27T09:30:30Z</time>
      </trkpt>
      <trkpt lat="47.37291" lon="0.20459">
        <ele>65</ele>
        <time>2020-08-27T09:30:32Z</time>
      </trkpt>
      <trkpt lat="47.37294" lon="0.20459">
        <ele>66</ele>
        <time>2020-08-27T09:30:34Z</time>
      </trkpt>
      <trkpt lat="47.37297" lon="0.20459">
        <ele>66</ele>
        <time>2020-08-27T09:30:36Z</time>
      </trkpt>
      <trkpt lat="47.373" lon="0.2046">
        <ele>66</ele>
        <time>2020-08-27T09:30:38Z</time>
      </trkpt>
      <trkpt lat="47.37303" lon="0.20461">
        <ele>66</ele>
        <time>2020-08-27T09:30:40Z</time>
      </trkpt>
      <trkpt lat="47.37306" lon="0.20461">
        <ele>66</ele>
        <time>2020-08-27T09:30:42Z</time>
      </trkpt>
      <trkpt lat="47.37308" lon="0.20462">
        <ele>67</ele>
        <time>2020-08-27T09:30:44Z</time>
      </trkpt>
      <trkpt lat="47.37311" lon="0.20464">
        <ele>67</ele>
        <time>2020-08-27T09:30:46Z</time>
      </trkpt>
      <trkpt lat="47.37313" lon="0.20464">
        <ele>67</ele>
        <time>2020-08-27T09:30:48Z</time>
      </trkpt>
      <trkpt lat="47.37315" lon="0.20465">
        <ele>68</ele>
        <time>2020-08-27T09:30:50Z</time>
      </trkpt>
      <trkpt lat="47.37318" lon="0.20465">
        <ele>68</ele>
        <time>2020-08-27T09:30:52Z</time>
      </trkpt>
      <trkpt lat="47.3732" lon="0.20466">
        <ele>68</ele>
        <time>2020-08-27T09:30:54Z</time>
      </trkpt>
      <trkpt lat="47.37323" lon="0.20466">
        <ele>69</ele>
        <time>2020-08-27T09:30:56Z</time>
      </trkpt>
      <trkpt lat="47.37325" lon="0.20467">
        <ele>69</ele>
        <time>2020-08-27T09:30:58Z</time>
      </trkpt>
      <trkpt lat="47.37327" lon="0.20467">
        <ele>69</ele>
        <time>2020-08-27T09:31:00Z</time>
      </trkpt>
      <trkpt lat="47.37329" lon="0.20468">
        <ele>70</ele>
        <time>2020-08-27T09:31:02Z</time>
      </trkpt>
      <trkpt lat="47.37332" lon="0.20468">
        <ele>70</ele>
        <time>2020-08-27T09:31:04Z</time>
      </trkpt>
      <trkpt lat="47.37335" lon="0.20469">
        <ele>71</ele>
        <time>2020-08-27T09:31:06Z</time>
      </trkpt>
      <trkpt lat="47.37337" lon="0.20469">
        <ele>71</ele>
        <time>2020-08-27T09:31:08Z</time>
      </trkpt>
      <trkpt lat="47.37339" lon="0.2047">
        <ele>71</ele>
        <time>2020-08-27T09:31:10Z</time>
      </trkpt>
      <trkpt lat="47.37342" lon="0.2047">
        <ele>71</ele>
        <time>2020-08-27T09:31:12Z</time>
      </trkpt>
      <trkpt lat="47.37345" lon="0.2047">
        <ele>71</ele>
        <time>2020-08-27T09:31:14Z</time>
      </trkpt>
      <trkpt lat="47.37347" lon="0.20471">
        <ele>71</ele>
        <time>2020-08-27T09:31:16Z</time>
      </trkpt>
      <trkpt lat="47.3735" lon="0.20471">
        <ele>72</ele>
        <time>2020-08-27T09:31:18Z</time>
      </trkpt>
      <trkpt lat="47.37353" lon="0.20471">
        <ele>72</ele>
        <time>2020-08-27T09:31:20Z</time>
      </trkpt>
      <trkpt lat="47.37356" lon="0.20471">
        <ele>72</ele>
        <time>2020-08-27T09:31:22Z</time>
      </trkpt>
      <trkpt lat="47.37358" lon="0.2047">
        <ele>72</ele>
        <time>2020-08-27T09:31:24Z</time>
      </trkpt>
      <trkpt lat="47.37361" lon="0.20471">
        <ele>72</ele>
        <time>2020-08-27T09:31:26Z</time>
      </trkpt>
      <trkpt lat="47.37364" lon="0.20471">
        <ele>72</ele>
        <time>2020-08-27T09:31:28Z</time>
      </trkpt>
      <trkpt lat="47.37367" lon="0.20471">
        <ele>72</ele>
        <time>2020-08-27T09:31:30Z</time>
      </trkpt>
      <trkpt lat="47.3737" lon="0.20471">
        <ele>72</ele>
        <time>2020-08-27T09:31:32Z</time>
      </trkpt>
      <trkpt lat="47.37372" lon="0.20471">
        <ele>72</ele>
        <time>2020-08-27T09:31:34Z</time>
      </trkpt>
      <trkpt lat="47.37375" lon="0.20471">
        <ele>72</ele>
        <time>2020-08-27T09:31:36Z</time>
      </trkpt>
      <trkpt lat="47.37377" lon="0.20472">
        <ele>72</ele>
        <time>2020-08-27T09:31:38Z</time>
      </trkpt>
      <trkpt lat="47.37379" lon="0.20473">
        <ele>72</ele>
        <time>2020-08-27T09:31:40Z</time>
      </trkpt>
      <trkpt lat="47.37382" lon="0.20473">
        <ele>72</ele>
        <time>2020-08-27T09:31:42Z</time>
      </trkpt>
      <trkpt lat="47.37386" lon="0.20473">
        <ele>72</ele>
        <time>2020-08-27T09:31:44Z</time>
      </trkpt>
      <trkpt lat="47.37389" lon="0.20473">
        <ele>72</ele>
        <time>2020-08-27T09:31:46Z</time>
      </trkpt>
      <trkpt lat="47.37392" lon="0.20473">
        <ele>72</ele>
        <time>2020-08-27T09:31:48Z</time>
      </trkpt>
      <trkpt lat="47.37394" lon="0.20474">
        <ele>72</ele>
        <time>2020-08-27T09:31:50Z</time>
      </trkpt>
      <trkpt lat="47.37396" lon="0.20474">
        <ele>72</ele>
        <time>2020-08-27T09:31:52Z</time>
      </trkpt>
      <trkpt lat="47.37399" lon="0.20475">
        <ele>72</ele>
        <time>2020-08-27T09:31:54Z</time>
      </trkpt>
      <trkpt lat="47.37402" lon="0.20475">
        <ele>72</ele>
        <time>2020-08-27T09:31:56Z</time>
      </trkpt>
      <trkpt lat="47.37405" lon="0.20476">
        <ele>72</ele>
        <time>2020-08-27T09:31:58Z</time>
      </trkpt>
      <trkpt lat="47.37408" lon="0.20476">
        <ele>72</ele>
        <time>2020-08-27T09:32:00Z</time>
      </trkpt>
      <trkpt lat="47.3741" lon="0.20476">
        <ele>72</ele>
        <time>2020-08-27T09:32:02Z</time>
      </trkpt>
      <trkpt lat="47.37413" lon="0.20477">
        <ele>72</ele>
        <time>2020-08-27T09:32:04Z</time>
      </trkpt>
      <trkpt lat="47.37416" lon="0.20478">
        <ele>72</ele>
        <time>2020-08-27T09:32:06Z</time>
      </trkpt>
      <trkpt lat="47.37418" lon="0.20478">
        <ele>72</ele>
        <time>2020-08-27T09:32:08Z</time>
      </trkpt>
      <trkpt lat="47.37421" lon="0.20479">
        <ele>72</ele>
        <time>2020-08-27T09:32:10Z</time>
      </trkpt>
      <trkpt lat="47.37423" lon="0.20479">
        <ele>72</ele>
        <time>2020-08-27T09:32:12Z</time>
      </trkpt>
      <trkpt lat="47.37425" lon="0.20479">
        <ele>71</ele>
        <time>2020-08-27T09:32:14Z</time>
      </trkpt>
      <trkpt lat="47.37428" lon="0.20479">
        <ele>71</ele>
        <time>2020-08-27T09:32:16Z</time>
      </trkpt>
      <trkpt lat="47.37431" lon="0.20479">
        <ele>71</ele>
        <time>2020-08-27T09:32:18Z</time>
      </trkpt>
      <trkpt lat="47.37434" lon="0.2048">
        <ele>71</ele>
        <time>2020-08-27T09:32:20Z</time>
      </trkpt>
      <trkpt lat="47.37437" lon="0.2048">
        <ele>71</ele>
        <time>2020-08-27T09:32:22Z</time>
      </trkpt>
      <trkpt lat="47.37439" lon="0.2048">
        <ele>71</ele>
        <time>2020-08-27T09:32:24Z</time>
      </trkpt>
      <trkpt lat="47.37442" lon="0.20481">
        <ele>71</ele>
        <time>2020-08-27T09:32:26Z</time>
      </trkpt>
      <trkpt lat="47.37445" lon="0.20481">
        <ele>71</ele>
        <time>2020-08-27T09:32:28Z</time>
      </trkpt>
      <trkpt lat="47.37447" lon="0.20482">
        <ele>71</ele>
        <time>2020-08-27T09:32:30Z</time>
      </trkpt>
      <trkpt lat="47.3745" lon="0.20482">
        <ele>71</ele>
        <time>2020-08-27T09:32:32Z</time>
      </trkpt>
      <trkpt lat="47.37452" lon="0.20482">
        <ele>70</ele>
        <time>2020-08-27T09:32:34Z</time>
      </trkpt>
      <trkpt lat="47.37454" lon="0.20483">
        <ele>70</ele>
        <time>2020-08-27T09:32:36Z</time>
      </trkpt>
      <trkpt lat="47.37457" lon="0.20483">
        <ele>70</ele>
        <time>2020-08-27T09:32:38Z</time>
      </trkpt>
      <trkpt lat="47.37459" lon="0.20483">
        <ele>70</ele>
        <time>2020-08-27T09:32:40Z</time>
      </trkpt>
      <trkpt lat="47.37461" lon="0.20483">
        <ele>70</ele>
        <time>2020-08-27T09:32:42Z</time>
      </trkpt>
      <trkpt lat="47.37464" lon="0.20482">
        <ele>70</ele>
        <time>2020-08-27T09:32:44Z</time>
      </trkpt>
      <trkpt lat="47.37466" lon="0.20482">
        <ele>70</ele>
        <time>2020-08-27T09:32:46Z</time>
      </trkpt>
      <trkpt lat="47.37469" lon="0.20482">
        <ele>70</ele>
        <time>2020-08-27T09:32:48Z</time>
      </trkpt>
      <trkpt lat="47.37472" lon="0.20482">
        <ele>70</ele>
        <time>2020-08-27T09:32:50Z</time>
      </trkpt>
      <trkpt lat="47.37475" lon="0.20483">
        <ele>69</ele>
        <time>2020-08-27T09:32:52Z</time>
      </trkpt>
      <trkpt lat="47.37478" lon="0.20483">
        <ele>69</ele>
        <time>2020-08-27T09:32:54Z</time>
      </trkpt>
      <trkpt lat="47.3748" lon="0.20483">
        <ele>69</ele>
        <time>2020-08-27T09:32:55Z</time>
      </trkpt>
      <trkpt lat="47.37483" lon="0.20483">
        <ele>69</ele>
        <time>2020-08-27T09:32:57Z</time>
      </trkpt>
      <trkpt lat="47.37486" lon="0.20483">
        <ele>68</ele>
        <time>2020-08-27T09:32:59Z</time>
      </trkpt>
      <trkpt lat="47.37488" lon="0.20484">
        <ele>68</ele>
        <time>2020-08-27T09:33:01Z</time>
      </trkpt>
      <trkpt lat="47.37491" lon="0.20485">
        <ele>68</ele>
        <time>2020-08-27T09:33:03Z</time>
      </trkpt>
      <trkpt lat="47.37494" lon="0.20485">
        <ele>68</ele>
        <time>2020-08-27T09:33:05Z</time>
      </trkpt>
      <trkpt lat="47.37496" lon="0.20485">
        <ele>67</ele>
        <time>2020-08-27T09:33:07Z</time>
      </trkpt>
      <trkpt lat="47.37498" lon="0.20484">
        <ele>67</ele>
        <time>2020-08-27T09:33:09Z</time>
      </trkpt>
      <trkpt lat="47.37501" lon="0.20485">
        <ele>67</ele>
        <time>2020-08-27T09:33:11Z</time>
      </trkpt>
      <trkpt lat="47.37503" lon="0.20486">
        <ele>67</ele>
        <time>2020-08-27T09:33:13Z</time>
      </trkpt>
      <trkpt lat="47.37505" lon="0.20487">
        <ele>67</ele>
        <time>2020-08-27T09:33:15Z</time>
      </trkpt>
      <trkpt lat="47.37504" lon="0.20489">
        <ele>67</ele>
        <time>2020-08-27T09:33:32Z</time>
      </trkpt>
      <trkpt lat="47.37502" lon="0.20491">
        <ele>67</ele>
        <time>2020-08-27T09:33:34Z</time>
      </trkpt>
      <trkpt lat="47.37502" lon="0.20494">
        <ele>67</ele>
        <time>2020-08-27T09:33:39Z</time>
      </trkpt>
      <trkpt lat="47.37502" lon="0.20498">
        <ele>67</ele>
        <time>2020-08-27T09:33:42Z</time>
      </trkpt>
      <trkpt lat="47.37503" lon="0.20501">
        <ele>68</ele>
        <time>2020-08-27T09:33:44Z</time>
      </trkpt>
      <trkpt lat="47.37503" lon="0.20504">
        <ele>68</ele>
        <time>2020-08-27T09:33:46Z</time>
      </trkpt>
      <trkpt lat="47.37504" lon="0.20507">
        <ele>68</ele>
        <time>2020-08-27T09:33:48Z</time>
      </trkpt>
      <trkpt lat="47.37504" lon="0.2051">
        <ele>68</ele>
        <time>2020-08-27T09:33:50Z</time>
      </trkpt>
      <trkpt lat="47.37504" lon="0.20514">
        <ele>69</ele>
        <time>2020-08-27T09:33:52Z</time>
      </trkpt>
      <trkpt lat="47.37504" lon="0.20518">
        <ele>69</ele>
        <time>2020-08-27T09:33:54Z</time>
      </trkpt>
      <trkpt lat="47.37504" lon="0.20521">
        <ele>69</ele>
        <time>2020-08-27T09:33:56Z</time>
      </trkpt>
      <trkpt lat="47.37504" lon="0.20525">
        <ele>69</ele>
        <time>2020-08-27T09:33:58Z</time>
      </trkpt>
      <trkpt lat="47.37504" lon="0.20529">
        <ele>70</ele>
        <time>2020-08-27T09:34:00Z</time>
      </trkpt>
      <trkpt lat="47.37505" lon="0.20533">
        <ele>70</ele>
        <time>2020-08-27T09:34:02Z</time>
      </trkpt>
      <trkpt lat="47.37505" lon="0.20536">
        <ele>70</ele>
        <time>2020-08-27T09:34:04Z</time>
      </trkpt>
      <trkpt lat="47.37506" lon="0.20538">
        <ele>70</ele>
        <time>2020-08-27T09:34:06Z</time>
      </trkpt>
      <trkpt lat="47.37506" lon="0.20542">
        <ele>70</ele>
        <time>2020-08-27T09:34:08Z</time>
      </trkpt>
      <trkpt lat="47.37507" lon="0.20546">
        <ele>71</ele>
        <time>2020-08-27T09:34:11Z</time>
      </trkpt>
      <trkpt lat="47.37507" lon="0.20549">
        <ele>71</ele>
        <time>2020-08-27T09:34:13Z</time>
      </trkpt>
      <trkpt lat="47.37507" lon="0.20553">
        <ele>71</ele>
        <time>2020-08-27T09:34:15Z</time>
      </trkpt>
      <trkpt lat="47.37508" lon="0.20556">
        <ele>71</ele>
        <time>2020-08-27T09:34:17Z</time>
      </trkpt>
      <trkpt lat="47.37508" lon="0.2056">
        <ele>72</ele>
        <time>2020-08-27T09:34:19Z</time>
      </trkpt>
      <trkpt lat="47.37507" lon="0.20564">
        <ele>72</ele>
        <time>2020-08-27T09:34:21Z</time>
      </trkpt>
      <trkpt lat="47.37507" lon="0.20568">
        <ele>72</ele>
        <time>2020-08-27T09:34:23Z</time>
      </trkpt>
      <trkpt lat="47.37506" lon="0.20571">
        <ele>72</ele>
        <time>2020-08-27T09:34:25Z</time>
      </trkpt>
      <trkpt lat="47.37507" lon="0.20575">
        <ele>72</ele>
        <time>2020-08-27T09:34:27Z</time>
      </trkpt>
      <trkpt lat="47.37507" lon="0.20579">
        <ele>73</ele>
        <time>2020-08-27T09:34:29Z</time>
      </trkpt>
      <trkpt lat="47.37507" lon="0.20582">
        <ele>73</ele>
        <time>2020-08-27T09:34:31Z</time>
      </trkpt>
      <trkpt lat="47.37508" lon="0.20585">
        <ele>73</ele>
        <time>2020-08-27T09:34:33Z</time>
      </trkpt>
      <trkpt lat="47.37508" lon="0.20588">
        <ele>73</ele>
        <time>2020-08-27T09:34:35Z</time>
      </trkpt>
      <trkpt lat="47.37508" lon="0.20593">
        <ele>73</ele>
        <time>2020-08-27T09:34:37Z</time>
      </trkpt>
      <trkpt lat="47.37509" lon="0.20597">
        <ele>74</ele>
        <time>2020-08-27T09:34:39Z</time>
      </trkpt>
      <trkpt lat="47.37509" lon="0.20601">
        <ele>74</ele>
        <time>2020-08-27T09:34:41Z</time>
      </trkpt>
      <trkpt lat="47.37509" lon="0.20605">
        <ele>74</ele>
        <time>2020-08-27T09:34:43Z</time>
      </trkpt>
      <trkpt lat="47.37509" lon="0.20608">
        <ele>74</ele>
        <time>2020-08-27T09:34:45Z</time>
      </trkpt>
      <trkpt lat="47.37509" lon="0.20612">
        <ele>75</ele>
        <time>2020-08-27T09:34:47Z</time>
      </trkpt>
      <trkpt lat="47.37509" lon="0.20616">
        <ele>75</ele>
        <time>2020-08-27T09:34:49Z</time>
      </trkpt>
      <trkpt lat="47.3751" lon="0.2062">
        <ele>75</ele>
        <time>2020-08-27T09:34:51Z</time>
      </trkpt>
      <trkpt lat="47.37511" lon="0.20623">
        <ele>75</ele>
        <time>2020-08-27T09:34:53Z</time>
      </trkpt>
      <trkpt lat="47.37512" lon="0.20627">
        <ele>75</ele>
        <time>2020-08-27T09:34:55Z</time>
      </trkpt>
      <trkpt lat="47.37512" lon="0.20631">
        <ele>75</ele>
        <time>2020-08-27T09:34:57Z</time>
      </trkpt>
      <trkpt lat="47.37512" lon="0.20635">
        <ele>75</ele>
        <time>2020-08-27T09:34:59Z</time>
      </trkpt>
      <trkpt lat="47.37512" lon="0.20638">
        <ele>75</ele>
        <time>2020-08-27T09:35:01Z</time>
      </trkpt>
      <trkpt lat="47.37512" lon="0.20641">
        <ele>75</ele>
        <time>2020-08-27T09:35:03Z</time>
      </trkpt>
      <trkpt lat="47.37512" lon="0.20646">
        <ele>75</ele>
        <time>2020-08-27T09:35:05Z</time>
      </trkpt>
      <trkpt lat="47.37512" lon="0.2065">
        <ele>75</ele>
        <time>2020-08-27T09:35:07Z</time>
      </trkpt>
      <trkpt lat="47.37513" lon="0.20654">
        <ele>75</ele>
        <time>2020-08-27T09:35:09Z</time>
      </trkpt>
      <trkpt lat="47.37513" lon="0.20658">
        <ele>75</ele>
        <time>2020-08-27T09:35:11Z</time>
      </trkpt>
      <trkpt lat="47.37513" lon="0.20661">
        <ele>75</ele>
        <time>2020-08-27T09:35:13Z</time>
      </trkpt>
      <trkpt lat="47.37513" lon="0.20665">
        <ele>75</ele>
        <time>2020-08-27T09:35:15Z</time>
      </trkpt>
      <trkpt lat="47.37513" lon="0.20668">
        <ele>74</ele>
        <time>2020-08-27T09:35:17Z</time>
      </trkpt>
      <trkpt lat="47.37513" lon="0.20673">
        <ele>74</ele>
        <time>2020-08-27T09:35:19Z</time>
      </trkpt>
      <trkpt lat="47.37512" lon="0.20677">
        <ele>74</ele>
        <time>2020-08-27T09:35:21Z</time>
      </trkpt>
      <trkpt lat="47.37512" lon="0.20681">
        <ele>73</ele>
        <time>2020-08-27T09:35:23Z</time>
      </trkpt>
      <trkpt lat="47.37512" lon="0.20685">
        <ele>73</ele>
        <time>2020-08-27T09:35:25Z</time>
      </trkpt>
      <trkpt lat="47.37513" lon="0.20688">
        <ele>73</ele>
        <time>2020-08-27T09:35:27Z</time>
      </trkpt>
      <trkpt lat="47.37513" lon="0.20691">
        <ele>73</ele>
        <time>2020-08-27T09:35:29Z</time>
      </trkpt>
      <trkpt lat="47.37513" lon="0.20695">
        <ele>72</ele>
        <time>2020-08-27T09:35:31Z</time>
      </trkpt>
      <trkpt lat="47.37514" lon="0.20699">
        <ele>72</ele>
        <time>2020-08-27T09:35:33Z</time>
      </trkpt>
      <trkpt lat="47.37514" lon="0.20703">
        <ele>72</ele>
        <time>2020-08-27T09:35:35Z</time>
      </trkpt>
      <trkpt lat="47.37514" lon="0.20707">
        <ele>72</ele>
        <time>2020-08-27T09:35:37Z</time>
      </trkpt>
      <trkpt lat="47.37514" lon="0.20712">
        <ele>72</ele>
        <time>2020-08-27T09:35:39Z</time>
      </trkpt>
      <trkpt lat="47.37513" lon="0.20716">
        <ele>71</ele>
        <time>2020-08-27T09:35:41Z</time>
      </trkpt>
      <trkpt lat="47.37512" lon="0.20721">
        <ele>71</ele>
        <time>2020-08-27T09:35:43Z</time>
      </trkpt>
      <trkpt lat="47.37511" lon="0.20725">
        <ele>71</ele>
        <time>2020-08-27T09:35:45Z</time>
      </trkpt>
      <trkpt lat="47.3751" lon="0.2073">
        <ele>71</ele>
        <time>2020-08-27T09:35:47Z</time>
      </trkpt>
      <trkpt lat="47.37509" lon="0.20734">
        <ele>70</ele>
        <time>2020-08-27T09:35:49Z</time>
      </trkpt>
      <trkpt lat="47.37508" lon="0.20738">
        <ele>70</ele>
        <time>2020-08-27T09:35:51Z</time>
      </trkpt>
      <trkpt lat="47.37508" lon="0.20741">
        <ele>70</ele>
        <time>2020-08-27T09:35:53Z</time>
      </trkpt>
      <trkpt lat="47.37508" lon="0.20744">
        <ele>70</ele>
        <time>2020-08-27T09:35:55Z</time>
      </trkpt>
      <trkpt lat="47.37508" lon="0.20747">
        <ele>70</ele>
        <time>2020-08-27T09:35:57Z</time>
      </trkpt>
      <trkpt lat="47.37507" lon="0.2075">
        <ele>70</ele>
        <time>2020-08-27T09:35:59Z</time>
      </trkpt>
      <trkpt lat="47.37506" lon="0.20754">
        <ele>70</ele>
        <time>2020-08-27T09:36:01Z</time>
      </trkpt>
      <trkpt lat="47.37505" lon="0.20757">
        <ele>70</ele>
        <time>2020-08-27T09:36:03Z</time>
      </trkpt>
      <trkpt lat="47.37504" lon="0.20761">
        <ele>70</ele>
        <time>2020-08-27T09:36:05Z</time>
      </trkpt>
      <trkpt lat="47.37503" lon="0.20765">
        <ele>70</ele>
        <time>2020-08-27T09:36:07Z</time>
      </trkpt>
      <trkpt lat="47.37503" lon="0.20768">
        <ele>70</ele>
        <time>2020-08-27T09:36:09Z</time>
      </trkpt>
      <trkpt lat="47.37502" lon="0.2077">
        <ele>70</ele>
        <time>2020-08-27T09:36:11Z</time>
      </trkpt>
      <trkpt lat="47.37501" lon="0.20774">
        <ele>70</ele>
        <time>2020-08-27T09:36:13Z</time>
      </trkpt>
      <trkpt lat="47.375" lon="0.20777">
        <ele>70</ele>
        <time>2020-08-27T09:36:15Z</time>
      </trkpt>
      <trkpt lat="47.37498" lon="0.20781">
        <ele>70</ele>
        <time>2020-08-27T09:36:17Z</time>
      </trkpt>
      <trkpt lat="47.37497" lon="0.20785">
        <ele>70</ele>
        <time>2020-08-27T09:36:19Z</time>
      </trkpt>
      <trkpt lat="47.37496" lon="0.20788">
        <ele>70</ele>
        <time>2020-08-27T09:36:21Z</time>
      </trkpt>
      <trkpt lat="47.37495" lon="0.20792">
        <ele>70</ele>
        <time>2020-08-27T09:36:23Z</time>
      </trkpt>
      <trkpt lat="47.37493" lon="0.20796">
        <ele>71</ele>
        <time>2020-08-27T09:36:25Z</time>
      </trkpt>
      <trkpt lat="47.37492" lon="0.20799">
        <ele>71</ele>
        <time>2020-08-27T09:36:27Z</time>
      </trkpt>
      <trkpt lat="47.3749" lon="0.20801">
        <ele>71</ele>
        <time>2020-08-27T09:36:29Z</time>
      </trkpt>
      <trkpt lat="47.37489" lon="0.20805">
        <ele>71</ele>
        <time>2020-08-27T09:36:32Z</time>
      </trkpt>
      <trkpt lat="47.37487" lon="0.20808">
        <ele>71</ele>
        <time>2020-08-27T09:36:34Z</time>
      </trkpt>
      <trkpt lat="47.37486" lon="0.20811">
        <ele>71</ele>
        <time>2020-08-27T09:36:36Z</time>
      </trkpt>
      <trkpt lat="47.37484" lon="0.20815">
        <ele>71</ele>
        <time>2020-08-27T09:36:38Z</time>
      </trkpt>
      <trkpt lat="47.37483" lon="0.20818">
        <ele>72</ele>
        <time>2020-08-27T09:36:40Z</time>
      </trkpt>
      <trkpt lat="47.37482" lon="0.20821">
        <ele>72</ele>
        <time>2020-08-27T09:36:42Z</time>
      </trkpt>
      <trkpt lat="47.37481" lon="0.20824">
        <ele>72</ele>
        <time>2020-08-27T09:36:44Z</time>
      </trkpt>
      <trkpt lat="47.3748" lon="0.20828">
        <ele>72</ele>
        <time>2020-08-27T09:36:46Z</time>
      </trkpt>
      <trkpt lat="47.37479" lon="0.20831">
        <ele>72</ele>
        <time>2020-08-27T09:36:48Z</time>
      </trkpt>
      <trkpt lat="47.37477" lon="0.20835">
        <ele>72</ele>
        <time>2020-08-27T09:36:50Z</time>
      </trkpt>
      <trkpt lat="47.37476" lon="0.20838">
        <ele>72</ele>
        <time>2020-08-27T09:36:52Z</time>
      </trkpt>
      <trkpt lat="47.37475" lon="0.20841">
        <ele>72</ele>
        <time>2020-08-27T09:36:54Z</time>
      </trkpt>
      <trkpt lat="47.37474" lon="0.20845">
        <ele>73</ele>
        <time>2020-08-27T09:36:56Z</time>
      </trkpt>
      <trkpt lat="47.37473" lon="0.20849">
        <ele>73</ele>
        <time>2020-08-27T09:36:58Z</time>
      </trkpt>
      <trkpt lat="47.37472" lon="0.20852">
        <ele>73</ele>
        <time>2020-08-27T09:37:00Z</time>
      </trkpt>
      <trkpt lat="47.37471" lon="0.20856">
        <ele>73</ele>
        <time>2020-08-27T09:37:02Z</time>
      </trkpt>
      <trkpt lat="47.3747" lon="0.20859">
        <ele>73</ele>
        <time>2020-08-27T09:37:04Z</time>
      </trkpt>
      <trkpt lat="47.37468" lon="0.20863">
        <ele>74</ele>
        <time>2020-08-27T09:37:06Z</time>
      </trkpt>
      <trkpt lat="47.37467" lon="0.20867">
        <ele>74</ele>
        <time>2020-08-27T09:37:08Z</time>
      </trkpt>
      <trkpt lat="47.37466" lon="0.2087">
        <ele>74</ele>
        <time>2020-08-27T09:37:10Z</time>
      </trkpt>
      <trkpt lat="47.37464" lon="0.20873">
        <ele>74</ele>
        <time>2020-08-27T09:37:12Z</time>
      </trkpt>
      <trkpt lat="47.37463" lon="0.20877">
        <ele>75</ele>
        <time>2020-08-27T09:37:14Z</time>
      </trkpt>
      <trkpt lat="47.37463" lon="0.2088">
        <ele>75</ele>
        <time>2020-08-27T09:37:16Z</time>
      </trkpt>
      <trkpt lat="47.37461" lon="0.20883">
        <ele>75</ele>
        <time>2020-08-27T09:37:18Z</time>
      </trkpt>
      <trkpt lat="47.3746" lon="0.20886">
        <ele>75</ele>
        <time>2020-08-27T09:37:20Z</time>
      </trkpt>
      <trkpt lat="47.37459" lon="0.20888">
        <ele>75</ele>
        <time>2020-08-27T09:37:22Z</time>
      </trkpt>
      <trkpt lat="47.37458" lon="0.20891">
        <ele>76</ele>
        <time>2020-08-27T09:37:24Z</time>
      </trkpt>
      <trkpt lat="47.37458" lon="0.20894">
        <ele>76</ele>
        <time>2020-08-27T09:37:27Z</time>
      </trkpt>
      <trkpt lat="47.37457" lon="0.20898">
        <ele>76</ele>
        <time>2020-08-27T09:37:30Z</time>
      </trkpt>
      <trkpt lat="47.37457" lon="0.20901">
        <ele>76</ele>
        <time>2020-08-27T09:37:32Z</time>
      </trkpt>
      <trkpt lat="47.37456" lon="0.20904">
        <ele>76</ele>
        <time>2020-08-27T09:37:34Z</time>
      </trkpt>
      <trkpt lat="47.37454" lon="0.20907">
        <ele>76</ele>
        <time>2020-08-27T09:37:36Z</time>
      </trkpt>
      <trkpt lat="47.37452" lon="0.2091">
        <ele>76</ele>
        <time>2020-08-27T09:37:38Z</time>
      </trkpt>
      <trkpt lat="47.37451" lon="0.20913">
        <ele>77</ele>
        <time>2020-08-27T09:37:40Z</time>
      </trkpt>
      <trkpt lat="47.3745" lon="0.20917">
        <ele>77</ele>
        <time>2020-08-27T09:37:42Z</time>
      </trkpt>
      <trkpt lat="47.37449" lon="0.2092">
        <ele>77</ele>
        <time>2020-08-27T09:37:44Z</time>
      </trkpt>
      <trkpt lat="47.37447" lon="0.20923">
        <ele>77</ele>
        <time>2020-08-27T09:37:46Z</time>
      </trkpt>
      <trkpt lat="47.37446" lon="0.20926">
        <ele>77</ele>
        <time>2020-08-27T09:37:48Z</time>
      </trkpt>
      <trkpt lat="47.37444" lon="0.2093">
        <ele>77</ele>
        <time>2020-08-27T09:37:50Z</time>
      </trkpt>
      <trkpt lat="47.37442" lon="0.20934">
        <ele>77</ele>
        <time>2020-08-27T09:37:52Z</time>
      </trkpt>
      <trkpt lat="47.37441" lon="0.20938">
        <ele>77</ele>
        <time>2020-08-27T09:37:54Z</time>
      </trkpt>
      <trkpt lat="47.3744" lon="0.20942">
        <ele>77</ele>
        <time>2020-08-27T09:37:56Z</time>
      </trkpt>
      <trkpt lat="47.3744" lon="0.20945">
        <ele>77</ele>
        <time>2020-08-27T09:37:58Z</time>
      </trkpt>
      <trkpt lat="47.37439" lon="0.20947">
        <ele>77</ele>
        <time>2020-08-27T09:38:00Z</time>
      </trkpt>
      <trkpt lat="47.37437" lon="0.2095">
        <ele>77</ele>
        <time>2020-08-27T09:38:02Z</time>
      </trkpt>
      <trkpt lat="47.37436" lon="0.20953">
        <ele>77</ele>
        <time>2020-08-27T09:38:04Z</time>
      </trkpt>
      <trkpt lat="47.37434" lon="0.20957">
        <ele>77</ele>
        <time>2020-08-27T09:38:06Z</time>
      </trkpt>
      <trkpt lat="47.37434" lon="0.20961">
        <ele>77</ele>
        <time>2020-08-27T09:38:08Z</time>
      </trkpt>
      <trkpt lat="47.37433" lon="0.20965">
        <ele>77</ele>
        <time>2020-08-27T09:38:10Z</time>
      </trkpt>
      <trkpt lat="47.37433" lon="0.20969">
        <ele>77</ele>
        <time>2020-08-27T09:38:12Z</time>
      </trkpt>
      <trkpt lat="47.37432" lon="0.20973">
        <ele>77</ele>
        <time>2020-08-27T09:38:14Z</time>
      </trkpt>
      <trkpt lat="47.37432" lon="0.20976">
        <ele>77</ele>
        <time>2020-08-27T09:38:16Z</time>
      </trkpt>
      <trkpt lat="47.37432" lon="0.20979">
        <ele>77</ele>
        <time>2020-08-27T09:38:18Z</time>
      </trkpt>
      <trkpt lat="47.37432" lon="0.20984">
        <ele>77</ele>
        <time>2020-08-27T09:38:20Z</time>
      </trkpt>
      <trkpt lat="47.37431" lon="0.20988">
        <ele>77</ele>
        <time>2020-08-27T09:38:22Z</time>
      </trkpt>
      <trkpt lat="47.3743" lon="0.20992">
        <ele>77</ele>
        <time>2020-08-27T09:38:24Z</time>
      </trkpt>
      <trkpt lat="47.3743" lon="0.20996">
        <ele>77</ele>
        <time>2020-08-27T09:38:26Z</time>
      </trkpt>
      <trkpt lat="47.37429" lon="0.21">
        <ele>77</ele>
        <time>2020-08-27T09:38:28Z</time>
      </trkpt>
      <trkpt lat="47.37428" lon="0.21004">
        <ele>77</ele>
        <time>2020-08-27T09:38:30Z</time>
      </trkpt>
      <trkpt lat="47.37427" lon="0.21008">
        <ele>77</ele>
        <time>2020-08-27T09:38:32Z</time>
      </trkpt>
      <trkpt lat="47.37426" lon="0.21012">
        <ele>77</ele>
        <time>2020-08-27T09:38:34Z</time>
      </trkpt>
      <trkpt lat="47.37425" lon="0.21016">
        <ele>77</ele>
        <time>2020-08-27T09:38:36Z</time>
      </trkpt>
      <trkpt lat="47.37424" lon="0.2102">
        <ele>77</ele>
        <time>2020-08-27T09:38:38Z</time>
      </trkpt>
      <trkpt lat="47.37423" lon="0.21024">
        <ele>77</ele>
        <time>2020-08-27T09:38:40Z</time>
      </trkpt>
      <trkpt lat="47.37422" lon="0.21028">
        <ele>77</ele>
        <time>2020-08-27T09:38:42Z</time>
      </trkpt>
      <trkpt lat="47.37422" lon="0.21032">
        <ele>77</ele>
        <time>2020-08-27T09:38:44Z</time>
      </trkpt>
      <trkpt lat="47.37421" lon="0.21035">
        <ele>77</ele>
        <time>2020-08-27T09:38:46Z</time>
      </trkpt>
      <trkpt lat="47.37421" lon="0.21039">
        <ele>77</ele>
        <time>2020-08-27T09:38:48Z</time>
      </trkpt>
      <trkpt lat="47.37421" lon="0.21042">
        <ele>77</ele>
        <time>2020-08-27T09:38:50Z</time>
      </trkpt>
      <trkpt lat="47.37421" lon="0.21045">
        <ele>77</ele>
        <time>2020-08-27T09:38:52Z</time>
      </trkpt>
      <trkpt lat="47.37421" lon="0.21048">
        <ele>77</ele>
        <time>2020-08-27T09:38:54Z</time>
      </trkpt>
      <trkpt lat="47.37421" lon="0.21052">
        <ele>77</ele>
        <time>2020-08-27T09:38:56Z</time>
      </trkpt>
      <trkpt lat="47.37421" lon="0.21055">
        <ele>77</ele>
        <time>2020-08-27T09:38:58Z</time>
      </trkpt>
      <trkpt lat="47.37421" lon="0.21058">
        <ele>76</ele>
        <time>2020-08-27T09:39:00Z</time>
      </trkpt>
      <trkpt lat="47.37421" lon="0.21062">
        <ele>76</ele>
        <time>2020-08-27T09:39:02Z</time>
      </trkpt>
      <trkpt lat="47.3742" lon="0.21064">
        <ele>76</ele>
        <time>2020-08-27T09:39:04Z</time>
      </trkpt>
      <trkpt lat="47.3742" lon="0.21067">
        <ele>76</ele>
        <time>2020-08-27T09:39:06Z</time>
      </trkpt>
      <trkpt lat="47.37419" lon="0.2107">
        <ele>76</ele>
        <time>2020-08-27T09:39:08Z</time>
      </trkpt>
      <trkpt lat="47.37419" lon="0.21074">
        <ele>76</ele>
        <time>2020-08-27T09:39:10Z</time>
      </trkpt>
      <trkpt lat="47.37417" lon="0.21078">
        <ele>76</ele>
        <time>2020-08-27T09:39:12Z</time>
      </trkpt>
      <trkpt lat="47.37416" lon="0.21082">
        <ele>75</ele>
        <time>2020-08-27T09:39:14Z</time>
      </trkpt>
      <trkpt lat="47.37415" lon="0.21086">
        <ele>75</ele>
        <time>2020-08-27T09:39:16Z</time>
      </trkpt>
      <trkpt lat="47.37414" lon="0.2109">
        <ele>75</ele>
        <time>2020-08-27T09:39:18Z</time>
      </trkpt>
      <trkpt lat="47.37413" lon="0.21093">
        <ele>75</ele>
        <time>2020-08-27T09:39:20Z</time>
      </trkpt>
      <trkpt lat="47.37413" lon="0.21097">
        <ele>75</ele>
        <time>2020-08-27T09:39:22Z</time>
      </trkpt>
      <trkpt lat="47.37412" lon="0.21101">
        <ele>75</ele>
        <time>2020-08-27T09:39:24Z</time>
      </trkpt>
      <trkpt lat="47.3741" lon="0.21106">
        <ele>75</ele>
        <time>2020-08-27T09:39:26Z</time>
      </trkpt>
      <trkpt lat="47.37407" lon="0.21109">
        <ele>74</ele>
        <time>2020-08-27T09:39:28Z</time>
      </trkpt>
      <trkpt lat="47.37405" lon="0.21113">
        <ele>74</ele>
        <time>2020-08-27T09:39:30Z</time>
      </trkpt>
      <trkpt lat="47.37404" lon="0.21117">
        <ele>74</ele>
        <time>2020-08-27T09:39:32Z</time>
      </trkpt>
      <trkpt lat="47.37403" lon="0.2112">
        <ele>74</ele>
        <time>2020-08-27T09:39:34Z</time>
      </trkpt>
      <trkpt lat="47.37403" lon="0.21124">
        <ele>73</ele>
        <time>2020-08-27T09:39:36Z</time>
      </trkpt>
      <trkpt lat="47.37402" lon="0.21127">
        <ele>73</ele>
        <time>2020-08-27T09:39:38Z</time>
      </trkpt>
      <trkpt lat="47.37401" lon="0.21131">
        <ele>73</ele>
        <time>2020-08-27T09:39:40Z</time>
      </trkpt>
      <trkpt lat="47.37401" lon="0.21135">
        <ele>73</ele>
        <time>2020-08-27T09:39:42Z</time>
      </trkpt>
      <trkpt lat="47.374" lon="0.21139">
        <ele>73</ele>
        <time>2020-08-27T09:39:44Z</time>
      </trkpt>
      <trkpt lat="47.37399" lon="0.21144">
        <ele>73</ele>
        <time>2020-08-27T09:39:46Z</time>
      </trkpt>
      <trkpt lat="47.37398" lon="0.21148">
        <ele>73</ele>
        <time>2020-08-27T09:39:48Z</time>
      </trkpt>
      <trkpt lat="47.37398" lon="0.21152">
        <ele>73</ele>
        <time>2020-08-27T09:39:50Z</time>
      </trkpt>
      <trkpt lat="47.37396" lon="0.21156">
        <ele>73</ele>
        <time>2020-08-27T09:39:52Z</time>
      </trkpt>
      <trkpt lat="47.37396" lon="0.21159">
        <ele>73</ele>
        <time>2020-08-27T09:39:54Z</time>
      </trkpt>
      <trkpt lat="47.37395" lon="0.21162">
        <ele>72</ele>
        <time>2020-08-27T09:39:56Z</time>
      </trkpt>
      <trkpt lat="47.37395" lon="0.21166">
        <ele>72</ele>
        <time>2020-08-27T09:39:58Z</time>
      </trkpt>
      <trkpt lat="47.37394" lon="0.21169">
        <ele>72</ele>
        <time>2020-08-27T09:40:00Z</time>
      </trkpt>
      <trkpt lat="47.37394" lon="0.21173">
        <ele>73</ele>
        <time>2020-08-27T09:40:02Z</time>
      </trkpt>
      <trkpt lat="47.37394" lon="0.21176">
        <ele>73</ele>
        <time>2020-08-27T09:40:04Z</time>
      </trkpt>
      <trkpt lat="47.37393" lon="0.21179">
        <ele>73</ele>
        <time>2020-08-27T09:40:06Z</time>
      </trkpt>
      <trkpt lat="47.37392" lon="0.21183">
        <ele>72</ele>
        <time>2020-08-27T09:40:08Z</time>
      </trkpt>
      <trkpt lat="47.37391" lon="0.21186">
        <ele>72</ele>
        <time>2020-08-27T09:40:10Z</time>
      </trkpt>
      <trkpt lat="47.37389" lon="0.21189">
        <ele>72</ele>
        <time>2020-08-27T09:40:12Z</time>
      </trkpt>
      <trkpt lat="47.37389" lon="0.21193">
        <ele>72</ele>
        <time>2020-08-27T09:40:14Z</time>
      </trkpt>
      <trkpt lat="47.37388" lon="0.21197">
        <ele>73</ele>
        <time>2020-08-27T09:40:16Z</time>
      </trkpt>
      <trkpt lat="47.37388" lon="0.21201">
        <ele>73</ele>
        <time>2020-08-27T09:40:18Z</time>
      </trkpt>
      <trkpt lat="47.37387" lon="0.21204">
        <ele>73</ele>
        <time>2020-08-27T09:40:20Z</time>
      </trkpt>
      <trkpt lat="47.37386" lon="0.21207">
        <ele>73</ele>
        <time>2020-08-27T09:40:22Z</time>
      </trkpt>
      <trkpt lat="47.37385" lon="0.2121">
        <ele>73</ele>
        <time>2020-08-27T09:40:24Z</time>
      </trkpt>
      <trkpt lat="47.37383" lon="0.21214">
        <ele>74</ele>
        <time>2020-08-27T09:40:26Z</time>
      </trkpt>
      <trkpt lat="47.37382" lon="0.21218">
        <ele>74</ele>
        <time>2020-08-27T09:40:28Z</time>
      </trkpt>
      <trkpt lat="47.37381" lon="0.21222">
        <ele>74</ele>
        <time>2020-08-27T09:40:30Z</time>
      </trkpt>
      <trkpt lat="47.3738" lon="0.21225">
        <ele>74</ele>
        <time>2020-08-27T09:40:32Z</time>
      </trkpt>
      <trkpt lat="47.37379" lon="0.21229">
        <ele>74</ele>
        <time>2020-08-27T09:40:34Z</time>
      </trkpt>
      <trkpt lat="47.37377" lon="0.21232">
        <ele>74</ele>
        <time>2020-08-27T09:40:36Z</time>
      </trkpt>
      <trkpt lat="47.37376" lon="0.21236">
        <ele>74</ele>
        <time>2020-08-27T09:40:38Z</time>
      </trkpt>
      <trkpt lat="47.37375" lon="0.2124">
        <ele>74</ele>
        <time>2020-08-27T09:40:40Z</time>
      </trkpt>
      <trkpt lat="47.37373" lon="0.21243">
        <ele>74</ele>
        <time>2020-08-27T09:40:42Z</time>
      </trkpt>
      <trkpt lat="47.37372" lon="0.21246">
        <ele>74</ele>
        <time>2020-08-27T09:40:44Z</time>
      </trkpt>
      <trkpt lat="47.3737" lon="0.21249">
        <ele>74</ele>
        <time>2020-08-27T09:40:46Z</time>
      </trkpt>
      <trkpt lat="47.37369" lon="0.21253">
        <ele>74</ele>
        <time>2020-08-27T09:40:48Z</time>
      </trkpt>
      <trkpt lat="47.37367" lon="0.21256">
        <ele>74</ele>
        <time>2020-08-27T09:40:49Z</time>
      </trkpt>
      <trkpt lat="47.37366" lon="0.21258">
        <ele>74</ele>
        <time>2020-08-27T09:40:50Z</time>
      </trkpt>
      <trkpt lat="47.37365" lon="0.21262">
        <ele>74</ele>
        <time>2020-08-27T09:40:52Z</time>
      </trkpt>
      <trkpt lat="47.37364" lon="0.21265">
        <ele>74</ele>
        <time>2020-08-27T09:40:54Z</time>
      </trkpt>
      <trkpt lat="47.37362" lon="0.21268">
        <ele>74</ele>
        <time>2020-08-27T09:40:56Z</time>
      </trkpt>
      <trkpt lat="47.37361" lon="0.2127">
        <ele>74</ele>
        <time>2020-08-27T09:40:58Z</time>
      </trkpt>
      <trkpt lat="47.3736" lon="0.21273">
        <ele>74</ele>
        <time>2020-08-27T09:41:00Z</time>
      </trkpt>
      <trkpt lat="47.37359" lon="0.21276">
        <ele>74</ele>
        <time>2020-08-27T09:41:02Z</time>
      </trkpt>
      <trkpt lat="47.37357" lon="0.21278">
        <ele>74</ele>
        <time>2020-08-27T09:41:04Z</time>
      </trkpt>
      <trkpt lat="47.37355" lon="0.21279">
        <ele>74</ele>
        <time>2020-08-27T09:41:06Z</time>
      </trkpt>
      <trkpt lat="47.37353" lon="0.21281">
        <ele>74</ele>
        <time>2020-08-27T09:41:17Z</time>
      </trkpt>
      <trkpt lat="47.37352" lon="0.21284">
        <ele>74</ele>
        <time>2020-08-27T09:41:19Z</time>
      </trkpt>
      <trkpt lat="47.3735" lon="0.21286">
        <ele>74</ele>
        <time>2020-08-27T09:41:21Z</time>
      </trkpt>
      <trkpt lat="47.37349" lon="0.21288">
        <ele>74</ele>
        <time>2020-08-27T09:41:23Z</time>
      </trkpt>
      <trkpt lat="47.37347" lon="0.21291">
        <ele>74</ele>
        <time>2020-08-27T09:41:25Z</time>
      </trkpt>
      <trkpt lat="47.37345" lon="0.21294">
        <ele>74</ele>
        <time>2020-08-27T09:41:27Z</time>
      </trkpt>
      <trkpt lat="47.37344" lon="0.21297">
        <ele>74</ele>
        <time>2020-08-27T09:41:29Z</time>
      </trkpt>
      <trkpt lat="47.37342" lon="0.213">
        <ele>74</ele>
        <time>2020-08-27T09:41:31Z</time>
      </trkpt>
      <trkpt lat="47.3734" lon="0.21303">
        <ele>74</ele>
        <time>2020-08-27T09:41:33Z</time>
      </trkpt>
      <trkpt lat="47.37338" lon="0.21306">
        <ele>74</ele>
        <time>2020-08-27T09:41:35Z</time>
      </trkpt>
      <trkpt lat="47.37336" lon="0.21309">
        <ele>74</ele>
        <time>2020-08-27T09:41:37Z</time>
      </trkpt>
      <trkpt lat="47.37335" lon="0.21312">
        <ele>74</ele>
        <time>2020-08-27T09:41:39Z</time>
      </trkpt>
      <trkpt lat="47.37334" lon="0.21315">
        <ele>74</ele>
        <time>2020-08-27T09:41:41Z</time>
      </trkpt>
      <trkpt lat="47.37334" lon="0.21318">
        <ele>74</ele>
        <time>2020-08-27T09:41:42Z</time>
      </trkpt>
      <trkpt lat="47.37333" lon="0.21322">
        <ele>74</ele>
        <time>2020-08-27T09:41:44Z</time>
      </trkpt>
      <trkpt lat="47.37332" lon="0.21325">
        <ele>74</ele>
        <time>2020-08-27T09:41:46Z</time>
      </trkpt>
      <trkpt lat="47.37329" lon="0.21327">
        <ele>74</ele>
        <time>2020-08-27T09:41:49Z</time>
      </trkpt>
      <trkpt lat="47.37327" lon="0.2133">
        <ele>74</ele>
        <time>2020-08-27T09:41:51Z</time>
      </trkpt>
      <trkpt lat="47.37325" lon="0.21332">
        <ele>74</ele>
        <time>2020-08-27T09:41:53Z</time>
      </trkpt>
      <trkpt lat="47.37323" lon="0.21334">
        <ele>74</ele>
        <time>2020-08-27T09:41:55Z</time>
      </trkpt>
      <trkpt lat="47.37322" lon="0.21337">
        <ele>74</ele>
        <time>2020-08-27T09:41:57Z</time>
      </trkpt>
      <trkpt lat="47.37319" lon="0.2134">
        <ele>74</ele>
        <time>2020-08-27T09:41:59Z</time>
      </trkpt>
      <trkpt lat="47.37317" lon="0.21342">
        <ele>74</ele>
        <time>2020-08-27T09:42:01Z</time>
      </trkpt>
      <trkpt lat="47.37314" lon="0.21345">
        <ele>74</ele>
        <time>2020-08-27T09:42:03Z</time>
      </trkpt>
      <trkpt lat="47.37312" lon="0.21348">
        <ele>74</ele>
        <time>2020-08-27T09:42:05Z</time>
      </trkpt>
      <trkpt lat="47.3731" lon="0.2135">
        <ele>74</ele>
        <time>2020-08-27T09:42:07Z</time>
      </trkpt>
      <trkpt lat="47.37307" lon="0.21353">
        <ele>74</ele>
        <time>2020-08-27T09:42:09Z</time>
      </trkpt>
      <trkpt lat="47.37305" lon="0.21355">
        <ele>74</ele>
        <time>2020-08-27T09:42:11Z</time>
      </trkpt>
      <trkpt lat="47.37303" lon="0.21358">
        <ele>74</ele>
        <time>2020-08-27T09:42:13Z</time>
      </trkpt>
      <trkpt lat="47.37301" lon="0.21361">
        <ele>74</ele>
        <time>2020-08-27T09:42:15Z</time>
      </trkpt>
      <trkpt lat="47.37299" lon="0.21364">
        <ele>74</ele>
        <time>2020-08-27T09:42:17Z</time>
      </trkpt>
      <trkpt lat="47.37297" lon="0.21367">
        <ele>74</ele>
        <time>2020-08-27T09:42:19Z</time>
      </trkpt>
      <trkpt lat="47.37296" lon="0.2137">
        <ele>74</ele>
        <time>2020-08-27T09:42:21Z</time>
      </trkpt>
      <trkpt lat="47.37294" lon="0.21373">
        <ele>74</ele>
        <time>2020-08-27T09:42:23Z</time>
      </trkpt>
      <trkpt lat="47.37293" lon="0.21377">
        <ele>74</ele>
        <time>2020-08-27T09:42:25Z</time>
      </trkpt>
      <trkpt lat="47.37291" lon="0.21379">
        <ele>73</ele>
        <time>2020-08-27T09:42:27Z</time>
      </trkpt>
      <trkpt lat="47.3729" lon="0.21382">
        <ele>73</ele>
        <time>2020-08-27T09:42:29Z</time>
      </trkpt>
      <trkpt lat="47.37288" lon="0.21385">
        <ele>73</ele>
        <time>2020-08-27T09:42:31Z</time>
      </trkpt>
      <trkpt lat="47.37287" lon="0.21388">
        <ele>73</ele>
        <time>2020-08-27T09:42:33Z</time>
      </trkpt>
      <trkpt lat="47.37286" lon="0.21391">
        <ele>73</ele>
        <time>2020-08-27T09:42:35Z</time>
      </trkpt>
      <trkpt lat="47.37284" lon="0.21395">
        <ele>73</ele>
        <time>2020-08-27T09:42:37Z</time>
      </trkpt>
      <trkpt lat="47.37283" lon="0.21399">
        <ele>73</ele>
        <time>2020-08-27T09:42:39Z</time>
      </trkpt>
      <trkpt lat="47.37282" lon="0.21402">
        <ele>73</ele>
        <time>2020-08-27T09:42:41Z</time>
      </trkpt>
      <trkpt lat="47.37281" lon="0.21406">
        <ele>73</ele>
        <time>2020-08-27T09:42:43Z</time>
      </trkpt>
      <trkpt lat="47.3728" lon="0.21409">
        <ele>73</ele>
        <time>2020-08-27T09:42:45Z</time>
      </trkpt>
      <trkpt lat="47.37279" lon="0.21413">
        <ele>73</ele>
        <time>2020-08-27T09:42:47Z</time>
      </trkpt>
      <trkpt lat="47.37278" lon="0.21416">
        <ele>72</ele>
        <time>2020-08-27T09:42:49Z</time>
      </trkpt>
      <trkpt lat="47.37277" lon="0.2142">
        <ele>72</ele>
        <time>2020-08-27T09:42:51Z</time>
      </trkpt>
      <trkpt lat="47.37276" lon="0.21423">
        <ele>72</ele>
        <time>2020-08-27T09:42:53Z</time>
      </trkpt>
      <trkpt lat="47.37275" lon="0.21426">
        <ele>72</ele>
        <time>2020-08-27T09:42:55Z</time>
      </trkpt>
      <trkpt lat="47.37275" lon="0.2143">
        <ele>72</ele>
        <time>2020-08-27T09:42:57Z</time>
      </trkpt>
      <trkpt lat="47.37274" lon="0.21433">
        <ele>72</ele>
        <time>2020-08-27T09:42:59Z</time>
      </trkpt>
      <trkpt lat="47.37274" lon="0.21437">
        <ele>72</ele>
        <time>2020-08-27T09:43:01Z</time>
      </trkpt>
      <trkpt lat="47.37273" lon="0.21441">
        <ele>72</ele>
        <time>2020-08-27T09:43:03Z</time>
      </trkpt>
      <trkpt lat="47.37273" lon="0.21445">
        <ele>72</ele>
        <time>2020-08-27T09:43:05Z</time>
      </trkpt>
      <trkpt lat="47.37272" lon="0.21449">
        <ele>72</ele>
        <time>2020-08-27T09:43:07Z</time>
      </trkpt>
      <trkpt lat="47.37272" lon="0.21452">
        <ele>72</ele>
        <time>2020-08-27T09:43:09Z</time>
      </trkpt>
      <trkpt lat="47.37271" lon="0.21454">
        <ele>72</ele>
        <time>2020-08-27T09:43:11Z</time>
      </trkpt>
      <trkpt lat="47.37271" lon="0.21457">
        <ele>72</ele>
        <time>2020-08-27T09:43:13Z</time>
      </trkpt>
      <trkpt lat="47.37271" lon="0.21461">
        <ele>72</ele>
        <time>2020-08-27T09:43:15Z</time>
      </trkpt>
      <trkpt lat="47.3727" lon="0.21465">
        <ele>72</ele>
        <time>2020-08-27T09:43:17Z</time>
      </trkpt>
      <trkpt lat="47.3727" lon="0.21468">
        <ele>72</ele>
        <time>2020-08-27T09:43:19Z</time>
      </trkpt>
      <trkpt lat="47.37269" lon="0.21472">
        <ele>72</ele>
        <time>2020-08-27T09:43:21Z</time>
      </trkpt>
      <trkpt lat="47.37269" lon="0.21477">
        <ele>71</ele>
        <time>2020-08-27T09:43:23Z</time>
      </trkpt>
      <trkpt lat="47.37269" lon="0.21481">
        <ele>71</ele>
        <time>2020-08-27T09:43:25Z</time>
      </trkpt>
      <trkpt lat="47.37269" lon="0.21484">
        <ele>71</ele>
        <time>2020-08-27T09:43:27Z</time>
      </trkpt>
      <trkpt lat="47.37269" lon="0.21489">
        <ele>71</ele>
        <time>2020-08-27T09:43:29Z</time>
      </trkpt>
      <trkpt lat="47.37269" lon="0.21493">
        <ele>71</ele>
        <time>2020-08-27T09:43:31Z</time>
      </trkpt>
      <trkpt lat="47.37269" lon="0.21497">
        <ele>71</ele>
        <time>2020-08-27T09:43:33Z</time>
      </trkpt>
      <trkpt lat="47.37269" lon="0.21501">
        <ele>71</ele>
        <time>2020-08-27T09:43:35Z</time>
      </trkpt>
      <trkpt lat="47.37269" lon="0.21504">
        <ele>71</ele>
        <time>2020-08-27T09:43:37Z</time>
      </trkpt>
      <trkpt lat="47.37269" lon="0.21508">
        <ele>71</ele>
        <time>2020-08-27T09:43:39Z</time>
      </trkpt>
      <trkpt lat="47.37269" lon="0.21512">
        <ele>71</ele>
        <time>2020-08-27T09:43:41Z</time>
      </trkpt>
      <trkpt lat="47.3727" lon="0.21516">
        <ele>71</ele>
        <time>2020-08-27T09:43:43Z</time>
      </trkpt>
      <trkpt lat="47.3727" lon="0.2152">
        <ele>71</ele>
        <time>2020-08-27T09:43:45Z</time>
      </trkpt>
      <trkpt lat="47.3727" lon="0.21523">
        <ele>71</ele>
        <time>2020-08-27T09:43:47Z</time>
      </trkpt>
      <trkpt lat="47.3727" lon="0.21527">
        <ele>71</ele>
        <time>2020-08-27T09:43:49Z</time>
      </trkpt>
      <trkpt lat="47.37271" lon="0.21531">
        <ele>71</ele>
        <time>2020-08-27T09:43:51Z</time>
      </trkpt>
      <trkpt lat="47.37271" lon="0.21535">
        <ele>71</ele>
        <time>2020-08-27T09:43:53Z</time>
      </trkpt>
      <trkpt lat="47.37272" lon="0.21538">
        <ele>71</ele>
        <time>2020-08-27T09:43:55Z</time>
      </trkpt>
      <trkpt lat="47.37272" lon="0.21542">
        <ele>71</ele>
        <time>2020-08-27T09:43:57Z</time>
      </trkpt>
      <trkpt lat="47.37274" lon="0.21546">
        <ele>71</ele>
        <time>2020-08-27T09:43:59Z</time>
      </trkpt>
      <trkpt lat="47.37275" lon="0.21549">
        <ele>71</ele>
        <time>2020-08-27T09:44:01Z</time>
      </trkpt>
      <trkpt lat="47.37277" lon="0.21552">
        <ele>71</ele>
        <time>2020-08-27T09:44:03Z</time>
      </trkpt>
      <trkpt lat="47.37279" lon="0.21556">
        <ele>72</ele>
        <time>2020-08-27T09:44:05Z</time>
      </trkpt>
      <trkpt lat="47.3728" lon="0.2156">
        <ele>71</ele>
        <time>2020-08-27T09:44:07Z</time>
      </trkpt>
      <trkpt lat="47.3728" lon="0.21563">
        <ele>71</ele>
        <time>2020-08-27T09:44:09Z</time>
      </trkpt>
      <trkpt lat="47.3728" lon="0.21566">
        <ele>71</ele>
        <time>2020-08-27T09:44:11Z</time>
      </trkpt>
      <trkpt lat="47.3728" lon="0.2157">
        <ele>71</ele>
        <time>2020-08-27T09:44:13Z</time>
      </trkpt>
      <trkpt lat="47.37281" lon="0.21574">
        <ele>71</ele>
        <time>2020-08-27T09:44:15Z</time>
      </trkpt>
      <trkpt lat="47.37282" lon="0.21578">
        <ele>71</ele>
        <time>2020-08-27T09:44:17Z</time>
      </trkpt>
      <trkpt lat="47.37282" lon="0.21581">
        <ele>71</ele>
        <time>2020-08-27T09:44:19Z</time>
      </trkpt>
      <trkpt lat="47.37283" lon="0.21585">
        <ele>71</ele>
        <time>2020-08-27T09:44:21Z</time>
      </trkpt>
      <trkpt lat="47.37284" lon="0.21589">
        <ele>71</ele>
        <time>2020-08-27T09:44:23Z</time>
      </trkpt>
      <trkpt lat="47.37285" lon="0.21592">
        <ele>71</ele>
        <time>2020-08-27T09:44:25Z</time>
      </trkpt>
      <trkpt lat="47.37285" lon="0.21596">
        <ele>71</ele>
        <time>2020-08-27T09:44:27Z</time>
      </trkpt>
      <trkpt lat="47.37285" lon="0.21599">
        <ele>71</ele>
        <time>2020-08-27T09:44:29Z</time>
      </trkpt>
      <trkpt lat="47.37285" lon="0.21602">
        <ele>72</ele>
        <time>2020-08-27T09:44:31Z</time>
      </trkpt>
      <trkpt lat="47.37286" lon="0.21606">
        <ele>72</ele>
        <time>2020-08-27T09:44:33Z</time>
      </trkpt>
      <trkpt lat="47.37287" lon="0.21609">
        <ele>72</ele>
        <time>2020-08-27T09:44:35Z</time>
      </trkpt>
      <trkpt lat="47.37287" lon="0.21613">
        <ele>72</ele>
        <time>2020-08-27T09:44:37Z</time>
      </trkpt>
      <trkpt lat="47.37289" lon="0.21616">
        <ele>72</ele>
        <time>2020-08-27T09:44:39Z</time>
      </trkpt>
      <trkpt lat="47.3729" lon="0.2162">
        <ele>72</ele>
        <time>2020-08-27T09:44:41Z</time>
      </trkpt>
      <trkpt lat="47.37291" lon="0.21624">
        <ele>72</ele>
        <time>2020-08-27T09:44:43Z</time>
      </trkpt>
      <trkpt lat="47.37292" lon="0.21628">
        <ele>72</ele>
        <time>2020-08-27T09:44:45Z</time>
      </trkpt>
      <trkpt lat="47.37293" lon="0.21632">
        <ele>72</ele>
        <time>2020-08-27T09:44:47Z</time>
      </trkpt>
      <trkpt lat="47.37293" lon="0.21637">
        <ele>72</ele>
        <time>2020-08-27T09:44:49Z</time>
      </trkpt>
      <trkpt lat="47.37294" lon="0.21642">
        <ele>73</ele>
        <time>2020-08-27T09:44:51Z</time>
      </trkpt>
      <trkpt lat="47.37295" lon="0.21647">
        <ele>73</ele>
        <time>2020-08-27T09:44:53Z</time>
      </trkpt>
      <trkpt lat="47.37296" lon="0.21651">
        <ele>73</ele>
        <time>2020-08-27T09:44:55Z</time>
      </trkpt>
      <trkpt lat="47.37297" lon="0.21656">
        <ele>73</ele>
        <time>2020-08-27T09:44:57Z</time>
      </trkpt>
      <trkpt lat="47.37298" lon="0.21659">
        <ele>73</ele>
        <time>2020-08-27T09:44:59Z</time>
      </trkpt>
      <trkpt lat="47.37298" lon="0.21663">
        <ele>73</ele>
        <time>2020-08-27T09:45:01Z</time>
      </trkpt>
      <trkpt lat="47.37298" lon="0.21667">
        <ele>74</ele>
        <time>2020-08-27T09:45:03Z</time>
      </trkpt>
      <trkpt lat="47.37299" lon="0.21671">
        <ele>74</ele>
        <time>2020-08-27T09:45:05Z</time>
      </trkpt>
      <trkpt lat="47.37299" lon="0.21675">
        <ele>74</ele>
        <time>2020-08-27T09:45:07Z</time>
      </trkpt>
      <trkpt lat="47.373" lon="0.21678">
        <ele>74</ele>
        <time>2020-08-27T09:45:09Z</time>
      </trkpt>
      <trkpt lat="47.37301" lon="0.21682">
        <ele>74</ele>
        <time>2020-08-27T09:45:11Z</time>
      </trkpt>
      <trkpt lat="47.37302" lon="0.21685">
        <ele>75</ele>
        <time>2020-08-27T09:45:13Z</time>
      </trkpt>
      <trkpt lat="47.37303" lon="0.21689">
        <ele>75</ele>
        <time>2020-08-27T09:45:15Z</time>
      </trkpt>
      <trkpt lat="47.37303" lon="0.21693">
        <ele>75</ele>
        <time>2020-08-27T09:45:17Z</time>
      </trkpt>
      <trkpt lat="47.37305" lon="0.21694">
        <ele>75</ele>
        <time>2020-08-27T09:45:21Z</time>
      </trkpt>
      <trkpt lat="47.37308" lon="0.21694">
        <ele>75</ele>
        <time>2020-08-27T09:45:25Z</time>
      </trkpt>
      <trkpt lat="47.3731" lon="0.21693">
        <ele>75</ele>
        <time>2020-08-27T09:45:27Z</time>
      </trkpt>
      <trkpt lat="47.37313" lon="0.21692">
        <ele>75</ele>
        <time>2020-08-27T09:45:29Z</time>
      </trkpt>
      <trkpt lat="47.37315" lon="0.21691">
        <ele>75</ele>
        <time>2020-08-27T09:45:31Z</time>
      </trkpt>
      <trkpt lat="47.37317" lon="0.2169">
        <ele>75</ele>
        <time>2020-08-27T09:45:33Z</time>
      </trkpt>
      <trkpt lat="47.37319" lon="0.21689">
        <ele>75</ele>
        <time>2020-08-27T09:45:35Z</time>
      </trkpt>
      <trkpt lat="47.37321" lon="0.21688">
        <ele>75</ele>
        <time>2020-08-27T09:45:37Z</time>
      </trkpt>
      <trkpt lat="47.37323" lon="0.21687">
        <ele>75</ele>
        <time>2020-08-27T09:45:39Z</time>
      </trkpt>
      <trkpt lat="47.37326" lon="0.21686">
        <ele>75</ele>
        <time>2020-08-27T09:45:41Z</time>
      </trkpt>
      <trkpt lat="47.37328" lon="0.21686">
        <ele>75</ele>
        <time>2020-08-27T09:45:43Z</time>
      </trkpt>
      <trkpt lat="47.37331" lon="0.21685">
        <ele>75</ele>
        <time>2020-08-27T09:45:46Z</time>
      </trkpt>
      <trkpt lat="47.37333" lon="0.21683">
        <ele>75</ele>
        <time>2020-08-27T09:45:49Z</time>
      </trkpt>
      <trkpt lat="47.37334" lon="0.21681">
        <ele>75</ele>
        <time>2020-08-27T09:45:55Z</time>
      </trkpt>
      <trkpt lat="47.37335" lon="0.21678">
        <ele>75</ele>
        <time>2020-08-27T09:45:59Z</time>
      </trkpt>
      <trkpt lat="47.37336" lon="0.2168">
        <ele>75</ele>
        <time>2020-08-27T09:46:37Z</time>
      </trkpt>
      <trkpt lat="47.37337" lon="0.21682">
        <ele>75</ele>
        <time>2020-08-27T09:46:57Z</time>
      </trkpt>
      <trkpt lat="47.37337" lon="0.21685">
        <ele>75</ele>
        <time>2020-08-27T09:47:08Z</time>
      </trkpt>
      <trkpt lat="47.37335" lon="0.21687">
        <ele>75</ele>
        <time>2020-08-27T09:47:13Z</time>
      </trkpt>
      <trkpt lat="47.37336" lon="0.21687">
        <ele>75</ele>
        <time>2020-08-27T09:48:31Z</time>
      </trkpt>
      <trkpt lat="47.37338" lon="0.21689">
        <ele>75</ele>
        <time>2020-08-27T09:48:51Z</time>
      </trkpt>
      <trkpt lat="47.3734" lon="0.21688">
        <ele>75</ele>
        <time>2020-08-27T09:49:00Z</time>
      </trkpt>
      <trkpt lat="47.37341" lon="0.21688">
        <ele>75</ele>
        <time>2020-08-27T09:49:07Z</time>
      </trkpt>
      <trkpt lat="47.37344" lon="0.21688">
        <ele>75</ele>
        <time>2020-08-27T09:49:14Z</time>
      </trkpt>
      <trkpt lat="47.37342" lon="0.21687">
        <ele>75</ele>
        <time>2020-08-27T09:49:20Z</time>
      </trkpt>
      <trkpt lat="47.37342" lon="0.21685">
        <ele>75</ele>
        <time>2020-08-27T09:49:41Z</time>
      </trkpt>
      <trkpt lat="47.37342" lon="0.21682">
        <ele>75</ele>
        <time>2020-08-27T09:49:53Z</time>
      </trkpt>
      <trkpt lat="47.3734" lon="0.21682">
        <ele>75</ele>
        <time>2020-08-27T09:50:08Z</time>
      </trkpt>
      <trkpt lat="47.37342" lon="0.2168">
        <ele>75</ele>
        <time>2020-08-27T09:51:04Z</time>
      </trkpt>
      <trkpt lat="47.37344" lon="0.2168">
        <ele>75</ele>
        <time>2020-08-27T09:51:07Z</time>
      </trkpt>
      <trkpt lat="47.37346" lon="0.21679">
        <ele>75</ele>
        <time>2020-08-27T09:51:12Z</time>
      </trkpt>
      <trkpt lat="47.37348" lon="0.21679">
        <ele>75</ele>
        <time>2020-08-27T09:51:14Z</time>
      </trkpt>
      <trkpt lat="47.37349" lon="0.21678">
        <ele>75</ele>
        <time>2020-08-27T09:51:16Z</time>
      </trkpt>
      <trkpt lat="47.37351" lon="0.21676">
        <ele>75</ele>
        <time>2020-08-27T09:51:19Z</time>
      </trkpt>
      <trkpt lat="47.37353" lon="0.21675">
        <ele>75</ele>
        <time>2020-08-27T09:51:21Z</time>
      </trkpt>
      <trkpt lat="47.37355" lon="0.21675">
        <ele>75</ele>
        <time>2020-08-27T09:51:24Z</time>
      </trkpt>
      <trkpt lat="47.37358" lon="0.21674">
        <ele>75</ele>
        <time>2020-08-27T09:51:27Z</time>
      </trkpt>
      <trkpt lat="47.3736" lon="0.21673">
        <ele>75</ele>
        <time>2020-08-27T09:51:36Z</time>
      </trkpt>
      <trkpt lat="47.37362" lon="0.21672">
        <ele>75</ele>
        <time>2020-08-27T09:51:39Z</time>
      </trkpt>
      <trkpt lat="47.37364" lon="0.21672">
        <ele>75</ele>
        <time>2020-08-27T09:51:44Z</time>
      </trkpt>
      <trkpt lat="47.37366" lon="0.2167">
        <ele>75</ele>
        <time>2020-08-27T09:52:00Z</time>
      </trkpt>
      <trkpt lat="47.37368" lon="0.21669">
        <ele>75</ele>
        <time>2020-08-27T09:52:02Z</time>
      </trkpt>
      <trkpt lat="47.3737" lon="0.21668">
        <ele>75</ele>
        <time>2020-08-27T09:52:04Z</time>
      </trkpt>
      <trkpt lat="47.37372" lon="0.21667">
        <ele>75</ele>
        <time>2020-08-27T09:52:06Z</time>
      </trkpt>
      <trkpt lat="47.37375" lon="0.21666">
        <ele>75</ele>
        <time>2020-08-27T09:52:08Z</time>
      </trkpt>
      <trkpt lat="47.37377" lon="0.21665">
        <ele>75</ele>
        <time>2020-08-27T09:52:10Z</time>
      </trkpt>
      <trkpt lat="47.37379" lon="0.21664">
        <ele>75</ele>
        <time>2020-08-27T09:52:12Z</time>
      </trkpt>
      <trkpt lat="47.37381" lon="0.21663">
        <ele>75</ele>
        <time>2020-08-27T09:52:14Z</time>
      </trkpt>
      <trkpt lat="47.37383" lon="0.21661">
        <ele>75</ele>
        <time>2020-08-27T09:52:16Z</time>
      </trkpt>
      <trkpt lat="47.37385" lon="0.2166">
        <ele>75</ele>
        <time>2020-08-27T09:52:18Z</time>
      </trkpt>
      <trkpt lat="47.37387" lon="0.21659">
        <ele>75</ele>
        <time>2020-08-27T09:52:19Z</time>
      </trkpt>
      <trkpt lat="47.3739" lon="0.21658">
        <ele>76</ele>
        <time>2020-08-27T09:52:21Z</time>
      </trkpt>
      <trkpt lat="47.37392" lon="0.21657">
        <ele>76</ele>
        <time>2020-08-27T09:52:23Z</time>
      </trkpt>
      <trkpt lat="47.37394" lon="0.21655">
        <ele>76</ele>
        <time>2020-08-27T09:52:25Z</time>
      </trkpt>
      <trkpt lat="47.37396" lon="0.21654">
        <ele>76</ele>
        <time>2020-08-27T09:52:28Z</time>
      </trkpt>
      <trkpt lat="47.37398" lon="0.21652">
        <ele>76</ele>
        <time>2020-08-27T09:52:31Z</time>
      </trkpt>
      <trkpt lat="47.374" lon="0.21651">
        <ele>76</ele>
        <time>2020-08-27T09:52:33Z</time>
      </trkpt>
      <trkpt lat="47.37402" lon="0.21649">
        <ele>76</ele>
        <time>2020-08-27T09:52:35Z</time>
      </trkpt>
      <trkpt lat="47.37404" lon="0.21647">
        <ele>77</ele>
        <time>2020-08-27T09:52:37Z</time>
      </trkpt>
      <trkpt lat="47.37406" lon="0.21644">
        <ele>77</ele>
        <time>2020-08-27T09:52:39Z</time>
      </trkpt>
      <trkpt lat="47.37408" lon="0.21642">
        <ele>77</ele>
        <time>2020-08-27T09:52:41Z</time>
      </trkpt>
      <trkpt lat="47.37411" lon="0.21641">
        <ele>77</ele>
        <time>2020-08-27T09:52:43Z</time>
      </trkpt>
      <trkpt lat="47.37413" lon="0.21639">
        <ele>77</ele>
        <time>2020-08-27T09:52:45Z</time>
      </trkpt>
      <trkpt lat="47.37416" lon="0.21638">
        <ele>77</ele>
        <time>2020-08-27T09:52:47Z</time>
      </trkpt>
      <trkpt lat="47.37418" lon="0.21636">
        <ele>78</ele>
        <time>2020-08-27T09:52:49Z</time>
      </trkpt>
      <trkpt lat="47.3742" lon="0.21635">
        <ele>78</ele>
        <time>2020-08-27T09:52:51Z</time>
      </trkpt>
      <trkpt lat="47.37423" lon="0.21634">
        <ele>78</ele>
        <time>2020-08-27T09:52:53Z</time>
      </trkpt>
      <trkpt lat="47.37426" lon="0.21633">
        <ele>78</ele>
        <time>2020-08-27T09:52:55Z</time>
      </trkpt>
      <trkpt lat="47.37428" lon="0.21632">
        <ele>78</ele>
        <time>2020-08-27T09:52:57Z</time>
      </trkpt>
      <trkpt lat="47.37431" lon="0.21631">
        <ele>79</ele>
        <time>2020-08-27T09:52:59Z</time>
      </trkpt>
      <trkpt lat="47.37434" lon="0.21629">
        <ele>79</ele>
        <time>2020-08-27T09:53:01Z</time>
      </trkpt>
      <trkpt lat="47.37436" lon="0.21628">
        <ele>79</ele>
        <time>2020-08-27T09:53:03Z</time>
      </trkpt>
      <trkpt lat="47.37438" lon="0.21626">
        <ele>79</ele>
        <time>2020-08-27T09:53:05Z</time>
      </trkpt>
      <trkpt lat="47.37439" lon="0.21624">
        <ele>79</ele>
        <time>2020-08-27T09:53:07Z</time>
      </trkpt>
      <trkpt lat="47.3744" lon="0.21621">
        <ele>79</ele>
        <time>2020-08-27T09:53:10Z</time>
      </trkpt>
      <trkpt lat="47.37442" lon="0.2162">
        <ele>79</ele>
        <time>2020-08-27T09:53:13Z</time>
      </trkpt>
      <trkpt lat="47.37444" lon="0.21618">
        <ele>79</ele>
        <time>2020-08-27T09:53:16Z</time>
      </trkpt>
      <trkpt lat="47.37447" lon="0.21616">
        <ele>80</ele>
        <time>2020-08-27T09:53:18Z</time>
      </trkpt>
      <trkpt lat="47.37449" lon="0.21614">
        <ele>80</ele>
        <time>2020-08-27T09:53:20Z</time>
      </trkpt>
      <trkpt lat="47.37455" lon="0.21609">
        <ele>80</ele>
        <time>2020-08-27T09:53:25Z</time>
      </trkpt>
      <trkpt lat="47.37457" lon="0.21609">
        <ele>80</ele>
        <time>2020-08-27T09:53:27Z</time>
      </trkpt>
      <trkpt lat="47.37459" lon="0.21608">
        <ele>81</ele>
        <time>2020-08-27T09:53:29Z</time>
      </trkpt>
      <trkpt lat="47.37461" lon="0.21607">
        <ele>81</ele>
        <time>2020-08-27T09:53:31Z</time>
      </trkpt>
      <trkpt lat="47.37468" lon="0.21601">
        <ele>81</ele>
        <time>2020-08-27T09:53:37Z</time>
      </trkpt>
      <trkpt lat="47.3747" lon="0.21598">
        <ele>81</ele>
        <time>2020-08-27T09:53:39Z</time>
      </trkpt>
      <trkpt lat="47.37473" lon="0.21596">
        <ele>82</ele>
        <time>2020-08-27T09:53:41Z</time>
      </trkpt>
      <trkpt lat="47.37475" lon="0.21595">
        <ele>82</ele>
        <time>2020-08-27T09:53:43Z</time>
      </trkpt>
      <trkpt lat="47.37477" lon="0.21593">
        <ele>82</ele>
        <time>2020-08-27T09:53:45Z</time>
      </trkpt>
      <trkpt lat="47.3748" lon="0.21592">
        <ele>82</ele>
        <time>2020-08-27T09:53:47Z</time>
      </trkpt>
      <trkpt lat="47.37482" lon="0.21589">
        <ele>82</ele>
        <time>2020-08-27T09:53:49Z</time>
      </trkpt>
      <trkpt lat="47.37485" lon="0.21586">
        <ele>82</ele>
        <time>2020-08-27T09:53:51Z</time>
      </trkpt>
      <trkpt lat="47.37487" lon="0.21584">
        <ele>82</ele>
        <time>2020-08-27T09:53:53Z</time>
      </trkpt>
      <trkpt lat="47.3749" lon="0.21582">
        <ele>82</ele>
        <time>2020-08-27T09:53:56Z</time>
      </trkpt>
      <trkpt lat="47.37492" lon="0.21579">
        <ele>82</ele>
        <time>2020-08-27T09:53:58Z</time>
      </trkpt>
      <trkpt lat="47.375" lon="0.21571">
        <ele>82</ele>
        <time>2020-08-27T09:54:05Z</time>
      </trkpt>
      <trkpt lat="47.37508" lon="0.21565">
        <ele>82</ele>
        <time>2020-08-27T09:54:11Z</time>
      </trkpt>
      <trkpt lat="47.37516" lon="0.21558">
        <ele>82</ele>
        <time>2020-08-27T09:54:18Z</time>
      </trkpt>
      <trkpt lat="47.37524" lon="0.2155">
        <ele>81</ele>
        <time>2020-08-27T09:54:27Z</time>
      </trkpt>
      <trkpt lat="47.3753" lon="0.21542">
        <ele>81</ele>
        <time>2020-08-27T09:54:34Z</time>
      </trkpt>
      <trkpt lat="47.37537" lon="0.21532">
        <ele>81</ele>
        <time>2020-08-27T09:54:42Z</time>
      </trkpt>
      <trkpt lat="47.37538" lon="0.21529">
        <ele>81</ele>
        <time>2020-08-27T09:54:44Z</time>
      </trkpt>
      <trkpt lat="47.37542" lon="0.21527">
        <ele>81</ele>
        <time>2020-08-27T09:54:49Z</time>
      </trkpt>
      <trkpt lat="47.37545" lon="0.21525">
        <ele>81</ele>
        <time>2020-08-27T09:54:51Z</time>
      </trkpt>
      <trkpt lat="47.37553" lon="0.21519">
        <ele>81</ele>
        <time>2020-08-27T09:54:57Z</time>
      </trkpt>
      <trkpt lat="47.37561" lon="0.2151">
        <ele>81</ele>
        <time>2020-08-27T09:55:06Z</time>
      </trkpt>
      <trkpt lat="47.37568" lon="0.215">
        <ele>81</ele>
        <time>2020-08-27T09:55:14Z</time>
      </trkpt>
      <trkpt lat="47.37576" lon="0.21493">
        <ele>82</ele>
        <time>2020-08-27T09:55:19Z</time>
      </trkpt>
      <trkpt lat="47.37584" lon="0.21484">
        <ele>83</ele>
        <time>2020-08-27T09:55:26Z</time>
      </trkpt>
      <trkpt lat="47.37588" lon="0.21481">
        <ele>83</ele>
        <time>2020-08-27T09:55:29Z</time>
      </trkpt>
      <trkpt lat="47.37591" lon="0.21478">
        <ele>83</ele>
        <time>2020-08-27T09:55:33Z</time>
      </trkpt>
      <trkpt lat="47.37593" lon="0.21477">
        <ele>84</ele>
        <time>2020-08-27T09:55:36Z</time>
      </trkpt>
      <trkpt lat="47.37596" lon="0.21475">
        <ele>84</ele>
        <time>2020-08-27T09:55:38Z</time>
      </trkpt>
      <trkpt lat="47.37603" lon="0.21472">
        <ele>85</ele>
        <time>2020-08-27T09:55:44Z</time>
      </trkpt>
      <trkpt lat="47.37607" lon="0.21474">
        <ele>85</ele>
        <time>2020-08-27T09:55:46Z</time>
      </trkpt>
      <trkpt lat="47.37612" lon="0.21476">
        <ele>86</ele>
        <time>2020-08-27T09:55:48Z</time>
      </trkpt>
      <trkpt lat="47.37614" lon="0.21479">
        <ele>86</ele>
        <time>2020-08-27T09:55:50Z</time>
      </trkpt>
      <trkpt lat="47.37616" lon="0.2148">
        <ele>86</ele>
        <time>2020-08-27T09:55:51Z</time>
      </trkpt>
      <trkpt lat="47.37625" lon="0.21487">
        <ele>86</ele>
        <time>2020-08-27T09:55:57Z</time>
      </trkpt>
      <trkpt lat="47.37631" lon="0.21497">
        <ele>86</ele>
        <time>2020-08-27T09:56:04Z</time>
      </trkpt>
      <trkpt lat="47.37636" lon="0.21509">
        <ele>86</ele>
        <time>2020-08-27T09:56:14Z</time>
      </trkpt>
      <trkpt lat="47.37644" lon="0.21519">
        <ele>85</ele>
        <time>2020-08-27T09:56:23Z</time>
      </trkpt>
      <trkpt lat="47.37647" lon="0.21531">
        <ele>85</ele>
        <time>2020-08-27T09:56:31Z</time>
      </trkpt>
      <trkpt lat="47.37652" lon="0.21543">
        <ele>85</ele>
        <time>2020-08-27T09:56:39Z</time>
      </trkpt>
      <trkpt lat="47.37657" lon="0.21555">
        <ele>85</ele>
        <time>2020-08-27T09:56:48Z</time>
      </trkpt>
      <trkpt lat="47.37662" lon="0.21568">
        <ele>84</ele>
        <time>2020-08-27T09:56:58Z</time>
      </trkpt>
      <trkpt lat="47.37667" lon="0.2158">
        <ele>84</ele>
        <time>2020-08-27T09:57:07Z</time>
      </trkpt>
      <trkpt lat="47.37674" lon="0.21589">
        <ele>83</ele>
        <time>2020-08-27T09:57:14Z</time>
      </trkpt>
      <trkpt lat="47.37681" lon="0.216">
        <ele>82</ele>
        <time>2020-08-27T09:57:20Z</time>
      </trkpt>
      <trkpt lat="47.37686" lon="0.21612">
        <ele>81</ele>
        <time>2020-08-27T09:57:27Z</time>
      </trkpt>
      <trkpt lat="47.37693" lon="0.21622">
        <ele>81</ele>
        <time>2020-08-27T09:57:37Z</time>
      </trkpt>
      <trkpt lat="47.37699" lon="0.21634">
        <ele>81</ele>
        <time>2020-08-27T09:57:50Z</time>
      </trkpt>
      <trkpt lat="47.37708" lon="0.21636">
        <ele>82</ele>
        <time>2020-08-27T09:57:57Z</time>
      </trkpt>
      <trkpt lat="47.37716" lon="0.21643">
        <ele>82</ele>
        <time>2020-08-27T09:58:06Z</time>
      </trkpt>
      <trkpt lat="47.37724" lon="0.21651">
        <ele>83</ele>
        <time>2020-08-27T09:58:16Z</time>
      </trkpt>
      <trkpt lat="47.3773" lon="0.21664">
        <ele>84</ele>
        <time>2020-08-27T09:58:23Z</time>
      </trkpt>
      <trkpt lat="47.3773" lon="0.21668">
        <ele>84</ele>
        <time>2020-08-27T09:58:25Z</time>
      </trkpt>
      <trkpt lat="47.3773" lon="0.21671">
        <ele>84</ele>
        <time>2020-08-27T09:58:26Z</time>
      </trkpt>
      <trkpt lat="47.37731" lon="0.21673">
        <ele>84</ele>
        <time>2020-08-27T09:58:27Z</time>
      </trkpt>
      <trkpt lat="47.37732" lon="0.21675">
        <ele>84</ele>
        <time>2020-08-27T09:58:28Z</time>
      </trkpt>
      <trkpt lat="47.37736" lon="0.2168">
        <ele>85</ele>
        <time>2020-08-27T09:58:32Z</time>
      </trkpt>
      <trkpt lat="47.37738" lon="0.21682">
        <ele>85</ele>
        <time>2020-08-27T09:58:34Z</time>
      </trkpt>
      <trkpt lat="47.37745" lon="0.2169">
        <ele>86</ele>
        <time>2020-08-27T09:58:41Z</time>
      </trkpt>
      <trkpt lat="47.37753" lon="0.21699">
        <ele>87</ele>
        <time>2020-08-27T09:58:50Z</time>
      </trkpt>
      <trkpt lat="47.37758" lon="0.21702">
        <ele>87</ele>
        <time>2020-08-27T09:58:54Z</time>
      </trkpt>
      <trkpt lat="47.37759" lon="0.21706">
        <ele>87</ele>
        <time>2020-08-27T09:58:57Z</time>
      </trkpt>
      <trkpt lat="47.3776" lon="0.21709">
        <ele>87</ele>
        <time>2020-08-27T09:58:58Z</time>
      </trkpt>
      <trkpt lat="47.37762" lon="0.21711">
        <ele>87</ele>
        <time>2020-08-27T09:58:59Z</time>
      </trkpt>
      <trkpt lat="47.37763" lon="0.21714">
        <ele>87</ele>
        <time>2020-08-27T09:59:00Z</time>
      </trkpt>
      <trkpt lat="47.37765" lon="0.21715">
        <ele>87</ele>
        <time>2020-08-27T09:59:01Z</time>
      </trkpt>
      <trkpt lat="47.37768" lon="0.21718">
        <ele>87</ele>
        <time>2020-08-27T09:59:03Z</time>
      </trkpt>
      <trkpt lat="47.3777" lon="0.21719">
        <ele>87</ele>
        <time>2020-08-27T09:59:05Z</time>
      </trkpt>
      <trkpt lat="47.37771" lon="0.21721">
        <ele>87</ele>
        <time>2020-08-27T09:59:07Z</time>
      </trkpt>
      <trkpt lat="47.37773" lon="0.21723">
        <ele>87</ele>
        <time>2020-08-27T09:59:09Z</time>
      </trkpt>
      <trkpt lat="47.37776" lon="0.21725">
        <ele>87</ele>
        <time>2020-08-27T09:59:12Z</time>
      </trkpt>
      <trkpt lat="47.37779" lon="0.21728">
        <ele>87</ele>
        <time>2020-08-27T09:59:15Z</time>
      </trkpt>
      <trkpt lat="47.3778" lon="0.2173">
        <ele>87</ele>
        <time>2020-08-27T09:59:17Z</time>
      </trkpt>
      <trkpt lat="47.37789" lon="0.21735">
        <ele>87</ele>
        <time>2020-08-27T09:59:24Z</time>
      </trkpt>
      <trkpt lat="47.37797" lon="0.21737">
        <ele>86</ele>
        <time>2020-08-27T09:59:36Z</time>
      </trkpt>
      <trkpt lat="47.37808" lon="0.21746">
        <ele>85</ele>
        <time>2020-08-27T09:59:46Z</time>
      </trkpt>
      <trkpt lat="47.37811" lon="0.21747">
        <ele>85</ele>
        <time>2020-08-27T09:59:47Z</time>
      </trkpt>
      <trkpt lat="47.37812" lon="0.21747">
        <ele>85</ele>
        <time>2020-08-27T09:59:48Z</time>
      </trkpt>
      <trkpt lat="47.37815" lon="0.21748">
        <ele>85</ele>
        <time>2020-08-27T09:59:50Z</time>
      </trkpt>
      <trkpt lat="47.37821" lon="0.21748">
        <ele>85</ele>
        <time>2020-08-27T09:59:55Z</time>
      </trkpt>
      <trkpt lat="47.37831" lon="0.2175">
        <ele>85</ele>
        <time>2020-08-27T10:00:01Z</time>
      </trkpt>
      <trkpt lat="47.37839" lon="0.21753">
        <ele>85</ele>
        <time>2020-08-27T10:00:06Z</time>
      </trkpt>
      <trkpt lat="47.37848" lon="0.21757">
        <ele>86</ele>
        <time>2020-08-27T10:00:14Z</time>
      </trkpt>
      <trkpt lat="47.37857" lon="0.21765">
        <ele>87</ele>
        <time>2020-08-27T10:00:21Z</time>
      </trkpt>
      <trkpt lat="47.37866" lon="0.21771">
        <ele>88</ele>
        <time>2020-08-27T10:00:28Z</time>
      </trkpt>
      <trkpt lat="47.37872" lon="0.21778">
        <ele>90</ele>
        <time>2020-08-27T10:00:34Z</time>
      </trkpt>
      <trkpt lat="47.37874" lon="0.2178">
        <ele>90</ele>
        <time>2020-08-27T10:00:38Z</time>
      </trkpt>
      <trkpt lat="47.37876" lon="0.21782">
        <ele>90</ele>
        <time>2020-08-27T10:00:40Z</time>
      </trkpt>
      <trkpt lat="47.37878" lon="0.21784">
        <ele>91</ele>
        <time>2020-08-27T10:00:42Z</time>
      </trkpt>
      <trkpt lat="47.3788" lon="0.21786">
        <ele>91</ele>
        <time>2020-08-27T10:00:44Z</time>
      </trkpt>
      <trkpt lat="47.37881" lon="0.21788">
        <ele>91</ele>
        <time>2020-08-27T10:00:45Z</time>
      </trkpt>
      <trkpt lat="47.37884" lon="0.21791">
        <ele>91</ele>
        <time>2020-08-27T10:00:47Z</time>
      </trkpt>
      <trkpt lat="47.37886" lon="0.21792">
        <ele>91</ele>
        <time>2020-08-27T10:00:49Z</time>
      </trkpt>
      <trkpt lat="47.37888" lon="0.21794">
        <ele>91</ele>
        <time>2020-08-27T10:00:51Z</time>
      </trkpt>
      <trkpt lat="47.37891" lon="0.21797">
        <ele>92</ele>
        <time>2020-08-27T10:00:53Z</time>
      </trkpt>
      <trkpt lat="47.37893" lon="0.21799">
        <ele>92</ele>
        <time>2020-08-27T10:00:55Z</time>
      </trkpt>
      <trkpt lat="47.37895" lon="0.21801">
        <ele>92</ele>
        <time>2020-08-27T10:00:57Z</time>
      </trkpt>
      <trkpt lat="47.37896" lon="0.21803">
        <ele>92</ele>
        <time>2020-08-27T10:00:59Z</time>
      </trkpt>
      <trkpt lat="47.37898" lon="0.21805">
        <ele>92</ele>
        <time>2020-08-27T10:01:01Z</time>
      </trkpt>
      <trkpt lat="47.379" lon="0.21808">
        <ele>92</ele>
        <time>2020-08-27T10:01:03Z</time>
      </trkpt>
      <trkpt lat="47.37905" lon="0.2182">
        <ele>92</ele>
        <time>2020-08-27T10:01:11Z</time>
      </trkpt>
      <trkpt lat="47.3791" lon="0.21833">
        <ele>92</ele>
        <time>2020-08-27T10:01:17Z</time>
      </trkpt>
      <trkpt lat="47.37911" lon="0.21835">
        <ele>92</ele>
        <time>2020-08-27T10:01:19Z</time>
      </trkpt>
      <trkpt lat="47.37913" lon="0.21837">
        <ele>91</ele>
        <time>2020-08-27T10:01:21Z</time>
      </trkpt>
      <trkpt lat="47.37915" lon="0.21839">
        <ele>91</ele>
        <time>2020-08-27T10:01:23Z</time>
      </trkpt>
      <trkpt lat="47.37917" lon="0.21842">
        <ele>91</ele>
        <time>2020-08-27T10:01:25Z</time>
      </trkpt>
      <trkpt lat="47.37919" lon="0.21845">
        <ele>91</ele>
        <time>2020-08-27T10:01:27Z</time>
      </trkpt>
      <trkpt lat="47.37921" lon="0.21847">
        <ele>90</ele>
        <time>2020-08-27T10:01:29Z</time>
      </trkpt>
      <trkpt lat="47.37923" lon="0.2185">
        <ele>90</ele>
        <time>2020-08-27T10:01:31Z</time>
      </trkpt>
      <trkpt lat="47.37925" lon="0.21854">
        <ele>90</ele>
        <time>2020-08-27T10:01:33Z</time>
      </trkpt>
      <trkpt lat="47.37927" lon="0.21856">
        <ele>90</ele>
        <time>2020-08-27T10:01:35Z</time>
      </trkpt>
      <trkpt lat="47.37929" lon="0.21858">
        <ele>89</ele>
        <time>2020-08-27T10:01:37Z</time>
      </trkpt>
      <trkpt lat="47.3793" lon="0.21862">
        <ele>89</ele>
        <time>2020-08-27T10:01:39Z</time>
      </trkpt>
      <trkpt lat="47.37932" lon="0.21865">
        <ele>89</ele>
        <time>2020-08-27T10:01:41Z</time>
      </trkpt>
      <trkpt lat="47.37939" lon="0.21875">
        <ele>88</ele>
        <time>2020-08-27T10:01:49Z</time>
      </trkpt>
      <trkpt lat="47.37946" lon="0.21886">
        <ele>87</ele>
        <time>2020-08-27T10:01:57Z</time>
      </trkpt>
      <trkpt lat="47.37953" lon="0.21897">
        <ele>86</ele>
        <time>2020-08-27T10:02:05Z</time>
      </trkpt>
      <trkpt lat="47.37955" lon="0.21898">
        <ele>86</ele>
        <time>2020-08-27T10:02:07Z</time>
      </trkpt>
      <trkpt lat="47.37957" lon="0.21902">
        <ele>86</ele>
        <time>2020-08-27T10:02:10Z</time>
      </trkpt>
      <trkpt lat="47.37959" lon="0.21904">
        <ele>86</ele>
        <time>2020-08-27T10:02:12Z</time>
      </trkpt>
      <trkpt lat="47.37961" lon="0.21908">
        <ele>85</ele>
        <time>2020-08-27T10:02:14Z</time>
      </trkpt>
      <trkpt lat="47.37963" lon="0.21911">
        <ele>85</ele>
        <time>2020-08-27T10:02:16Z</time>
      </trkpt>
      <trkpt lat="47.37966" lon="0.21915">
        <ele>85</ele>
        <time>2020-08-27T10:02:18Z</time>
      </trkpt>
      <trkpt lat="47.37967" lon="0.21917">
        <ele>85</ele>
        <time>2020-08-27T10:02:19Z</time>
      </trkpt>
      <trkpt lat="47.37969" lon="0.21919">
        <ele>85</ele>
        <time>2020-08-27T10:02:20Z</time>
      </trkpt>
      <trkpt lat="47.37971" lon="0.21923">
        <ele>85</ele>
        <time>2020-08-27T10:02:22Z</time>
      </trkpt>
      <trkpt lat="47.37973" lon="0.21926">
        <ele>84</ele>
        <time>2020-08-27T10:02:24Z</time>
      </trkpt>
      <trkpt lat="47.37975" lon="0.21929">
        <ele>84</ele>
        <time>2020-08-27T10:02:26Z</time>
      </trkpt>
      <trkpt lat="47.37977" lon="0.21932">
        <ele>84</ele>
        <time>2020-08-27T10:02:28Z</time>
      </trkpt>
      <trkpt lat="47.37979" lon="0.21934">
        <ele>84</ele>
        <time>2020-08-27T10:02:30Z</time>
      </trkpt>
      <trkpt lat="47.37982" lon="0.21935">
        <ele>84</ele>
        <time>2020-08-27T10:02:31Z</time>
      </trkpt>
      <trkpt lat="47.37984" lon="0.21936">
        <ele>84</ele>
        <time>2020-08-27T10:02:32Z</time>
      </trkpt>
      <trkpt lat="47.37985" lon="0.21938">
        <ele>84</ele>
        <time>2020-08-27T10:02:33Z</time>
      </trkpt>
      <trkpt lat="47.37987" lon="0.21939">
        <ele>83</ele>
        <time>2020-08-27T10:02:34Z</time>
      </trkpt>
      <trkpt lat="47.37989" lon="0.21941">
        <ele>83</ele>
        <time>2020-08-27T10:02:36Z</time>
      </trkpt>
      <trkpt lat="47.37992" lon="0.21944">
        <ele>83</ele>
        <time>2020-08-27T10:02:38Z</time>
      </trkpt>
      <trkpt lat="47.37994" lon="0.21948">
        <ele>83</ele>
        <time>2020-08-27T10:02:40Z</time>
      </trkpt>
      <trkpt lat="47.37996" lon="0.2195">
        <ele>83</ele>
        <time>2020-08-27T10:02:42Z</time>
      </trkpt>
      <trkpt lat="47.37998" lon="0.21954">
        <ele>82</ele>
        <time>2020-08-27T10:02:45Z</time>
      </trkpt>
      <trkpt lat="47.37999" lon="0.21955">
        <ele>82</ele>
        <time>2020-08-27T10:02:47Z</time>
      </trkpt>
      <trkpt lat="47.38001" lon="0.21957">
        <ele>82</ele>
        <time>2020-08-27T10:02:49Z</time>
      </trkpt>
      <trkpt lat="47.38004" lon="0.2196">
        <ele>82</ele>
        <time>2020-08-27T10:02:51Z</time>
      </trkpt>
      <trkpt lat="47.38005" lon="0.21964">
        <ele>82</ele>
        <time>2020-08-27T10:02:53Z</time>
      </trkpt>
      <trkpt lat="47.38007" lon="0.21967">
        <ele>82</ele>
        <time>2020-08-27T10:02:55Z</time>
      </trkpt>
      <trkpt lat="47.38009" lon="0.21969">
        <ele>82</ele>
        <time>2020-08-27T10:02:57Z</time>
      </trkpt>
      <trkpt lat="47.3801" lon="0.21972">
        <ele>82</ele>
        <time>2020-08-27T10:02:59Z</time>
      </trkpt>
      <trkpt lat="47.38012" lon="0.21975">
        <ele>81</ele>
        <time>2020-08-27T10:03:01Z</time>
      </trkpt>
      <trkpt lat="47.38013" lon="0.21978">
        <ele>81</ele>
        <time>2020-08-27T10:03:03Z</time>
      </trkpt>
      <trkpt lat="47.38015" lon="0.2198">
        <ele>81</ele>
        <time>2020-08-27T10:03:05Z</time>
      </trkpt>
      <trkpt lat="47.38017" lon="0.21982">
        <ele>81</ele>
        <time>2020-08-27T10:03:07Z</time>
      </trkpt>
      <trkpt lat="47.38018" lon="0.21985">
        <ele>81</ele>
        <time>2020-08-27T10:03:09Z</time>
      </trkpt>
      <trkpt lat="47.38018" lon="0.21989">
        <ele>81</ele>
        <time>2020-08-27T10:03:11Z</time>
      </trkpt>
      <trkpt lat="47.38023" lon="0.22001">
        <ele>80</ele>
        <time>2020-08-27T10:03:21Z</time>
      </trkpt>
      <trkpt lat="47.38027" lon="0.22008">
        <ele>80</ele>
        <time>2020-08-27T10:03:26Z</time>
      </trkpt>
      <trkpt lat="47.38031" lon="0.22011">
        <ele>80</ele>
        <time>2020-08-27T10:03:29Z</time>
      </trkpt>
      <trkpt lat="47.38032" lon="0.22014">
        <ele>80</ele>
        <time>2020-08-27T10:03:31Z</time>
      </trkpt>
      <trkpt lat="47.38034" lon="0.22016">
        <ele>80</ele>
        <time>2020-08-27T10:03:33Z</time>
      </trkpt>
      <trkpt lat="47.38036" lon="0.22018">
        <ele>80</ele>
        <time>2020-08-27T10:03:35Z</time>
      </trkpt>
      <trkpt lat="47.38038" lon="0.22022">
        <ele>80</ele>
        <time>2020-08-27T10:03:37Z</time>
      </trkpt>
      <trkpt lat="47.3804" lon="0.22024">
        <ele>80</ele>
        <time>2020-08-27T10:03:39Z</time>
      </trkpt>
      <trkpt lat="47.38042" lon="0.22026">
        <ele>80</ele>
        <time>2020-08-27T10:03:41Z</time>
      </trkpt>
      <trkpt lat="47.38043" lon="0.22029">
        <ele>79</ele>
        <time>2020-08-27T10:03:43Z</time>
      </trkpt>
      <trkpt lat="47.38045" lon="0.22032">
        <ele>79</ele>
        <time>2020-08-27T10:03:45Z</time>
      </trkpt>
      <trkpt lat="47.38048" lon="0.22035">
        <ele>79</ele>
        <time>2020-08-27T10:03:47Z</time>
      </trkpt>
      <trkpt lat="47.3805" lon="0.22037">
        <ele>79</ele>
        <time>2020-08-27T10:03:49Z</time>
      </trkpt>
      <trkpt lat="47.38051" lon="0.2204">
        <ele>79</ele>
        <time>2020-08-27T10:03:51Z</time>
      </trkpt>
      <trkpt lat="47.38053" lon="0.22041">
        <ele>79</ele>
        <time>2020-08-27T10:03:53Z</time>
      </trkpt>
      <trkpt lat="47.38061" lon="0.22051">
        <ele>79</ele>
        <time>2020-08-27T10:04:02Z</time>
      </trkpt>
      <trkpt lat="47.38067" lon="0.22059">
        <ele>79</ele>
        <time>2020-08-27T10:04:09Z</time>
      </trkpt>
      <trkpt lat="47.38069" lon="0.22061">
        <ele>79</ele>
        <time>2020-08-27T10:04:11Z</time>
      </trkpt>
      <trkpt lat="47.38071" lon="0.22063">
        <ele>79</ele>
        <time>2020-08-27T10:04:13Z</time>
      </trkpt>
      <trkpt lat="47.38073" lon="0.22066">
        <ele>80</ele>
        <time>2020-08-27T10:04:15Z</time>
      </trkpt>
      <trkpt lat="47.38074" lon="0.22068">
        <ele>80</ele>
        <time>2020-08-27T10:04:17Z</time>
      </trkpt>
      <trkpt lat="47.38076" lon="0.22071">
        <ele>80</ele>
        <time>2020-08-27T10:04:19Z</time>
      </trkpt>
      <trkpt lat="47.38077" lon="0.22073">
        <ele>80</ele>
        <time>2020-08-27T10:04:21Z</time>
      </trkpt>
      <trkpt lat="47.38079" lon="0.22076">
        <ele>80</ele>
        <time>2020-08-27T10:04:23Z</time>
      </trkpt>
      <trkpt lat="47.38081" lon="0.22078">
        <ele>80</ele>
        <time>2020-08-27T10:04:25Z</time>
      </trkpt>
      <trkpt lat="47.38083" lon="0.2208">
        <ele>80</ele>
        <time>2020-08-27T10:04:27Z</time>
      </trkpt>
      <trkpt lat="47.38085" lon="0.22082">
        <ele>80</ele>
        <time>2020-08-27T10:04:29Z</time>
      </trkpt>
      <trkpt lat="47.38087" lon="0.22084">
        <ele>80</ele>
        <time>2020-08-27T10:04:31Z</time>
      </trkpt>
      <trkpt lat="47.38089" lon="0.22086">
        <ele>80</ele>
        <time>2020-08-27T10:04:33Z</time>
      </trkpt>
      <trkpt lat="47.38092" lon="0.22088">
        <ele>80</ele>
        <time>2020-08-27T10:04:35Z</time>
      </trkpt>
      <trkpt lat="47.38094" lon="0.22091">
        <ele>80</ele>
        <time>2020-08-27T10:04:37Z</time>
      </trkpt>
      <trkpt lat="47.38096" lon="0.22094">
        <ele>80</ele>
        <time>2020-08-27T10:04:39Z</time>
      </trkpt>
      <trkpt lat="47.38097" lon="0.22095">
        <ele>80</ele>
        <time>2020-08-27T10:04:41Z</time>
      </trkpt>
      <trkpt lat="47.38099" lon="0.22098">
        <ele>80</ele>
        <time>2020-08-27T10:04:44Z</time>
      </trkpt>
      <trkpt lat="47.381" lon="0.22101">
        <ele>80</ele>
        <time>2020-08-27T10:04:46Z</time>
      </trkpt>
      <trkpt lat="47.38102" lon="0.22103">
        <ele>80</ele>
        <time>2020-08-27T10:04:48Z</time>
      </trkpt>
      <trkpt lat="47.38104" lon="0.22106">
        <ele>80</ele>
        <time>2020-08-27T10:04:50Z</time>
      </trkpt>
      <trkpt lat="47.38106" lon="0.22107">
        <ele>80</ele>
        <time>2020-08-27T10:04:52Z</time>
      </trkpt>
      <trkpt lat="47.38108" lon="0.2211">
        <ele>80</ele>
        <time>2020-08-27T10:04:54Z</time>
      </trkpt>
      <trkpt lat="47.38109" lon="0.22112">
        <ele>80</ele>
        <time>2020-08-27T10:04:56Z</time>
      </trkpt>
      <trkpt lat="47.38111" lon="0.22113">
        <ele>80</ele>
        <time>2020-08-27T10:04:58Z</time>
      </trkpt>
      <trkpt lat="47.38113" lon="0.22115">
        <ele>80</ele>
        <time>2020-08-27T10:05:00Z</time>
      </trkpt>
      <trkpt lat="47.38116" lon="0.22116">
        <ele>81</ele>
        <time>2020-08-27T10:05:02Z</time>
      </trkpt>
      <trkpt lat="47.38121" lon="0.2212">
        <ele>81</ele>
        <time>2020-08-27T10:05:06Z</time>
      </trkpt>
      <trkpt lat="47.38123" lon="0.22123">
        <ele>81</ele>
        <time>2020-08-27T10:05:08Z</time>
      </trkpt>
      <trkpt lat="47.38124" lon="0.22127">
        <ele>81</ele>
        <time>2020-08-27T10:05:10Z</time>
      </trkpt>
      <trkpt lat="47.38127" lon="0.22129">
        <ele>81</ele>
        <time>2020-08-27T10:05:12Z</time>
      </trkpt>
      <trkpt lat="47.38128" lon="0.22132">
        <ele>81</ele>
        <time>2020-08-27T10:05:14Z</time>
      </trkpt>
      <trkpt lat="47.38131" lon="0.22134">
        <ele>81</ele>
        <time>2020-08-27T10:05:16Z</time>
      </trkpt>
      <trkpt lat="47.38132" lon="0.22136">
        <ele>81</ele>
        <time>2020-08-27T10:05:18Z</time>
      </trkpt>
      <trkpt lat="47.38134" lon="0.2214">
        <ele>81</ele>
        <time>2020-08-27T10:05:20Z</time>
      </trkpt>
      <trkpt lat="47.38135" lon="0.22143">
        <ele>81</ele>
        <time>2020-08-27T10:05:22Z</time>
      </trkpt>
      <trkpt lat="47.38137" lon="0.22145">
        <ele>81</ele>
        <time>2020-08-27T10:05:24Z</time>
      </trkpt>
      <trkpt lat="47.38138" lon="0.22148">
        <ele>81</ele>
        <time>2020-08-27T10:05:26Z</time>
      </trkpt>
      <trkpt lat="47.38139" lon="0.22152">
        <ele>82</ele>
        <time>2020-08-27T10:05:28Z</time>
      </trkpt>
      <trkpt lat="47.3814" lon="0.22155">
        <ele>82</ele>
        <time>2020-08-27T10:05:30Z</time>
      </trkpt>
      <trkpt lat="47.38142" lon="0.22158">
        <ele>82</ele>
        <time>2020-08-27T10:05:32Z</time>
      </trkpt>
      <trkpt lat="47.38144" lon="0.22161">
        <ele>82</ele>
        <time>2020-08-27T10:05:34Z</time>
      </trkpt>
      <trkpt lat="47.38145" lon="0.22163">
        <ele>82</ele>
        <time>2020-08-27T10:05:36Z</time>
      </trkpt>
      <trkpt lat="47.38147" lon="0.22165">
        <ele>82</ele>
        <time>2020-08-27T10:05:38Z</time>
      </trkpt>
      <trkpt lat="47.38149" lon="0.22168">
        <ele>82</ele>
        <time>2020-08-27T10:05:40Z</time>
      </trkpt>
      <trkpt lat="47.38151" lon="0.22171">
        <ele>82</ele>
        <time>2020-08-27T10:05:42Z</time>
      </trkpt>
      <trkpt lat="47.38153" lon="0.22174">
        <ele>82</ele>
        <time>2020-08-27T10:05:44Z</time>
      </trkpt>
      <trkpt lat="47.38154" lon="0.22176">
        <ele>82</ele>
        <time>2020-08-27T10:05:46Z</time>
      </trkpt>
      <trkpt lat="47.38156" lon="0.22178">
        <ele>82</ele>
        <time>2020-08-27T10:05:48Z</time>
      </trkpt>
      <trkpt lat="47.38157" lon="0.22181">
        <ele>82</ele>
        <time>2020-08-27T10:05:50Z</time>
      </trkpt>
      <trkpt lat="47.38159" lon="0.22183">
        <ele>82</ele>
        <time>2020-08-27T10:05:52Z</time>
      </trkpt>
      <trkpt lat="47.38161" lon="0.22185">
        <ele>82</ele>
        <time>2020-08-27T10:05:54Z</time>
      </trkpt>
      <trkpt lat="47.38162" lon="0.22188">
        <ele>82</ele>
        <time>2020-08-27T10:05:56Z</time>
      </trkpt>
      <trkpt lat="47.38164" lon="0.2219">
        <ele>82</ele>
        <time>2020-08-27T10:05:58Z</time>
      </trkpt>
      <trkpt lat="47.38166" lon="0.22192">
        <ele>82</ele>
        <time>2020-08-27T10:06:00Z</time>
      </trkpt>
      <trkpt lat="47.38168" lon="0.22195">
        <ele>83</ele>
        <time>2020-08-27T10:06:02Z</time>
      </trkpt>
      <trkpt lat="47.3817" lon="0.22197">
        <ele>83</ele>
        <time>2020-08-27T10:06:04Z</time>
      </trkpt>
      <trkpt lat="47.38172" lon="0.22199">
        <ele>83</ele>
        <time>2020-08-27T10:06:06Z</time>
      </trkpt>
      <trkpt lat="47.38174" lon="0.22201">
        <ele>83</ele>
        <time>2020-08-27T10:06:08Z</time>
      </trkpt>
      <trkpt lat="47.38176" lon="0.22204">
        <ele>83</ele>
        <time>2020-08-27T10:06:10Z</time>
      </trkpt>
      <trkpt lat="47.38178" lon="0.22206">
        <ele>83</ele>
        <time>2020-08-27T10:06:12Z</time>
      </trkpt>
      <trkpt lat="47.3818" lon="0.22208">
        <ele>83</ele>
        <time>2020-08-27T10:06:14Z</time>
      </trkpt>
      <trkpt lat="47.38182" lon="0.2221">
        <ele>83</ele>
        <time>2020-08-27T10:06:16Z</time>
      </trkpt>
      <trkpt lat="47.38184" lon="0.22213">
        <ele>83</ele>
        <time>2020-08-27T10:06:18Z</time>
      </trkpt>
      <trkpt lat="47.38185" lon="0.22215">
        <ele>83</ele>
        <time>2020-08-27T10:06:20Z</time>
      </trkpt>
      <trkpt lat="47.38187" lon="0.22217">
        <ele>83</ele>
        <time>2020-08-27T10:06:22Z</time>
      </trkpt>
      <trkpt lat="47.38189" lon="0.2222">
        <ele>83</ele>
        <time>2020-08-27T10:06:24Z</time>
      </trkpt>
      <trkpt lat="47.38191" lon="0.22222">
        <ele>83</ele>
        <time>2020-08-27T10:06:26Z</time>
      </trkpt>
      <trkpt lat="47.38192" lon="0.22224">
        <ele>83</ele>
        <time>2020-08-27T10:06:28Z</time>
      </trkpt>
      <trkpt lat="47.38194" lon="0.22226">
        <ele>83</ele>
        <time>2020-08-27T10:06:30Z</time>
      </trkpt>
      <trkpt lat="47.38196" lon="0.22227">
        <ele>83</ele>
        <time>2020-08-27T10:06:32Z</time>
      </trkpt>
      <trkpt lat="47.38198" lon="0.22229">
        <ele>83</ele>
        <time>2020-08-27T10:06:34Z</time>
      </trkpt>
      <trkpt lat="47.38199" lon="0.22232">
        <ele>83</ele>
        <time>2020-08-27T10:06:36Z</time>
      </trkpt>
      <trkpt lat="47.38201" lon="0.22234">
        <ele>83</ele>
        <time>2020-08-27T10:06:38Z</time>
      </trkpt>
      <trkpt lat="47.38202" lon="0.22236">
        <ele>83</ele>
        <time>2020-08-27T10:06:40Z</time>
      </trkpt>
      <trkpt lat="47.38204" lon="0.22239">
        <ele>83</ele>
        <time>2020-08-27T10:06:43Z</time>
      </trkpt>
      <trkpt lat="47.38206" lon="0.22241">
        <ele>83</ele>
        <time>2020-08-27T10:06:45Z</time>
      </trkpt>
      <trkpt lat="47.38208" lon="0.22242">
        <ele>83</ele>
        <time>2020-08-27T10:06:47Z</time>
      </trkpt>
      <trkpt lat="47.38211" lon="0.22243">
        <ele>83</ele>
        <time>2020-08-27T10:06:49Z</time>
      </trkpt>
      <trkpt lat="47.38214" lon="0.22243">
        <ele>83</ele>
        <time>2020-08-27T10:06:51Z</time>
      </trkpt>
      <trkpt lat="47.38216" lon="0.22243">
        <ele>83</ele>
        <time>2020-08-27T10:06:53Z</time>
      </trkpt>
      <trkpt lat="47.38219" lon="0.22243">
        <ele>83</ele>
        <time>2020-08-27T10:06:55Z</time>
      </trkpt>
      <trkpt lat="47.38222" lon="0.22242">
        <ele>83</ele>
        <time>2020-08-27T10:06:58Z</time>
      </trkpt>
      <trkpt lat="47.38224" lon="0.22243">
        <ele>83</ele>
        <time>2020-08-27T10:07:00Z</time>
      </trkpt>
      <trkpt lat="47.38226" lon="0.22243">
        <ele>83</ele>
        <time>2020-08-27T10:07:02Z</time>
      </trkpt>
      <trkpt lat="47.38228" lon="0.22243">
        <ele>83</ele>
        <time>2020-08-27T10:07:04Z</time>
      </trkpt>
      <trkpt lat="47.38231" lon="0.22243">
        <ele>83</ele>
        <time>2020-08-27T10:07:07Z</time>
      </trkpt>
      <trkpt lat="47.38233" lon="0.22243">
        <ele>84</ele>
        <time>2020-08-27T10:07:09Z</time>
      </trkpt>
      <trkpt lat="47.38236" lon="0.22244">
        <ele>84</ele>
        <time>2020-08-27T10:07:11Z</time>
      </trkpt>
      <trkpt lat="47.38238" lon="0.22245">
        <ele>84</ele>
        <time>2020-08-27T10:07:13Z</time>
      </trkpt>
      <trkpt lat="47.3824" lon="0.22246">
        <ele>84</ele>
        <time>2020-08-27T10:07:16Z</time>
      </trkpt>
      <trkpt lat="47.38242" lon="0.22248">
        <ele>84</ele>
        <time>2020-08-27T10:07:19Z</time>
      </trkpt>
      <trkpt lat="47.38243" lon="0.22251">
        <ele>84</ele>
        <time>2020-08-27T10:07:34Z</time>
      </trkpt>
      <trkpt lat="47.38245" lon="0.22251">
        <ele>84</ele>
        <time>2020-08-27T10:08:22Z</time>
      </trkpt>
      <trkpt lat="47.38247" lon="0.22252">
        <ele>84</ele>
        <time>2020-08-27T10:08:25Z</time>
      </trkpt>
      <trkpt lat="47.38249" lon="0.22252">
        <ele>85</ele>
        <time>2020-08-27T10:08:28Z</time>
      </trkpt>
      <trkpt lat="47.38252" lon="0.22252">
        <ele>85</ele>
        <time>2020-08-27T10:08:31Z</time>
      </trkpt>
      <trkpt lat="47.38254" lon="0.22252">
        <ele>85</ele>
        <time>2020-08-27T10:08:33Z</time>
      </trkpt>
      <trkpt lat="47.38256" lon="0.22251">
        <ele>85</ele>
        <time>2020-08-27T10:08:36Z</time>
      </trkpt>
      <trkpt lat="47.38258" lon="0.2225">
        <ele>85</ele>
        <time>2020-08-27T10:08:38Z</time>
      </trkpt>
      <trkpt lat="47.3826" lon="0.22249">
        <ele>85</ele>
        <time>2020-08-27T10:08:40Z</time>
      </trkpt>
      <trkpt lat="47.38262" lon="0.22247">
        <ele>85</ele>
        <time>2020-08-27T10:08:42Z</time>
      </trkpt>
      <trkpt lat="47.38265" lon="0.22246">
        <ele>85</ele>
        <time>2020-08-27T10:08:44Z</time>
      </trkpt>
      <trkpt lat="47.38267" lon="0.22244">
        <ele>85</ele>
        <time>2020-08-27T10:08:46Z</time>
      </trkpt>
      <trkpt lat="47.38269" lon="0.22243">
        <ele>85</ele>
        <time>2020-08-27T10:08:48Z</time>
      </trkpt>
      <trkpt lat="47.38271" lon="0.22242">
        <ele>85</ele>
        <time>2020-08-27T10:08:50Z</time>
      </trkpt>
      <trkpt lat="47.38274" lon="0.22241">
        <ele>85</ele>
        <time>2020-08-27T10:08:52Z</time>
      </trkpt>
      <trkpt lat="47.38276" lon="0.22241">
        <ele>85</ele>
        <time>2020-08-27T10:08:54Z</time>
      </trkpt>
      <trkpt lat="47.38279" lon="0.2224">
        <ele>85</ele>
        <time>2020-08-27T10:08:56Z</time>
      </trkpt>
      <trkpt lat="47.38282" lon="0.22239">
        <ele>85</ele>
        <time>2020-08-27T10:09:03Z</time>
      </trkpt>
      <trkpt lat="47.38285" lon="0.22238">
        <ele>85</ele>
        <time>2020-08-27T10:09:05Z</time>
      </trkpt>
      <trkpt lat="47.38286" lon="0.22238">
        <ele>85</ele>
        <time>2020-08-27T10:09:06Z</time>
      </trkpt>
      <trkpt lat="47.3829" lon="0.22237">
        <ele>85</ele>
        <time>2020-08-27T10:09:08Z</time>
      </trkpt>
      <trkpt lat="47.38293" lon="0.22237">
        <ele>85</ele>
        <time>2020-08-27T10:09:10Z</time>
      </trkpt>
      <trkpt lat="47.38296" lon="0.22237">
        <ele>85</ele>
        <time>2020-08-27T10:09:12Z</time>
      </trkpt>
      <trkpt lat="47.38298" lon="0.22237">
        <ele>85</ele>
        <time>2020-08-27T10:09:14Z</time>
      </trkpt>
      <trkpt lat="47.38301" lon="0.22236">
        <ele>85</ele>
        <time>2020-08-27T10:09:16Z</time>
      </trkpt>
      <trkpt lat="47.38304" lon="0.22235">
        <ele>85</ele>
        <time>2020-08-27T10:09:18Z</time>
      </trkpt>
      <trkpt lat="47.38306" lon="0.22235">
        <ele>85</ele>
        <time>2020-08-27T10:09:20Z</time>
      </trkpt>
      <trkpt lat="47.3831" lon="0.22234">
        <ele>85</ele>
        <time>2020-08-27T10:09:22Z</time>
      </trkpt>
      <trkpt lat="47.38312" lon="0.22234">
        <ele>85</ele>
        <time>2020-08-27T10:09:24Z</time>
      </trkpt>
      <trkpt lat="47.38315" lon="0.22233">
        <ele>85</ele>
        <time>2020-08-27T10:09:26Z</time>
      </trkpt>
      <trkpt lat="47.38317" lon="0.22232">
        <ele>85</ele>
        <time>2020-08-27T10:09:28Z</time>
      </trkpt>
      <trkpt lat="47.3832" lon="0.22232">
        <ele>85</ele>
        <time>2020-08-27T10:09:30Z</time>
      </trkpt>
      <trkpt lat="47.38322" lon="0.22232">
        <ele>84</ele>
        <time>2020-08-27T10:09:32Z</time>
      </trkpt>
      <trkpt lat="47.38325" lon="0.22231">
        <ele>84</ele>
        <time>2020-08-27T10:09:34Z</time>
      </trkpt>
      <trkpt lat="47.38328" lon="0.22231">
        <ele>84</ele>
        <time>2020-08-27T10:09:36Z</time>
      </trkpt>
      <trkpt lat="47.3833" lon="0.22231">
        <ele>84</ele>
        <time>2020-08-27T10:09:38Z</time>
      </trkpt>
      <trkpt lat="47.38333" lon="0.2223">
        <ele>84</ele>
        <time>2020-08-27T10:09:40Z</time>
      </trkpt>
      <trkpt lat="47.38336" lon="0.22229">
        <ele>84</ele>
        <time>2020-08-27T10:09:42Z</time>
      </trkpt>
      <trkpt lat="47.38339" lon="0.22228">
        <ele>83</ele>
        <time>2020-08-27T10:09:44Z</time>
      </trkpt>
      <trkpt lat="47.38342" lon="0.22228">
        <ele>83</ele>
        <time>2020-08-27T10:09:46Z</time>
      </trkpt>
      <trkpt lat="47.38345" lon="0.22227">
        <ele>83</ele>
        <time>2020-08-27T10:09:48Z</time>
      </trkpt>
      <trkpt lat="47.38348" lon="0.22226">
        <ele>83</ele>
        <time>2020-08-27T10:09:50Z</time>
      </trkpt>
      <trkpt lat="47.3835" lon="0.22226">
        <ele>82</ele>
        <time>2020-08-27T10:09:52Z</time>
      </trkpt>
      <trkpt lat="47.38353" lon="0.22225">
        <ele>82</ele>
        <time>2020-08-27T10:09:54Z</time>
      </trkpt>
      <trkpt lat="47.38356" lon="0.22224">
        <ele>82</ele>
        <time>2020-08-27T10:09:56Z</time>
      </trkpt>
      <trkpt lat="47.38359" lon="0.22224">
        <ele>82</ele>
        <time>2020-08-27T10:09:58Z</time>
      </trkpt>
      <trkpt lat="47.38362" lon="0.22224">
        <ele>81</ele>
        <time>2020-08-27T10:10:00Z</time>
      </trkpt>
      <trkpt lat="47.38364" lon="0.22225">
        <ele>81</ele>
        <time>2020-08-27T10:10:05Z</time>
      </trkpt>
      <trkpt lat="47.38362" lon="0.22227">
        <ele>81</ele>
        <time>2020-08-27T10:10:14Z</time>
      </trkpt>
      <trkpt lat="47.3836" lon="0.22228">
        <ele>82</ele>
        <time>2020-08-27T10:10:17Z</time>
      </trkpt>
      <trkpt lat="47.38358" lon="0.22229">
        <ele>82</ele>
        <time>2020-08-27T10:10:19Z</time>
      </trkpt>
      <trkpt lat="47.38356" lon="0.22229">
        <ele>82</ele>
        <time>2020-08-27T10:10:22Z</time>
      </trkpt>
      <trkpt lat="47.38354" lon="0.22229">
        <ele>82</ele>
        <time>2020-08-27T10:10:24Z</time>
      </trkpt>
      <trkpt lat="47.38352" lon="0.2223">
        <ele>82</ele>
        <time>2020-08-27T10:10:26Z</time>
      </trkpt>
      <trkpt lat="47.3835" lon="0.2223">
        <ele>82</ele>
        <time>2020-08-27T10:10:28Z</time>
      </trkpt>
      <trkpt lat="47.38347" lon="0.22231">
        <ele>83</ele>
        <time>2020-08-27T10:10:30Z</time>
      </trkpt>
      <trkpt lat="47.38345" lon="0.22231">
        <ele>83</ele>
        <time>2020-08-27T10:10:32Z</time>
      </trkpt>
      <trkpt lat="47.38343" lon="0.22231">
        <ele>83</ele>
        <time>2020-08-27T10:10:34Z</time>
      </trkpt>
      <trkpt lat="47.38341" lon="0.22232">
        <ele>83</ele>
        <time>2020-08-27T10:10:36Z</time>
      </trkpt>
      <trkpt lat="47.38339" lon="0.22233">
        <ele>83</ele>
        <time>2020-08-27T10:10:38Z</time>
      </trkpt>
      <trkpt lat="47.38336" lon="0.22233">
        <ele>84</ele>
        <time>2020-08-27T10:10:40Z</time>
      </trkpt>
      <trkpt lat="47.38334" lon="0.22234">
        <ele>84</ele>
        <time>2020-08-27T10:10:42Z</time>
      </trkpt>
      <trkpt lat="47.38332" lon="0.22235">
        <ele>84</ele>
        <time>2020-08-27T10:10:44Z</time>
      </trkpt>
      <trkpt lat="47.38329" lon="0.22236">
        <ele>84</ele>
        <time>2020-08-27T10:10:46Z</time>
      </trkpt>
      <trkpt lat="47.38328" lon="0.22236">
        <ele>84</ele>
        <time>2020-08-27T10:10:48Z</time>
      </trkpt>
      <trkpt lat="47.38325" lon="0.22236">
        <ele>84</ele>
        <time>2020-08-27T10:10:54Z</time>
      </trkpt>
      <trkpt lat="47.38324" lon="0.22238">
        <ele>85</ele>
        <time>2020-08-27T10:10:59Z</time>
      </trkpt>
      <trkpt lat="47.38323" lon="0.22235">
        <ele>85</ele>
        <time>2020-08-27T10:11:07Z</time>
      </trkpt>
      <trkpt lat="47.38323" lon="0.22232">
        <ele>84</ele>
        <time>2020-08-27T10:11:10Z</time>
      </trkpt>
      <trkpt lat="47.38324" lon="0.22228">
        <ele>84</ele>
        <time>2020-08-27T10:11:12Z</time>
      </trkpt>
      <trkpt lat="47.38324" lon="0.22225">
        <ele>84</ele>
        <time>2020-08-27T10:11:14Z</time>
      </trkpt>
      <trkpt lat="47.38324" lon="0.22221">
        <ele>84</ele>
        <time>2020-08-27T10:11:16Z</time>
      </trkpt>
      <trkpt lat="47.38325" lon="0.22217">
        <ele>84</ele>
        <time>2020-08-27T10:11:18Z</time>
      </trkpt>
      <trkpt lat="47.38325" lon="0.22215">
        <ele>84</ele>
        <time>2020-08-27T10:11:20Z</time>
      </trkpt>
      <trkpt lat="47.38326" lon="0.22212">
        <ele>84</ele>
        <time>2020-08-27T10:11:22Z</time>
      </trkpt>
      <trkpt lat="47.38327" lon="0.22209">
        <ele>84</ele>
        <time>2020-08-27T10:11:24Z</time>
      </trkpt>
      <trkpt lat="47.38328" lon="0.22206">
        <ele>83</ele>
        <time>2020-08-27T10:11:26Z</time>
      </trkpt>
      <trkpt lat="47.38329" lon="0.22202">
        <ele>83</ele>
        <time>2020-08-27T10:11:28Z</time>
      </trkpt>
      <trkpt lat="47.3833" lon="0.222">
        <ele>83</ele>
        <time>2020-08-27T10:11:30Z</time>
      </trkpt>
      <trkpt lat="47.38331" lon="0.22197">
        <ele>83</ele>
        <time>2020-08-27T10:11:32Z</time>
      </trkpt>
      <trkpt lat="47.38332" lon="0.22194">
        <ele>83</ele>
        <time>2020-08-27T10:11:34Z</time>
      </trkpt>
      <trkpt lat="47.38333" lon="0.2219">
        <ele>82</ele>
        <time>2020-08-27T10:11:36Z</time>
      </trkpt>
      <trkpt lat="47.38335" lon="0.22186">
        <ele>82</ele>
        <time>2020-08-27T10:11:38Z</time>
      </trkpt>
      <trkpt lat="47.38336" lon="0.22182">
        <ele>82</ele>
        <time>2020-08-27T10:11:40Z</time>
      </trkpt>
      <trkpt lat="47.38337" lon="0.22179">
        <ele>82</ele>
        <time>2020-08-27T10:11:42Z</time>
      </trkpt>
      <trkpt lat="47.38339" lon="0.22177">
        <ele>81</ele>
        <time>2020-08-27T10:11:44Z</time>
      </trkpt>
      <trkpt lat="47.3834" lon="0.22174">
        <ele>81</ele>
        <time>2020-08-27T10:11:46Z</time>
      </trkpt>
      <trkpt lat="47.38341" lon="0.22171">
        <ele>81</ele>
        <time>2020-08-27T10:11:48Z</time>
      </trkpt>
      <trkpt lat="47.38342" lon="0.22168">
        <ele>81</ele>
        <time>2020-08-27T10:11:50Z</time>
      </trkpt>
      <trkpt lat="47.38344" lon="0.22165">
        <ele>81</ele>
        <time>2020-08-27T10:11:52Z</time>
      </trkpt>
      <trkpt lat="47.38346" lon="0.22161">
        <ele>81</ele>
        <time>2020-08-27T10:11:54Z</time>
      </trkpt>
      <trkpt lat="47.38347" lon="0.22158">
        <ele>80</ele>
        <time>2020-08-27T10:11:56Z</time>
      </trkpt>
      <trkpt lat="47.38349" lon="0.22156">
        <ele>80</ele>
        <time>2020-08-27T10:11:58Z</time>
      </trkpt>
      <trkpt lat="47.38351" lon="0.22155">
        <ele>80</ele>
        <time>2020-08-27T10:12:00Z</time>
      </trkpt>
      <trkpt lat="47.38353" lon="0.22152">
        <ele>80</ele>
        <time>2020-08-27T10:12:02Z</time>
      </trkpt>
      <trkpt lat="47.38356" lon="0.2215">
        <ele>80</ele>
        <time>2020-08-27T10:12:04Z</time>
      </trkpt>
      <trkpt lat="47.38359" lon="0.22148">
        <ele>80</ele>
        <time>2020-08-27T10:12:06Z</time>
      </trkpt>
      <trkpt lat="47.38361" lon="0.22146">
        <ele>80</ele>
        <time>2020-08-27T10:12:08Z</time>
      </trkpt>
      <trkpt lat="47.38364" lon="0.22143">
        <ele>80</ele>
        <time>2020-08-27T10:12:10Z</time>
      </trkpt>
      <trkpt lat="47.38366" lon="0.22141">
        <ele>80</ele>
        <time>2020-08-27T10:12:12Z</time>
      </trkpt>
      <trkpt lat="47.38369" lon="0.22139">
        <ele>80</ele>
        <time>2020-08-27T10:12:14Z</time>
      </trkpt>
      <trkpt lat="47.38371" lon="0.22138">
        <ele>80</ele>
        <time>2020-08-27T10:12:16Z</time>
      </trkpt>
      <trkpt lat="47.38373" lon="0.22136">
        <ele>80</ele>
        <time>2020-08-27T10:12:18Z</time>
      </trkpt>
      <trkpt lat="47.38375" lon="0.22134">
        <ele>80</ele>
        <time>2020-08-27T10:12:20Z</time>
      </trkpt>
      <trkpt lat="47.38377" lon="0.22132">
        <ele>80</ele>
        <time>2020-08-27T10:12:22Z</time>
      </trkpt>
      <trkpt lat="47.3838" lon="0.2213">
        <ele>80</ele>
        <time>2020-08-27T10:12:24Z</time>
      </trkpt>
      <trkpt lat="47.38381" lon="0.22129">
        <ele>80</ele>
        <time>2020-08-27T10:12:27Z</time>
      </trkpt>
      <trkpt lat="47.38384" lon="0.22126">
        <ele>80</ele>
        <time>2020-08-27T10:12:30Z</time>
      </trkpt>
      <trkpt lat="47.38385" lon="0.22124">
        <ele>80</ele>
        <time>2020-08-27T10:12:32Z</time>
      </trkpt>
      <trkpt lat="47.38387" lon="0.22122">
        <ele>80</ele>
        <time>2020-08-27T10:12:34Z</time>
      </trkpt>
      <trkpt lat="47.38389" lon="0.22119">
        <ele>80</ele>
        <time>2020-08-27T10:12:36Z</time>
      </trkpt>
      <trkpt lat="47.38391" lon="0.22117">
        <ele>79</ele>
        <time>2020-08-27T10:12:38Z</time>
      </trkpt>
      <trkpt lat="47.38392" lon="0.22116">
        <ele>79</ele>
        <time>2020-08-27T10:12:40Z</time>
      </trkpt>
      <trkpt lat="47.38394" lon="0.22113">
        <ele>79</ele>
        <time>2020-08-27T10:12:43Z</time>
      </trkpt>
      <trkpt lat="47.38396" lon="0.2211">
        <ele>79</ele>
        <time>2020-08-27T10:12:45Z</time>
      </trkpt>
      <trkpt lat="47.38397" lon="0.22107">
        <ele>79</ele>
        <time>2020-08-27T10:12:47Z</time>
      </trkpt>
      <trkpt lat="47.38399" lon="0.22104">
        <ele>79</ele>
        <time>2020-08-27T10:12:49Z</time>
      </trkpt>
      <trkpt lat="47.38401" lon="0.221">
        <ele>79</ele>
        <time>2020-08-27T10:12:51Z</time>
      </trkpt>
      <trkpt lat="47.38403" lon="0.22097">
        <ele>79</ele>
        <time>2020-08-27T10:12:53Z</time>
      </trkpt>
      <trkpt lat="47.38403" lon="0.22093">
        <ele>79</ele>
        <time>2020-08-27T10:12:55Z</time>
      </trkpt>
      <trkpt lat="47.38404" lon="0.22089">
        <ele>79</ele>
        <time>2020-08-27T10:12:57Z</time>
      </trkpt>
      <trkpt lat="47.38404" lon="0.22085">
        <ele>79</ele>
        <time>2020-08-27T10:12:59Z</time>
      </trkpt>
      <trkpt lat="47.38404" lon="0.22081">
        <ele>79</ele>
        <time>2020-08-27T10:13:01Z</time>
      </trkpt>
      <trkpt lat="47.38403" lon="0.22078">
        <ele>79</ele>
        <time>2020-08-27T10:13:03Z</time>
      </trkpt>
      <trkpt lat="47.38404" lon="0.22074">
        <ele>79</ele>
        <time>2020-08-27T10:13:05Z</time>
      </trkpt>
      <trkpt lat="47.38403" lon="0.22071">
        <ele>79</ele>
        <time>2020-08-27T10:13:07Z</time>
      </trkpt>
      <trkpt lat="47.38403" lon="0.22068">
        <ele>78</ele>
        <time>2020-08-27T10:13:09Z</time>
      </trkpt>
      <trkpt lat="47.38403" lon="0.22065">
        <ele>78</ele>
        <time>2020-08-27T10:13:11Z</time>
      </trkpt>
      <trkpt lat="47.38403" lon="0.22061">
        <ele>78</ele>
        <time>2020-08-27T10:13:14Z</time>
      </trkpt>
      <trkpt lat="47.38402" lon="0.22058">
        <ele>78</ele>
        <time>2020-08-27T10:13:17Z</time>
      </trkpt>
      <trkpt lat="47.38402" lon="0.22054">
        <ele>78</ele>
        <time>2020-08-27T10:13:20Z</time>
      </trkpt>
      <trkpt lat="47.38402" lon="0.22051">
        <ele>78</ele>
        <time>2020-08-27T10:13:22Z</time>
      </trkpt>
      <trkpt lat="47.38402" lon="0.22047">
        <ele>77</ele>
        <time>2020-08-27T10:13:24Z</time>
      </trkpt>
      <trkpt lat="47.38402" lon="0.22043">
        <ele>77</ele>
        <time>2020-08-27T10:13:26Z</time>
      </trkpt>
      <trkpt lat="47.38401" lon="0.22039">
        <ele>77</ele>
        <time>2020-08-27T10:13:28Z</time>
      </trkpt>
      <trkpt lat="47.384" lon="0.22035">
        <ele>77</ele>
        <time>2020-08-27T10:13:30Z</time>
      </trkpt>
      <trkpt lat="47.384" lon="0.2203">
        <ele>76</ele>
        <time>2020-08-27T10:13:32Z</time>
      </trkpt>
      <trkpt lat="47.384" lon="0.22026">
        <ele>76</ele>
        <time>2020-08-27T10:13:34Z</time>
      </trkpt>
      <trkpt lat="47.38399" lon="0.22022">
        <ele>76</ele>
        <time>2020-08-27T10:13:36Z</time>
      </trkpt>
      <trkpt lat="47.38398" lon="0.22019">
        <ele>76</ele>
        <time>2020-08-27T10:13:38Z</time>
      </trkpt>
      <trkpt lat="47.38398" lon="0.22015">
        <ele>75</ele>
        <time>2020-08-27T10:13:40Z</time>
      </trkpt>
      <trkpt lat="47.38399" lon="0.2201">
        <ele>75</ele>
        <time>2020-08-27T10:13:42Z</time>
      </trkpt>
      <trkpt lat="47.38399" lon="0.22007">
        <ele>75</ele>
        <time>2020-08-27T10:13:43Z</time>
      </trkpt>
      <trkpt lat="47.38399" lon="0.22003">
        <ele>75</ele>
        <time>2020-08-27T10:13:45Z</time>
      </trkpt>
      <trkpt lat="47.384" lon="0.22">
        <ele>74</ele>
        <time>2020-08-27T10:13:47Z</time>
      </trkpt>
      <trkpt lat="47.38401" lon="0.21996">
        <ele>74</ele>
        <time>2020-08-27T10:13:49Z</time>
      </trkpt>
      <trkpt lat="47.38401" lon="0.21993">
        <ele>74</ele>
        <time>2020-08-27T10:13:51Z</time>
      </trkpt>
      <trkpt lat="47.38402" lon="0.21991">
        <ele>74</ele>
        <time>2020-08-27T10:13:53Z</time>
      </trkpt>
      <trkpt lat="47.38403" lon="0.21987">
        <ele>73</ele>
        <time>2020-08-27T10:13:55Z</time>
      </trkpt>
      <trkpt lat="47.38404" lon="0.21984">
        <ele>73</ele>
        <time>2020-08-27T10:13:57Z</time>
      </trkpt>
      <trkpt lat="47.38405" lon="0.2198">
        <ele>73</ele>
        <time>2020-08-27T10:13:59Z</time>
      </trkpt>
      <trkpt lat="47.38407" lon="0.21976">
        <ele>72</ele>
        <time>2020-08-27T10:14:01Z</time>
      </trkpt>
      <trkpt lat="47.38409" lon="0.21973">
        <ele>72</ele>
        <time>2020-08-27T10:14:03Z</time>
      </trkpt>
      <trkpt lat="47.38411" lon="0.21969">
        <ele>72</ele>
        <time>2020-08-27T10:14:05Z</time>
      </trkpt>
      <trkpt lat="47.38413" lon="0.21966">
        <ele>71</ele>
        <time>2020-08-27T10:14:07Z</time>
      </trkpt>
      <trkpt lat="47.38416" lon="0.21964">
        <ele>71</ele>
        <time>2020-08-27T10:14:09Z</time>
      </trkpt>
      <trkpt lat="47.38418" lon="0.21961">
        <ele>71</ele>
        <time>2020-08-27T10:14:11Z</time>
      </trkpt>
      <trkpt lat="47.3842" lon="0.21958">
        <ele>71</ele>
        <time>2020-08-27T10:14:13Z</time>
      </trkpt>
      <trkpt lat="47.38422" lon="0.21956">
        <ele>71</ele>
        <time>2020-08-27T10:14:15Z</time>
      </trkpt>
      <trkpt lat="47.38424" lon="0.21954">
        <ele>71</ele>
        <time>2020-08-27T10:14:17Z</time>
      </trkpt>
      <trkpt lat="47.38426" lon="0.21953">
        <ele>71</ele>
        <time>2020-08-27T10:14:19Z</time>
      </trkpt>
      <trkpt lat="47.38429" lon="0.2195">
        <ele>71</ele>
        <time>2020-08-27T10:14:21Z</time>
      </trkpt>
      <trkpt lat="47.38431" lon="0.21948">
        <ele>71</ele>
        <time>2020-08-27T10:14:23Z</time>
      </trkpt>
      <trkpt lat="47.38434" lon="0.21945">
        <ele>71</ele>
        <time>2020-08-27T10:14:25Z</time>
      </trkpt>
      <trkpt lat="47.38436" lon="0.21943">
        <ele>70</ele>
        <time>2020-08-27T10:14:27Z</time>
      </trkpt>
      <trkpt lat="47.38438" lon="0.21941">
        <ele>70</ele>
        <time>2020-08-27T10:14:29Z</time>
      </trkpt>
      <trkpt lat="47.3844" lon="0.21938">
        <ele>70</ele>
        <time>2020-08-27T10:14:31Z</time>
      </trkpt>
      <trkpt lat="47.38442" lon="0.21936">
        <ele>70</ele>
        <time>2020-08-27T10:14:33Z</time>
      </trkpt>
      <trkpt lat="47.38444" lon="0.21934">
        <ele>70</ele>
        <time>2020-08-27T10:14:35Z</time>
      </trkpt>
      <trkpt lat="47.38446" lon="0.21932">
        <ele>70</ele>
        <time>2020-08-27T10:14:37Z</time>
      </trkpt>
      <trkpt lat="47.38448" lon="0.2193">
        <ele>70</ele>
        <time>2020-08-27T10:14:39Z</time>
      </trkpt>
      <trkpt lat="47.3845" lon="0.21927">
        <ele>70</ele>
        <time>2020-08-27T10:14:41Z</time>
      </trkpt>
      <trkpt lat="47.38451" lon="0.21924">
        <ele>70</ele>
        <time>2020-08-27T10:14:43Z</time>
      </trkpt>
      <trkpt lat="47.38452" lon="0.2192">
        <ele>69</ele>
        <time>2020-08-27T10:14:45Z</time>
      </trkpt>
      <trkpt lat="47.38453" lon="0.21916">
        <ele>69</ele>
        <time>2020-08-27T10:14:47Z</time>
      </trkpt>
      <trkpt lat="47.38452" lon="0.21912">
        <ele>69</ele>
        <time>2020-08-27T10:14:49Z</time>
      </trkpt>
      <trkpt lat="47.38452" lon="0.21909">
        <ele>69</ele>
        <time>2020-08-27T10:14:51Z</time>
      </trkpt>
      <trkpt lat="47.38453" lon="0.21906">
        <ele>69</ele>
        <time>2020-08-27T10:14:53Z</time>
      </trkpt>
      <trkpt lat="47.38453" lon="0.21902">
        <ele>69</ele>
        <time>2020-08-27T10:14:55Z</time>
      </trkpt>
      <trkpt lat="47.38452" lon="0.21899">
        <ele>69</ele>
        <time>2020-08-27T10:14:57Z</time>
      </trkpt>
      <trkpt lat="47.38451" lon="0.21896">
        <ele>69</ele>
        <time>2020-08-27T10:14:59Z</time>
      </trkpt>
      <trkpt lat="47.3845" lon="0.21893">
        <ele>69</ele>
        <time>2020-08-27T10:15:01Z</time>
      </trkpt>
      <trkpt lat="47.38449" lon="0.2189">
        <ele>69</ele>
        <time>2020-08-27T10:15:03Z</time>
      </trkpt>
      <trkpt lat="47.38448" lon="0.21887">
        <ele>68</ele>
        <time>2020-08-27T10:15:05Z</time>
      </trkpt>
      <trkpt lat="47.38447" lon="0.21884">
        <ele>68</ele>
        <time>2020-08-27T10:15:07Z</time>
      </trkpt>
      <trkpt lat="47.38445" lon="0.2188">
        <ele>68</ele>
        <time>2020-08-27T10:15:09Z</time>
      </trkpt>
      <trkpt lat="47.38444" lon="0.21877">
        <ele>68</ele>
        <time>2020-08-27T10:15:11Z</time>
      </trkpt>
      <trkpt lat="47.38443" lon="0.21873">
        <ele>68</ele>
        <time>2020-08-27T10:15:13Z</time>
      </trkpt>
      <trkpt lat="47.38441" lon="0.21869">
        <ele>68</ele>
        <time>2020-08-27T10:15:15Z</time>
      </trkpt>
      <trkpt lat="47.38441" lon="0.21866">
        <ele>68</ele>
        <time>2020-08-27T10:15:17Z</time>
      </trkpt>
      <trkpt lat="47.3844" lon="0.21863">
        <ele>68</ele>
        <time>2020-08-27T10:15:19Z</time>
      </trkpt>
      <trkpt lat="47.38439" lon="0.21859">
        <ele>68</ele>
        <time>2020-08-27T10:15:21Z</time>
      </trkpt>
      <trkpt lat="47.38439" lon="0.21856">
        <ele>68</ele>
        <time>2020-08-27T10:15:23Z</time>
      </trkpt>
      <trkpt lat="47.38438" lon="0.21853">
        <ele>68</ele>
        <time>2020-08-27T10:15:25Z</time>
      </trkpt>
      <trkpt lat="47.38437" lon="0.21851">
        <ele>68</ele>
        <time>2020-08-27T10:15:27Z</time>
      </trkpt>
      <trkpt lat="47.38437" lon="0.21848">
        <ele>68</ele>
        <time>2020-08-27T10:15:29Z</time>
      </trkpt>
      <trkpt lat="47.38436" lon="0.21844">
        <ele>68</ele>
        <time>2020-08-27T10:15:31Z</time>
      </trkpt>
      <trkpt lat="47.38435" lon="0.21841">
        <ele>68</ele>
        <time>2020-08-27T10:15:33Z</time>
      </trkpt>
      <trkpt lat="47.38434" lon="0.21837">
        <ele>69</ele>
        <time>2020-08-27T10:15:35Z</time>
      </trkpt>
      <trkpt lat="47.38432" lon="0.21834">
        <ele>69</ele>
        <time>2020-08-27T10:15:37Z</time>
      </trkpt>
      <trkpt lat="47.38432" lon="0.21829">
        <ele>69</ele>
        <time>2020-08-27T10:15:39Z</time>
      </trkpt>
      <trkpt lat="47.38432" lon="0.21825">
        <ele>69</ele>
        <time>2020-08-27T10:15:41Z</time>
      </trkpt>
      <trkpt lat="47.38431" lon="0.21822">
        <ele>69</ele>
        <time>2020-08-27T10:15:43Z</time>
      </trkpt>
      <trkpt lat="47.3843" lon="0.21818">
        <ele>69</ele>
        <time>2020-08-27T10:15:45Z</time>
      </trkpt>
      <trkpt lat="47.38428" lon="0.21815">
        <ele>69</ele>
        <time>2020-08-27T10:15:47Z</time>
      </trkpt>
      <trkpt lat="47.38427" lon="0.21812">
        <ele>69</ele>
        <time>2020-08-27T10:15:49Z</time>
      </trkpt>
      <trkpt lat="47.38427" lon="0.21809">
        <ele>69</ele>
        <time>2020-08-27T10:15:51Z</time>
      </trkpt>
      <trkpt lat="47.38424" lon="0.21805">
        <ele>69</ele>
        <time>2020-08-27T10:15:53Z</time>
      </trkpt>
      <trkpt lat="47.38422" lon="0.21801">
        <ele>69</ele>
        <time>2020-08-27T10:15:55Z</time>
      </trkpt>
      <trkpt lat="47.3842" lon="0.21798">
        <ele>69</ele>
        <time>2020-08-27T10:15:57Z</time>
      </trkpt>
      <trkpt lat="47.38419" lon="0.21794">
        <ele>69</ele>
        <time>2020-08-27T10:15:59Z</time>
      </trkpt>
      <trkpt lat="47.38418" lon="0.21791">
        <ele>68</ele>
        <time>2020-08-27T10:16:01Z</time>
      </trkpt>
      <trkpt lat="47.38417" lon="0.21788">
        <ele>68</ele>
        <time>2020-08-27T10:16:03Z</time>
      </trkpt>
      <trkpt lat="47.38416" lon="0.21784">
        <ele>68</ele>
        <time>2020-08-27T10:16:06Z</time>
      </trkpt>
      <trkpt lat="47.38415" lon="0.21781">
        <ele>68</ele>
        <time>2020-08-27T10:16:08Z</time>
      </trkpt>
      <trkpt lat="47.38414" lon="0.21777">
        <ele>68</ele>
        <time>2020-08-27T10:16:10Z</time>
      </trkpt>
      <trkpt lat="47.38413" lon="0.21774">
        <ele>68</ele>
        <time>2020-08-27T10:16:12Z</time>
      </trkpt>
      <trkpt lat="47.38412" lon="0.21771">
        <ele>68</ele>
        <time>2020-08-27T10:16:14Z</time>
      </trkpt>
      <trkpt lat="47.38411" lon="0.21767">
        <ele>68</ele>
        <time>2020-08-27T10:16:16Z</time>
      </trkpt>
      <trkpt lat="47.38411" lon="0.21763">
        <ele>68</ele>
        <time>2020-08-27T10:16:18Z</time>
      </trkpt>
      <trkpt lat="47.3841" lon="0.21759">
        <ele>68</ele>
        <time>2020-08-27T10:16:20Z</time>
      </trkpt>
      <trkpt lat="47.38409" lon="0.21755">
        <ele>68</ele>
        <time>2020-08-27T10:16:22Z</time>
      </trkpt>
      <trkpt lat="47.38408" lon="0.21752">
        <ele>68</ele>
        <time>2020-08-27T10:16:24Z</time>
      </trkpt>
      <trkpt lat="47.38407" lon="0.21748">
        <ele>67</ele>
        <time>2020-08-27T10:16:26Z</time>
      </trkpt>
      <trkpt lat="47.38406" lon="0.21744">
        <ele>67</ele>
        <time>2020-08-27T10:16:28Z</time>
      </trkpt>
      <trkpt lat="47.38405" lon="0.2174">
        <ele>67</ele>
        <time>2020-08-27T10:16:30Z</time>
      </trkpt>
      <trkpt lat="47.38404" lon="0.21736">
        <ele>67</ele>
        <time>2020-08-27T10:16:32Z</time>
      </trkpt>
      <trkpt lat="47.38404" lon="0.21732">
        <ele>67</ele>
        <time>2020-08-27T10:16:34Z</time>
      </trkpt>
      <trkpt lat="47.38406" lon="0.2173">
        <ele>67</ele>
        <time>2020-08-27T10:16:38Z</time>
      </trkpt>
      <trkpt lat="47.38404" lon="0.21728">
        <ele>67</ele>
        <time>2020-08-27T10:16:50Z</time>
      </trkpt>
      <trkpt lat="47.38402" lon="0.21726">
        <ele>67</ele>
        <time>2020-08-27T10:16:52Z</time>
      </trkpt>
      <trkpt lat="47.384" lon="0.21723">
        <ele>67</ele>
        <time>2020-08-27T10:16:54Z</time>
      </trkpt>
      <trkpt lat="47.38399" lon="0.21719">
        <ele>67</ele>
        <time>2020-08-27T10:16:56Z</time>
      </trkpt>
      <trkpt lat="47.38398" lon="0.21716">
        <ele>67</ele>
        <time>2020-08-27T10:16:58Z</time>
      </trkpt>
      <trkpt lat="47.38397" lon="0.21713">
        <ele>67</ele>
        <time>2020-08-27T10:17:00Z</time>
      </trkpt>
      <trkpt lat="47.38395" lon="0.2171">
        <ele>67</ele>
        <time>2020-08-27T10:17:02Z</time>
      </trkpt>
      <trkpt lat="47.38394" lon="0.21707">
        <ele>67</ele>
        <time>2020-08-27T10:17:04Z</time>
      </trkpt>
      <trkpt lat="47.38393" lon="0.21705">
        <ele>67</ele>
        <time>2020-08-27T10:17:06Z</time>
      </trkpt>
      <trkpt lat="47.38391" lon="0.21702">
        <ele>67</ele>
        <time>2020-08-27T10:17:08Z</time>
      </trkpt>
      <trkpt lat="47.38389" lon="0.21699">
        <ele>67</ele>
        <time>2020-08-27T10:17:10Z</time>
      </trkpt>
      <trkpt lat="47.38388" lon="0.21695">
        <ele>67</ele>
        <time>2020-08-27T10:17:12Z</time>
      </trkpt>
      <trkpt lat="47.38387" lon="0.21691">
        <ele>66</ele>
        <time>2020-08-27T10:17:14Z</time>
      </trkpt>
      <trkpt lat="47.38386" lon="0.21687">
        <ele>66</ele>
        <time>2020-08-27T10:17:16Z</time>
      </trkpt>
      <trkpt lat="47.38385" lon="0.21683">
        <ele>66</ele>
        <time>2020-08-27T10:17:18Z</time>
      </trkpt>
      <trkpt lat="47.38383" lon="0.2168">
        <ele>66</ele>
        <time>2020-08-27T10:17:20Z</time>
      </trkpt>
      <trkpt lat="47.38381" lon="0.21677">
        <ele>66</ele>
        <time>2020-08-27T10:17:22Z</time>
      </trkpt>
      <trkpt lat="47.38379" lon="0.21674">
        <ele>65</ele>
        <time>2020-08-27T10:17:24Z</time>
      </trkpt>
      <trkpt lat="47.38377" lon="0.2167">
        <ele>65</ele>
        <time>2020-08-27T10:17:26Z</time>
      </trkpt>
      <trkpt lat="47.38376" lon="0.21667">
        <ele>65</ele>
        <time>2020-08-27T10:17:28Z</time>
      </trkpt>
      <trkpt lat="47.38375" lon="0.21663">
        <ele>65</ele>
        <time>2020-08-27T10:17:30Z</time>
      </trkpt>
      <trkpt lat="47.38373" lon="0.21659">
        <ele>65</ele>
        <time>2020-08-27T10:17:32Z</time>
      </trkpt>
      <trkpt lat="47.38372" lon="0.21656">
        <ele>64</ele>
        <time>2020-08-27T10:17:34Z</time>
      </trkpt>
      <trkpt lat="47.3837" lon="0.21652">
        <ele>64</ele>
        <time>2020-08-27T10:17:36Z</time>
      </trkpt>
      <trkpt lat="47.38369" lon="0.21649">
        <ele>64</ele>
        <time>2020-08-27T10:17:38Z</time>
      </trkpt>
      <trkpt lat="47.38367" lon="0.21646">
        <ele>64</ele>
        <time>2020-08-27T10:17:40Z</time>
      </trkpt>
      <trkpt lat="47.38366" lon="0.21643">
        <ele>64</ele>
        <time>2020-08-27T10:17:42Z</time>
      </trkpt>
      <trkpt lat="47.38364" lon="0.2164">
        <ele>64</ele>
        <time>2020-08-27T10:17:44Z</time>
      </trkpt>
      <trkpt lat="47.38362" lon="0.21638">
        <ele>64</ele>
        <time>2020-08-27T10:17:46Z</time>
      </trkpt>
      <trkpt lat="47.3836" lon="0.21635">
        <ele>64</ele>
        <time>2020-08-27T10:17:48Z</time>
      </trkpt>
      <trkpt lat="47.38358" lon="0.21633">
        <ele>64</ele>
        <time>2020-08-27T10:17:50Z</time>
      </trkpt>
      <trkpt lat="47.38356" lon="0.2163">
        <ele>64</ele>
        <time>2020-08-27T10:17:52Z</time>
      </trkpt>
      <trkpt lat="47.38355" lon="0.21627">
        <ele>64</ele>
        <time>2020-08-27T10:17:54Z</time>
      </trkpt>
      <trkpt lat="47.38353" lon="0.21624">
        <ele>64</ele>
        <time>2020-08-27T10:17:56Z</time>
      </trkpt>
      <trkpt lat="47.38352" lon="0.21621">
        <ele>64</ele>
        <time>2020-08-27T10:17:58Z</time>
      </trkpt>
      <trkpt lat="47.3835" lon="0.21618">
        <ele>64</ele>
        <time>2020-08-27T10:18:00Z</time>
      </trkpt>
      <trkpt lat="47.38348" lon="0.21615">
        <ele>64</ele>
        <time>2020-08-27T10:18:02Z</time>
      </trkpt>
      <trkpt lat="47.38347" lon="0.21612">
        <ele>64</ele>
        <time>2020-08-27T10:18:04Z</time>
      </trkpt>
      <trkpt lat="47.38345" lon="0.21609">
        <ele>64</ele>
        <time>2020-08-27T10:18:06Z</time>
      </trkpt>
      <trkpt lat="47.38344" lon="0.21605">
        <ele>64</ele>
        <time>2020-08-27T10:18:08Z</time>
      </trkpt>
      <trkpt lat="47.38342" lon="0.21602">
        <ele>64</ele>
        <time>2020-08-27T10:18:10Z</time>
      </trkpt>
      <trkpt lat="47.3834" lon="0.21598">
        <ele>65</ele>
        <time>2020-08-27T10:18:12Z</time>
      </trkpt>
      <trkpt lat="47.38338" lon="0.21595">
        <ele>65</ele>
        <time>2020-08-27T10:18:14Z</time>
      </trkpt>
      <trkpt lat="47.38337" lon="0.21591">
        <ele>65</ele>
        <time>2020-08-27T10:18:16Z</time>
      </trkpt>
      <trkpt lat="47.38335" lon="0.21588">
        <ele>65</ele>
        <time>2020-08-27T10:18:18Z</time>
      </trkpt>
      <trkpt lat="47.38333" lon="0.21585">
        <ele>65</ele>
        <time>2020-08-27T10:18:20Z</time>
      </trkpt>
      <trkpt lat="47.38331" lon="0.21581">
        <ele>66</ele>
        <time>2020-08-27T10:18:22Z</time>
      </trkpt>
      <trkpt lat="47.3833" lon="0.21578">
        <ele>66</ele>
        <time>2020-08-27T10:18:24Z</time>
      </trkpt>
      <trkpt lat="47.38328" lon="0.21575">
        <ele>66</ele>
        <time>2020-08-27T10:18:26Z</time>
      </trkpt>
      <trkpt lat="47.38326" lon="0.21572">
        <ele>66</ele>
        <time>2020-08-27T10:18:28Z</time>
      </trkpt>
      <trkpt lat="47.38325" lon="0.2157">
        <ele>66</ele>
        <time>2020-08-27T10:18:30Z</time>
      </trkpt>
      <trkpt lat="47.38324" lon="0.21566">
        <ele>67</ele>
        <time>2020-08-27T10:18:32Z</time>
      </trkpt>
      <trkpt lat="47.38322" lon="0.21564">
        <ele>67</ele>
        <time>2020-08-27T10:18:34Z</time>
      </trkpt>
      <trkpt lat="47.3832" lon="0.21561">
        <ele>67</ele>
        <time>2020-08-27T10:18:36Z</time>
      </trkpt>
      <trkpt lat="47.38319" lon="0.21558">
        <ele>67</ele>
        <time>2020-08-27T10:18:38Z</time>
      </trkpt>
      <trkpt lat="47.38317" lon="0.21555">
        <ele>67</ele>
        <time>2020-08-27T10:18:40Z</time>
      </trkpt>
      <trkpt lat="47.38316" lon="0.21553">
        <ele>67</ele>
        <time>2020-08-27T10:18:42Z</time>
      </trkpt>
      <trkpt lat="47.38314" lon="0.2155">
        <ele>67</ele>
        <time>2020-08-27T10:18:44Z</time>
      </trkpt>
      <trkpt lat="47.38313" lon="0.21547">
        <ele>67</ele>
        <time>2020-08-27T10:18:46Z</time>
      </trkpt>
      <trkpt lat="47.38312" lon="0.21544">
        <ele>67</ele>
        <time>2020-08-27T10:18:48Z</time>
      </trkpt>
      <trkpt lat="47.3831" lon="0.21541">
        <ele>67</ele>
        <time>2020-08-27T10:18:50Z</time>
      </trkpt>
      <trkpt lat="47.38309" lon="0.21538">
        <ele>67</ele>
        <time>2020-08-27T10:18:52Z</time>
      </trkpt>
      <trkpt lat="47.38308" lon="0.21535">
        <ele>67</ele>
        <time>2020-08-27T10:18:54Z</time>
      </trkpt>
      <trkpt lat="47.38306" lon="0.21532">
        <ele>67</ele>
        <time>2020-08-27T10:18:56Z</time>
      </trkpt>
      <trkpt lat="47.38305" lon="0.21529">
        <ele>68</ele>
        <time>2020-08-27T10:18:58Z</time>
      </trkpt>
      <trkpt lat="47.38303" lon="0.21526">
        <ele>68</ele>
        <time>2020-08-27T10:19:00Z</time>
      </trkpt>
      <trkpt lat="47.38301" lon="0.21523">
        <ele>68</ele>
        <time>2020-08-27T10:19:02Z</time>
      </trkpt>
      <trkpt lat="47.383" lon="0.2152">
        <ele>68</ele>
        <time>2020-08-27T10:19:04Z</time>
      </trkpt>
      <trkpt lat="47.38298" lon="0.21517">
        <ele>68</ele>
        <time>2020-08-27T10:19:06Z</time>
      </trkpt>
      <trkpt lat="47.38297" lon="0.21514">
        <ele>68</ele>
        <time>2020-08-27T10:19:08Z</time>
      </trkpt>
      <trkpt lat="47.38296" lon="0.2151">
        <ele>68</ele>
        <time>2020-08-27T10:19:10Z</time>
      </trkpt>
      <trkpt lat="47.38294" lon="0.21507">
        <ele>68</ele>
        <time>2020-08-27T10:19:12Z</time>
      </trkpt>
      <trkpt lat="47.38292" lon="0.21503">
        <ele>68</ele>
        <time>2020-08-27T10:19:14Z</time>
      </trkpt>
      <trkpt lat="47.38291" lon="0.215">
        <ele>68</ele>
        <time>2020-08-27T10:19:16Z</time>
      </trkpt>
      <trkpt lat="47.3829" lon="0.21496">
        <ele>68</ele>
        <time>2020-08-27T10:19:18Z</time>
      </trkpt>
      <trkpt lat="47.38289" lon="0.21492">
        <ele>68</ele>
        <time>2020-08-27T10:19:20Z</time>
      </trkpt>
      <trkpt lat="47.38287" lon="0.21489">
        <ele>68</ele>
        <time>2020-08-27T10:19:22Z</time>
      </trkpt>
      <trkpt lat="47.38286" lon="0.21485">
        <ele>68</ele>
        <time>2020-08-27T10:19:24Z</time>
      </trkpt>
      <trkpt lat="47.38285" lon="0.21481">
        <ele>68</ele>
        <time>2020-08-27T10:19:26Z</time>
      </trkpt>
      <trkpt lat="47.38284" lon="0.21478">
        <ele>68</ele>
        <time>2020-08-27T10:19:28Z</time>
      </trkpt>
      <trkpt lat="47.38283" lon="0.21474">
        <ele>68</ele>
        <time>2020-08-27T10:19:30Z</time>
      </trkpt>
      <trkpt lat="47.38282" lon="0.21471">
        <ele>68</ele>
        <time>2020-08-27T10:19:32Z</time>
      </trkpt>
      <trkpt lat="47.38282" lon="0.21467">
        <ele>68</ele>
        <time>2020-08-27T10:19:34Z</time>
      </trkpt>
      <trkpt lat="47.38282" lon="0.21464">
        <ele>68</ele>
        <time>2020-08-27T10:19:36Z</time>
      </trkpt>
      <trkpt lat="47.38281" lon="0.21461">
        <ele>68</ele>
        <time>2020-08-27T10:19:38Z</time>
      </trkpt>
      <trkpt lat="47.3828" lon="0.21458">
        <ele>68</ele>
        <time>2020-08-27T10:19:40Z</time>
      </trkpt>
      <trkpt lat="47.38279" lon="0.21455">
        <ele>68</ele>
        <time>2020-08-27T10:19:42Z</time>
      </trkpt>
      <trkpt lat="47.38278" lon="0.21451">
        <ele>68</ele>
        <time>2020-08-27T10:19:44Z</time>
      </trkpt>
      <trkpt lat="47.38277" lon="0.21449">
        <ele>69</ele>
        <time>2020-08-27T10:19:46Z</time>
      </trkpt>
      <trkpt lat="47.38276" lon="0.21445">
        <ele>69</ele>
        <time>2020-08-27T10:19:48Z</time>
      </trkpt>
      <trkpt lat="47.38276" lon="0.21441">
        <ele>69</ele>
        <time>2020-08-27T10:19:50Z</time>
      </trkpt>
      <trkpt lat="47.38275" lon="0.21437">
        <ele>69</ele>
        <time>2020-08-27T10:19:52Z</time>
      </trkpt>
      <trkpt lat="47.38274" lon="0.21433">
        <ele>69</ele>
        <time>2020-08-27T10:19:54Z</time>
      </trkpt>
      <trkpt lat="47.38273" lon="0.2143">
        <ele>70</ele>
        <time>2020-08-27T10:19:56Z</time>
      </trkpt>
      <trkpt lat="47.38272" lon="0.21426">
        <ele>70</ele>
        <time>2020-08-27T10:19:58Z</time>
      </trkpt>
      <trkpt lat="47.38271" lon="0.21422">
        <ele>70</ele>
        <time>2020-08-27T10:20:00Z</time>
      </trkpt>
      <trkpt lat="47.3827" lon="0.21417">
        <ele>70</ele>
        <time>2020-08-27T10:20:02Z</time>
      </trkpt>
      <trkpt lat="47.38269" lon="0.21414">
        <ele>71</ele>
        <time>2020-08-27T10:20:03Z</time>
      </trkpt>
      <trkpt lat="47.38268" lon="0.2141">
        <ele>71</ele>
        <time>2020-08-27T10:20:05Z</time>
      </trkpt>
      <trkpt lat="47.38268" lon="0.21405">
        <ele>71</ele>
        <time>2020-08-27T10:20:07Z</time>
      </trkpt>
      <trkpt lat="47.38267" lon="0.21402">
        <ele>71</ele>
        <time>2020-08-27T10:20:09Z</time>
      </trkpt>
      <trkpt lat="47.38267" lon="0.21399">
        <ele>72</ele>
        <time>2020-08-27T10:20:11Z</time>
      </trkpt>
      <trkpt lat="47.38265" lon="0.21395">
        <ele>72</ele>
        <time>2020-08-27T10:20:13Z</time>
      </trkpt>
      <trkpt lat="47.38264" lon="0.21391">
        <ele>72</ele>
        <time>2020-08-27T10:20:15Z</time>
      </trkpt>
      <trkpt lat="47.38264" lon="0.21387">
        <ele>73</ele>
        <time>2020-08-27T10:20:17Z</time>
      </trkpt>
      <trkpt lat="47.38262" lon="0.21384">
        <ele>73</ele>
        <time>2020-08-27T10:20:19Z</time>
      </trkpt>
      <trkpt lat="47.38262" lon="0.21381">
        <ele>73</ele>
        <time>2020-08-27T10:20:21Z</time>
      </trkpt>
      <trkpt lat="47.38261" lon="0.21377">
        <ele>73</ele>
        <time>2020-08-27T10:20:23Z</time>
      </trkpt>
      <trkpt lat="47.38261" lon="0.21373">
        <ele>73</ele>
        <time>2020-08-27T10:20:25Z</time>
      </trkpt>
      <trkpt lat="47.3826" lon="0.21368">
        <ele>73</ele>
        <time>2020-08-27T10:20:27Z</time>
      </trkpt>
      <trkpt lat="47.3826" lon="0.21364">
        <ele>72</ele>
        <time>2020-08-27T10:20:29Z</time>
      </trkpt>
      <trkpt lat="47.3826" lon="0.2136">
        <ele>72</ele>
        <time>2020-08-27T10:20:31Z</time>
      </trkpt>
      <trkpt lat="47.3826" lon="0.21356">
        <ele>72</ele>
        <time>2020-08-27T10:20:33Z</time>
      </trkpt>
      <trkpt lat="47.3826" lon="0.21352">
        <ele>73</ele>
        <time>2020-08-27T10:20:35Z</time>
      </trkpt>
      <trkpt lat="47.38261" lon="0.21347">
        <ele>73</ele>
        <time>2020-08-27T10:20:37Z</time>
      </trkpt>
      <trkpt lat="47.38261" lon="0.21342">
        <ele>73</ele>
        <time>2020-08-27T10:20:39Z</time>
      </trkpt>
      <trkpt lat="47.38261" lon="0.21337">
        <ele>73</ele>
        <time>2020-08-27T10:20:41Z</time>
      </trkpt>
      <trkpt lat="47.38262" lon="0.21335">
        <ele>73</ele>
        <time>2020-08-27T10:20:42Z</time>
      </trkpt>
      <trkpt lat="47.38262" lon="0.21332">
        <ele>73</ele>
        <time>2020-08-27T10:20:43Z</time>
      </trkpt>
      <trkpt lat="47.38263" lon="0.21327">
        <ele>73</ele>
        <time>2020-08-27T10:20:45Z</time>
      </trkpt>
      <trkpt lat="47.38264" lon="0.21323">
        <ele>73</ele>
        <time>2020-08-27T10:20:47Z</time>
      </trkpt>
      <trkpt lat="47.38265" lon="0.21319">
        <ele>72</ele>
        <time>2020-08-27T10:20:49Z</time>
      </trkpt>
      <trkpt lat="47.38266" lon="0.21315">
        <ele>72</ele>
        <time>2020-08-27T10:20:51Z</time>
      </trkpt>
      <trkpt lat="47.38268" lon="0.21311">
        <ele>72</ele>
        <time>2020-08-27T10:20:53Z</time>
      </trkpt>
      <trkpt lat="47.38268" lon="0.21307">
        <ele>72</ele>
        <time>2020-08-27T10:20:55Z</time>
      </trkpt>
      <trkpt lat="47.3827" lon="0.21304">
        <ele>72</ele>
        <time>2020-08-27T10:20:57Z</time>
      </trkpt>
      <trkpt lat="47.38271" lon="0.21301">
        <ele>72</ele>
        <time>2020-08-27T10:20:59Z</time>
      </trkpt>
      <trkpt lat="47.38273" lon="0.21298">
        <ele>72</ele>
        <time>2020-08-27T10:21:01Z</time>
      </trkpt>
      <trkpt lat="47.38276" lon="0.21295">
        <ele>72</ele>
        <time>2020-08-27T10:21:03Z</time>
      </trkpt>
      <trkpt lat="47.38277" lon="0.21292">
        <ele>72</ele>
        <time>2020-08-27T10:21:05Z</time>
      </trkpt>
      <trkpt lat="47.3828" lon="0.21288">
        <ele>72</ele>
        <time>2020-08-27T10:21:07Z</time>
      </trkpt>
      <trkpt lat="47.38282" lon="0.21285">
        <ele>72</ele>
        <time>2020-08-27T10:21:09Z</time>
      </trkpt>
      <trkpt lat="47.38284" lon="0.21283">
        <ele>72</ele>
        <time>2020-08-27T10:21:11Z</time>
      </trkpt>
      <trkpt lat="47.38286" lon="0.2128">
        <ele>72</ele>
        <time>2020-08-27T10:21:13Z</time>
      </trkpt>
      <trkpt lat="47.38289" lon="0.21278">
        <ele>72</ele>
        <time>2020-08-27T10:21:15Z</time>
      </trkpt>
      <trkpt lat="47.38291" lon="0.21276">
        <ele>71</ele>
        <time>2020-08-27T10:21:17Z</time>
      </trkpt>
      <trkpt lat="47.38293" lon="0.21273">
        <ele>71</ele>
        <time>2020-08-27T10:21:19Z</time>
      </trkpt>
      <trkpt lat="47.38294" lon="0.2127">
        <ele>71</ele>
        <time>2020-08-27T10:21:21Z</time>
      </trkpt>
      <trkpt lat="47.38297" lon="0.21269">
        <ele>71</ele>
        <time>2020-08-27T10:21:23Z</time>
      </trkpt>
      <trkpt lat="47.38299" lon="0.21268">
        <ele>71</ele>
        <time>2020-08-27T10:21:26Z</time>
      </trkpt>
      <trkpt lat="47.38303" lon="0.21268">
        <ele>71</ele>
        <time>2020-08-27T10:21:28Z</time>
      </trkpt>
      <trkpt lat="47.38306" lon="0.21266">
        <ele>71</ele>
        <time>2020-08-27T10:21:30Z</time>
      </trkpt>
      <trkpt lat="47.38309" lon="0.21265">
        <ele>71</ele>
        <time>2020-08-27T10:21:32Z</time>
      </trkpt>
      <trkpt lat="47.38311" lon="0.21264">
        <ele>71</ele>
        <time>2020-08-27T10:21:33Z</time>
      </trkpt>
      <trkpt lat="47.38313" lon="0.21264">
        <ele>71</ele>
        <time>2020-08-27T10:21:34Z</time>
      </trkpt>
      <trkpt lat="47.38316" lon="0.21263">
        <ele>71</ele>
        <time>2020-08-27T10:21:35Z</time>
      </trkpt>
      <trkpt lat="47.38318" lon="0.21263">
        <ele>71</ele>
        <time>2020-08-27T10:21:36Z</time>
      </trkpt>
      <trkpt lat="47.3832" lon="0.21262">
        <ele>70</ele>
        <time>2020-08-27T10:21:37Z</time>
      </trkpt>
      <trkpt lat="47.38321" lon="0.21262">
        <ele>70</ele>
        <time>2020-08-27T10:21:38Z</time>
      </trkpt>
      <trkpt lat="47.38323" lon="0.21262">
        <ele>70</ele>
        <time>2020-08-27T10:21:39Z</time>
      </trkpt>
      <trkpt lat="47.38327" lon="0.21261">
        <ele>70</ele>
        <time>2020-08-27T10:21:41Z</time>
      </trkpt>
      <trkpt lat="47.38329" lon="0.21259">
        <ele>70</ele>
        <time>2020-08-27T10:21:43Z</time>
      </trkpt>
      <trkpt lat="47.38331" lon="0.21259">
        <ele>70</ele>
        <time>2020-08-27T10:21:44Z</time>
      </trkpt>
      <trkpt lat="47.38334" lon="0.21257">
        <ele>70</ele>
        <time>2020-08-27T10:21:46Z</time>
      </trkpt>
      <trkpt lat="47.38336" lon="0.21256">
        <ele>70</ele>
        <time>2020-08-27T10:21:47Z</time>
      </trkpt>
      <trkpt lat="47.38339" lon="0.21255">
        <ele>69</ele>
        <time>2020-08-27T10:21:49Z</time>
      </trkpt>
      <trkpt lat="47.38341" lon="0.21252">
        <ele>69</ele>
        <time>2020-08-27T10:21:51Z</time>
      </trkpt>
      <trkpt lat="47.38343" lon="0.2125">
        <ele>69</ele>
        <time>2020-08-27T10:21:53Z</time>
      </trkpt>
      <trkpt lat="47.38345" lon="0.21247">
        <ele>68</ele>
        <time>2020-08-27T10:21:55Z</time>
      </trkpt>
      <trkpt lat="47.38348" lon="0.21245">
        <ele>68</ele>
        <time>2020-08-27T10:21:57Z</time>
      </trkpt>
      <trkpt lat="47.3835" lon="0.21242">
        <ele>68</ele>
        <time>2020-08-27T10:21:59Z</time>
      </trkpt>
      <trkpt lat="47.38351" lon="0.21238">
        <ele>67</ele>
        <time>2020-08-27T10:22:01Z</time>
      </trkpt>
      <trkpt lat="47.38352" lon="0.21234">
        <ele>67</ele>
        <time>2020-08-27T10:22:03Z</time>
      </trkpt>
      <trkpt lat="47.38352" lon="0.21228">
        <ele>66</ele>
        <time>2020-08-27T10:22:05Z</time>
      </trkpt>
      <trkpt lat="47.38351" lon="0.21224">
        <ele>66</ele>
        <time>2020-08-27T10:22:07Z</time>
      </trkpt>
      <trkpt lat="47.38351" lon="0.21219">
        <ele>66</ele>
        <time>2020-08-27T10:22:09Z</time>
      </trkpt>
      <trkpt lat="47.3835" lon="0.21215">
        <ele>66</ele>
        <time>2020-08-27T10:22:11Z</time>
      </trkpt>
      <trkpt lat="47.3835" lon="0.21212">
        <ele>66</ele>
        <time>2020-08-27T10:22:13Z</time>
      </trkpt>
      <trkpt lat="47.3835" lon="0.21209">
        <ele>66</ele>
        <time>2020-08-27T10:22:14Z</time>
      </trkpt>
      <trkpt lat="47.38351" lon="0.21204">
        <ele>65</ele>
        <time>2020-08-27T10:22:16Z</time>
      </trkpt>
      <trkpt lat="47.38352" lon="0.212">
        <ele>65</ele>
        <time>2020-08-27T10:22:18Z</time>
      </trkpt>
      <trkpt lat="47.38355" lon="0.21197">
        <ele>64</ele>
        <time>2020-08-27T10:22:20Z</time>
      </trkpt>
      <trkpt lat="47.38358" lon="0.21193">
        <ele>64</ele>
        <time>2020-08-27T10:22:22Z</time>
      </trkpt>
      <trkpt lat="47.38359" lon="0.21192">
        <ele>64</ele>
        <time>2020-08-27T10:22:23Z</time>
      </trkpt>
      <trkpt lat="47.38362" lon="0.2119">
        <ele>63</ele>
        <time>2020-08-27T10:22:25Z</time>
      </trkpt>
      <trkpt lat="47.38364" lon="0.21188">
        <ele>63</ele>
        <time>2020-08-27T10:22:27Z</time>
      </trkpt>
      <trkpt lat="47.38367" lon="0.21187">
        <ele>63</ele>
        <time>2020-08-27T10:22:29Z</time>
      </trkpt>
      <trkpt lat="47.3837" lon="0.21185">
        <ele>62</ele>
        <time>2020-08-27T10:22:31Z</time>
      </trkpt>
      <trkpt lat="47.38372" lon="0.21183">
        <ele>62</ele>
        <time>2020-08-27T10:22:33Z</time>
      </trkpt>
      <trkpt lat="47.38375" lon="0.21182">
        <ele>62</ele>
        <time>2020-08-27T10:22:35Z</time>
      </trkpt>
      <trkpt lat="47.38377" lon="0.2118">
        <ele>62</ele>
        <time>2020-08-27T10:22:37Z</time>
      </trkpt>
      <trkpt lat="47.3838" lon="0.21179">
        <ele>62</ele>
        <time>2020-08-27T10:22:39Z</time>
      </trkpt>
      <trkpt lat="47.38383" lon="0.21178">
        <ele>61</ele>
        <time>2020-08-27T10:22:41Z</time>
      </trkpt>
      <trkpt lat="47.38386" lon="0.21176">
        <ele>61</ele>
        <time>2020-08-27T10:22:43Z</time>
      </trkpt>
      <trkpt lat="47.38387" lon="0.21176">
        <ele>61</ele>
        <time>2020-08-27T10:22:44Z</time>
      </trkpt>
      <trkpt lat="47.38391" lon="0.21175">
        <ele>61</ele>
        <time>2020-08-27T10:22:46Z</time>
      </trkpt>
      <trkpt lat="47.38392" lon="0.21174">
        <ele>61</ele>
        <time>2020-08-27T10:22:47Z</time>
      </trkpt>
      <trkpt lat="47.38396" lon="0.21174">
        <ele>61</ele>
        <time>2020-08-27T10:22:49Z</time>
      </trkpt>
      <trkpt lat="47.38399" lon="0.21172">
        <ele>61</ele>
        <time>2020-08-27T10:22:51Z</time>
      </trkpt>
      <trkpt lat="47.38401" lon="0.2117">
        <ele>61</ele>
        <time>2020-08-27T10:22:53Z</time>
      </trkpt>
      <trkpt lat="47.38404" lon="0.21169">
        <ele>61</ele>
        <time>2020-08-27T10:22:55Z</time>
      </trkpt>
      <trkpt lat="47.38406" lon="0.21168">
        <ele>61</ele>
        <time>2020-08-27T10:22:56Z</time>
      </trkpt>
      <trkpt lat="47.38409" lon="0.21167">
        <ele>61</ele>
        <time>2020-08-27T10:22:58Z</time>
      </trkpt>
      <trkpt lat="47.38411" lon="0.21166">
        <ele>61</ele>
        <time>2020-08-27T10:23:00Z</time>
      </trkpt>
      <trkpt lat="47.38413" lon="0.21165">
        <ele>61</ele>
        <time>2020-08-27T10:23:02Z</time>
      </trkpt>
      <trkpt lat="47.38415" lon="0.21164">
        <ele>61</ele>
        <time>2020-08-27T10:23:04Z</time>
      </trkpt>
      <trkpt lat="47.38418" lon="0.21163">
        <ele>61</ele>
        <time>2020-08-27T10:23:06Z</time>
      </trkpt>
      <trkpt lat="47.38421" lon="0.21162">
        <ele>61</ele>
        <time>2020-08-27T10:23:08Z</time>
      </trkpt>
      <trkpt lat="47.38424" lon="0.2116">
        <ele>61</ele>
        <time>2020-08-27T10:23:10Z</time>
      </trkpt>
      <trkpt lat="47.38427" lon="0.2116">
        <ele>61</ele>
        <time>2020-08-27T10:23:12Z</time>
      </trkpt>
      <trkpt lat="47.3843" lon="0.2116">
        <ele>61</ele>
        <time>2020-08-27T10:23:14Z</time>
      </trkpt>
      <trkpt lat="47.38433" lon="0.2116">
        <ele>61</ele>
        <time>2020-08-27T10:23:16Z</time>
      </trkpt>
      <trkpt lat="47.38436" lon="0.21159">
        <ele>61</ele>
        <time>2020-08-27T10:23:18Z</time>
      </trkpt>
      <trkpt lat="47.38439" lon="0.21158">
        <ele>62</ele>
        <time>2020-08-27T10:23:20Z</time>
      </trkpt>
      <trkpt lat="47.38443" lon="0.21158">
        <ele>62</ele>
        <time>2020-08-27T10:23:22Z</time>
      </trkpt>
      <trkpt lat="47.38445" lon="0.21157">
        <ele>62</ele>
        <time>2020-08-27T10:23:23Z</time>
      </trkpt>
      <trkpt lat="47.38448" lon="0.21157">
        <ele>62</ele>
        <time>2020-08-27T10:23:25Z</time>
      </trkpt>
      <trkpt lat="47.38451" lon="0.21156">
        <ele>62</ele>
        <time>2020-08-27T10:23:27Z</time>
      </trkpt>
      <trkpt lat="47.38454" lon="0.21156">
        <ele>63</ele>
        <time>2020-08-27T10:23:29Z</time>
      </trkpt>
      <trkpt lat="47.38457" lon="0.21155">
        <ele>63</ele>
        <time>2020-08-27T10:23:31Z</time>
      </trkpt>
      <trkpt lat="47.3846" lon="0.21155">
        <ele>63</ele>
        <time>2020-08-27T10:23:33Z</time>
      </trkpt>
      <trkpt lat="47.38463" lon="0.21154">
        <ele>63</ele>
        <time>2020-08-27T10:23:35Z</time>
      </trkpt>
      <trkpt lat="47.38466" lon="0.21153">
        <ele>64</ele>
        <time>2020-08-27T10:23:37Z</time>
      </trkpt>
      <trkpt lat="47.38469" lon="0.21153">
        <ele>64</ele>
        <time>2020-08-27T10:23:39Z</time>
      </trkpt>
      <trkpt lat="47.38472" lon="0.21151">
        <ele>64</ele>
        <time>2020-08-27T10:23:41Z</time>
      </trkpt>
      <trkpt lat="47.38475" lon="0.21151">
        <ele>64</ele>
        <time>2020-08-27T10:23:43Z</time>
      </trkpt>
      <trkpt lat="47.38478" lon="0.2115">
        <ele>64</ele>
        <time>2020-08-27T10:23:45Z</time>
      </trkpt>
      <trkpt lat="47.3848" lon="0.2115">
        <ele>64</ele>
        <time>2020-08-27T10:23:47Z</time>
      </trkpt>
      <trkpt lat="47.38482" lon="0.21149">
        <ele>64</ele>
        <time>2020-08-27T10:23:49Z</time>
      </trkpt>
      <trkpt lat="47.38485" lon="0.21148">
        <ele>64</ele>
        <time>2020-08-27T10:23:51Z</time>
      </trkpt>
      <trkpt lat="47.38487" lon="0.21147">
        <ele>65</ele>
        <time>2020-08-27T10:23:53Z</time>
      </trkpt>
      <trkpt lat="47.3849" lon="0.21146">
        <ele>65</ele>
        <time>2020-08-27T10:23:55Z</time>
      </trkpt>
      <trkpt lat="47.38492" lon="0.21146">
        <ele>65</ele>
        <time>2020-08-27T10:23:57Z</time>
      </trkpt>
      <trkpt lat="47.38495" lon="0.21144">
        <ele>65</ele>
        <time>2020-08-27T10:23:59Z</time>
      </trkpt>
      <trkpt lat="47.38498" lon="0.21143">
        <ele>65</ele>
        <time>2020-08-27T10:24:01Z</time>
      </trkpt>
      <trkpt lat="47.38501" lon="0.21142">
        <ele>65</ele>
        <time>2020-08-27T10:24:03Z</time>
      </trkpt>
      <trkpt lat="47.38505" lon="0.21143">
        <ele>65</ele>
        <time>2020-08-27T10:24:05Z</time>
      </trkpt>
      <trkpt lat="47.38509" lon="0.21144">
        <ele>65</ele>
        <time>2020-08-27T10:24:07Z</time>
      </trkpt>
      <trkpt lat="47.38511" lon="0.21143">
        <ele>65</ele>
        <time>2020-08-27T10:24:08Z</time>
      </trkpt>
      <trkpt lat="47.38513" lon="0.21142">
        <ele>65</ele>
        <time>2020-08-27T10:24:10Z</time>
      </trkpt>
      <trkpt lat="47.38515" lon="0.21142">
        <ele>65</ele>
        <time>2020-08-27T10:24:12Z</time>
      </trkpt>
      <trkpt lat="47.38517" lon="0.21141">
        <ele>65</ele>
        <time>2020-08-27T10:24:14Z</time>
      </trkpt>
      <trkpt lat="47.38519" lon="0.2114">
        <ele>65</ele>
        <time>2020-08-27T10:24:16Z</time>
      </trkpt>
      <trkpt lat="47.38522" lon="0.21139">
        <ele>65</ele>
        <time>2020-08-27T10:24:18Z</time>
      </trkpt>
      <trkpt lat="47.38525" lon="0.21139">
        <ele>65</ele>
        <time>2020-08-27T10:24:20Z</time>
      </trkpt>
      <trkpt lat="47.38528" lon="0.21138">
        <ele>65</ele>
        <time>2020-08-27T10:24:22Z</time>
      </trkpt>
      <trkpt lat="47.38531" lon="0.21138">
        <ele>65</ele>
        <time>2020-08-27T10:24:24Z</time>
      </trkpt>
      <trkpt lat="47.38532" lon="0.21136">
        <ele>65</ele>
        <time>2020-08-27T10:24:26Z</time>
      </trkpt>
      <trkpt lat="47.38534" lon="0.21134">
        <ele>65</ele>
        <time>2020-08-27T10:24:28Z</time>
      </trkpt>
      <trkpt lat="47.38536" lon="0.21133">
        <ele>65</ele>
        <time>2020-08-27T10:24:30Z</time>
      </trkpt>
      <trkpt lat="47.38538" lon="0.21132">
        <ele>65</ele>
        <time>2020-08-27T10:24:32Z</time>
      </trkpt>
      <trkpt lat="47.38541" lon="0.21131">
        <ele>65</ele>
        <time>2020-08-27T10:24:34Z</time>
      </trkpt>
      <trkpt lat="47.38544" lon="0.21132">
        <ele>65</ele>
        <time>2020-08-27T10:24:36Z</time>
      </trkpt>
      <trkpt lat="47.38547" lon="0.21132">
        <ele>65</ele>
        <time>2020-08-27T10:24:38Z</time>
      </trkpt>
      <trkpt lat="47.3855" lon="0.21133">
        <ele>65</ele>
        <time>2020-08-27T10:24:40Z</time>
      </trkpt>
      <trkpt lat="47.38554" lon="0.21134">
        <ele>65</ele>
        <time>2020-08-27T10:24:42Z</time>
      </trkpt>
      <trkpt lat="47.38556" lon="0.21134">
        <ele>65</ele>
        <time>2020-08-27T10:24:43Z</time>
      </trkpt>
      <trkpt lat="47.38558" lon="0.21134">
        <ele>65</ele>
        <time>2020-08-27T10:24:44Z</time>
      </trkpt>
      <trkpt lat="47.3856" lon="0.21134">
        <ele>65</ele>
        <time>2020-08-27T10:24:45Z</time>
      </trkpt>
      <trkpt lat="47.38562" lon="0.21134">
        <ele>65</ele>
        <time>2020-08-27T10:24:46Z</time>
      </trkpt>
      <trkpt lat="47.38565" lon="0.21135">
        <ele>65</ele>
        <time>2020-08-27T10:24:48Z</time>
      </trkpt>
      <trkpt lat="47.38567" lon="0.21135">
        <ele>65</ele>
        <time>2020-08-27T10:24:50Z</time>
      </trkpt>
      <trkpt lat="47.3857" lon="0.21137">
        <ele>65</ele>
        <time>2020-08-27T10:24:52Z</time>
      </trkpt>
      <trkpt lat="47.38573" lon="0.21139">
        <ele>65</ele>
        <time>2020-08-27T10:24:54Z</time>
      </trkpt>
      <trkpt lat="47.38577" lon="0.2114">
        <ele>65</ele>
        <time>2020-08-27T10:24:56Z</time>
      </trkpt>
      <trkpt lat="47.38579" lon="0.21141">
        <ele>65</ele>
        <time>2020-08-27T10:24:58Z</time>
      </trkpt>
      <trkpt lat="47.38582" lon="0.21142">
        <ele>66</ele>
        <time>2020-08-27T10:25:00Z</time>
      </trkpt>
      <trkpt lat="47.38585" lon="0.21142">
        <ele>66</ele>
        <time>2020-08-27T10:25:02Z</time>
      </trkpt>
      <trkpt lat="47.38587" lon="0.21141">
        <ele>66</ele>
        <time>2020-08-27T10:25:04Z</time>
      </trkpt>
      <trkpt lat="47.3859" lon="0.21141">
        <ele>66</ele>
        <time>2020-08-27T10:25:06Z</time>
      </trkpt>
      <trkpt lat="47.38592" lon="0.2114">
        <ele>66</ele>
        <time>2020-08-27T10:25:07Z</time>
      </trkpt>
      <trkpt lat="47.38595" lon="0.2114">
        <ele>66</ele>
        <time>2020-08-27T10:25:09Z</time>
      </trkpt>
      <trkpt lat="47.38598" lon="0.2114">
        <ele>66</ele>
        <time>2020-08-27T10:25:11Z</time>
      </trkpt>
      <trkpt lat="47.386" lon="0.2114">
        <ele>66</ele>
        <time>2020-08-27T10:25:13Z</time>
      </trkpt>
      <trkpt lat="47.38602" lon="0.21139">
        <ele>66</ele>
        <time>2020-08-27T10:25:15Z</time>
      </trkpt>
      <trkpt lat="47.38605" lon="0.21139">
        <ele>66</ele>
        <time>2020-08-27T10:25:17Z</time>
      </trkpt>
      <trkpt lat="47.38607" lon="0.21137">
        <ele>66</ele>
        <time>2020-08-27T10:25:19Z</time>
      </trkpt>
      <trkpt lat="47.38609" lon="0.21135">
        <ele>66</ele>
        <time>2020-08-27T10:25:21Z</time>
      </trkpt>
      <trkpt lat="47.3861" lon="0.21132">
        <ele>66</ele>
        <time>2020-08-27T10:25:26Z</time>
      </trkpt>
      <trkpt lat="47.3861" lon="0.21129">
        <ele>66</ele>
        <time>2020-08-27T10:25:29Z</time>
      </trkpt>
      <trkpt lat="47.38611" lon="0.21126">
        <ele>66</ele>
        <time>2020-08-27T10:25:31Z</time>
      </trkpt>
      <trkpt lat="47.38611" lon="0.21123">
        <ele>66</ele>
        <time>2020-08-27T10:25:33Z</time>
      </trkpt>
      <trkpt lat="47.38612" lon="0.21119">
        <ele>66</ele>
        <time>2020-08-27T10:25:35Z</time>
      </trkpt>
      <trkpt lat="47.38612" lon="0.21116">
        <ele>66</ele>
        <time>2020-08-27T10:25:37Z</time>
      </trkpt>
      <trkpt lat="47.38613" lon="0.21113">
        <ele>65</ele>
        <time>2020-08-27T10:25:39Z</time>
      </trkpt>
      <trkpt lat="47.38613" lon="0.21109">
        <ele>65</ele>
        <time>2020-08-27T10:25:41Z</time>
      </trkpt>
      <trkpt lat="47.38614" lon="0.21106">
        <ele>65</ele>
        <time>2020-08-27T10:25:43Z</time>
      </trkpt>
      <trkpt lat="47.38614" lon="0.21103">
        <ele>65</ele>
        <time>2020-08-27T10:25:44Z</time>
      </trkpt>
      <trkpt lat="47.38615" lon="0.211">
        <ele>65</ele>
        <time>2020-08-27T10:25:46Z</time>
      </trkpt>
      <trkpt lat="47.38615" lon="0.21095">
        <ele>65</ele>
        <time>2020-08-27T10:25:48Z</time>
      </trkpt>
      <trkpt lat="47.38616" lon="0.21091">
        <ele>65</ele>
        <time>2020-08-27T10:25:50Z</time>
      </trkpt>
      <trkpt lat="47.38616" lon="0.21087">
        <ele>65</ele>
        <time>2020-08-27T10:25:52Z</time>
      </trkpt>
      <trkpt lat="47.38616" lon="0.21083">
        <ele>65</ele>
        <time>2020-08-27T10:25:54Z</time>
      </trkpt>
      <trkpt lat="47.38617" lon="0.21081">
        <ele>65</ele>
        <time>2020-08-27T10:25:56Z</time>
      </trkpt>
      <trkpt lat="47.38618" lon="0.21076">
        <ele>65</ele>
        <time>2020-08-27T10:25:58Z</time>
      </trkpt>
      <trkpt lat="47.38619" lon="0.21072">
        <ele>65</ele>
        <time>2020-08-27T10:26:00Z</time>
      </trkpt>
      <trkpt lat="47.38619" lon="0.2107">
        <ele>65</ele>
        <time>2020-08-27T10:26:02Z</time>
      </trkpt>
      <trkpt lat="47.3862" lon="0.21066">
        <ele>65</ele>
        <time>2020-08-27T10:26:04Z</time>
      </trkpt>
      <trkpt lat="47.3862" lon="0.21063">
        <ele>65</ele>
        <time>2020-08-27T10:26:06Z</time>
      </trkpt>
      <trkpt lat="47.3862" lon="0.2106">
        <ele>65</ele>
        <time>2020-08-27T10:26:08Z</time>
      </trkpt>
      <trkpt lat="47.3862" lon="0.21057">
        <ele>65</ele>
        <time>2020-08-27T10:26:11Z</time>
      </trkpt>
      <trkpt lat="47.3862" lon="0.21053">
        <ele>65</ele>
        <time>2020-08-27T10:26:14Z</time>
      </trkpt>
      <trkpt lat="47.38621" lon="0.21049">
        <ele>65</ele>
        <time>2020-08-27T10:26:17Z</time>
      </trkpt>
      <trkpt lat="47.38622" lon="0.21045">
        <ele>65</ele>
        <time>2020-08-27T10:26:19Z</time>
      </trkpt>
      <trkpt lat="47.38622" lon="0.21041">
        <ele>65</ele>
        <time>2020-08-27T10:26:21Z</time>
      </trkpt>
      <trkpt lat="47.38623" lon="0.21038">
        <ele>65</ele>
        <time>2020-08-27T10:26:22Z</time>
      </trkpt>
      <trkpt lat="47.38623" lon="0.21033">
        <ele>65</ele>
        <time>2020-08-27T10:26:24Z</time>
      </trkpt>
      <trkpt lat="47.38623" lon="0.21029">
        <ele>65</ele>
        <time>2020-08-27T10:26:26Z</time>
      </trkpt>
      <trkpt lat="47.38624" lon="0.21025">
        <ele>64</ele>
        <time>2020-08-27T10:26:28Z</time>
      </trkpt>
      <trkpt lat="47.38624" lon="0.21022">
        <ele>64</ele>
        <time>2020-08-27T10:26:30Z</time>
      </trkpt>
      <trkpt lat="47.38625" lon="0.21018">
        <ele>64</ele>
        <time>2020-08-27T10:26:32Z</time>
      </trkpt>
      <trkpt lat="47.38625" lon="0.21014">
        <ele>64</ele>
        <time>2020-08-27T10:26:34Z</time>
      </trkpt>
      <trkpt lat="47.38626" lon="0.21009">
        <ele>64</ele>
        <time>2020-08-27T10:26:36Z</time>
      </trkpt>
      <trkpt lat="47.38626" lon="0.21006">
        <ele>64</ele>
        <time>2020-08-27T10:26:38Z</time>
      </trkpt>
      <trkpt lat="47.38626" lon="0.21003">
        <ele>64</ele>
        <time>2020-08-27T10:26:40Z</time>
      </trkpt>
      <trkpt lat="47.38627" lon="0.20999">
        <ele>63</ele>
        <time>2020-08-27T10:26:42Z</time>
      </trkpt>
      <trkpt lat="47.38628" lon="0.20996">
        <ele>63</ele>
        <time>2020-08-27T10:26:44Z</time>
      </trkpt>
      <trkpt lat="47.38629" lon="0.20992">
        <ele>63</ele>
        <time>2020-08-27T10:26:46Z</time>
      </trkpt>
      <trkpt lat="47.38631" lon="0.2099">
        <ele>63</ele>
        <time>2020-08-27T10:26:48Z</time>
      </trkpt>
    </trkseg>
  </trk>
</gpx>